<?xml version='1.0' encoding='UTF-8'?><gpx version="1.1" creator="JPX - https://github.com/jenetics/jpx" xmlns="http://www.topografix.com/GPX/1/1"><trk><trkseg><trkpt lat="40.740594644309844" lon="8.528429007919517"><ele>150.0</ele><time>2026-04-25T07:48:49Z</time></trkpt><trkpt lat="40.740618772541275" lon="8.528338038761415"><ele>150.0</ele><time>2026-04-25T07:48:50Z</time></trkpt><trkpt lat="40.74065415476132" lon="8.528256737310274"><ele>150.0</ele><time>2026-04-25T07:48:52Z</time></trkpt><trkpt lat="40.74076593788603" lon="8.528192276483116"><ele>150.0</ele><time>2026-04-25T07:48:55Z</time></trkpt><trkpt lat="40.740850275893116" lon="8.528201831176656"><ele>150.0</ele><time>2026-04-25T07:48:56Z</time></trkpt><trkpt lat="40.74092871140285" lon="8.528236515872345"><ele>150.0</ele><time>2026-04-25T07:48:57Z</time></trkpt><trkpt lat="40.740994767358174" lon="8.52823880803064"><ele>149.99999999999997</ele><time>2026-04-25T07:48:58Z</time></trkpt><trkpt lat="40.74104622619869" lon="8.52818706122727"><ele>150.0</ele><time>2026-04-25T07:48:59Z</time></trkpt><trkpt lat="40.74107663015291" lon="8.528108094905376"><ele>150.0</ele><time>2026-04-25T07:49:00Z</time></trkpt><trkpt lat="40.74107830582032" lon="8.52801411954223"><ele>150.0</ele><time>2026-04-25T07:49:01Z</time></trkpt><trkpt lat="40.74104848078821" lon="8.527931234490877"><ele>150.0</ele><time>2026-04-25T07:49:02Z</time></trkpt><trkpt lat="40.740984925265856" lon="8.527881239765177"><ele>149.99999999999997</ele><time>2026-04-25T07:49:03Z</time></trkpt><trkpt lat="40.74090350999078" lon="8.527877210620389"><ele>150.0</ele><time>2026-04-25T07:49:04Z</time></trkpt><trkpt lat="40.74080026084687" lon="8.527912691585804"><ele>150.0</ele><time>2026-04-25T07:49:05Z</time></trkpt><trkpt lat="40.74067608754605" lon="8.527955678183373"><ele>150.0</ele><time>2026-04-25T07:49:06Z</time></trkpt><trkpt lat="40.74055307913592" lon="8.527980081820429"><ele>150.0</ele><time>2026-04-25T07:49:07Z</time></trkpt><trkpt lat="40.74043077578888" lon="8.527994994854751"><ele>150.0</ele><time>2026-04-25T07:49:08Z</time></trkpt><trkpt lat="40.74030165770022" lon="8.52800555001444"><ele>151.25</ele><time>2026-04-25T07:49:09Z</time></trkpt><trkpt lat="40.74016395217698" lon="8.528018712123691"><ele>152.5</ele><time>2026-04-25T07:49:10.001Z</time></trkpt><trkpt lat="40.74001855522014" lon="8.528029738743529"><ele>153.75</ele><time>2026-04-25T07:49:11.001Z</time></trkpt><trkpt lat="40.7398626951345" lon="8.528037809922413"><ele>155.0</ele><time>2026-04-25T07:49:12.001Z</time></trkpt><trkpt lat="40.73970579410544" lon="8.528046099858457"><ele>155.0</ele><time>2026-04-25T07:49:13.001Z</time></trkpt><trkpt lat="40.739547622314234" lon="8.528055028316903"><ele>155.0</ele><time>2026-04-25T07:49:14.001Z</time></trkpt><trkpt lat="40.73938196214236" lon="8.528059580183925"><ele>155.0</ele><time>2026-04-25T07:49:15.001Z</time></trkpt><trkpt lat="40.73920721959431" lon="8.528058391079922"><ele>155.0</ele><time>2026-04-25T07:49:16.001Z</time></trkpt><trkpt lat="40.73902360708722" lon="8.528053960878742"><ele>155.0</ele><time>2026-04-25T07:49:17.001Z</time></trkpt><trkpt lat="40.738850562803734" lon="8.528049214453523"><ele>155.0</ele><time>2026-04-25T07:49:18.001Z</time></trkpt><trkpt lat="40.73869552328723" lon="8.528044856258388"><ele>155.0</ele><time>2026-04-25T07:49:19.001Z</time></trkpt><trkpt lat="40.73855366767587" lon="8.528042581932583"><ele>155.0</ele><time>2026-04-25T07:49:20.001Z</time></trkpt><trkpt lat="40.73844772099447" lon="8.528035517014885"><ele>155.0</ele><time>2026-04-25T07:49:21.001Z</time></trkpt><trkpt lat="40.738363651284345" lon="8.528008413573025"><ele>155.0</ele><time>2026-04-25T07:49:22.001Z</time></trkpt><trkpt lat="40.73828785526643" lon="8.527962205087205"><ele>155.0</ele><time>2026-04-25T07:49:23.001Z</time></trkpt><trkpt lat="40.73821539362116" lon="8.527919670023298"><ele>155.0</ele><time>2026-04-25T07:49:24.001Z</time></trkpt><trkpt lat="40.73813476150203" lon="8.527920934442598"><ele>155.0</ele><time>2026-04-25T07:49:25.001Z</time></trkpt><trkpt lat="40.73804807686154" lon="8.527967297276325"><ele>155.0</ele><time>2026-04-25T07:49:26.001Z</time></trkpt><trkpt lat="40.73795469391779" lon="8.528028077095012"><ele>155.0</ele><time>2026-04-25T07:49:27.001Z</time></trkpt><trkpt lat="40.73784086411868" lon="8.528044897505012"><ele>155.0</ele><time>2026-04-25T07:49:28.001Z</time></trkpt><trkpt lat="40.73771519356718" lon="8.528037359978798"><ele>155.0</ele><time>2026-04-25T07:49:29.001Z</time></trkpt><trkpt lat="40.737586747421126" lon="8.528034018754754"><ele>155.0</ele><time>2026-04-25T07:49:30.001Z</time></trkpt><trkpt lat="40.737452733011146" lon="8.528030899613794"><ele>155.0</ele><time>2026-04-25T07:49:31.001Z</time></trkpt><trkpt lat="40.73732336868085" lon="8.528027938760488"><ele>155.0</ele><time>2026-04-25T07:49:32.001Z</time></trkpt><trkpt lat="40.737202621290855" lon="8.528026383239842"><ele>155.0</ele><time>2026-04-25T07:49:33.001Z</time></trkpt><trkpt lat="40.737089258405554" lon="8.528027884107859"><ele>155.0</ele><time>2026-04-25T07:49:34.001Z</time></trkpt><trkpt lat="40.73698320016317" lon="8.528026845034063"><ele>155.0</ele><time>2026-04-25T07:49:35.001Z</time></trkpt><trkpt lat="40.736865860371" lon="8.52802164229939"><ele>155.0</ele><time>2026-04-25T07:49:36.001Z</time></trkpt><trkpt lat="40.736737492637545" lon="8.528018936879528"><ele>154.5</ele><time>2026-04-25T07:49:37.001Z</time></trkpt><trkpt lat="40.736603942836744" lon="8.528018804653527"><ele>154.0</ele><time>2026-04-25T07:49:38.001Z</time></trkpt><trkpt lat="40.73648244151473" lon="8.528016524209402"><ele>153.5</ele><time>2026-04-25T07:49:39.001Z</time></trkpt><trkpt lat="40.73636793172122" lon="8.528016412200127"><ele>153.0</ele><time>2026-04-25T07:49:40Z</time></trkpt><trkpt lat="40.736261607285144" lon="8.528017477015288"><ele>153.0</ele><time>2026-04-25T07:49:41Z</time></trkpt><trkpt lat="40.73616399143125" lon="8.528017179667186"><ele>153.0</ele><time>2026-04-25T07:49:42Z</time></trkpt><trkpt lat="40.73607316323354" lon="8.528016658681222"><ele>153.0</ele><time>2026-04-25T07:49:43Z</time></trkpt><trkpt lat="40.735990954749155" lon="8.528015599645506"><ele>153.0</ele><time>2026-04-25T07:49:44Z</time></trkpt><trkpt lat="40.735913103993646" lon="8.528012969552417"><ele>153.0</ele><time>2026-04-25T07:49:45Z</time></trkpt><trkpt lat="40.73584025672644" lon="8.528008330376473"><ele>153.0</ele><time>2026-04-25T07:49:46Z</time></trkpt><trkpt lat="40.735773280118735" lon="8.528004414220662"><ele>152.4</ele><time>2026-04-25T07:49:47Z</time></trkpt><trkpt lat="40.7356503748014" lon="8.527992115713039"><ele>151.8</ele><time>2026-04-25T07:49:49Z</time></trkpt><trkpt lat="40.73557184080187" lon="8.527975602590828"><ele>151.2</ele><time>2026-04-25T07:49:50Z</time></trkpt><trkpt lat="40.73548645947363" lon="8.527970653774606"><ele>150.6</ele><time>2026-04-25T07:49:51Z</time></trkpt><trkpt lat="40.735396100061244" lon="8.527993048686353"><ele>150.0</ele><time>2026-04-25T07:49:52Z</time></trkpt><trkpt lat="40.735294119756965" lon="8.528023812186747"><ele>150.5</ele><time>2026-04-25T07:49:53Z</time></trkpt><trkpt lat="40.73517799499082" lon="8.52803978059377"><ele>151.0</ele><time>2026-04-25T07:49:54Z</time></trkpt><trkpt lat="40.735066568805614" lon="8.528036414985399"><ele>151.5</ele><time>2026-04-25T07:49:55Z</time></trkpt><trkpt lat="40.73494236313836" lon="8.528018447612956"><ele>152.0</ele><time>2026-04-25T07:49:56Z</time></trkpt><trkpt lat="40.73481098278852" lon="8.527986072114464"><ele>152.0</ele><time>2026-04-25T07:49:57Z</time></trkpt><trkpt lat="40.734667382168894" lon="8.52794540819541"><ele>152.0</ele><time>2026-04-25T07:49:58Z</time></trkpt><trkpt lat="40.7345273535619" lon="8.527911436017007"><ele>152.0</ele><time>2026-04-25T07:49:59Z</time></trkpt><trkpt lat="40.734381484268816" lon="8.527884034019806"><ele>152.0</ele><time>2026-04-25T07:50:00Z</time></trkpt><trkpt lat="40.73423219880031" lon="8.527870147296431"><ele>150.33333333333331</ele><time>2026-04-25T07:50:01Z</time></trkpt><trkpt lat="40.73408230026481" lon="8.52787739732589"><ele>148.66666666666666</ele><time>2026-04-25T07:50:02Z</time></trkpt><trkpt lat="40.73392803449665" lon="8.527894608440938"><ele>147.0</ele><time>2026-04-25T07:50:03Z</time></trkpt><trkpt lat="40.73376996979843" lon="8.527916484445782"><ele>147.0</ele><time>2026-04-25T07:50:04Z</time></trkpt><trkpt lat="40.733612115304325" lon="8.527942573565968"><ele>147.0</ele><time>2026-04-25T07:50:05Z</time></trkpt><trkpt lat="40.73345200322058" lon="8.527970026548552"><ele>147.0</ele><time>2026-04-25T07:50:06Z</time></trkpt><trkpt lat="40.73328919078655" lon="8.527995161789413"><ele>146.0</ele><time>2026-04-25T07:50:07Z</time></trkpt><trkpt lat="40.73312404944622" lon="8.528023360903564"><ele>145.0</ele><time>2026-04-25T07:50:08Z</time></trkpt><trkpt lat="40.73295823967211" lon="8.528053300619272"><ele>144.0</ele><time>2026-04-25T07:50:09Z</time></trkpt><trkpt lat="40.73279617533034" lon="8.528082673704354"><ele>143.33333333333334</ele><time>2026-04-25T07:50:10Z</time></trkpt><trkpt lat="40.73263029526223" lon="8.528112100926137"><ele>142.66666666666669</ele><time>2026-04-25T07:50:11Z</time></trkpt><trkpt lat="40.7324633492701" lon="8.528141993414383"><ele>142.0</ele><time>2026-04-25T07:50:12Z</time></trkpt><trkpt lat="40.732292831012586" lon="8.528172674086472"><ele>142.0</ele><time>2026-04-25T07:50:13Z</time></trkpt><trkpt lat="40.73211931350185" lon="8.528201355279434"><ele>142.0</ele><time>2026-04-25T07:50:14Z</time></trkpt><trkpt lat="40.731943507754636" lon="8.528231004974806"><ele>142.0</ele><time>2026-04-25T07:50:15Z</time></trkpt><trkpt lat="40.731774290907424" lon="8.528261406706024"><ele>141.66666666666669</ele><time>2026-04-25T07:50:16Z</time></trkpt><trkpt lat="40.73160891531527" lon="8.528287902846762"><ele>141.33333333333334</ele><time>2026-04-25T07:50:17Z</time></trkpt><trkpt lat="40.73144899974375" lon="8.52831399772382"><ele>141.0</ele><time>2026-04-25T07:50:18Z</time></trkpt><trkpt lat="40.73129649228501" lon="8.528350474155374"><ele>141.0</ele><time>2026-04-25T07:50:19Z</time></trkpt><trkpt lat="40.731150415875426" lon="8.528399127806102"><ele>141.0</ele><time>2026-04-25T07:50:20Z</time></trkpt><trkpt lat="40.73101259665054" lon="8.52846127441519"><ele>141.0</ele><time>2026-04-25T07:50:21Z</time></trkpt><trkpt lat="40.73088230374863" lon="8.528536644444626"><ele>141.0</ele><time>2026-04-25T07:50:22Z</time></trkpt><trkpt lat="40.73076158823462" lon="8.528625795532086"><ele>139.75</ele><time>2026-04-25T07:50:23Z</time></trkpt><trkpt lat="40.73065210234077" lon="8.528731072621047"><ele>138.5</ele><time>2026-04-25T07:50:24Z</time></trkpt><trkpt lat="40.730553363743475" lon="8.528847363665703"><ele>137.25</ele><time>2026-04-25T07:50:25Z</time></trkpt><trkpt lat="40.73046989413422" lon="8.52897798165936"><ele>136.0</ele><time>2026-04-25T07:50:26Z</time></trkpt><trkpt lat="40.73039945878943" lon="8.529118995887389"><ele>136.0</ele><time>2026-04-25T07:50:27Z</time></trkpt><trkpt lat="40.730344176208135" lon="8.529266081497054"><ele>136.0</ele><time>2026-04-25T07:50:28Z</time></trkpt><trkpt lat="40.730301307068935" lon="8.529416305677193"><ele>136.0</ele><time>2026-04-25T07:50:29Z</time></trkpt><trkpt lat="40.730267648442315" lon="8.529564433438123"><ele>136.0</ele><time>2026-04-25T07:50:30Z</time></trkpt><trkpt lat="40.73026526215861" lon="8.529703903400046"><ele>135.4</ele><time>2026-04-25T07:50:31Z</time></trkpt><trkpt lat="40.73024945829214" lon="8.529828044216396"><ele>134.8</ele><time>2026-04-25T07:50:32Z</time></trkpt><trkpt lat="40.73021731718801" lon="8.529931866080947"><ele>134.20000000000002</ele><time>2026-04-25T07:50:33Z</time></trkpt><trkpt lat="40.730163087882985" lon="8.530022565536129"><ele>133.6</ele><time>2026-04-25T07:50:34Z</time></trkpt><trkpt lat="40.730111601026564" lon="8.530101907398699"><ele>133.0</ele><time>2026-04-25T07:50:35Z</time></trkpt><trkpt lat="40.72995780612106" lon="8.530114236374947"><ele>132.5</ele><time>2026-04-25T07:50:36Z</time></trkpt><trkpt lat="40.729850321913226" lon="8.530104781891948"><ele>132.0</ele><time>2026-04-25T07:50:37Z</time></trkpt><trkpt lat="40.72973369186838" lon="8.5301235679328"><ele>131.5</ele><time>2026-04-25T07:50:38Z</time></trkpt><trkpt lat="40.72961028183281" lon="8.530102528337501"><ele>131.0</ele><time>2026-04-25T07:50:39Z</time></trkpt><trkpt lat="40.729483452174854" lon="8.530118022860792"><ele>131.0</ele><time>2026-04-25T07:50:40Z</time></trkpt><trkpt lat="40.729352005812814" lon="8.530106996598791"><ele>131.0</ele><time>2026-04-25T07:50:41Z</time></trkpt><trkpt lat="40.72921641007888" lon="8.530095756210477"><ele>131.0</ele><time>2026-04-25T07:50:42Z</time></trkpt><trkpt lat="40.72907691518393" lon="8.530088852938599"><ele>131.0</ele><time>2026-04-25T07:50:43Z</time></trkpt><trkpt lat="40.728932669091215" lon="8.530082889388309"><ele>131.0</ele><time>2026-04-25T07:50:44Z</time></trkpt><trkpt lat="40.72878777036304" lon="8.530079597264704"><ele>131.0</ele><time>2026-04-25T07:50:45Z</time></trkpt><trkpt lat="40.7286410490576" lon="8.530074225000728"><ele>131.0</ele><time>2026-04-25T07:50:46Z</time></trkpt><trkpt lat="40.728489014973846" lon="8.53007442533257"><ele>131.0</ele><time>2026-04-25T07:50:47Z</time></trkpt><trkpt lat="40.72834685196382" lon="8.530075163095809"><ele>132.33333333333331</ele><time>2026-04-25T07:50:48Z</time></trkpt><trkpt lat="40.72819677172595" lon="8.53007854791605"><ele>133.66666666666666</ele><time>2026-04-25T07:50:49Z</time></trkpt><trkpt lat="40.72804538351351" lon="8.530084845931297"><ele>135.0</ele><time>2026-04-25T07:50:50Z</time></trkpt><trkpt lat="40.72789273804685" lon="8.530091249029542"><ele>135.0</ele><time>2026-04-25T07:50:51Z</time></trkpt><trkpt lat="40.727745437702964" lon="8.530100415182934"><ele>135.0</ele><time>2026-04-25T07:50:52Z</time></trkpt><trkpt lat="40.72759583992318" lon="8.530116131992022"><ele>135.0</ele><time>2026-04-25T07:50:53Z</time></trkpt><trkpt lat="40.72744505794577" lon="8.53013442475788"><ele>135.0</ele><time>2026-04-25T07:50:54Z</time></trkpt><trkpt lat="40.72729268956397" lon="8.530155823325282"><ele>135.33333333333334</ele><time>2026-04-25T07:50:55Z</time></trkpt><trkpt lat="40.72713794673542" lon="8.530176727831027"><ele>135.66666666666669</ele><time>2026-04-25T07:50:56Z</time></trkpt><trkpt lat="40.72698177874601" lon="8.530201370319217"><ele>136.0</ele><time>2026-04-25T07:50:57Z</time></trkpt><trkpt lat="40.72682210581417" lon="8.530224251786237"><ele>136.33333333333334</ele><time>2026-04-25T07:50:58Z</time></trkpt><trkpt lat="40.72666063741467" lon="8.530244001746693"><ele>136.66666666666666</ele><time>2026-04-25T07:50:59Z</time></trkpt><trkpt lat="40.72649964617096" lon="8.530253471492848"><ele>137.0</ele><time>2026-04-25T07:51:00Z</time></trkpt><trkpt lat="40.72633990281621" lon="8.530245151080615"><ele>137.0</ele><time>2026-04-25T07:51:01Z</time></trkpt><trkpt lat="40.726187358573306" lon="8.530222481609451"><ele>137.0</ele><time>2026-04-25T07:51:02Z</time></trkpt><trkpt lat="40.726037461617544" lon="8.53017712651175"><ele>137.0</ele><time>2026-04-25T07:51:03Z</time></trkpt><trkpt lat="40.72588888045146" lon="8.530115231235257"><ele>138.0</ele><time>2026-04-25T07:51:04Z</time></trkpt><trkpt lat="40.725742482426455" lon="8.53003406798509"><ele>139.0</ele><time>2026-04-25T07:51:05Z</time></trkpt><trkpt lat="40.72559691774529" lon="8.529940558523261"><ele>140.0</ele><time>2026-04-25T07:51:06Z</time></trkpt><trkpt lat="40.72545615502126" lon="8.529857301411798"><ele>140.0</ele><time>2026-04-25T07:51:07Z</time></trkpt><trkpt lat="40.72533717611276" lon="8.529763671631253"><ele>140.0</ele><time>2026-04-25T07:51:08Z</time></trkpt><trkpt lat="40.72522355113299" lon="8.5296934103816"><ele>140.0</ele><time>2026-04-25T07:51:09Z</time></trkpt><trkpt lat="40.72511386703718" lon="8.529616058290578"><ele>140.0</ele><time>2026-04-25T07:51:10Z</time></trkpt><trkpt lat="40.72501751421531" lon="8.529537660829325"><ele>140.2</ele><time>2026-04-25T07:51:11Z</time></trkpt><trkpt lat="40.724906606625844" lon="8.529504963219622"><ele>140.4</ele><time>2026-04-25T07:51:12Z</time></trkpt><trkpt lat="40.72480681287498" lon="8.529503264759295"><ele>140.6</ele><time>2026-04-25T07:51:13Z</time></trkpt><trkpt lat="40.72471993837076" lon="8.529463104704012"><ele>140.8</ele><time>2026-04-25T07:51:14Z</time></trkpt><trkpt lat="40.724634849706945" lon="8.52943375395843"><ele>141.0</ele><time>2026-04-25T07:51:15Z</time></trkpt><trkpt lat="40.72453157814855" lon="8.529417025148406"><ele>141.0</ele><time>2026-04-25T07:51:16Z</time></trkpt><trkpt lat="40.72441467052255" lon="8.52940581901032"><ele>141.0</ele><time>2026-04-25T07:51:17Z</time></trkpt><trkpt lat="40.724293832696745" lon="8.529385191959145"><ele>141.0</ele><time>2026-04-25T07:51:18Z</time></trkpt><trkpt lat="40.72416851925238" lon="8.529371136650495"><ele>141.0</ele><time>2026-04-25T07:51:19Z</time></trkpt><trkpt lat="40.72403839582705" lon="8.52936653010195"><ele>141.0</ele><time>2026-04-25T07:51:20Z</time></trkpt><trkpt lat="40.72390440633684" lon="8.529363836035829"><ele>141.0</ele><time>2026-04-25T07:51:21Z</time></trkpt><trkpt lat="40.723781779151466" lon="8.529367751730447"><ele>141.0</ele><time>2026-04-25T07:51:22Z</time></trkpt><trkpt lat="40.72365093353121" lon="8.529371296939077"><ele>141.0</ele><time>2026-04-25T07:51:23Z</time></trkpt><trkpt lat="40.723516796505486" lon="8.52936555913917"><ele>141.25</ele><time>2026-04-25T07:51:24Z</time></trkpt><trkpt lat="40.72339316684948" lon="8.529354592890467"><ele>141.5</ele><time>2026-04-25T07:51:25Z</time></trkpt><trkpt lat="40.72327595002307" lon="8.529351729036904"><ele>141.75</ele><time>2026-04-25T07:51:26Z</time></trkpt><trkpt lat="40.72316446905814" lon="8.529352752186655"><ele>142.0</ele><time>2026-04-25T07:51:27Z</time></trkpt><trkpt lat="40.723052334218536" lon="8.529347151940115"><ele>142.0</ele><time>2026-04-25T07:51:28Z</time></trkpt><trkpt lat="40.72292841223686" lon="8.529345906713464"><ele>142.0</ele><time>2026-04-25T07:51:29Z</time></trkpt><trkpt lat="40.72280198728408" lon="8.52934618751213"><ele>142.0</ele><time>2026-04-25T07:51:30Z</time></trkpt><trkpt lat="40.72266605654643" lon="8.529344291132873"><ele>142.0</ele><time>2026-04-25T07:51:31Z</time></trkpt><trkpt lat="40.7225292868115" lon="8.529341116626128"><ele>142.0</ele><time>2026-04-25T07:51:32Z</time></trkpt><trkpt lat="40.722387940942085" lon="8.529338806680128"><ele>142.0</ele><time>2026-04-25T07:51:33Z</time></trkpt><trkpt lat="40.72224164210212" lon="8.52933758138653"><ele>142.0</ele><time>2026-04-25T07:51:34Z</time></trkpt><trkpt lat="40.7221067429122" lon="8.529334702686343"><ele>142.0</ele><time>2026-04-25T07:51:35Z</time></trkpt><trkpt lat="40.721978659920964" lon="8.529332532376305"><ele>141.4</ele><time>2026-04-25T07:51:36Z</time></trkpt><trkpt lat="40.72185726119511" lon="8.529328702382024"><ele>140.79999999999998</ele><time>2026-04-25T07:51:37Z</time></trkpt><trkpt lat="40.721741743471284" lon="8.529328116047608"><ele>140.2</ele><time>2026-04-25T07:51:38Z</time></trkpt><trkpt lat="40.72163281208013" lon="8.529331850088672"><ele>139.6</ele><time>2026-04-25T07:51:39Z</time></trkpt><trkpt lat="40.72153083778802" lon="8.529329405160569"><ele>139.0</ele><time>2026-04-25T07:51:40Z</time></trkpt><trkpt lat="40.72143299253422" lon="8.529321174105638"><ele>139.0</ele><time>2026-04-25T07:51:41Z</time></trkpt><trkpt lat="40.7213490333912" lon="8.529315510356872"><ele>139.0</ele><time>2026-04-25T07:51:42Z</time></trkpt><trkpt lat="40.72123958972339" lon="8.529291606668213"><ele>139.0</ele><time>2026-04-25T07:51:44Z</time></trkpt><trkpt lat="40.72115500313889" lon="8.529201489449349"><ele>139.0</ele><time>2026-04-25T07:51:45.999Z</time></trkpt><trkpt lat="40.721086968028" lon="8.529045162974805"><ele>139.0</ele><time>2026-04-25T07:51:47.999Z</time></trkpt><trkpt lat="40.72105721006164" lon="8.5289452236947"><ele>139.0</ele><time>2026-04-25T07:51:48.999Z</time></trkpt><trkpt lat="40.72101930701293" lon="8.528837735432324"><ele>139.0</ele><time>2026-04-25T07:51:49.999Z</time></trkpt><trkpt lat="40.72097949459426" lon="8.528724444234026"><ele>139.0</ele><time>2026-04-25T07:51:50.999Z</time></trkpt><trkpt lat="40.720934451943705" lon="8.528604842990722"><ele>139.0</ele><time>2026-04-25T07:51:51.999Z</time></trkpt><trkpt lat="40.720882403328176" lon="8.52847302730615"><ele>139.0</ele><time>2026-04-25T07:51:52.999Z</time></trkpt><trkpt lat="40.72083035780451" lon="8.528329850987976"><ele>138.75</ele><time>2026-04-25T07:51:53.999Z</time></trkpt><trkpt lat="40.7207835824527" lon="8.528178901258007"><ele>138.5</ele><time>2026-04-25T07:51:54.999Z</time></trkpt><trkpt lat="40.720724455669334" lon="8.528046134460796"><ele>138.25</ele><time>2026-04-25T07:51:55.999Z</time></trkpt><trkpt lat="40.72067124020531" lon="8.527903076768535"><ele>138.0</ele><time>2026-04-25T07:51:56.999Z</time></trkpt><trkpt lat="40.720613197066115" lon="8.527749223640322"><ele>136.75</ele><time>2026-04-25T07:51:57.999Z</time></trkpt><trkpt lat="40.72055403834962" lon="8.52758285005705"><ele>135.5</ele><time>2026-04-25T07:51:58.999Z</time></trkpt><trkpt lat="40.72049035698382" lon="8.527410960987192"><ele>134.25</ele><time>2026-04-25T07:51:59.999Z</time></trkpt><trkpt lat="40.72042857827507" lon="8.52724394028244"><ele>133.0</ele><time>2026-04-25T07:52:00.999Z</time></trkpt><trkpt lat="40.72037502157592" lon="8.527086407840498"><ele>132.25</ele><time>2026-04-25T07:52:01.999Z</time></trkpt><trkpt lat="40.7203257082747" lon="8.526935271384247"><ele>131.5</ele><time>2026-04-25T07:52:02.999Z</time></trkpt><trkpt lat="40.720276976456596" lon="8.526792273923448"><ele>130.75</ele><time>2026-04-25T07:52:03.999Z</time></trkpt><trkpt lat="40.72021409765996" lon="8.526664728625025"><ele>130.0</ele><time>2026-04-25T07:52:04.999Z</time></trkpt><trkpt lat="40.720149080159395" lon="8.526541893757203"><ele>130.0</ele><time>2026-04-25T07:52:05.999Z</time></trkpt><trkpt lat="40.72004474433529" lon="8.526480342450663"><ele>130.0</ele><time>2026-04-25T07:52:06.999Z</time></trkpt><trkpt lat="40.71993113091396" lon="8.526415732417655"><ele>130.0</ele><time>2026-04-25T07:52:07.999Z</time></trkpt><trkpt lat="40.71979993806933" lon="8.526357859808957"><ele>130.0</ele><time>2026-04-25T07:52:08.999Z</time></trkpt><trkpt lat="40.71967084460059" lon="8.526295035611657"><ele>130.0</ele><time>2026-04-25T07:52:09.999Z</time></trkpt><trkpt lat="40.71954249170418" lon="8.52623535654652"><ele>130.0</ele><time>2026-04-25T07:52:10.999Z</time></trkpt><trkpt lat="40.71941924877606" lon="8.526179472506493"><ele>130.0</ele><time>2026-04-25T07:52:11.999Z</time></trkpt><trkpt lat="40.719296962449015" lon="8.526138301524195"><ele>130.0</ele><time>2026-04-25T07:52:12.999Z</time></trkpt><trkpt lat="40.71917026208002" lon="8.526118842070646"><ele>126.75</ele><time>2026-04-25T07:52:14Z</time></trkpt><trkpt lat="40.71903169830404" lon="8.526110832430236"><ele>123.5</ele><time>2026-04-25T07:52:15Z</time></trkpt><trkpt lat="40.71887985312856" lon="8.526106088302717"><ele>120.25</ele><time>2026-04-25T07:52:16Z</time></trkpt><trkpt lat="40.7187231990079" lon="8.526106645287761"><ele>117.0</ele><time>2026-04-25T07:52:17Z</time></trkpt><trkpt lat="40.718565093104544" lon="8.526109545102821"><ele>117.0</ele><time>2026-04-25T07:52:18Z</time></trkpt><trkpt lat="40.718415671278436" lon="8.526111254157009"><ele>117.0</ele><time>2026-04-25T07:52:19Z</time></trkpt><trkpt lat="40.71827035167491" lon="8.526114387030942"><ele>117.0</ele><time>2026-04-25T07:52:20Z</time></trkpt><trkpt lat="40.71813039705025" lon="8.526114527794366"><ele>117.0</ele><time>2026-04-25T07:52:21Z</time></trkpt><trkpt lat="40.71800165806123" lon="8.526115218445149"><ele>117.0</ele><time>2026-04-25T07:52:22Z</time></trkpt><trkpt lat="40.71787872094608" lon="8.526116517532428"><ele>117.0</ele><time>2026-04-25T07:52:23Z</time></trkpt><trkpt lat="40.71775760959641" lon="8.526117590477352"><ele>117.0</ele><time>2026-04-25T07:52:24Z</time></trkpt><trkpt lat="40.71764008837787" lon="8.52612198174475"><ele>117.0</ele><time>2026-04-25T07:52:25Z</time></trkpt><trkpt lat="40.71752526043154" lon="8.526122744305454"><ele>116.8</ele><time>2026-04-25T07:52:26Z</time></trkpt><trkpt lat="40.71741213779429" lon="8.526115697743164"><ele>116.6</ele><time>2026-04-25T07:52:27Z</time></trkpt><trkpt lat="40.717306950477074" lon="8.526134081087962"><ele>116.39999999999999</ele><time>2026-04-25T07:52:28Z</time></trkpt><trkpt lat="40.71722031087325" lon="8.526179128586703"><ele>116.19999999999999</ele><time>2026-04-25T07:52:29Z</time></trkpt><trkpt lat="40.717149299438226" lon="8.526171544714579"><ele>116.0</ele><time>2026-04-25T07:52:30Z</time></trkpt><trkpt lat="40.7170669212237" lon="8.526182824154443"><ele>116.00000000000001</ele><time>2026-04-25T07:52:32Z</time></trkpt><trkpt lat="40.71699962870741" lon="8.526160097515445"><ele>116.0</ele><time>2026-04-25T07:52:34Z</time></trkpt><trkpt lat="40.71694335669586" lon="8.526117141575613"><ele>116.00000000000001</ele><time>2026-04-25T07:52:36Z</time></trkpt><trkpt lat="40.71692751149453" lon="8.526032520555972"><ele>116.00000000000001</ele><time>2026-04-25T07:52:38Z</time></trkpt><trkpt lat="40.71689484285745" lon="8.5259241162856"><ele>116.0</ele><time>2026-04-25T07:52:40Z</time></trkpt><trkpt lat="40.716873395577636" lon="8.525832598788325"><ele>116.00000000000001</ele><time>2026-04-25T07:52:41Z</time></trkpt><trkpt lat="40.716849423143756" lon="8.5257258333621"><ele>116.00000000000001</ele><time>2026-04-25T07:52:42Z</time></trkpt><trkpt lat="40.71682419320541" lon="8.525609334434016"><ele>116.0</ele><time>2026-04-25T07:52:43Z</time></trkpt><trkpt lat="40.71679767482811" lon="8.525472935808642"><ele>116.0</ele><time>2026-04-25T07:52:44Z</time></trkpt><trkpt lat="40.716763445236104" lon="8.525294281087598"><ele>116.0</ele><time>2026-04-25T07:52:45Z</time></trkpt><trkpt lat="40.71672301545962" lon="8.525081677433853"><ele>116.0</ele><time>2026-04-25T07:52:46Z</time></trkpt><trkpt lat="40.716677477658095" lon="8.524845907207117"><ele>116.0</ele><time>2026-04-25T07:52:47Z</time></trkpt><trkpt lat="40.716626497116174" lon="8.524575631673834"><ele>116.0</ele><time>2026-04-25T07:52:48Z</time></trkpt><trkpt lat="40.71657560666213" lon="8.524307955818092"><ele>116.0</ele><time>2026-04-25T07:52:49Z</time></trkpt><trkpt lat="40.71651462953448" lon="8.524073503736002"><ele>116.0</ele><time>2026-04-25T07:52:50Z</time></trkpt><trkpt lat="40.716474645867734" lon="8.523843756893866"><ele>116.0</ele><time>2026-04-25T07:52:51Z</time></trkpt><trkpt lat="40.71643918477919" lon="8.523630908490322"><ele>116.0</ele><time>2026-04-25T07:52:52Z</time></trkpt><trkpt lat="40.71639956030347" lon="8.523432130849677"><ele>116.0</ele><time>2026-04-25T07:52:53Z</time></trkpt><trkpt lat="40.71635747892698" lon="8.523244240656163"><ele>116.0</ele><time>2026-04-25T07:52:54Z</time></trkpt><trkpt lat="40.71629367412717" lon="8.52307245919354"><ele>116.0</ele><time>2026-04-25T07:52:55Z</time></trkpt><trkpt lat="40.716223397267676" lon="8.522897221722543"><ele>116.0</ele><time>2026-04-25T07:52:56Z</time></trkpt><trkpt lat="40.71614567172655" lon="8.522724302042587"><ele>117.0</ele><time>2026-04-25T07:52:57Z</time></trkpt><trkpt lat="40.71606603016658" lon="8.52255254590041"><ele>118.0</ele><time>2026-04-25T07:52:58Z</time></trkpt><trkpt lat="40.71598812543938" lon="8.522374858869437"><ele>119.0</ele><time>2026-04-25T07:52:59Z</time></trkpt><trkpt lat="40.715907943633106" lon="8.522198408985334"><ele>119.33333333333333</ele><time>2026-04-25T07:53:00Z</time></trkpt><trkpt lat="40.71582712992054" lon="8.522020381527385"><ele>119.66666666666666</ele><time>2026-04-25T07:53:01Z</time></trkpt><trkpt lat="40.71574998308819" lon="8.521842692065785"><ele>120.0</ele><time>2026-04-25T07:53:02Z</time></trkpt><trkpt lat="40.715671766836884" lon="8.521662012326148"><ele>120.0</ele><time>2026-04-25T07:53:03Z</time></trkpt><trkpt lat="40.71559264793257" lon="8.521481870044017"><ele>120.0</ele><time>2026-04-25T07:53:04Z</time></trkpt><trkpt lat="40.71551323794415" lon="8.521305978594995"><ele>120.0</ele><time>2026-04-25T07:53:05Z</time></trkpt><trkpt lat="40.715436876317874" lon="8.521134125381204"><ele>120.33333333333334</ele><time>2026-04-25T07:53:06Z</time></trkpt><trkpt lat="40.71536040729313" lon="8.520963217749056"><ele>120.66666666666667</ele><time>2026-04-25T07:53:07Z</time></trkpt><trkpt lat="40.71528039565853" lon="8.520790168943241"><ele>121.0</ele><time>2026-04-25T07:53:08Z</time></trkpt><trkpt lat="40.715189330055935" lon="8.520613516660186"><ele>121.0</ele><time>2026-04-25T07:53:09Z</time></trkpt><trkpt lat="40.71505722893625" lon="8.520470359990883"><ele>121.0</ele><time>2026-04-25T07:53:10Z</time></trkpt><trkpt lat="40.71492098008113" lon="8.520316767511307"><ele>121.0</ele><time>2026-04-25T07:53:11Z</time></trkpt><trkpt lat="40.71478502419396" lon="8.520177523379658"><ele>121.66666666666667</ele><time>2026-04-25T07:53:12Z</time></trkpt><trkpt lat="40.71464408663314" lon="8.520036024659857"><ele>122.33333333333334</ele><time>2026-04-25T07:53:13Z</time></trkpt><trkpt lat="40.71450258874263" lon="8.519893626655653"><ele>123.0</ele><time>2026-04-25T07:53:14Z</time></trkpt><trkpt lat="40.714370640140686" lon="8.519730799783067"><ele>123.0</ele><time>2026-04-25T07:53:15Z</time></trkpt><trkpt lat="40.714221052094864" lon="8.519598505164316"><ele>123.0</ele><time>2026-04-25T07:53:16Z</time></trkpt><trkpt lat="40.714091671144956" lon="8.519446299726987"><ele>123.0</ele><time>2026-04-25T07:53:17Z</time></trkpt><trkpt lat="40.713951703687655" lon="8.519289287114406"><ele>123.33333333333334</ele><time>2026-04-25T07:53:18Z</time></trkpt><trkpt lat="40.71380428776055" lon="8.519128345932485"><ele>123.66666666666667</ele><time>2026-04-25T07:53:19Z</time></trkpt><trkpt lat="40.713663005617896" lon="8.518975839774228"><ele>124.0</ele><time>2026-04-25T07:53:20Z</time></trkpt><trkpt lat="40.71352259698383" lon="8.51882726034317"><ele>126.33333333333334</ele><time>2026-04-25T07:53:21Z</time></trkpt><trkpt lat="40.71337904754311" lon="8.518682063037224"><ele>128.66666666666666</ele><time>2026-04-25T07:53:22Z</time></trkpt><trkpt lat="40.7132522513295" lon="8.518513680637993"><ele>131.0</ele><time>2026-04-25T07:53:23Z</time></trkpt><trkpt lat="40.71311188500388" lon="8.518358477203261"><ele>131.0</ele><time>2026-04-25T07:53:24Z</time></trkpt><trkpt lat="40.71297021781439" lon="8.51819945543309"><ele>131.0</ele><time>2026-04-25T07:53:25Z</time></trkpt><trkpt lat="40.71283075619375" lon="8.518047293911854"><ele>131.0</ele><time>2026-04-25T07:53:26Z</time></trkpt><trkpt lat="40.712704125468406" lon="8.51790939911424"><ele>132.5</ele><time>2026-04-25T07:53:27Z</time></trkpt><trkpt lat="40.71257381525947" lon="8.517796271924633"><ele>134.0</ele><time>2026-04-25T07:53:28Z</time></trkpt><trkpt lat="40.7124616694028" lon="8.517683231867448"><ele>135.5</ele><time>2026-04-25T07:53:29Z</time></trkpt><trkpt lat="40.712341728607576" lon="8.517599581064333"><ele>137.0</ele><time>2026-04-25T07:53:30Z</time></trkpt><trkpt lat="40.712202519231376" lon="8.517547068441191"><ele>137.0</ele><time>2026-04-25T07:53:31Z</time></trkpt><trkpt lat="40.71205183622431" lon="8.517526908070172"><ele>137.0</ele><time>2026-04-25T07:53:32Z</time></trkpt><trkpt lat="40.71189211095936" lon="8.517525189733016"><ele>137.0</ele><time>2026-04-25T07:53:33Z</time></trkpt><trkpt lat="40.711727640175376" lon="8.517524217784501"><ele>136.33333333333331</ele><time>2026-04-25T07:53:34Z</time></trkpt><trkpt lat="40.71155873756917" lon="8.51752529204733"><ele>135.66666666666666</ele><time>2026-04-25T07:53:35Z</time></trkpt><trkpt lat="40.711389325459194" lon="8.517524817733033"><ele>135.0</ele><time>2026-04-25T07:53:36Z</time></trkpt><trkpt lat="40.71121898349553" lon="8.517499936991793"><ele>135.5</ele><time>2026-04-25T07:53:37Z</time></trkpt><trkpt lat="40.71105904475508" lon="8.51749628524587"><ele>136.0</ele><time>2026-04-25T07:53:38Z</time></trkpt><trkpt lat="40.71091589960154" lon="8.517489669982567"><ele>136.5</ele><time>2026-04-25T07:53:39Z</time></trkpt><trkpt lat="40.710784778521216" lon="8.517466919701407"><ele>137.0</ele><time>2026-04-25T07:53:40Z</time></trkpt><trkpt lat="40.71066340340514" lon="8.517404995382353"><ele>137.0</ele><time>2026-04-25T07:53:41Z</time></trkpt><trkpt lat="40.71053986939888" lon="8.517303727845096"><ele>137.0</ele><time>2026-04-25T07:53:42Z</time></trkpt><trkpt lat="40.710396477341405" lon="8.517202622384634"><ele>137.0</ele><time>2026-04-25T07:53:43Z</time></trkpt><trkpt lat="40.71025392614729" lon="8.517073377188959"><ele>136.33333333333331</ele><time>2026-04-25T07:53:44Z</time></trkpt><trkpt lat="40.71010213114807" lon="8.516941047984027"><ele>135.66666666666666</ele><time>2026-04-25T07:53:45Z</time></trkpt><trkpt lat="40.709942265456405" lon="8.51680141443446"><ele>135.0</ele><time>2026-04-25T07:53:46Z</time></trkpt><trkpt lat="40.70978454415823" lon="8.516659150832183"><ele>135.0</ele><time>2026-04-25T07:53:47Z</time></trkpt><trkpt lat="40.70962708442239" lon="8.516519498127543"><ele>135.0</ele><time>2026-04-25T07:53:48Z</time></trkpt><trkpt lat="40.709466073257886" lon="8.516379066017771"><ele>135.0</ele><time>2026-04-25T07:53:49Z</time></trkpt><trkpt lat="40.70930540060095" lon="8.51623586505956"><ele>136.0</ele><time>2026-04-25T07:53:50Z</time></trkpt><trkpt lat="40.70914517131595" lon="8.516093144689632"><ele>137.0</ele><time>2026-04-25T07:53:50.999Z</time></trkpt><trkpt lat="40.708985478833476" lon="8.51595085621325"><ele>138.0</ele><time>2026-04-25T07:53:51.999Z</time></trkpt><trkpt lat="40.708827414153525" lon="8.515806612310788"><ele>138.0</ele><time>2026-04-25T07:53:52.999Z</time></trkpt><trkpt lat="40.70867004712263" lon="8.515663842362455"><ele>138.0</ele><time>2026-04-25T07:53:53.999Z</time></trkpt><trkpt lat="40.70851397244823" lon="8.515524143451342"><ele>138.0</ele><time>2026-04-25T07:53:54.999Z</time></trkpt><trkpt lat="40.70836198266808" lon="8.51538873958199"><ele>139.0</ele><time>2026-04-25T07:53:55.999Z</time></trkpt><trkpt lat="40.70822562435738" lon="8.515267156312785"><ele>140.0</ele><time>2026-04-25T07:53:56.999Z</time></trkpt><trkpt lat="40.70809410729366" lon="8.515160544167227"><ele>141.0</ele><time>2026-04-25T07:53:57.999Z</time></trkpt><trkpt lat="40.70796536776381" lon="8.515080378044052"><ele>141.0</ele><time>2026-04-25T07:53:58.999Z</time></trkpt><trkpt lat="40.70782838117861" lon="8.515028493712489"><ele>141.0</ele><time>2026-04-25T07:53:59.999Z</time></trkpt><trkpt lat="40.70768581800803" lon="8.51499796923366"><ele>141.0</ele><time>2026-04-25T07:54:00.999Z</time></trkpt><trkpt lat="40.707533162254244" lon="8.515000003481239"><ele>141.0</ele><time>2026-04-25T07:54:01.999Z</time></trkpt><trkpt lat="40.70737034060119" lon="8.515015730092397"><ele>141.0</ele><time>2026-04-25T07:54:02.999Z</time></trkpt><trkpt lat="40.70719819626991" lon="8.51503539535024"><ele>141.0</ele><time>2026-04-25T07:54:03.999Z</time></trkpt><trkpt lat="40.707020619351" lon="8.515054876874467"><ele>141.0</ele><time>2026-04-25T07:54:04.999Z</time></trkpt><trkpt lat="40.70684057849373" lon="8.515055266525637"><ele>139.66666666666666</ele><time>2026-04-25T07:54:05.999Z</time></trkpt><trkpt lat="40.70665924303859" lon="8.515096758903233"><ele>138.33333333333331</ele><time>2026-04-25T07:54:06.999Z</time></trkpt><trkpt lat="40.70647377568951" lon="8.515115951906182"><ele>137.0</ele><time>2026-04-25T07:54:07.999Z</time></trkpt><trkpt lat="40.706286306554134" lon="8.51513649841554"><ele>137.0</ele><time>2026-04-25T07:54:08.999Z</time></trkpt><trkpt lat="40.70609709812617" lon="8.51515485814611"><ele>137.0</ele><time>2026-04-25T07:54:09.999Z</time></trkpt><trkpt lat="40.70590545267331" lon="8.515173976141481"><ele>137.0</ele><time>2026-04-25T07:54:10.999Z</time></trkpt><trkpt lat="40.70571241003489" lon="8.515194094335458"><ele>137.0</ele><time>2026-04-25T07:54:11.999Z</time></trkpt><trkpt lat="40.70551810924343" lon="8.515212833692198"><ele>137.0</ele><time>2026-04-25T07:54:12.999Z</time></trkpt><trkpt lat="40.70532187639209" lon="8.515230641468937"><ele>137.0</ele><time>2026-04-25T07:54:13.999Z</time></trkpt><trkpt lat="40.705124656856476" lon="8.515253602824972"><ele>137.66666666666666</ele><time>2026-04-25T07:54:14.999Z</time></trkpt><trkpt lat="40.70492467618072" lon="8.51527458697603"><ele>138.33333333333334</ele><time>2026-04-25T07:54:15.999Z</time></trkpt><trkpt lat="40.70472522795451" lon="8.515296293984864"><ele>139.0</ele><time>2026-04-25T07:54:16.999Z</time></trkpt><trkpt lat="40.70452399092342" lon="8.515316785580326"><ele>138.33333333333334</ele><time>2026-04-25T07:54:17.999Z</time></trkpt><trkpt lat="40.704317867575796" lon="8.515338278190235"><ele>137.66666666666666</ele><time>2026-04-25T07:54:18.999Z</time></trkpt><trkpt lat="40.70411088859744" lon="8.515359798508056"><ele>137.0</ele><time>2026-04-25T07:54:19.999Z</time></trkpt><trkpt lat="40.70390369786557" lon="8.51538162268585"><ele>137.0</ele><time>2026-04-25T07:54:20.999Z</time></trkpt><trkpt lat="40.70370896760083" lon="8.515400351546424"><ele>137.0</ele><time>2026-04-25T07:54:21.999Z</time></trkpt><trkpt lat="40.703521053006526" lon="8.515420690886646"><ele>137.0</ele><time>2026-04-25T07:54:22.999Z</time></trkpt><trkpt lat="40.70334305224195" lon="8.515441407446593"><ele>135.33333333333331</ele><time>2026-04-25T07:54:23.999Z</time></trkpt><trkpt lat="40.70317274033736" lon="8.515462176293914"><ele>133.66666666666666</ele><time>2026-04-25T07:54:24.999Z</time></trkpt><trkpt lat="40.70301065820902" lon="8.515479011378604"><ele>132.0</ele><time>2026-04-25T07:54:25.999Z</time></trkpt><trkpt lat="40.70285052782353" lon="8.51549272763806"><ele>132.66666666666666</ele><time>2026-04-25T07:54:26.999Z</time></trkpt><trkpt lat="40.70268964192059" lon="8.5155054721908"><ele>133.33333333333331</ele><time>2026-04-25T07:54:27.999Z</time></trkpt><trkpt lat="40.70253873858913" lon="8.515523888801352"><ele>134.0</ele><time>2026-04-25T07:54:28.999Z</time></trkpt><trkpt lat="40.70239479537429" lon="8.515552811121532"><ele>134.0</ele><time>2026-04-25T07:54:29.999Z</time></trkpt><trkpt lat="40.70225216238524" lon="8.515608759206447"><ele>134.0</ele><time>2026-04-25T07:54:30.999Z</time></trkpt><trkpt lat="40.702103724841564" lon="8.515686597179027"><ele>134.0</ele><time>2026-04-25T07:54:32Z</time></trkpt><trkpt lat="40.70195185431568" lon="8.515787607185835"><ele>133.33333333333331</ele><time>2026-04-25T07:54:33Z</time></trkpt><trkpt lat="40.70179235802111" lon="8.515890608346744"><ele>132.66666666666666</ele><time>2026-04-25T07:54:34Z</time></trkpt><trkpt lat="40.70162660076432" lon="8.51599459289331"><ele>132.0</ele><time>2026-04-25T07:54:35Z</time></trkpt><trkpt lat="40.70145697357417" lon="8.516103523222329"><ele>132.0</ele><time>2026-04-25T07:54:36Z</time></trkpt><trkpt lat="40.701287449301624" lon="8.516212676155076"><ele>132.0</ele><time>2026-04-25T07:54:37Z</time></trkpt><trkpt lat="40.70111638231588" lon="8.516320469840752"><ele>132.0</ele><time>2026-04-25T07:54:38Z</time></trkpt><trkpt lat="40.70094504546159" lon="8.516429925921665"><ele>130.66666666666666</ele><time>2026-04-25T07:54:39Z</time></trkpt><trkpt lat="40.7007727732361" lon="8.51654207918091"><ele>129.33333333333331</ele><time>2026-04-25T07:54:40Z</time></trkpt><trkpt lat="40.700597279449305" lon="8.516654003483639"><ele>128.0</ele><time>2026-04-25T07:54:41Z</time></trkpt><trkpt lat="40.700424219175325" lon="8.516766356718792"><ele>128.0</ele><time>2026-04-25T07:54:42Z</time></trkpt><trkpt lat="40.700262125527885" lon="8.516873092714343"><ele>128.0</ele><time>2026-04-25T07:54:43Z</time></trkpt><trkpt lat="40.70010463668147" lon="8.516962542927569"><ele>128.0</ele><time>2026-04-25T07:54:44Z</time></trkpt><trkpt lat="40.69996553513937" lon="8.517061166378838"><ele>127.5</ele><time>2026-04-25T07:54:45Z</time></trkpt><trkpt lat="40.699848024274466" lon="8.517128551754388"><ele>127.0</ele><time>2026-04-25T07:54:46Z</time></trkpt><trkpt lat="40.6997224319102" lon="8.517175962383542"><ele>126.5</ele><time>2026-04-25T07:54:47Z</time></trkpt><trkpt lat="40.699599654349186" lon="8.517139199535716"><ele>126.0</ele><time>2026-04-25T07:54:48Z</time></trkpt><trkpt lat="40.69950547043168" lon="8.51710100265946"><ele>124.4</ele><time>2026-04-25T07:54:49Z</time></trkpt><trkpt lat="40.69941387130778" lon="8.517036569629099"><ele>122.8</ele><time>2026-04-25T07:54:50Z</time></trkpt><trkpt lat="40.69934300418112" lon="8.516946976940396"><ele>121.20000000000002</ele><time>2026-04-25T07:54:51Z</time></trkpt><trkpt lat="40.699308947698086" lon="8.516846851608923"><ele>119.60000000000001</ele><time>2026-04-25T07:54:52Z</time></trkpt><trkpt lat="40.699301390642084" lon="8.516726431150945"><ele>118.0</ele><time>2026-04-25T07:54:53Z</time></trkpt><trkpt lat="40.69928745876717" lon="8.516573363288488"><ele>118.0</ele><time>2026-04-25T07:54:54Z</time></trkpt><trkpt lat="40.699264230826664" lon="8.516399917880577"><ele>118.0</ele><time>2026-04-25T07:54:55Z</time></trkpt><trkpt lat="40.69922533441382" lon="8.516209947336456"><ele>118.0</ele><time>2026-04-25T07:54:56Z</time></trkpt><trkpt lat="40.69916594824455" lon="8.51603948429758"><ele>118.0</ele><time>2026-04-25T07:54:57Z</time></trkpt><trkpt lat="40.69912794215632" lon="8.515883712430751"><ele>119.60000000000001</ele><time>2026-04-25T07:54:58Z</time></trkpt><trkpt lat="40.69908562081752" lon="8.51575899515517"><ele>121.20000000000002</ele><time>2026-04-25T07:54:59Z</time></trkpt><trkpt lat="40.699051112923016" lon="8.515662420547383"><ele>122.8</ele><time>2026-04-25T07:55:00Z</time></trkpt><trkpt lat="40.6989776580811" lon="8.515609831891412"><ele>124.4</ele><time>2026-04-25T07:55:01Z</time></trkpt><trkpt lat="40.698897819354734" lon="8.515651093285477"><ele>126.0</ele><time>2026-04-25T07:55:02Z</time></trkpt><trkpt lat="40.69882484174938" lon="8.515824304834435"><ele>126.0</ele><time>2026-04-25T07:55:04Z</time></trkpt><trkpt lat="40.69883010377984" lon="8.515973612860032"><ele>126.0</ele><time>2026-04-25T07:55:05Z</time></trkpt><trkpt lat="40.69882819437939" lon="8.516139940859551"><ele>126.0</ele><time>2026-04-25T07:55:06Z</time></trkpt><trkpt lat="40.69880760421353" lon="8.516316581291171"><ele>126.0</ele><time>2026-04-25T07:55:07Z</time></trkpt><trkpt lat="40.69877642675446" lon="8.516513368390854"><ele>123.33333333333334</ele><time>2026-04-25T07:55:08Z</time></trkpt><trkpt lat="40.698740434410595" lon="8.516710434729848"><ele>120.66666666666667</ele><time>2026-04-25T07:55:09Z</time></trkpt><trkpt lat="40.698703130364635" lon="8.516907335564479"><ele>118.0</ele><time>2026-04-25T07:55:10Z</time></trkpt><trkpt lat="40.6986599474265" lon="8.51709089357881"><ele>117.75</ele><time>2026-04-25T07:55:11Z</time></trkpt><trkpt lat="40.698612965269575" lon="8.517266812362003"><ele>117.5</ele><time>2026-04-25T07:55:12Z</time></trkpt><trkpt lat="40.698551424913255" lon="8.517436193975433"><ele>117.25</ele><time>2026-04-25T07:55:13Z</time></trkpt><trkpt lat="40.69847911993213" lon="8.517593161663658"><ele>117.0</ele><time>2026-04-25T07:55:14Z</time></trkpt><trkpt lat="40.69839635159369" lon="8.51773829418429"><ele>116.5</ele><time>2026-04-25T07:55:15Z</time></trkpt><trkpt lat="40.6983010511462" lon="8.517865063699118"><ele>116.0</ele><time>2026-04-25T07:55:16Z</time></trkpt><trkpt lat="40.69819222430159" lon="8.517969969467746"><ele>115.5</ele><time>2026-04-25T07:55:17Z</time></trkpt><trkpt lat="40.698068200063894" lon="8.518049927605132"><ele>115.0</ele><time>2026-04-25T07:55:18Z</time></trkpt><trkpt lat="40.69795556333184" lon="8.518124967723026"><ele>114.25</ele><time>2026-04-25T07:55:19Z</time></trkpt><trkpt lat="40.69786922799312" lon="8.518234633443878"><ele>113.5</ele><time>2026-04-25T07:55:20Z</time></trkpt><trkpt lat="40.6978067512861" lon="8.518379530192563"><ele>112.75</ele><time>2026-04-25T07:55:21Z</time></trkpt><trkpt lat="40.6977630981481" lon="8.51854647760227"><ele>112.0</ele><time>2026-04-25T07:55:22Z</time></trkpt><trkpt lat="40.69772099100653" lon="8.518696561970108"><ele>108.50000000000001</ele><time>2026-04-25T07:55:23Z</time></trkpt><trkpt lat="40.697671148442595" lon="8.518810904221077"><ele>105.0</ele><time>2026-04-25T07:55:24Z</time></trkpt><trkpt lat="40.69759911453271" lon="8.51888787973144"><ele>101.5</ele><time>2026-04-25T07:55:25Z</time></trkpt><trkpt lat="40.6975068395261" lon="8.518889990143636"><ele>98.0</ele><time>2026-04-25T07:55:26Z</time></trkpt><trkpt lat="40.697417101595846" lon="8.518900913117491"><ele>94.5</ele><time>2026-04-25T07:55:27Z</time></trkpt><trkpt lat="40.69734874744956" lon="8.518901472805162"><ele>91.0</ele><time>2026-04-25T07:55:28Z</time></trkpt><trkpt lat="40.697293893172514" lon="8.519033159326991"><ele>91.0</ele><time>2026-04-25T07:55:30Z</time></trkpt><trkpt lat="40.69739070735314" lon="8.519148824798053"><ele>91.0</ele><time>2026-04-25T07:55:32Z</time></trkpt><trkpt lat="40.697487838234345" lon="8.519151686258434"><ele>91.0</ele><time>2026-04-25T07:55:33Z</time></trkpt><trkpt lat="40.69759770132335" lon="8.519139779867514"><ele>91.0</ele><time>2026-04-25T07:55:34Z</time></trkpt><trkpt lat="40.69770539663116" lon="8.51913005252556"><ele>91.0</ele><time>2026-04-25T07:55:35Z</time></trkpt><trkpt lat="40.69779782825537" lon="8.519126580860645"><ele>89.83333333333333</ele><time>2026-04-25T07:55:36Z</time></trkpt><trkpt lat="40.697867102367745" lon="8.519150268541171"><ele>88.66666666666666</ele><time>2026-04-25T07:55:37Z</time></trkpt><trkpt lat="40.697939875188155" lon="8.519280118532164"><ele>87.5</ele><time>2026-04-25T07:55:39Z</time></trkpt><trkpt lat="40.69793920243589" lon="8.519366848404623"><ele>86.33333333333333</ele><time>2026-04-25T07:55:40Z</time></trkpt><trkpt lat="40.697918627253216" lon="8.519453756096139"><ele>85.16666666666667</ele><time>2026-04-25T07:55:41Z</time></trkpt><trkpt lat="40.697880276521644" lon="8.519540096285013"><ele>84.0</ele><time>2026-04-25T07:55:42Z</time></trkpt><trkpt lat="40.69783594577129" lon="8.519612706590086"><ele>84.0</ele><time>2026-04-25T07:55:43Z</time></trkpt><trkpt lat="40.69778357419659" lon="8.519669665869868"><ele>84.0</ele><time>2026-04-25T07:55:44Z</time></trkpt><trkpt lat="40.697716935727605" lon="8.519683035487038"><ele>84.0</ele><time>2026-04-25T07:55:45Z</time></trkpt><trkpt lat="40.69759512655989" lon="8.519636933041227"><ele>84.0</ele><time>2026-04-25T07:55:47Z</time></trkpt><trkpt lat="40.69750073081953" lon="8.519576586413896"><ele>84.0</ele><time>2026-04-25T07:55:48Z</time></trkpt><trkpt lat="40.69740103817309" lon="8.519501824567401"><ele>85.75</ele><time>2026-04-25T07:55:49Z</time></trkpt><trkpt lat="40.6972837942231" lon="8.519412981319611"><ele>87.5</ele><time>2026-04-25T07:55:50Z</time></trkpt><trkpt lat="40.69716655763252" lon="8.519321197076469"><ele>89.25</ele><time>2026-04-25T07:55:51Z</time></trkpt><trkpt lat="40.69705563536249" lon="8.519236392344204"><ele>91.0</ele><time>2026-04-25T07:55:52Z</time></trkpt><trkpt lat="40.69694733679224" lon="8.51915785025939"><ele>88.5</ele><time>2026-04-25T07:55:53Z</time></trkpt><trkpt lat="40.696843985846606" lon="8.51910342006299"><ele>86.0</ele><time>2026-04-25T07:55:54Z</time></trkpt><trkpt lat="40.69674238930216" lon="8.519092824197243"><ele>83.5</ele><time>2026-04-25T07:55:55Z</time></trkpt><trkpt lat="40.69663138751331" lon="8.519145856071459"><ele>81.0</ele><time>2026-04-25T07:55:56Z</time></trkpt><trkpt lat="40.696507800964326" lon="8.51918713896264"><ele>81.0</ele><time>2026-04-25T07:55:56.998Z</time></trkpt><trkpt lat="40.69638112732283" lon="8.519221758484942"><ele>81.0</ele><time>2026-04-25T07:55:57.998Z</time></trkpt><trkpt lat="40.6962625002996" lon="8.519263997186531"><ele>81.0</ele><time>2026-04-25T07:55:58.998Z</time></trkpt><trkpt lat="40.696154647649514" lon="8.51931757423551"><ele>81.0</ele><time>2026-04-25T07:55:59.998Z</time></trkpt><trkpt lat="40.69604947171473" lon="8.519390049887184"><ele>80.8</ele><time>2026-04-25T07:56:00.998Z</time></trkpt><trkpt lat="40.69595511993057" lon="8.51948563086754"><ele>80.6</ele><time>2026-04-25T07:56:01.998Z</time></trkpt><trkpt lat="40.69586471917215" lon="8.51956373248531"><ele>80.4</ele><time>2026-04-25T07:56:02.998Z</time></trkpt><trkpt lat="40.695776244834974" lon="8.519640297013446"><ele>80.2</ele><time>2026-04-25T07:56:03.998Z</time></trkpt><trkpt lat="40.695688824196196" lon="8.519725311282068"><ele>80.0</ele><time>2026-04-25T07:56:04.998Z</time></trkpt><trkpt lat="40.69559497509714" lon="8.519811267736822"><ele>81.0</ele><time>2026-04-25T07:56:05.999Z</time></trkpt><trkpt lat="40.69550838351487" lon="8.519889726937498"><ele>82.0</ele><time>2026-04-25T07:56:06.999Z</time></trkpt><trkpt lat="40.69541797051454" lon="8.519941246328266"><ele>83.0</ele><time>2026-04-25T07:56:07.999Z</time></trkpt><trkpt lat="40.695313898866985" lon="8.519966803250663"><ele>84.0</ele><time>2026-04-25T07:56:08.999Z</time></trkpt><trkpt lat="40.69520221455021" lon="8.519937128530385"><ele>85.0</ele><time>2026-04-25T07:56:09.999Z</time></trkpt><trkpt lat="40.69509149457869" lon="8.519897687433607"><ele>85.0</ele><time>2026-04-25T07:56:10.999Z</time></trkpt><trkpt lat="40.69496879399668" lon="8.519832978459073"><ele>85.0</ele><time>2026-04-25T07:56:11.999Z</time></trkpt><trkpt lat="40.69484031148707" lon="8.519757331902685"><ele>85.0</ele><time>2026-04-25T07:56:12.999Z</time></trkpt><trkpt lat="40.694703004562335" lon="8.519676489803853"><ele>85.0</ele><time>2026-04-25T07:56:13.999Z</time></trkpt><trkpt lat="40.69456728760252" lon="8.5195968708525"><ele>81.75</ele><time>2026-04-25T07:56:14.999Z</time></trkpt><trkpt lat="40.69444516288283" lon="8.519525875572874"><ele>78.5</ele><time>2026-04-25T07:56:15.999Z</time></trkpt><trkpt lat="40.69432635810211" lon="8.519456810541046"><ele>75.25</ele><time>2026-04-25T07:56:16.999Z</time></trkpt><trkpt lat="40.694212039983256" lon="8.519389900236611"><ele>72.0</ele><time>2026-04-25T07:56:17.999Z</time></trkpt><trkpt lat="40.69410573256876" lon="8.519348711603346"><ele>71.8</ele><time>2026-04-25T07:56:18.999Z</time></trkpt><trkpt lat="40.694015406891886" lon="8.519294047157492"><ele>71.6</ele><time>2026-04-25T07:56:19.999Z</time></trkpt><trkpt lat="40.69392944570269" lon="8.519235800926179"><ele>71.39999999999999</ele><time>2026-04-25T07:56:20.999Z</time></trkpt><trkpt lat="40.69383553882808" lon="8.519180302598036"><ele>71.2</ele><time>2026-04-25T07:56:21.999Z</time></trkpt><trkpt lat="40.69372124362845" lon="8.519144514315782"><ele>71.0</ele><time>2026-04-25T07:56:22.999Z</time></trkpt><trkpt lat="40.69359295918078" lon="8.519114999137411"><ele>70.33333333333334</ele><time>2026-04-25T07:56:23.999Z</time></trkpt><trkpt lat="40.69344929139277" lon="8.519093510421673"><ele>69.66666666666667</ele><time>2026-04-25T07:56:24.999Z</time></trkpt><trkpt lat="40.69329839895392" lon="8.519087914353396"><ele>69.0</ele><time>2026-04-25T07:56:25.999Z</time></trkpt><trkpt lat="40.69314305009344" lon="8.51910563365913"><ele>69.0</ele><time>2026-04-25T07:56:26.999Z</time></trkpt><trkpt lat="40.69298169915776" lon="8.519147007970703"><ele>69.0</ele><time>2026-04-25T07:56:27.999Z</time></trkpt><trkpt lat="40.692816746972625" lon="8.51919475663595"><ele>69.0</ele><time>2026-04-25T07:56:28.999Z</time></trkpt><trkpt lat="40.69265453241773" lon="8.519246973603854"><ele>69.66666666666667</ele><time>2026-04-25T07:56:29.999Z</time></trkpt><trkpt lat="40.692507599851986" lon="8.519309787927542"><ele>70.33333333333334</ele><time>2026-04-25T07:56:30.999Z</time></trkpt><trkpt lat="40.69238120496487" lon="8.519402549790753"><ele>71.0</ele><time>2026-04-25T07:56:31.999Z</time></trkpt><trkpt lat="40.69226959425983" lon="8.519539945873145"><ele>70.33333333333334</ele><time>2026-04-25T07:56:32.999Z</time></trkpt><trkpt lat="40.69216674604442" lon="8.519709476427945"><ele>69.66666666666667</ele><time>2026-04-25T07:56:33.999Z</time></trkpt><trkpt lat="40.692071794241784" lon="8.519901273075225"><ele>69.0</ele><time>2026-04-25T07:56:34.999Z</time></trkpt><trkpt lat="40.69197519617732" lon="8.52009415487486"><ele>70.75</ele><time>2026-04-25T07:56:35.999Z</time></trkpt><trkpt lat="40.69188562553209" lon="8.520268151011956"><ele>72.5</ele><time>2026-04-25T07:56:36.999Z</time></trkpt><trkpt lat="40.69180920462493" lon="8.520421680944647"><ele>74.25</ele><time>2026-04-25T07:56:38Z</time></trkpt><trkpt lat="40.69174833785183" lon="8.520544852174687"><ele>76.0</ele><time>2026-04-25T07:56:39Z</time></trkpt><trkpt lat="40.69169695716019" lon="8.520628530653932"><ele>76.0</ele><time>2026-04-25T07:56:40Z</time></trkpt><trkpt lat="40.69161049622762" lon="8.52065728873339"><ele>76.0</ele><time>2026-04-25T07:56:42Z</time></trkpt><trkpt lat="40.6915630486461" lon="8.520524778143752"><ele>76.0</ele><time>2026-04-25T07:56:44Z</time></trkpt><trkpt lat="40.69155799796554" lon="8.52041275302841"><ele>76.0</ele><time>2026-04-25T07:56:45Z</time></trkpt><trkpt lat="40.69154078468191" lon="8.520280364198452"><ele>76.0</ele><time>2026-04-25T07:56:46Z</time></trkpt><trkpt lat="40.69153382994718" lon="8.520127938418545"><ele>76.6</ele><time>2026-04-25T07:56:47Z</time></trkpt><trkpt lat="40.69152020929644" lon="8.520002279048741"><ele>77.19999999999999</ele><time>2026-04-25T07:56:48Z</time></trkpt><trkpt lat="40.69149741751136" lon="8.519908701585017"><ele>77.80000000000001</ele><time>2026-04-25T07:56:49Z</time></trkpt><trkpt lat="40.691373952756464" lon="8.519844013447377"><ele>78.4</ele><time>2026-04-25T07:56:51Z</time></trkpt><trkpt lat="40.69131761378186" lon="8.519940358228903"><ele>79.0</ele><time>2026-04-25T07:56:52Z</time></trkpt><trkpt lat="40.6912906080531" lon="8.520071898133889"><ele>79.0</ele><time>2026-04-25T07:56:53Z</time></trkpt><trkpt lat="40.691287147475585" lon="8.520227751167413"><ele>79.0</ele><time>2026-04-25T07:56:54Z</time></trkpt><trkpt lat="40.69127621510618" lon="8.520397241115308"><ele>79.0</ele><time>2026-04-25T07:56:55Z</time></trkpt><trkpt lat="40.69126199958886" lon="8.520583441089157"><ele>79.0</ele><time>2026-04-25T07:56:56Z</time></trkpt><trkpt lat="40.69123799375443" lon="8.520788991971482"><ele>78.0</ele><time>2026-04-25T07:56:57Z</time></trkpt><trkpt lat="40.691192420524935" lon="8.520992697652886"><ele>77.0</ele><time>2026-04-25T07:56:58Z</time></trkpt><trkpt lat="40.691121048561264" lon="8.52118619874385"><ele>76.0</ele><time>2026-04-25T07:56:59Z</time></trkpt><trkpt lat="40.691029060641576" lon="8.521383586500647"><ele>79.5</ele><time>2026-04-25T07:57:00Z</time></trkpt><trkpt lat="40.69093164967467" lon="8.5215629549009"><ele>83.0</ele><time>2026-04-25T07:57:01Z</time></trkpt><trkpt lat="40.69084494196582" lon="8.521722344053591"><ele>86.5</ele><time>2026-04-25T07:57:02Z</time></trkpt><trkpt lat="40.69076597350098" lon="8.521854853476837"><ele>90.0</ele><time>2026-04-25T07:57:03Z</time></trkpt><trkpt lat="40.69066569297281" lon="8.52194617805507"><ele>90.0</ele><time>2026-04-25T07:57:04Z</time></trkpt><trkpt lat="40.69055370248794" lon="8.521996031833048"><ele>90.0</ele><time>2026-04-25T07:57:05Z</time></trkpt><trkpt lat="40.690445639138126" lon="8.52206851474818"><ele>90.0</ele><time>2026-04-25T07:57:06Z</time></trkpt><trkpt lat="40.690353406019376" lon="8.522130235466648"><ele>90.0</ele><time>2026-04-25T07:57:07Z</time></trkpt><trkpt lat="40.690268870664525" lon="8.522253082451076"><ele>94.33333333333334</ele><time>2026-04-25T07:57:08Z</time></trkpt><trkpt lat="40.690205582153816" lon="8.522426059675917"><ele>98.66666666666667</ele><time>2026-04-25T07:57:09Z</time></trkpt><trkpt lat="40.690150389382204" lon="8.522632404163986"><ele>103.0</ele><time>2026-04-25T07:57:10Z</time></trkpt><trkpt lat="40.690077522143724" lon="8.522826997216816"><ele>100.66666666666667</ele><time>2026-04-25T07:57:11Z</time></trkpt><trkpt lat="40.689987722608485" lon="8.523008074722135"><ele>98.33333333333334</ele><time>2026-04-25T07:57:12Z</time></trkpt><trkpt lat="40.68988495313083" lon="8.523187748191395"><ele>96.0</ele><time>2026-04-25T07:57:13Z</time></trkpt><trkpt lat="40.6897652380147" lon="8.523359666274548"><ele>96.0</ele><time>2026-04-25T07:57:14Z</time></trkpt><trkpt lat="40.68963172708366" lon="8.523529908746008"><ele>96.0</ele><time>2026-04-25T07:57:15Z</time></trkpt><trkpt lat="40.68949377086676" lon="8.523710622445561"><ele>96.0</ele><time>2026-04-25T07:57:16Z</time></trkpt><trkpt lat="40.68935823641294" lon="8.523891064900496"><ele>100.33333333333334</ele><time>2026-04-25T07:57:17Z</time></trkpt><trkpt lat="40.68922329918028" lon="8.524069419200533"><ele>104.66666666666667</ele><time>2026-04-25T07:57:18Z</time></trkpt><trkpt lat="40.68908430982118" lon="8.524254980983317"><ele>109.0</ele><time>2026-04-25T07:57:19Z</time></trkpt><trkpt lat="40.68895758219839" lon="8.524425361983727"><ele>108.5</ele><time>2026-04-25T07:57:20Z</time></trkpt><trkpt lat="40.688844093810786" lon="8.524579858931947"><ele>108.0</ele><time>2026-04-25T07:57:21Z</time></trkpt><trkpt lat="40.68874685552206" lon="8.5247081975893"><ele>107.5</ele><time>2026-04-25T07:57:22Z</time></trkpt><trkpt lat="40.68866602200265" lon="8.524799996284544"><ele>107.0</ele><time>2026-04-25T07:57:23Z</time></trkpt><trkpt lat="40.68857824227811" lon="8.524857267732662"><ele>107.0</ele><time>2026-04-25T07:57:24Z</time></trkpt><trkpt lat="40.68848041743665" lon="8.524840313560462"><ele>107.0</ele><time>2026-04-25T07:57:25Z</time></trkpt><trkpt lat="40.688375599436334" lon="8.524792385439998"><ele>107.0</ele><time>2026-04-25T07:57:26Z</time></trkpt><trkpt lat="40.688258899821506" lon="8.524740218879032"><ele>107.0</ele><time>2026-04-25T07:57:27Z</time></trkpt><trkpt lat="40.68812474963626" lon="8.524704835680309"><ele>107.0</ele><time>2026-04-25T07:57:28Z</time></trkpt><trkpt lat="40.68798123271373" lon="8.52465177844983"><ele>107.0</ele><time>2026-04-25T07:57:29Z</time></trkpt><trkpt lat="40.68783551603489" lon="8.524588763358327"><ele>107.0</ele><time>2026-04-25T07:57:30Z</time></trkpt><trkpt lat="40.687673955979726" lon="8.524602204820463"><ele>107.33333333333333</ele><time>2026-04-25T07:57:31Z</time></trkpt><trkpt lat="40.68750877282002" lon="8.524605095308662"><ele>107.66666666666666</ele><time>2026-04-25T07:57:32Z</time></trkpt><trkpt lat="40.6873381958156" lon="8.524625818084644"><ele>108.0</ele><time>2026-04-25T07:57:33Z</time></trkpt><trkpt lat="40.687166585301014" lon="8.524661797953467"><ele>108.0</ele><time>2026-04-25T07:57:34Z</time></trkpt><trkpt lat="40.68700191306557" lon="8.524721640804799"><ele>108.0</ele><time>2026-04-25T07:57:35Z</time></trkpt><trkpt lat="40.68684419061988" lon="8.524814081733464"><ele>108.0</ele><time>2026-04-25T07:57:36Z</time></trkpt><trkpt lat="40.6867085877956" lon="8.52491597845338"><ele>110.5</ele><time>2026-04-25T07:57:37Z</time></trkpt><trkpt lat="40.686585821959966" lon="8.52500966220294"><ele>113.0</ele><time>2026-04-25T07:57:38Z</time></trkpt><trkpt lat="40.6864638820917" lon="8.525083218250128"><ele>115.5</ele><time>2026-04-25T07:57:39Z</time></trkpt><trkpt lat="40.6863423797545" lon="8.525123675235378"><ele>118.0</ele><time>2026-04-25T07:57:40Z</time></trkpt><trkpt lat="40.686213152509815" lon="8.52513091032683"><ele>117.75</ele><time>2026-04-25T07:57:41Z</time></trkpt><trkpt lat="40.6860920191101" lon="8.525076285895508"><ele>117.5</ele><time>2026-04-25T07:57:42Z</time></trkpt><trkpt lat="40.685977999514776" lon="8.52501660459719"><ele>117.25</ele><time>2026-04-25T07:57:43Z</time></trkpt><trkpt lat="40.68587707281354" lon="8.524930926344132"><ele>117.0</ele><time>2026-04-25T07:57:44Z</time></trkpt><trkpt lat="40.685782822417174" lon="8.52482436722438"><ele>117.0</ele><time>2026-04-25T07:57:45Z</time></trkpt><trkpt lat="40.68572119244233" lon="8.524695826900798"><ele>117.0</ele><time>2026-04-25T07:57:46Z</time></trkpt><trkpt lat="40.68570243642581" lon="8.52454607494271"><ele>117.0</ele><time>2026-04-25T07:57:47Z</time></trkpt><trkpt lat="40.68570891186158" lon="8.524371683512049"><ele>117.0</ele><time>2026-04-25T07:57:48Z</time></trkpt><trkpt lat="40.685712540135434" lon="8.524175962308327"><ele>122.33333333333334</ele><time>2026-04-25T07:57:49Z</time></trkpt><trkpt lat="40.68572350488797" lon="8.523988523906027"><ele>127.66666666666667</ele><time>2026-04-25T07:57:50Z</time></trkpt><trkpt lat="40.68573590390767" lon="8.5237882359374"><ele>133.0</ele><time>2026-04-25T07:57:51Z</time></trkpt><trkpt lat="40.68570422574148" lon="8.523578951482232"><ele>135.0</ele><time>2026-04-25T07:57:52Z</time></trkpt><trkpt lat="40.68564384990235" lon="8.523379115485088"><ele>137.0</ele><time>2026-04-25T07:57:53Z</time></trkpt><trkpt lat="40.68559310076087" lon="8.523191121091749"><ele>139.0</ele><time>2026-04-25T07:57:54Z</time></trkpt><trkpt lat="40.68553373356934" lon="8.523021174374724"><ele>140.66666666666669</ele><time>2026-04-25T07:57:55Z</time></trkpt><trkpt lat="40.68542901220842" lon="8.522894237970627"><ele>142.33333333333334</ele><time>2026-04-25T07:57:56Z</time></trkpt><trkpt lat="40.685287206042936" lon="8.52279299478562"><ele>144.0</ele><time>2026-04-25T07:57:57Z</time></trkpt><trkpt lat="40.685138808513166" lon="8.522693204782147"><ele>144.33333333333334</ele><time>2026-04-25T07:57:58Z</time></trkpt><trkpt lat="40.684984422649464" lon="8.52258938791435"><ele>144.66666666666669</ele><time>2026-04-25T07:57:59Z</time></trkpt><trkpt lat="40.684824040475675" lon="8.522481759994552"><ele>145.0</ele><time>2026-04-25T07:58:00Z</time></trkpt><trkpt lat="40.684660351893605" lon="8.522372536535116"><ele>145.0</ele><time>2026-04-25T07:58:01Z</time></trkpt><trkpt lat="40.684492353883016" lon="8.522260437577875"><ele>145.0</ele><time>2026-04-25T07:58:02.001Z</time></trkpt><trkpt lat="40.684338148045626" lon="8.522157540889868"><ele>145.0</ele><time>2026-04-25T07:58:02.999Z</time></trkpt><trkpt lat="40.684183884766455" lon="8.522056044061154"><ele>146.66666666666669</ele><time>2026-04-25T07:58:03.999Z</time></trkpt><trkpt lat="40.68402576063786" lon="8.521952289668139"><ele>148.33333333333334</ele><time>2026-04-25T07:58:04.999Z</time></trkpt><trkpt lat="40.68385664816562" lon="8.521861577691126"><ele>150.0</ele><time>2026-04-25T07:58:05.999Z</time></trkpt><trkpt lat="40.68369088269985" lon="8.521750042960493"><ele>150.33333333333334</ele><time>2026-04-25T07:58:06.999Z</time></trkpt><trkpt lat="40.683521102623" lon="8.521638028639558"><ele>150.66666666666669</ele><time>2026-04-25T07:58:07.999Z</time></trkpt><trkpt lat="40.683348049678315" lon="8.521524263579138"><ele>151.0</ele><time>2026-04-25T07:58:08.999Z</time></trkpt><trkpt lat="40.683172704677574" lon="8.521407506443941"><ele>151.0</ele><time>2026-04-25T07:58:09.999Z</time></trkpt><trkpt lat="40.68299482773387" lon="8.52129087981168"><ele>151.0</ele><time>2026-04-25T07:58:10.999Z</time></trkpt><trkpt lat="40.68282155170223" lon="8.521151110914255"><ele>151.0</ele><time>2026-04-25T07:58:11.999Z</time></trkpt><trkpt lat="40.682638807764434" lon="8.521029299808712"><ele>150.33333333333334</ele><time>2026-04-25T07:58:12.999Z</time></trkpt><trkpt lat="40.682461448427944" lon="8.520910802347805"><ele>149.66666666666666</ele><time>2026-04-25T07:58:13.999Z</time></trkpt><trkpt lat="40.6822855117078" lon="8.520793053771435"><ele>149.0</ele><time>2026-04-25T07:58:14.999Z</time></trkpt><trkpt lat="40.68211164640899" lon="8.520675811087346"><ele>149.0</ele><time>2026-04-25T07:58:15.999Z</time></trkpt><trkpt lat="40.68193807533009" lon="8.520558766734473"><ele>149.0</ele><time>2026-04-25T07:58:16.999Z</time></trkpt><trkpt lat="40.68176442195252" lon="8.520441666918034"><ele>149.0</ele><time>2026-04-25T07:58:17.999Z</time></trkpt><trkpt lat="40.68159031822908" lon="8.520325675657798"><ele>148.66666666666666</ele><time>2026-04-25T07:58:18.999Z</time></trkpt><trkpt lat="40.681416028639006" lon="8.520209848483598"><ele>148.33333333333334</ele><time>2026-04-25T07:58:19.999Z</time></trkpt><trkpt lat="40.681241301895376" lon="8.520092970662585"><ele>148.0</ele><time>2026-04-25T07:58:20.999Z</time></trkpt><trkpt lat="40.681065591525204" lon="8.519975159446894"><ele>149.33333333333334</ele><time>2026-04-25T07:58:21.999Z</time></trkpt><trkpt lat="40.680889349900596" lon="8.519856987321038"><ele>150.66666666666666</ele><time>2026-04-25T07:58:22.999Z</time></trkpt><trkpt lat="40.680713410808146" lon="8.519735644208556"><ele>152.0</ele><time>2026-04-25T07:58:23.999Z</time></trkpt><trkpt lat="40.68053530253777" lon="8.519614842236807"><ele>151.33333333333331</ele><time>2026-04-25T07:58:24.999Z</time></trkpt><trkpt lat="40.680357279747085" lon="8.519496398209425"><ele>150.66666666666666</ele><time>2026-04-25T07:58:25.999Z</time></trkpt><trkpt lat="40.680180599712614" lon="8.51937884757085"><ele>150.0</ele><time>2026-04-25T07:58:26.999Z</time></trkpt><trkpt lat="40.680003665046456" lon="8.519261127506658"><ele>150.0</ele><time>2026-04-25T07:58:27.999Z</time></trkpt><trkpt lat="40.67982004928087" lon="8.51916273010378"><ele>150.0</ele><time>2026-04-25T07:58:28.999Z</time></trkpt><trkpt lat="40.67965392522822" lon="8.519050138216404"><ele>150.0</ele><time>2026-04-25T07:58:29.999Z</time></trkpt><trkpt lat="40.67949485156626" lon="8.518946557040602"><ele>150.66666666666666</ele><time>2026-04-25T07:58:30.999Z</time></trkpt><trkpt lat="40.67934510942917" lon="8.518839818716096"><ele>151.33333333333331</ele><time>2026-04-25T07:58:31.999Z</time></trkpt><trkpt lat="40.6791735925332" lon="8.518797959354007"><ele>152.0</ele><time>2026-04-25T07:58:32.999Z</time></trkpt><trkpt lat="40.67899321972723" lon="8.518761498660284"><ele>152.0</ele><time>2026-04-25T07:58:33.999Z</time></trkpt><trkpt lat="40.67880904798543" lon="8.518739043368575"><ele>152.0</ele><time>2026-04-25T07:58:34.999Z</time></trkpt><trkpt lat="40.67862075288276" lon="8.518722311521856"><ele>152.0</ele><time>2026-04-25T07:58:36Z</time></trkpt><trkpt lat="40.67843120261293" lon="8.518705769219547"><ele>149.66666666666666</ele><time>2026-04-25T07:58:37Z</time></trkpt><trkpt lat="40.678241710028345" lon="8.518684747627198"><ele>147.33333333333334</ele><time>2026-04-25T07:58:38Z</time></trkpt><trkpt lat="40.678052571809744" lon="8.518666025653944"><ele>145.0</ele><time>2026-04-25T07:58:39Z</time></trkpt><trkpt lat="40.67786393235109" lon="8.518647133345475"><ele>146.0</ele><time>2026-04-25T07:58:40Z</time></trkpt><trkpt lat="40.67767265393336" lon="8.518628015566122"><ele>147.0</ele><time>2026-04-25T07:58:41Z</time></trkpt><trkpt lat="40.67748051100992" lon="8.518610604115059"><ele>148.0</ele><time>2026-04-25T07:58:42Z</time></trkpt><trkpt lat="40.67729676381652" lon="8.518595134926514"><ele>148.0</ele><time>2026-04-25T07:58:43Z</time></trkpt><trkpt lat="40.67712378544346" lon="8.518579286457774"><ele>148.0</ele><time>2026-04-25T07:58:44Z</time></trkpt><trkpt lat="40.67695797682736" lon="8.518534919792094"><ele>148.0</ele><time>2026-04-25T07:58:45Z</time></trkpt><trkpt lat="40.67680164002162" lon="8.518498175307496"><ele>148.33333333333334</ele><time>2026-04-25T07:58:46Z</time></trkpt><trkpt lat="40.67666107671" lon="8.518422060315403"><ele>148.66666666666666</ele><time>2026-04-25T07:58:47Z</time></trkpt><trkpt lat="40.67652484037967" lon="8.518309380455928"><ele>149.0</ele><time>2026-04-25T07:58:48Z</time></trkpt><trkpt lat="40.676383678047664" lon="8.518181309038699"><ele>149.0</ele><time>2026-04-25T07:58:49Z</time></trkpt><trkpt lat="40.67623874828302" lon="8.518048438159942"><ele>149.0</ele><time>2026-04-25T07:58:50Z</time></trkpt><trkpt lat="40.67608916969459" lon="8.5179112965439"><ele>149.0</ele><time>2026-04-25T07:58:51Z</time></trkpt><trkpt lat="40.67593583735711" lon="8.517769749653938"><ele>147.66666666666666</ele><time>2026-04-25T07:58:52Z</time></trkpt><trkpt lat="40.675780691631104" lon="8.517623588291"><ele>146.33333333333334</ele><time>2026-04-25T07:58:53Z</time></trkpt><trkpt lat="40.67562245529717" lon="8.51747516569645"><ele>145.0</ele><time>2026-04-25T07:58:54Z</time></trkpt><trkpt lat="40.67547132345726" lon="8.517333725074028"><ele>145.0</ele><time>2026-04-25T07:58:55Z</time></trkpt><trkpt lat="40.67532995484823" lon="8.51720197698746"><ele>145.0</ele><time>2026-04-25T07:58:56Z</time></trkpt><trkpt lat="40.67519364382622" lon="8.517082639532559"><ele>145.0</ele><time>2026-04-25T07:58:57Z</time></trkpt><trkpt lat="40.675060563673654" lon="8.516980813550289"><ele>147.0</ele><time>2026-04-25T07:58:58Z</time></trkpt><trkpt lat="40.6749161294536" lon="8.516897737993315"><ele>149.0</ele><time>2026-04-25T07:58:59Z</time></trkpt><trkpt lat="40.67475782850875" lon="8.51684643251218"><ele>151.0</ele><time>2026-04-25T07:59:00Z</time></trkpt><trkpt lat="40.67459389632005" lon="8.516820333629994"><ele>151.0</ele><time>2026-04-25T07:59:01Z</time></trkpt><trkpt lat="40.674443000729354" lon="8.51680895851165"><ele>151.0</ele><time>2026-04-25T07:59:02Z</time></trkpt><trkpt lat="40.67430468787691" lon="8.516789123140777"><ele>151.0</ele><time>2026-04-25T07:59:03Z</time></trkpt><trkpt lat="40.67417079623913" lon="8.51673712524179"><ele>151.0</ele><time>2026-04-25T07:59:04Z</time></trkpt><trkpt lat="40.67404206227598" lon="8.516644619848979"><ele>152.33333333333334</ele><time>2026-04-25T07:59:05Z</time></trkpt><trkpt lat="40.67391233250819" lon="8.516533263580438"><ele>153.66666666666666</ele><time>2026-04-25T07:59:06Z</time></trkpt><trkpt lat="40.673775012526704" lon="8.516417390569513"><ele>155.0</ele><time>2026-04-25T07:59:07Z</time></trkpt><trkpt lat="40.673632965483975" lon="8.516297520247074"><ele>156.66666666666666</ele><time>2026-04-25T07:59:08Z</time></trkpt><trkpt lat="40.67348482626359" lon="8.516172352357463"><ele>158.33333333333334</ele><time>2026-04-25T07:59:09Z</time></trkpt><trkpt lat="40.67333156455009" lon="8.516042856072787"><ele>160.0</ele><time>2026-04-25T07:59:10Z</time></trkpt><trkpt lat="40.67317323648713" lon="8.515909079288196"><ele>160.0</ele><time>2026-04-25T07:59:11Z</time></trkpt><trkpt lat="40.67301415938175" lon="8.515774669448005"><ele>160.0</ele><time>2026-04-25T07:59:12Z</time></trkpt><trkpt lat="40.672859652832535" lon="8.515644122728474"><ele>160.0</ele><time>2026-04-25T07:59:13Z</time></trkpt><trkpt lat="40.672704002818655" lon="8.515512608581393"><ele>162.0</ele><time>2026-04-25T07:59:14Z</time></trkpt><trkpt lat="40.672547873865746" lon="8.515380689842809"><ele>164.0</ele><time>2026-04-25T07:59:15Z</time></trkpt><trkpt lat="40.67239206219657" lon="8.515249039015826"><ele>166.0</ele><time>2026-04-25T07:59:16Z</time></trkpt><trkpt lat="40.67223686024885" lon="8.515116631506874"><ele>166.0</ele><time>2026-04-25T07:59:17Z</time></trkpt><trkpt lat="40.672079625846955" lon="8.514983912830862"><ele>166.0</ele><time>2026-04-25T07:59:18Z</time></trkpt><trkpt lat="40.671923244500384" lon="8.514851914178806"><ele>166.0</ele><time>2026-04-25T07:59:19Z</time></trkpt><trkpt lat="40.67176737365946" lon="8.514720346436281"><ele>167.0</ele><time>2026-04-25T07:59:20Z</time></trkpt><trkpt lat="40.6716119183513" lon="8.514589129438178"><ele>168.0</ele><time>2026-04-25T07:59:21Z</time></trkpt><trkpt lat="40.67145628824105" lon="8.514457437557164"><ele>169.0</ele><time>2026-04-25T07:59:22Z</time></trkpt><trkpt lat="40.67129986513927" lon="8.51432489406251"><ele>169.0</ele><time>2026-04-25T07:59:23Z</time></trkpt><trkpt lat="40.67114164171534" lon="8.514190922211275"><ele>169.0</ele><time>2026-04-25T07:59:24Z</time></trkpt><trkpt lat="40.6709820068712" lon="8.514055755257335"><ele>169.0</ele><time>2026-04-25T07:59:25Z</time></trkpt><trkpt lat="40.67082242657279" lon="8.513920634477131"><ele>169.66666666666669</ele><time>2026-04-25T07:59:26Z</time></trkpt><trkpt lat="40.670669036957186" lon="8.513786661612869"><ele>170.33333333333334</ele><time>2026-04-25T07:59:27Z</time></trkpt><trkpt lat="40.670513554880515" lon="8.513660026080151"><ele>171.0</ele><time>2026-04-25T07:59:28Z</time></trkpt><trkpt lat="40.67035675854327" lon="8.513541620575323"><ele>172.0</ele><time>2026-04-25T07:59:29Z</time></trkpt><trkpt lat="40.67020737961807" lon="8.513430795047812"><ele>173.0</ele><time>2026-04-25T07:59:30Z</time></trkpt><trkpt lat="40.67006582217659" lon="8.51332807053076"><ele>174.0</ele><time>2026-04-25T07:59:31Z</time></trkpt><trkpt lat="40.66993177023773" lon="8.513230792452273"><ele>174.0</ele><time>2026-04-25T07:59:32Z</time></trkpt><trkpt lat="40.66980396001812" lon="8.513138043969713"><ele>174.0</ele><time>2026-04-25T07:59:33Z</time></trkpt><trkpt lat="40.66967688521052" lon="8.513045829028778"><ele>174.0</ele><time>2026-04-25T07:59:34Z</time></trkpt><trkpt lat="40.669531760577556" lon="8.512940541361822"><ele>173.66666666666666</ele><time>2026-04-25T07:59:35Z</time></trkpt><trkpt lat="40.669381326042206" lon="8.512831401748628"><ele>173.33333333333331</ele><time>2026-04-25T07:59:36Z</time></trkpt><trkpt lat="40.66924010080258" lon="8.512728943435615"><ele>173.0</ele><time>2026-04-25T07:59:37.001Z</time></trkpt><trkpt lat="40.66910706187551" lon="8.512632424276713"><ele>173.0</ele><time>2026-04-25T07:59:38.001Z</time></trkpt><trkpt lat="40.66897417968508" lon="8.512536018923877"><ele>173.0</ele><time>2026-04-25T07:59:39.001Z</time></trkpt><trkpt lat="40.66883401068478" lon="8.512433038778951"><ele>173.0</ele><time>2026-04-25T07:59:40.001Z</time></trkpt><trkpt lat="40.668686959744726" lon="8.512324325823402"><ele>172.66666666666666</ele><time>2026-04-25T07:59:41.001Z</time></trkpt><trkpt lat="40.668541916411904" lon="8.512216989990524"><ele>172.33333333333334</ele><time>2026-04-25T07:59:42.001Z</time></trkpt><trkpt lat="40.668394545679526" lon="8.512107894138758"><ele>172.0</ele><time>2026-04-25T07:59:43.001Z</time></trkpt><trkpt lat="40.66824457597467" lon="8.51199804681961"><ele>171.33333333333334</ele><time>2026-04-25T07:59:44.001Z</time></trkpt><trkpt lat="40.66809105150701" lon="8.511887987337179"><ele>170.66666666666666</ele><time>2026-04-25T07:59:45.001Z</time></trkpt><trkpt lat="40.66792830734037" lon="8.511782182374693"><ele>170.0</ele><time>2026-04-25T07:59:46.001Z</time></trkpt><trkpt lat="40.6677667140039" lon="8.511686256469849"><ele>169.0</ele><time>2026-04-25T07:59:47.001Z</time></trkpt><trkpt lat="40.667610300075474" lon="8.511602043013252"><ele>168.0</ele><time>2026-04-25T07:59:48.001Z</time></trkpt><trkpt lat="40.66745569157208" lon="8.511524641179827"><ele>167.0</ele><time>2026-04-25T07:59:49.001Z</time></trkpt><trkpt lat="40.667293822069375" lon="8.511459076634095"><ele>167.0</ele><time>2026-04-25T07:59:50.001Z</time></trkpt><trkpt lat="40.66711672317615" lon="8.511415852707628"><ele>167.0</ele><time>2026-04-25T07:59:51.001Z</time></trkpt><trkpt lat="40.6669348910116" lon="8.511388998115653"><ele>167.0</ele><time>2026-04-25T07:59:52.001Z</time></trkpt><trkpt lat="40.66675889288149" lon="8.511390703539766"><ele>167.33333333333331</ele><time>2026-04-25T07:59:53.001Z</time></trkpt><trkpt lat="40.66659232160335" lon="8.511376506733995"><ele>167.66666666666666</ele><time>2026-04-25T07:59:54.001Z</time></trkpt><trkpt lat="40.66643409210489" lon="8.511351094997158"><ele>168.0</ele><time>2026-04-25T07:59:55.001Z</time></trkpt><trkpt lat="40.66627445213244" lon="8.51136885691628"><ele>166.0</ele><time>2026-04-25T07:59:56.001Z</time></trkpt><trkpt lat="40.66611104935174" lon="8.51141743038374"><ele>164.0</ele><time>2026-04-25T07:59:57.001Z</time></trkpt><trkpt lat="40.665949997290596" lon="8.5114791960278"><ele>162.0</ele><time>2026-04-25T07:59:58.001Z</time></trkpt><trkpt lat="40.665795773009066" lon="8.511572495939376"><ele>162.0</ele><time>2026-04-25T07:59:59.001Z</time></trkpt><trkpt lat="40.66564608705445" lon="8.511654464473718"><ele>162.0</ele><time>2026-04-25T08:00:00.001Z</time></trkpt><trkpt lat="40.66550301323137" lon="8.511746814041013"><ele>162.0</ele><time>2026-04-25T08:00:01.001Z</time></trkpt><trkpt lat="40.66536142232922" lon="8.511861639186673"><ele>162.0</ele><time>2026-04-25T08:00:02.001Z</time></trkpt><trkpt lat="40.66521887875195" lon="8.511992023269181"><ele>162.0</ele><time>2026-04-25T08:00:03.001Z</time></trkpt><trkpt lat="40.66507375594297" lon="8.512132930015325"><ele>162.0</ele><time>2026-04-25T08:00:04.001Z</time></trkpt><trkpt lat="40.66493234977745" lon="8.512269282838002"><ele>162.0</ele><time>2026-04-25T08:00:05.001Z</time></trkpt><trkpt lat="40.6647970774821" lon="8.512402065634904"><ele>162.0</ele><time>2026-04-25T08:00:06.001Z</time></trkpt><trkpt lat="40.664667257897534" lon="8.512529386077224"><ele>162.0</ele><time>2026-04-25T08:00:07.001Z</time></trkpt><trkpt lat="40.664528132240946" lon="8.512630834473349"><ele>161.5</ele><time>2026-04-25T08:00:08.001Z</time></trkpt><trkpt lat="40.664398695103706" lon="8.512715269051034"><ele>161.0</ele><time>2026-04-25T08:00:08.999Z</time></trkpt><trkpt lat="40.664276148817315" lon="8.512758156207697"><ele>160.5</ele><time>2026-04-25T08:00:09.999Z</time></trkpt><trkpt lat="40.66415320440747" lon="8.512774384297844"><ele>160.0</ele><time>2026-04-25T08:00:10.999Z</time></trkpt><trkpt lat="40.66403138680463" lon="8.512788173833885"><ele>160.0</ele><time>2026-04-25T08:00:11.999Z</time></trkpt><trkpt lat="40.66389875663387" lon="8.51281836208625"><ele>160.0</ele><time>2026-04-25T08:00:12.999Z</time></trkpt><trkpt lat="40.6637565462591" lon="8.512835776539871"><ele>160.0</ele><time>2026-04-25T08:00:13.999Z</time></trkpt><trkpt lat="40.6636041906542" lon="8.51283066364538"><ele>160.0</ele><time>2026-04-25T08:00:14.999Z</time></trkpt><trkpt lat="40.66344508112473" lon="8.512846935884022"><ele>160.66666666666669</ele><time>2026-04-25T08:00:15.999Z</time></trkpt><trkpt lat="40.66327967457006" lon="8.512862170871776"><ele>161.33333333333334</ele><time>2026-04-25T08:00:16.999Z</time></trkpt><trkpt lat="40.66311323780572" lon="8.512876761850507"><ele>162.0</ele><time>2026-04-25T08:00:17.999Z</time></trkpt><trkpt lat="40.66296539323176" lon="8.512904792847872"><ele>162.0</ele><time>2026-04-25T08:00:18.999Z</time></trkpt><trkpt lat="40.66283306819704" lon="8.512843579862938"><ele>162.0</ele><time>2026-04-25T08:00:19.999Z</time></trkpt><trkpt lat="40.66271780661084" lon="8.51275311684372"><ele>162.0</ele><time>2026-04-25T08:00:20.999Z</time></trkpt><trkpt lat="40.662590261837956" lon="8.512639689560595"><ele>162.0</ele><time>2026-04-25T08:00:21.999Z</time></trkpt><trkpt lat="40.66245564938163" lon="8.512512389259538"><ele>162.0</ele><time>2026-04-25T08:00:22.999Z</time></trkpt><trkpt lat="40.662317173017115" lon="8.512380071870412"><ele>162.0</ele><time>2026-04-25T08:00:23.999Z</time></trkpt><trkpt lat="40.662181746860945" lon="8.512254235305345"><ele>162.0</ele><time>2026-04-25T08:00:24.999Z</time></trkpt><trkpt lat="40.66204190177576" lon="8.512132529849906"><ele>161.5</ele><time>2026-04-25T08:00:25.999Z</time></trkpt><trkpt lat="40.661910403339675" lon="8.512019524385948"><ele>161.0</ele><time>2026-04-25T08:00:26.999Z</time></trkpt><trkpt lat="40.66178088568826" lon="8.511916245560249"><ele>160.5</ele><time>2026-04-25T08:00:27.999Z</time></trkpt><trkpt lat="40.66165964653544" lon="8.511824451271112"><ele>160.0</ele><time>2026-04-25T08:00:28.999Z</time></trkpt><trkpt lat="40.66155505220421" lon="8.511735303243169"><ele>160.0</ele><time>2026-04-25T08:00:29.999Z</time></trkpt><trkpt lat="40.66146823489639" lon="8.511644097465846"><ele>160.0</ele><time>2026-04-25T08:00:30.999Z</time></trkpt><trkpt lat="40.66141877406114" lon="8.511530683107074"><ele>160.0</ele><time>2026-04-25T08:00:31.999Z</time></trkpt><trkpt lat="40.661399760300434" lon="8.511397894882457"><ele>160.0</ele><time>2026-04-25T08:00:32.999Z</time></trkpt><trkpt lat="40.6614110216162" lon="8.511235695817794"><ele>160.0</ele><time>2026-04-25T08:00:33.999Z</time></trkpt><trkpt lat="40.66142812439857" lon="8.511048212954718"><ele>159.66666666666669</ele><time>2026-04-25T08:00:34.999Z</time></trkpt><trkpt lat="40.66144770929626" lon="8.510850440802741"><ele>159.33333333333334</ele><time>2026-04-25T08:00:35.999Z</time></trkpt><trkpt lat="40.66146857719926" lon="8.510639712567809"><ele>159.0</ele><time>2026-04-25T08:00:37Z</time></trkpt><trkpt lat="40.66149005152819" lon="8.510416053714165"><ele>157.0</ele><time>2026-04-25T08:00:38Z</time></trkpt><trkpt lat="40.66151035350245" lon="8.510196679039078"><ele>155.0</ele><time>2026-04-25T08:00:39Z</time></trkpt><trkpt lat="40.661530695487826" lon="8.50997687188881"><ele>153.0</ele><time>2026-04-25T08:00:40Z</time></trkpt><trkpt lat="40.66155027171835" lon="8.509765339405572"><ele>151.0</ele><time>2026-04-25T08:00:41Z</time></trkpt><trkpt lat="40.661569375540275" lon="8.50955891143971"><ele>149.0</ele><time>2026-04-25T08:00:42Z</time></trkpt><trkpt lat="40.66158880262788" lon="8.509358548152258"><ele>147.0</ele><time>2026-04-25T08:00:43Z</time></trkpt><trkpt lat="40.66159629203673" lon="8.509159771107013"><ele>147.0</ele><time>2026-04-25T08:00:44Z</time></trkpt><trkpt lat="40.66163906152516" lon="8.50897512754574"><ele>147.0</ele><time>2026-04-25T08:00:45Z</time></trkpt><trkpt lat="40.66170392187902" lon="8.508797305507757"><ele>147.0</ele><time>2026-04-25T08:00:46Z</time></trkpt><trkpt lat="40.66179875720133" lon="8.508627004521323"><ele>147.66666666666666</ele><time>2026-04-25T08:00:47Z</time></trkpt><trkpt lat="40.66191148298219" lon="8.50847839777326"><ele>148.33333333333331</ele><time>2026-04-25T08:00:48Z</time></trkpt><trkpt lat="40.66201872729183" lon="8.50834202440834"><ele>149.0</ele><time>2026-04-25T08:00:49Z</time></trkpt><trkpt lat="40.66210059146248" lon="8.508178771211995"><ele>149.0</ele><time>2026-04-25T08:00:50Z</time></trkpt><trkpt lat="40.66215413493095" lon="8.507975963149581"><ele>149.0</ele><time>2026-04-25T08:00:51Z</time></trkpt><trkpt lat="40.66219495238888" lon="8.507776025674493"><ele>149.0</ele><time>2026-04-25T08:00:52Z</time></trkpt><trkpt lat="40.662250910229055" lon="8.507580581730586"><ele>146.33333333333331</ele><time>2026-04-25T08:00:53Z</time></trkpt><trkpt lat="40.66233608025501" lon="8.507379643757506"><ele>143.66666666666666</ele><time>2026-04-25T08:00:54Z</time></trkpt><trkpt lat="40.6624309850326" lon="8.507189097936962"><ele>141.0</ele><time>2026-04-25T08:00:55Z</time></trkpt><trkpt lat="40.662521815059776" lon="8.507012077812325"><ele>138.75</ele><time>2026-04-25T08:00:56Z</time></trkpt><trkpt lat="40.66259566729529" lon="8.506856726202662"><ele>136.5</ele><time>2026-04-25T08:00:57Z</time></trkpt><trkpt lat="40.66264811535506" lon="8.506710405651638"><ele>134.25</ele><time>2026-04-25T08:00:58Z</time></trkpt><trkpt lat="40.66266524372469" lon="8.506562939979608"><ele>132.0</ele><time>2026-04-25T08:00:59Z</time></trkpt><trkpt lat="40.66264249931757" lon="8.506422410534016"><ele>132.0</ele><time>2026-04-25T08:01:00Z</time></trkpt><trkpt lat="40.66257770968082" lon="8.506281725618818"><ele>132.0</ele><time>2026-04-25T08:01:01Z</time></trkpt><trkpt lat="40.66247889616884" lon="8.506146517961085"><ele>132.0</ele><time>2026-04-25T08:01:02Z</time></trkpt><trkpt lat="40.662384705668856" lon="8.505991204735857"><ele>132.0</ele><time>2026-04-25T08:01:03Z</time></trkpt><trkpt lat="40.66227566726954" lon="8.505839517560643"><ele>131.75</ele><time>2026-04-25T08:01:04Z</time></trkpt><trkpt lat="40.662172040816465" lon="8.505695358889017"><ele>131.5</ele><time>2026-04-25T08:01:05Z</time></trkpt><trkpt lat="40.66208196263685" lon="8.505561699299319"><ele>131.25</ele><time>2026-04-25T08:01:06Z</time></trkpt><trkpt lat="40.66199076494404" lon="8.505439783353403"><ele>131.0</ele><time>2026-04-25T08:01:07Z</time></trkpt><trkpt lat="40.66194398335682" lon="8.505296345080183"><ele>130.75</ele><time>2026-04-25T08:01:08Z</time></trkpt><trkpt lat="40.66193338529651" lon="8.505140273581203"><ele>130.5</ele><time>2026-04-25T08:01:09Z</time></trkpt><trkpt lat="40.66196056905726" lon="8.50498857850147"><ele>130.25</ele><time>2026-04-25T08:01:10Z</time></trkpt><trkpt lat="40.66201158255615" lon="8.504830086950882"><ele>130.0</ele><time>2026-04-25T08:01:11Z</time></trkpt><trkpt lat="40.6620788081399" lon="8.504665975004963"><ele>127.75</ele><time>2026-04-25T08:01:12Z</time></trkpt><trkpt lat="40.66214834326718" lon="8.504491638091478"><ele>125.5</ele><time>2026-04-25T08:01:13Z</time></trkpt><trkpt lat="40.66221986834572" lon="8.504313465487774"><ele>123.25</ele><time>2026-04-25T08:01:14Z</time></trkpt><trkpt lat="40.662296242769024" lon="8.50414916495688"><ele>121.0</ele><time>2026-04-25T08:01:15Z</time></trkpt><trkpt lat="40.662384258723" lon="8.503992026841424"><ele>121.0</ele><time>2026-04-25T08:01:16Z</time></trkpt><trkpt lat="40.662483411234355" lon="8.503831133476316"><ele>121.0</ele><time>2026-04-25T08:01:17Z</time></trkpt><trkpt lat="40.66259057771581" lon="8.50366433207392"><ele>121.0</ele><time>2026-04-25T08:01:18Z</time></trkpt><trkpt lat="40.66269583698955" lon="8.503498502519722"><ele>120.0</ele><time>2026-04-25T08:01:19Z</time></trkpt><trkpt lat="40.662804639049185" lon="8.503325432525067"><ele>119.0</ele><time>2026-04-25T08:01:20Z</time></trkpt><trkpt lat="40.6629097836237" lon="8.503162509009373"><ele>118.0</ele><time>2026-04-25T08:01:21Z</time></trkpt><trkpt lat="40.663011702140714" lon="8.503003077755228"><ele>115.75</ele><time>2026-04-25T08:01:22Z</time></trkpt><trkpt lat="40.6631120701033" lon="8.502849543169452"><ele>113.5</ele><time>2026-04-25T08:01:23Z</time></trkpt><trkpt lat="40.66321137689277" lon="8.502710336499268"><ele>111.25</ele><time>2026-04-25T08:01:24Z</time></trkpt><trkpt lat="40.663311846538804" lon="8.502592066498263"><ele>109.0</ele><time>2026-04-25T08:01:25Z</time></trkpt><trkpt lat="40.663417447131145" lon="8.502505053800052"><ele>109.0</ele><time>2026-04-25T08:01:26.001Z</time></trkpt><trkpt lat="40.66353957148469" lon="8.502464410774353"><ele>109.0</ele><time>2026-04-25T08:01:27.001Z</time></trkpt><trkpt lat="40.66367749588928" lon="8.50244530874015"><ele>109.0</ele><time>2026-04-25T08:01:28.001Z</time></trkpt><trkpt lat="40.66381746885695" lon="8.502429384372457"><ele>109.0</ele><time>2026-04-25T08:01:29.001Z</time></trkpt><trkpt lat="40.66394760308152" lon="8.50241177559668"><ele>108.5</ele><time>2026-04-25T08:01:30.001Z</time></trkpt><trkpt lat="40.66406823617838" lon="8.502375658633968"><ele>108.0</ele><time>2026-04-25T08:01:31.001Z</time></trkpt><trkpt lat="40.664172202968054" lon="8.502312935221248"><ele>107.5</ele><time>2026-04-25T08:01:32.001Z</time></trkpt><trkpt lat="40.66425789728692" lon="8.502215299579385"><ele>107.0</ele><time>2026-04-25T08:01:33.001Z</time></trkpt><trkpt lat="40.664320465729176" lon="8.502084920590033"><ele>105.6</ele><time>2026-04-25T08:01:34.001Z</time></trkpt><trkpt lat="40.66437575623255" lon="8.501950435125806"><ele>104.19999999999999</ele><time>2026-04-25T08:01:35.001Z</time></trkpt><trkpt lat="40.664443763107926" lon="8.501835647208289"><ele>102.8</ele><time>2026-04-25T08:01:36.001Z</time></trkpt><trkpt lat="40.66452755894122" lon="8.501749208301556"><ele>101.4</ele><time>2026-04-25T08:01:37.001Z</time></trkpt><trkpt lat="40.66463045084106" lon="8.50169048106709"><ele>100.0</ele><time>2026-04-25T08:01:38.001Z</time></trkpt><trkpt lat="40.66475599442321" lon="8.501654585911142"><ele>100.0</ele><time>2026-04-25T08:01:39.001Z</time></trkpt><trkpt lat="40.6648914165524" lon="8.501637839996684"><ele>100.0</ele><time>2026-04-25T08:01:40.001Z</time></trkpt><trkpt lat="40.66502957016388" lon="8.5016287103619"><ele>100.0</ele><time>2026-04-25T08:01:41.001Z</time></trkpt><trkpt lat="40.6651539408035" lon="8.501618560406246"><ele>100.0</ele><time>2026-04-25T08:01:42.001Z</time></trkpt><trkpt lat="40.66525614050284" lon="8.501598349256014"><ele>100.33333333333334</ele><time>2026-04-25T08:01:43.001Z</time></trkpt><trkpt lat="40.66533332187092" lon="8.501567049614703"><ele>100.66666666666667</ele><time>2026-04-25T08:01:44.001Z</time></trkpt><trkpt lat="40.66538264081078" lon="8.50150625985286"><ele>101.0</ele><time>2026-04-25T08:01:45.001Z</time></trkpt><trkpt lat="40.66539416092178" lon="8.501415364862519"><ele>101.33333333333334</ele><time>2026-04-25T08:01:46.001Z</time></trkpt><trkpt lat="40.665358065728554" lon="8.50132883888117"><ele>101.66666666666667</ele><time>2026-04-25T08:01:47.001Z</time></trkpt><trkpt lat="40.66528100356111" lon="8.501262600477341"><ele>102.0</ele><time>2026-04-25T08:01:48.001Z</time></trkpt><trkpt lat="40.665170968665" lon="8.501233959411875"><ele>96.0</ele><time>2026-04-25T08:01:49.001Z</time></trkpt><trkpt lat="40.66504833853249" lon="8.501208120139285"><ele>90.0</ele><time>2026-04-25T08:01:50.001Z</time></trkpt><trkpt lat="40.664913971897036" lon="8.501164965484625"><ele>84.0</ele><time>2026-04-25T08:01:51.001Z</time></trkpt><trkpt lat="40.66476744673626" lon="8.501097150441357"><ele>78.0</ele><time>2026-04-25T08:01:52.001Z</time></trkpt><trkpt lat="40.664623410200264" lon="8.50100338975453"><ele>78.0</ele><time>2026-04-25T08:01:53.001Z</time></trkpt><trkpt lat="40.66448922429652" lon="8.50090481485702"><ele>78.0</ele><time>2026-04-25T08:01:54.001Z</time></trkpt><trkpt lat="40.66435232057277" lon="8.500831219839034"><ele>78.0</ele><time>2026-04-25T08:01:55.001Z</time></trkpt><trkpt lat="40.66421078118298" lon="8.50080799221513"><ele>78.0</ele><time>2026-04-25T08:01:56.001Z</time></trkpt><trkpt lat="40.664094255359345" lon="8.500813687726792"><ele>79.16666666666667</ele><time>2026-04-25T08:01:57.001Z</time></trkpt><trkpt lat="40.6640046297786" lon="8.500811561543491"><ele>80.33333333333333</ele><time>2026-04-25T08:01:58.001Z</time></trkpt><trkpt lat="40.663940094063754" lon="8.500779616930181"><ele>81.5</ele><time>2026-04-25T08:01:59.001Z</time></trkpt><trkpt lat="40.66389558335152" lon="8.500706622560699"><ele>82.66666666666666</ele><time>2026-04-25T08:02:00.001Z</time></trkpt><trkpt lat="40.66390308853682" lon="8.500595164710461"><ele>83.83333333333333</ele><time>2026-04-25T08:02:01.001Z</time></trkpt><trkpt lat="40.66389435355034" lon="8.500464321095308"><ele>85.0</ele><time>2026-04-25T08:02:02.001Z</time></trkpt><trkpt lat="40.66389468534706" lon="8.50032125076749"><ele>84.0</ele><time>2026-04-25T08:02:03.001Z</time></trkpt><trkpt lat="40.66386053998745" lon="8.50018134489739"><ele>83.0</ele><time>2026-04-25T08:02:04.001Z</time></trkpt><trkpt lat="40.66378331446069" lon="8.50005099992601"><ele>82.0</ele><time>2026-04-25T08:02:05.001Z</time></trkpt><trkpt lat="40.663676192974684" lon="8.499942339829495"><ele>81.0</ele><time>2026-04-25T08:02:06.001Z</time></trkpt><trkpt lat="40.66356009696772" lon="8.499832467402033"><ele>81.0</ele><time>2026-04-25T08:02:07.001Z</time></trkpt><trkpt lat="40.66344082109632" lon="8.499727253532457"><ele>81.0</ele><time>2026-04-25T08:02:08.001Z</time></trkpt><trkpt lat="40.66329681408704" lon="8.49964167487774"><ele>81.0</ele><time>2026-04-25T08:02:09.001Z</time></trkpt><trkpt lat="40.66313724909253" lon="8.499576506143356"><ele>77.33333333333333</ele><time>2026-04-25T08:02:10.001Z</time></trkpt><trkpt lat="40.662964038531705" lon="8.499511837895358"><ele>73.66666666666666</ele><time>2026-04-25T08:02:11.001Z</time></trkpt><trkpt lat="40.66279371568359" lon="8.49942289569759"><ele>70.0</ele><time>2026-04-25T08:02:12.001Z</time></trkpt><trkpt lat="40.66262560909551" lon="8.499376532516454"><ele>69.66666666666666</ele><time>2026-04-25T08:02:13.001Z</time></trkpt><trkpt lat="40.66246806638141" lon="8.499310072879675"><ele>69.33333333333333</ele><time>2026-04-25T08:02:14.001Z</time></trkpt><trkpt lat="40.66232171413023" lon="8.499256716705016"><ele>69.0</ele><time>2026-04-25T08:02:14.999Z</time></trkpt><trkpt lat="40.662182771823566" lon="8.499224521246518"><ele>69.0</ele><time>2026-04-25T08:02:15.999Z</time></trkpt><trkpt lat="40.6620482311576" lon="8.499222769947773"><ele>69.0</ele><time>2026-04-25T08:02:16.999Z</time></trkpt><trkpt lat="40.661908185179215" lon="8.499250236187883"><ele>69.0</ele><time>2026-04-25T08:02:17.999Z</time></trkpt><trkpt lat="40.66176138534964" lon="8.499288789912706"><ele>69.0</ele><time>2026-04-25T08:02:18.999Z</time></trkpt><trkpt lat="40.661645246287655" lon="8.499383917632493"><ele>69.25</ele><time>2026-04-25T08:02:19.999Z</time></trkpt><trkpt lat="40.66153830820112" lon="8.499467092934438"><ele>69.5</ele><time>2026-04-25T08:02:20.999Z</time></trkpt><trkpt lat="40.66144472233917" lon="8.499564624699422"><ele>69.75</ele><time>2026-04-25T08:02:21.999Z</time></trkpt><trkpt lat="40.66136352069028" lon="8.499681760699087"><ele>70.0</ele><time>2026-04-25T08:02:22.999Z</time></trkpt><trkpt lat="40.6613002014106" lon="8.49982716240585"><ele>70.33333333333333</ele><time>2026-04-25T08:02:23.999Z</time></trkpt><trkpt lat="40.66125717197606" lon="8.499998067513951"><ele>70.66666666666667</ele><time>2026-04-25T08:02:24.999Z</time></trkpt><trkpt lat="40.66122513952282" lon="8.500199704113015"><ele>71.0</ele><time>2026-04-25T08:02:25.999Z</time></trkpt><trkpt lat="40.66120242424063" lon="8.5004118882695"><ele>70.66666666666667</ele><time>2026-04-25T08:02:26.999Z</time></trkpt><trkpt lat="40.661176438730905" lon="8.500633464097143"><ele>70.33333333333333</ele><time>2026-04-25T08:02:27.999Z</time></trkpt><trkpt lat="40.661148771776" lon="8.500865690658955"><ele>70.0</ele><time>2026-04-25T08:02:28.999Z</time></trkpt><trkpt lat="40.66112254964181" lon="8.501112186668463"><ele>77.0</ele><time>2026-04-25T08:02:29.999Z</time></trkpt><trkpt lat="40.66109490782445" lon="8.501331242729718"><ele>84.0</ele><time>2026-04-25T08:02:30.999Z</time></trkpt><trkpt lat="40.66107280180283" lon="8.50152679940345"><ele>91.0</ele><time>2026-04-25T08:02:31.999Z</time></trkpt><trkpt lat="40.66105463245831" lon="8.501711622674318"><ele>91.0</ele><time>2026-04-25T08:02:32.999Z</time></trkpt><trkpt lat="40.661026925439" lon="8.50190504252222"><ele>91.0</ele><time>2026-04-25T08:02:33.999Z</time></trkpt><trkpt lat="40.66098361278558" lon="8.502102669778843"><ele>91.0</ele><time>2026-04-25T08:02:34.999Z</time></trkpt><trkpt lat="40.66092829531921" lon="8.502297617216747"><ele>90.66666666666666</ele><time>2026-04-25T08:02:36Z</time></trkpt><trkpt lat="40.660866226390915" lon="8.502497700691968"><ele>90.33333333333333</ele><time>2026-04-25T08:02:37Z</time></trkpt><trkpt lat="40.66080172711099" lon="8.502700325400541"><ele>90.0</ele><time>2026-04-25T08:02:38Z</time></trkpt><trkpt lat="40.660732824188074" lon="8.502906349187793"><ele>88.5</ele><time>2026-04-25T08:02:39Z</time></trkpt><trkpt lat="40.66066142173631" lon="8.50310689047491"><ele>87.0</ele><time>2026-04-25T08:02:40Z</time></trkpt><trkpt lat="40.6605964079122" lon="8.503282304934855"><ele>85.5</ele><time>2026-04-25T08:02:41Z</time></trkpt><trkpt lat="40.660539392217274" lon="8.503437869201827"><ele>84.0</ele><time>2026-04-25T08:02:42Z</time></trkpt><trkpt lat="40.66048979949749" lon="8.50356358183554"><ele>84.0</ele><time>2026-04-25T08:02:43Z</time></trkpt><trkpt lat="40.66045149686457" lon="8.50365511794429"><ele>84.0</ele><time>2026-04-25T08:02:44Z</time></trkpt><trkpt lat="40.66036424101843" lon="8.503712513473358"><ele>84.0</ele><time>2026-04-25T08:02:46Z</time></trkpt><trkpt lat="40.6602866917237" lon="8.503597727758356"><ele>84.0</ele><time>2026-04-25T08:02:48Z</time></trkpt><trkpt lat="40.660315780369025" lon="8.503496167511688"><ele>84.0</ele><time>2026-04-25T08:02:49Z</time></trkpt><trkpt lat="40.660324797406034" lon="8.503358168843583"><ele>84.0</ele><time>2026-04-25T08:02:50Z</time></trkpt><trkpt lat="40.660352666909304" lon="8.503212964328737"><ele>84.0</ele><time>2026-04-25T08:02:51Z</time></trkpt><trkpt lat="40.66036768398386" lon="8.503038321449964"><ele>84.0</ele><time>2026-04-25T08:02:52Z</time></trkpt><trkpt lat="40.66037355928603" lon="8.502846437869836"><ele>84.0</ele><time>2026-04-25T08:02:53Z</time></trkpt><trkpt lat="40.66034891011757" lon="8.502646809608253"><ele>86.0</ele><time>2026-04-25T08:02:54Z</time></trkpt><trkpt lat="40.66034700818886" lon="8.502436913224466"><ele>88.0</ele><time>2026-04-25T08:02:55Z</time></trkpt><trkpt lat="40.6603443395957" lon="8.502216885389881"><ele>90.0</ele><time>2026-04-25T08:02:56Z</time></trkpt><trkpt lat="40.66034425499603" lon="8.502000250828683"><ele>90.33333333333333</ele><time>2026-04-25T08:02:57Z</time></trkpt><trkpt lat="40.66035348759714" lon="8.501779923118324"><ele>90.66666666666666</ele><time>2026-04-25T08:02:58Z</time></trkpt><trkpt lat="40.66037187025857" lon="8.501556118530111"><ele>91.0</ele><time>2026-04-25T08:02:59Z</time></trkpt><trkpt lat="40.66039337264262" lon="8.501327839925919"><ele>92.0</ele><time>2026-04-25T08:03:00Z</time></trkpt><trkpt lat="40.66041557861276" lon="8.501094314282817"><ele>93.0</ele><time>2026-04-25T08:03:01Z</time></trkpt><trkpt lat="40.66043736051884" lon="8.50085568911297"><ele>94.0</ele><time>2026-04-25T08:03:02Z</time></trkpt><trkpt lat="40.66045694686638" lon="8.500613699181134"><ele>96.33333333333333</ele><time>2026-04-25T08:03:03Z</time></trkpt><trkpt lat="40.66047834671335" lon="8.500368141108448"><ele>98.66666666666666</ele><time>2026-04-25T08:03:04Z</time></trkpt><trkpt lat="40.660499560034765" lon="8.500128180777615"><ele>101.0</ele><time>2026-04-25T08:03:05Z</time></trkpt><trkpt lat="40.66052147912112" lon="8.499889498351243"><ele>101.0</ele><time>2026-04-25T08:03:06Z</time></trkpt><trkpt lat="40.6605453930656" lon="8.499650497018868"><ele>101.0</ele><time>2026-04-25T08:03:07Z</time></trkpt><trkpt lat="40.66057147091077" lon="8.499412637434178"><ele>101.0</ele><time>2026-04-25T08:03:08Z</time></trkpt><trkpt lat="40.66059433417376" lon="8.499173331846762"><ele>103.33333333333333</ele><time>2026-04-25T08:03:09Z</time></trkpt><trkpt lat="40.66061316567169" lon="8.498935129663794"><ele>105.66666666666666</ele><time>2026-04-25T08:03:10Z</time></trkpt><trkpt lat="40.66063157274203" lon="8.498720369067872"><ele>108.0</ele><time>2026-04-25T08:03:11Z</time></trkpt><trkpt lat="40.660652253247974" lon="8.498524042454724"><ele>110.75</ele><time>2026-04-25T08:03:12Z</time></trkpt><trkpt lat="40.66065974951868" lon="8.498343639323187"><ele>113.5</ele><time>2026-04-25T08:03:13Z</time></trkpt><trkpt lat="40.66064277779644" lon="8.498186674445504"><ele>116.25</ele><time>2026-04-25T08:03:14.001Z</time></trkpt><trkpt lat="40.660617801397336" lon="8.498047313154268"><ele>119.0</ele><time>2026-04-25T08:03:15.001Z</time></trkpt><trkpt lat="40.660505989109026" lon="8.49794361724231"><ele>121.0</ele><time>2026-04-25T08:03:16.001Z</time></trkpt><trkpt lat="40.660383960930275" lon="8.497852323260135"><ele>123.0</ele><time>2026-04-25T08:03:17.001Z</time></trkpt><trkpt lat="40.66024409846082" lon="8.497763516504287"><ele>125.0</ele><time>2026-04-25T08:03:18.001Z</time></trkpt><trkpt lat="40.66009135809386" lon="8.49766809176213"><ele>125.0</ele><time>2026-04-25T08:03:19.001Z</time></trkpt><trkpt lat="40.65993946185202" lon="8.497570880466847"><ele>125.0</ele><time>2026-04-25T08:03:20.001Z</time></trkpt><trkpt lat="40.65978200241274" lon="8.497472981399103"><ele>125.0</ele><time>2026-04-25T08:03:21.001Z</time></trkpt><trkpt lat="40.659625586507346" lon="8.497353119053265"><ele>125.0</ele><time>2026-04-25T08:03:22.001Z</time></trkpt><trkpt lat="40.659458112125186" lon="8.497247890060521"><ele>125.0</ele><time>2026-04-25T08:03:23.001Z</time></trkpt><trkpt lat="40.65928810972796" lon="8.497141072717776"><ele>125.0</ele><time>2026-04-25T08:03:24.001Z</time></trkpt><trkpt lat="40.65911507658181" lon="8.497032351157511"><ele>123.0</ele><time>2026-04-25T08:03:25.001Z</time></trkpt><trkpt lat="40.65894061566573" lon="8.496922732609969"><ele>121.0</ele><time>2026-04-25T08:03:26.001Z</time></trkpt><trkpt lat="40.65876616559444" lon="8.496814083357021"><ele>119.0</ele><time>2026-04-25T08:03:27.001Z</time></trkpt><trkpt lat="40.658601493275484" lon="8.496711600642076"><ele>119.0</ele><time>2026-04-25T08:03:28.001Z</time></trkpt><trkpt lat="40.658442316782036" lon="8.496612401085489"><ele>119.0</ele><time>2026-04-25T08:03:29.001Z</time></trkpt><trkpt lat="40.65828168183293" lon="8.496512292409985"><ele>119.0</ele><time>2026-04-25T08:03:30.001Z</time></trkpt><trkpt lat="40.65811703165882" lon="8.496409681512507"><ele>119.0</ele><time>2026-04-25T08:03:31.001Z</time></trkpt><trkpt lat="40.65794887094231" lon="8.496304883489232"><ele>119.0</ele><time>2026-04-25T08:03:32.001Z</time></trkpt><trkpt lat="40.65778792475039" lon="8.496204199028988"><ele>119.0</ele><time>2026-04-25T08:03:33.001Z</time></trkpt><trkpt lat="40.657634656144246" lon="8.496107686527102"><ele>116.75</ele><time>2026-04-25T08:03:34.001Z</time></trkpt><trkpt lat="40.657488762010715" lon="8.49601614995529"><ele>114.5</ele><time>2026-04-25T08:03:35.001Z</time></trkpt><trkpt lat="40.65735340601386" lon="8.495933537899887"><ele>112.25</ele><time>2026-04-25T08:03:36.001Z</time></trkpt><trkpt lat="40.65722741977699" lon="8.495884735760821"><ele>110.0</ele><time>2026-04-25T08:03:37.001Z</time></trkpt><trkpt lat="40.65711387636975" lon="8.495818784597118"><ele>110.0</ele><time>2026-04-25T08:03:38.001Z</time></trkpt><trkpt lat="40.656994034123734" lon="8.495812523822993"><ele>110.0</ele><time>2026-04-25T08:03:39.001Z</time></trkpt><trkpt lat="40.65688279709297" lon="8.495893439542641"><ele>110.0</ele><time>2026-04-25T08:03:40.001Z</time></trkpt><trkpt lat="40.65677036357028" lon="8.495984455435458"><ele>110.0</ele><time>2026-04-25T08:03:41.001Z</time></trkpt><trkpt lat="40.65666080204279" lon="8.496100348397462"><ele>110.0</ele><time>2026-04-25T08:03:42.001Z</time></trkpt><trkpt lat="40.65655726769035" lon="8.496204605981456"><ele>110.0</ele><time>2026-04-25T08:03:43.001Z</time></trkpt><trkpt lat="40.65645520195683" lon="8.496289033550763"><ele>110.0</ele><time>2026-04-25T08:03:44.001Z</time></trkpt><trkpt lat="40.65634690829763" lon="8.496316876392934"><ele>110.0</ele><time>2026-04-25T08:03:45.001Z</time></trkpt><trkpt lat="40.65625124680462" lon="8.496326213920177"><ele>110.5</ele><time>2026-04-25T08:03:46.001Z</time></trkpt><trkpt lat="40.65616026099611" lon="8.496301727268223"><ele>111.0</ele><time>2026-04-25T08:03:47.001Z</time></trkpt><trkpt lat="40.65605945425108" lon="8.496274539611745"><ele>111.5</ele><time>2026-04-25T08:03:48.001Z</time></trkpt><trkpt lat="40.6559585592585" lon="8.496181171626633"><ele>112.0</ele><time>2026-04-25T08:03:49.001Z</time></trkpt><trkpt lat="40.65584778751731" lon="8.496075362811172"><ele>112.0</ele><time>2026-04-25T08:03:50.001Z</time></trkpt><trkpt lat="40.65573169068736" lon="8.495968353091827"><ele>112.0</ele><time>2026-04-25T08:03:51.001Z</time></trkpt><trkpt lat="40.655609204704206" lon="8.495851389948259"><ele>112.0</ele><time>2026-04-25T08:03:52.001Z</time></trkpt><trkpt lat="40.65548081769826" lon="8.495723991908372"><ele>112.0</ele><time>2026-04-25T08:03:53.001Z</time></trkpt><trkpt lat="40.65534571367944" lon="8.49559045366629"><ele>112.0</ele><time>2026-04-25T08:03:54.001Z</time></trkpt><trkpt lat="40.65520318744294" lon="8.495451618638059"><ele>112.0</ele><time>2026-04-25T08:03:55.001Z</time></trkpt><trkpt lat="40.65505613827816" lon="8.495317476391339"><ele>112.66666666666667</ele><time>2026-04-25T08:03:56.001Z</time></trkpt><trkpt lat="40.65490703946886" lon="8.495180408542993"><ele>113.33333333333334</ele><time>2026-04-25T08:03:57.001Z</time></trkpt><trkpt lat="40.65475745149375" lon="8.495041635953134"><ele>114.0</ele><time>2026-04-25T08:03:58.001Z</time></trkpt><trkpt lat="40.654606754224375" lon="8.49489967094392"><ele>114.0</ele><time>2026-04-25T08:03:59.001Z</time></trkpt><trkpt lat="40.654454925876415" lon="8.494753558259836"><ele>114.0</ele><time>2026-04-25T08:04:00.001Z</time></trkpt><trkpt lat="40.654301757098345" lon="8.494604891931496"><ele>114.0</ele><time>2026-04-25T08:04:01.001Z</time></trkpt><trkpt lat="40.654158590865194" lon="8.494435761422947"><ele>115.0</ele><time>2026-04-25T08:04:02.001Z</time></trkpt><trkpt lat="40.654002362950216" lon="8.494287646295072"><ele>116.0</ele><time>2026-04-25T08:04:03.001Z</time></trkpt><trkpt lat="40.65384648547012" lon="8.494139282787948"><ele>117.0</ele><time>2026-04-25T08:04:04.001Z</time></trkpt><trkpt lat="40.653689956195315" lon="8.493991801177486"><ele>117.66666666666666</ele><time>2026-04-25T08:04:05.001Z</time></trkpt><trkpt lat="40.65354250372176" lon="8.493861244020042"><ele>118.33333333333333</ele><time>2026-04-25T08:04:06.001Z</time></trkpt><trkpt lat="40.653395790640225" lon="8.493736026817917"><ele>119.0</ele><time>2026-04-25T08:04:07.001Z</time></trkpt><trkpt lat="40.65323892187276" lon="8.493614392569429"><ele>119.0</ele><time>2026-04-25T08:04:08.001Z</time></trkpt><trkpt lat="40.65306726720099" lon="8.493501728210346"><ele>119.0</ele><time>2026-04-25T08:04:09.001Z</time></trkpt><trkpt lat="40.65288553286346" lon="8.493388996657698"><ele>119.0</ele><time>2026-04-25T08:04:10.002Z</time></trkpt><trkpt lat="40.652697838960506" lon="8.493271476221354"><ele>120.33333333333333</ele><time>2026-04-25T08:04:11.002Z</time></trkpt><trkpt lat="40.6525060363633" lon="8.493151383136524"><ele>121.66666666666666</ele><time>2026-04-25T08:04:12.002Z</time></trkpt><trkpt lat="40.65231918467782" lon="8.493034480489841"><ele>123.0</ele><time>2026-04-25T08:04:13.002Z</time></trkpt><trkpt lat="40.65213839431247" lon="8.492922848876281"><ele>124.0</ele><time>2026-04-25T08:04:14.002Z</time></trkpt><trkpt lat="40.65195964893675" lon="8.492812540189842"><ele>125.0</ele><time>2026-04-25T08:04:15.002Z</time></trkpt><trkpt lat="40.651783208050304" lon="8.492703704632408"><ele>126.0</ele><time>2026-04-25T08:04:16.002Z</time></trkpt><trkpt lat="40.65160797436231" lon="8.492595613725014"><ele>127.33333333333334</ele><time>2026-04-25T08:04:17.002Z</time></trkpt><trkpt lat="40.65143354521468" lon="8.492488019072518"><ele>128.66666666666669</ele><time>2026-04-25T08:04:18.002Z</time></trkpt><trkpt lat="40.65126065831551" lon="8.492381505611815"><ele>130.0</ele><time>2026-04-25T08:04:19.002Z</time></trkpt><trkpt lat="40.651091630679545" lon="8.492277688032198"><ele>131.0</ele><time>2026-04-25T08:04:20.002Z</time></trkpt><trkpt lat="40.65092075822185" lon="8.492172737137242"><ele>132.0</ele><time>2026-04-25T08:04:20.999Z</time></trkpt><trkpt lat="40.6507508055963" lon="8.492068353729348"><ele>133.0</ele><time>2026-04-25T08:04:21.999Z</time></trkpt><trkpt lat="40.650583458851735" lon="8.491965721654577"><ele>134.0</ele><time>2026-04-25T08:04:22.999Z</time></trkpt><trkpt lat="40.6504296204201" lon="8.4918713358155"><ele>135.0</ele><time>2026-04-25T08:04:23.999Z</time></trkpt><trkpt lat="40.65028594282155" lon="8.491781483803654"><ele>136.0</ele><time>2026-04-25T08:04:24.999Z</time></trkpt><trkpt lat="40.65015457240401" lon="8.491689729569437"><ele>136.66666666666669</ele><time>2026-04-25T08:04:25.999Z</time></trkpt><trkpt lat="40.65003292635065" lon="8.491575084847561"><ele>137.33333333333334</ele><time>2026-04-25T08:04:26.999Z</time></trkpt><trkpt lat="40.6499218426181" lon="8.491429875671715"><ele>138.0</ele><time>2026-04-25T08:04:27.999Z</time></trkpt><trkpt lat="40.64981312972246" lon="8.491259916088211"><ele>137.66666666666666</ele><time>2026-04-25T08:04:28.999Z</time></trkpt><trkpt lat="40.64969667810817" lon="8.491081204469145"><ele>137.33333333333331</ele><time>2026-04-25T08:04:29.999Z</time></trkpt><trkpt lat="40.64957516970045" lon="8.490894732635168"><ele>137.0</ele><time>2026-04-25T08:04:30.999Z</time></trkpt><trkpt lat="40.64945647918721" lon="8.490712585318812"><ele>137.0</ele><time>2026-04-25T08:04:31.999Z</time></trkpt><trkpt lat="40.649335615357465" lon="8.490527102706356"><ele>137.0</ele><time>2026-04-25T08:04:33Z</time></trkpt><trkpt lat="40.649211363705334" lon="8.490335977033066"><ele>137.0</ele><time>2026-04-25T08:04:34Z</time></trkpt><trkpt lat="40.649072884972" lon="8.49015260553037"><ele>136.66666666666666</ele><time>2026-04-25T08:04:35Z</time></trkpt><trkpt lat="40.648944404344405" lon="8.489953920910631"><ele>136.33333333333334</ele><time>2026-04-25T08:04:36Z</time></trkpt><trkpt lat="40.64882646078808" lon="8.489742560368084"><ele>136.0</ele><time>2026-04-25T08:04:37Z</time></trkpt><trkpt lat="40.64869761801838" lon="8.489543791870837"><ele>137.66666666666669</ele><time>2026-04-25T08:04:38Z</time></trkpt><trkpt lat="40.648568862575104" lon="8.489345158234125"><ele>139.33333333333334</ele><time>2026-04-25T08:04:39Z</time></trkpt><trkpt lat="40.64843901605697" lon="8.489144841274562"><ele>141.0</ele><time>2026-04-25T08:04:40Z</time></trkpt><trkpt lat="40.64830981109133" lon="8.488944064482064"><ele>140.33333333333334</ele><time>2026-04-25T08:04:41Z</time></trkpt><trkpt lat="40.648181510579406" lon="8.488739776302172"><ele>139.66666666666669</ele><time>2026-04-25T08:04:42Z</time></trkpt><trkpt lat="40.64804806521282" lon="8.488530098760652"><ele>139.0</ele><time>2026-04-25T08:04:43Z</time></trkpt><trkpt lat="40.64791028338156" lon="8.488316553809078"><ele>139.33333333333334</ele><time>2026-04-25T08:04:44Z</time></trkpt><trkpt lat="40.647774729761174" lon="8.488106462443199"><ele>139.66666666666666</ele><time>2026-04-25T08:04:45Z</time></trkpt><trkpt lat="40.647638771908355" lon="8.487895707198696"><ele>140.0</ele><time>2026-04-25T08:04:46Z</time></trkpt><trkpt lat="40.64750437920621" lon="8.487687343755919"><ele>138.66666666666666</ele><time>2026-04-25T08:04:47Z</time></trkpt><trkpt lat="40.64737128613924" lon="8.487480995289435"><ele>137.33333333333334</ele><time>2026-04-25T08:04:48Z</time></trkpt><trkpt lat="40.647239210931254" lon="8.487278390388093"><ele>136.0</ele><time>2026-04-25T08:04:49Z</time></trkpt><trkpt lat="40.647107752366544" lon="8.487078270515855"><ele>136.33333333333334</ele><time>2026-04-25T08:04:50Z</time></trkpt><trkpt lat="40.646977736404324" lon="8.486880346760403"><ele>136.66666666666666</ele><time>2026-04-25T08:04:51Z</time></trkpt><trkpt lat="40.64684919815734" lon="8.486680938765717"><ele>137.0</ele><time>2026-04-25T08:04:52Z</time></trkpt><trkpt lat="40.6467212923683" lon="8.486482606494128"><ele>137.0</ele><time>2026-04-25T08:04:53Z</time></trkpt><trkpt lat="40.646591984139405" lon="8.486283108839658"><ele>137.0</ele><time>2026-04-25T08:04:54Z</time></trkpt><trkpt lat="40.64646123521154" lon="8.486081388522956"><ele>137.0</ele><time>2026-04-25T08:04:55Z</time></trkpt><trkpt lat="40.64633044888294" lon="8.485879244432887"><ele>136.0</ele><time>2026-04-25T08:04:56Z</time></trkpt><trkpt lat="40.64619874480032" lon="8.485675565623904"><ele>135.0</ele><time>2026-04-25T08:04:57Z</time></trkpt><trkpt lat="40.64606572855868" lon="8.485469857572621"><ele>134.0</ele><time>2026-04-25T08:04:58Z</time></trkpt><trkpt lat="40.64593177260729" lon="8.485262523818264"><ele>132.66666666666666</ele><time>2026-04-25T08:04:59Z</time></trkpt><trkpt lat="40.64579839080866" lon="8.485052103158948"><ele>131.33333333333334</ele><time>2026-04-25T08:05:00Z</time></trkpt><trkpt lat="40.6456614845489" lon="8.484840444623387"><ele>130.0</ele><time>2026-04-25T08:05:01Z</time></trkpt><trkpt lat="40.64552285897084" lon="8.484629532569361"><ele>129.0</ele><time>2026-04-25T08:05:02Z</time></trkpt><trkpt lat="40.64538727452545" lon="8.484415211873353"><ele>128.0</ele><time>2026-04-25T08:05:03Z</time></trkpt><trkpt lat="40.6452518159017" lon="8.484203176854354"><ele>127.0</ele><time>2026-04-25T08:05:04Z</time></trkpt><trkpt lat="40.64511566325988" lon="8.48399384164004"><ele>127.0</ele><time>2026-04-25T08:05:05Z</time></trkpt><trkpt lat="40.64497896145867" lon="8.483784233489205"><ele>127.0</ele><time>2026-04-25T08:05:06Z</time></trkpt><trkpt lat="40.64484270774825" lon="8.483575218610646"><ele>127.0</ele><time>2026-04-25T08:05:07Z</time></trkpt><trkpt lat="40.6447067596117" lon="8.483364071087806"><ele>127.0</ele><time>2026-04-25T08:05:08Z</time></trkpt><trkpt lat="40.64457159993219" lon="8.483154148161026"><ele>127.0</ele><time>2026-04-25T08:05:09Z</time></trkpt><trkpt lat="40.644437447653516" lon="8.482945789875025"><ele>127.0</ele><time>2026-04-25T08:05:10Z</time></trkpt><trkpt lat="40.64430487896539" lon="8.482740425083223"><ele>127.33333333333334</ele><time>2026-04-25T08:05:11.001Z</time></trkpt><trkpt lat="40.64417364993243" lon="8.482537363448946"><ele>127.66666666666666</ele><time>2026-04-25T08:05:12.001Z</time></trkpt><trkpt lat="40.644044800849045" lon="8.482337984468742"><ele>128.0</ele><time>2026-04-25T08:05:13.001Z</time></trkpt><trkpt lat="40.64391808272545" lon="8.482141902927"><ele>127.66666666666666</ele><time>2026-04-25T08:05:14.001Z</time></trkpt><trkpt lat="40.643784303204" lon="8.481968165340136"><ele>127.33333333333334</ele><time>2026-04-25T08:05:15.001Z</time></trkpt><trkpt lat="40.64366619051258" lon="8.481786317568394"><ele>127.0</ele><time>2026-04-25T08:05:16.001Z</time></trkpt><trkpt lat="40.64354710658296" lon="8.481603798825583"><ele>127.0</ele><time>2026-04-25T08:05:17.001Z</time></trkpt><trkpt lat="40.64343309516227" lon="8.481427088110157"><ele>127.0</ele><time>2026-04-25T08:05:18.001Z</time></trkpt><trkpt lat="40.643325121572914" lon="8.481255870740625"><ele>127.0</ele><time>2026-04-25T08:05:19.001Z</time></trkpt><trkpt lat="40.643216601575276" lon="8.48109402923742"><ele>126.66666666666667</ele><time>2026-04-25T08:05:20.001Z</time></trkpt><trkpt lat="40.64310773418818" lon="8.480942363929808"><ele>126.33333333333334</ele><time>2026-04-25T08:05:21.001Z</time></trkpt><trkpt lat="40.64300267851498" lon="8.480779167902673"><ele>126.0</ele><time>2026-04-25T08:05:22.001Z</time></trkpt><trkpt lat="40.642866280125354" lon="8.480642960723946"><ele>125.33333333333334</ele><time>2026-04-25T08:05:23.001Z</time></trkpt><trkpt lat="40.64271765212547" lon="8.480518919569745"><ele>124.66666666666667</ele><time>2026-04-25T08:05:24.001Z</time></trkpt><trkpt lat="40.642555642276456" lon="8.480409666461826"><ele>124.0</ele><time>2026-04-25T08:05:25.001Z</time></trkpt><trkpt lat="40.642394953463516" lon="8.48028168774446"><ele>124.0</ele><time>2026-04-25T08:05:26.001Z</time></trkpt><trkpt lat="40.642237141239896" lon="8.480126664051522"><ele>124.0</ele><time>2026-04-25T08:05:27.001Z</time></trkpt><trkpt lat="40.64207206583472" lon="8.479989810739148"><ele>124.0</ele><time>2026-04-25T08:05:28.001Z</time></trkpt><trkpt lat="40.64190736509695" lon="8.47985326802762"><ele>122.0</ele><time>2026-04-25T08:05:29.001Z</time></trkpt><trkpt lat="40.6417415636517" lon="8.479715453045841"><ele>120.0</ele><time>2026-04-25T08:05:30.001Z</time></trkpt><trkpt lat="40.64157528771914" lon="8.479577162624167"><ele>118.0</ele><time>2026-04-25T08:05:31.001Z</time></trkpt><trkpt lat="40.64140880620888" lon="8.479438701114894"><ele>117.66666666666667</ele><time>2026-04-25T08:05:32.001Z</time></trkpt><trkpt lat="40.64124101039399" lon="8.479299105910368"><ele>117.33333333333334</ele><time>2026-04-25T08:05:33.001Z</time></trkpt><trkpt lat="40.641073266601566" lon="8.47915932749275"><ele>117.0</ele><time>2026-04-25T08:05:34.001Z</time></trkpt><trkpt lat="40.64090548405468" lon="8.479019681263441"><ele>116.66666666666666</ele><time>2026-04-25T08:05:35.001Z</time></trkpt><trkpt lat="40.64073620035851" lon="8.478880392747067"><ele>116.33333333333333</ele><time>2026-04-25T08:05:36.001Z</time></trkpt><trkpt lat="40.64056593429773" lon="8.478740296081467"><ele>116.0</ele><time>2026-04-25T08:05:37.001Z</time></trkpt><trkpt lat="40.64039606555025" lon="8.478597970147348"><ele>117.33333333333333</ele><time>2026-04-25T08:05:38.001Z</time></trkpt><trkpt lat="40.64022587222572" lon="8.47845563568234"><ele>118.66666666666666</ele><time>2026-04-25T08:05:39.001Z</time></trkpt><trkpt lat="40.64005974552832" lon="8.47831670217913"><ele>120.0</ele><time>2026-04-25T08:05:40.001Z</time></trkpt><trkpt lat="40.63990294557501" lon="8.478186839873175"><ele>120.0</ele><time>2026-04-25T08:05:41.001Z</time></trkpt><trkpt lat="40.63974520486894" lon="8.478058117935637"><ele>120.0</ele><time>2026-04-25T08:05:42.001Z</time></trkpt><trkpt lat="40.63960236323528" lon="8.47794085300275"><ele>120.0</ele><time>2026-04-25T08:05:43.001Z</time></trkpt><trkpt lat="40.639443900588844" lon="8.477808668666274"><ele>118.33333333333334</ele><time>2026-04-25T08:05:44.001Z</time></trkpt><trkpt lat="40.63928055256319" lon="8.477671576889884"><ele>116.66666666666667</ele><time>2026-04-25T08:05:45.001Z</time></trkpt><trkpt lat="40.639113517160766" lon="8.47753080563565"><ele>115.0</ele><time>2026-04-25T08:05:46.001Z</time></trkpt><trkpt lat="40.63893956415784" lon="8.477388210783735"><ele>115.0</ele><time>2026-04-25T08:05:47.001Z</time></trkpt><trkpt lat="40.63876219131988" lon="8.47724427210147"><ele>115.0</ele><time>2026-04-25T08:05:48.001Z</time></trkpt><trkpt lat="40.638584900497904" lon="8.477089861628489"><ele>115.0</ele><time>2026-04-25T08:05:49.001Z</time></trkpt><trkpt lat="40.63840095597604" lon="8.476941816204477"><ele>112.66666666666667</ele><time>2026-04-25T08:05:50.001Z</time></trkpt><trkpt lat="40.63822939421899" lon="8.476763591588407"><ele>110.33333333333334</ele><time>2026-04-25T08:05:51.001Z</time></trkpt><trkpt lat="40.638062352915725" lon="8.476572728164335"><ele>108.0</ele><time>2026-04-25T08:05:52.001Z</time></trkpt><trkpt lat="40.63790334454887" lon="8.476371722734754"><ele>103.66666666666667</ele><time>2026-04-25T08:05:53.001Z</time></trkpt><trkpt lat="40.637751520724784" lon="8.476162643204928"><ele>99.33333333333334</ele><time>2026-04-25T08:05:54.001Z</time></trkpt><trkpt lat="40.63760503612028" lon="8.475948449569179"><ele>95.0</ele><time>2026-04-25T08:05:55.001Z</time></trkpt><trkpt lat="40.63746113990189" lon="8.475736018800228"><ele>95.0</ele><time>2026-04-25T08:05:56.001Z</time></trkpt><trkpt lat="40.63732504811833" lon="8.475528749896075"><ele>95.0</ele><time>2026-04-25T08:05:57.001Z</time></trkpt><trkpt lat="40.63719648919963" lon="8.475334825647487"><ele>95.0</ele><time>2026-04-25T08:05:58.001Z</time></trkpt><trkpt lat="40.6370661153111" lon="8.475154052905053"><ele>99.66666666666667</ele><time>2026-04-25T08:05:59.001Z</time></trkpt><trkpt lat="40.63694569331762" lon="8.474966547137507"><ele>104.33333333333334</ele><time>2026-04-25T08:06:00.001Z</time></trkpt><trkpt lat="40.63678797577984" lon="8.47483295448312"><ele>109.0</ele><time>2026-04-25T08:06:01.001Z</time></trkpt><trkpt lat="40.63662944263562" lon="8.47470358279637"><ele>112.0</ele><time>2026-04-25T08:06:02.002Z</time></trkpt><trkpt lat="40.6364591339969" lon="8.474593881174854"><ele>115.0</ele><time>2026-04-25T08:06:03.002Z</time></trkpt><trkpt lat="40.6362798042795" lon="8.474510641652126"><ele>118.0</ele><time>2026-04-25T08:06:04.002Z</time></trkpt><trkpt lat="40.63609520288695" lon="8.474454963637672"><ele>119.33333333333334</ele><time>2026-04-25T08:06:05.002Z</time></trkpt><trkpt lat="40.63590841985329" lon="8.474428320097498"><ele>120.66666666666666</ele><time>2026-04-25T08:06:06.002Z</time></trkpt><trkpt lat="40.63571736926396" lon="8.474428505827959"><ele>122.0</ele><time>2026-04-25T08:06:07.002Z</time></trkpt><trkpt lat="40.63552662329017" lon="8.474455381961194"><ele>122.0</ele><time>2026-04-25T08:06:08.002Z</time></trkpt><trkpt lat="40.63533488607675" lon="8.474498537760685"><ele>122.0</ele><time>2026-04-25T08:06:09.002Z</time></trkpt><trkpt lat="40.63514723309463" lon="8.474539081734681"><ele>122.0</ele><time>2026-04-25T08:06:10.002Z</time></trkpt><trkpt lat="40.63497461795352" lon="8.474557270736458"><ele>123.33333333333333</ele><time>2026-04-25T08:06:11.002Z</time></trkpt><trkpt lat="40.63480750540836" lon="8.474564714337692"><ele>124.66666666666666</ele><time>2026-04-25T08:06:12.002Z</time></trkpt><trkpt lat="40.634636529531605" lon="8.474554811855928"><ele>126.0</ele><time>2026-04-25T08:06:13.002Z</time></trkpt><trkpt lat="40.634462627567146" lon="8.474520308662854"><ele>127.0</ele><time>2026-04-25T08:06:14.002Z</time></trkpt><trkpt lat="40.63428835594218" lon="8.47446540928661"><ele>128.0</ele><time>2026-04-25T08:06:15.002Z</time></trkpt><trkpt lat="40.63411670229717" lon="8.474386816865417"><ele>129.0</ele><time>2026-04-25T08:06:16.002Z</time></trkpt><trkpt lat="40.63394924982295" lon="8.474282699811825"><ele>129.0</ele><time>2026-04-25T08:06:17.002Z</time></trkpt><trkpt lat="40.63378965033062" lon="8.474158162097156"><ele>129.0</ele><time>2026-04-25T08:06:18.002Z</time></trkpt><trkpt lat="40.633640457871984" lon="8.47401464553392"><ele>129.0</ele><time>2026-04-25T08:06:19.002Z</time></trkpt><trkpt lat="40.63351992554383" lon="8.473828675117867"><ele>130.66666666666666</ele><time>2026-04-25T08:06:20.002Z</time></trkpt><trkpt lat="40.633391469744566" lon="8.473632090745607"><ele>132.33333333333331</ele><time>2026-04-25T08:06:21.002Z</time></trkpt><trkpt lat="40.633249311635" lon="8.473445198022581"><ele>134.0</ele><time>2026-04-25T08:06:22.002Z</time></trkpt><trkpt lat="40.63311971235394" lon="8.473249821575225"><ele>134.0</ele><time>2026-04-25T08:06:23.002Z</time></trkpt><trkpt lat="40.633002760466496" lon="8.473043147447815"><ele>134.0</ele><time>2026-04-25T08:06:24.002Z</time></trkpt><trkpt lat="40.632874805856844" lon="8.472846957612804"><ele>134.0</ele><time>2026-04-25T08:06:25.002Z</time></trkpt><trkpt lat="40.63273639098752" lon="8.472664217917702"><ele>133.33333333333331</ele><time>2026-04-25T08:06:26.002Z</time></trkpt><trkpt lat="40.632610536824714" lon="8.472471170405749"><ele>132.66666666666666</ele><time>2026-04-25T08:06:27Z</time></trkpt><trkpt lat="40.632483117469064" lon="8.47227530098578"><ele>132.0</ele><time>2026-04-25T08:06:28Z</time></trkpt><trkpt lat="40.6323564071362" lon="8.472080427712832"><ele>133.33333333333334</ele><time>2026-04-25T08:06:29Z</time></trkpt><trkpt lat="40.63222872999727" lon="8.471886038869133"><ele>134.66666666666669</ele><time>2026-04-25T08:06:30Z</time></trkpt><trkpt lat="40.632101981025095" lon="8.471688708723294"><ele>136.0</ele><time>2026-04-25T08:06:31Z</time></trkpt><trkpt lat="40.63197348570318" lon="8.471491580592687"><ele>137.66666666666669</ele><time>2026-04-25T08:06:32Z</time></trkpt><trkpt lat="40.631843310127266" lon="8.471291109307039"><ele>139.33333333333334</ele><time>2026-04-25T08:06:33Z</time></trkpt><trkpt lat="40.63171343243444" lon="8.471087147798906"><ele>141.0</ele><time>2026-04-25T08:06:34Z</time></trkpt><trkpt lat="40.63158182845949" lon="8.470882006085064"><ele>142.0</ele><time>2026-04-25T08:06:35Z</time></trkpt><trkpt lat="40.63144728276631" lon="8.470676022653917"><ele>143.0</ele><time>2026-04-25T08:06:36Z</time></trkpt><trkpt lat="40.63131099623467" lon="8.470465479522076"><ele>144.0</ele><time>2026-04-25T08:06:37Z</time></trkpt><trkpt lat="40.631172400430394" lon="8.470254335803297"><ele>143.66666666666666</ele><time>2026-04-25T08:06:38Z</time></trkpt><trkpt lat="40.6310312998731" lon="8.470042601747803"><ele>143.33333333333331</ele><time>2026-04-25T08:06:39Z</time></trkpt><trkpt lat="40.63090127354249" lon="8.469810120205345"><ele>143.0</ele><time>2026-04-25T08:06:40Z</time></trkpt><trkpt lat="40.630759122649785" lon="8.469586809280782"><ele>141.66666666666666</ele><time>2026-04-25T08:06:41Z</time></trkpt><trkpt lat="40.63062162401672" lon="8.469367427911745"><ele>140.33333333333334</ele><time>2026-04-25T08:06:42Z</time></trkpt><trkpt lat="40.6304808107348" lon="8.469150348122392"><ele>139.0</ele><time>2026-04-25T08:06:43Z</time></trkpt><trkpt lat="40.63036839861069" lon="8.468907249124456"><ele>138.33333333333334</ele><time>2026-04-25T08:06:44Z</time></trkpt><trkpt lat="40.63026738067811" lon="8.46865106284979"><ele>137.66666666666666</ele><time>2026-04-25T08:06:45Z</time></trkpt><trkpt lat="40.63016968924756" lon="8.468390243135005"><ele>137.0</ele><time>2026-04-25T08:06:46Z</time></trkpt><trkpt lat="40.630071911010475" lon="8.468126647818588"><ele>135.5</ele><time>2026-04-25T08:06:47Z</time></trkpt><trkpt lat="40.62997601697349" lon="8.467858917611451"><ele>134.0</ele><time>2026-04-25T08:06:48Z</time></trkpt><trkpt lat="40.62988067374385" lon="8.467587820464876"><ele>134.0</ele><time>2026-04-25T08:06:49Z</time></trkpt><trkpt lat="40.62978516508987" lon="8.467319256736896"><ele>134.0</ele><time>2026-04-25T08:06:50Z</time></trkpt><trkpt lat="40.6296945821486" lon="8.467057788979057"><ele>134.0</ele><time>2026-04-25T08:06:51Z</time></trkpt><trkpt lat="40.629603866397275" lon="8.466802364113049"><ele>134.0</ele><time>2026-04-25T08:06:52Z</time></trkpt><trkpt lat="40.62950859494023" lon="8.466555681308074"><ele>134.0</ele><time>2026-04-25T08:06:53Z</time></trkpt><trkpt lat="40.6294269931459" lon="8.466302552320542"><ele>134.0</ele><time>2026-04-25T08:06:54Z</time></trkpt><trkpt lat="40.62931850893058" lon="8.4660703462389"><ele>133.66666666666666</ele><time>2026-04-25T08:06:55Z</time></trkpt><trkpt lat="40.62920154457265" lon="8.465843600816637"><ele>133.33333333333334</ele><time>2026-04-25T08:06:56Z</time></trkpt><trkpt lat="40.62907681415609" lon="8.465626185299023"><ele>133.0</ele><time>2026-04-25T08:06:57Z</time></trkpt><trkpt lat="40.62893790029411" lon="8.465422212346583"><ele>133.0</ele><time>2026-04-25T08:06:58Z</time></trkpt><trkpt lat="40.62878641097424" lon="8.465233399135633"><ele>133.0</ele><time>2026-04-25T08:06:59Z</time></trkpt><trkpt lat="40.62863088880486" lon="8.465051856773329"><ele>133.0</ele><time>2026-04-25T08:07:00Z</time></trkpt><trkpt lat="40.62846552303049" lon="8.464877546569118"><ele>131.66666666666669</ele><time>2026-04-25T08:07:01Z</time></trkpt><trkpt lat="40.6282931119664" lon="8.4647116958681"><ele>130.33333333333334</ele><time>2026-04-25T08:07:02Z</time></trkpt><trkpt lat="40.62811978299043" lon="8.464570202005461"><ele>129.0</ele><time>2026-04-25T08:07:03Z</time></trkpt><trkpt lat="40.62794701721341" lon="8.464448580863696"><ele>130.0</ele><time>2026-04-25T08:07:04Z</time></trkpt><trkpt lat="40.627762047297885" lon="8.464353146484306"><ele>131.0</ele><time>2026-04-25T08:07:05.001Z</time></trkpt><trkpt lat="40.62758555762416" lon="8.464222227109184"><ele>132.0</ele><time>2026-04-25T08:07:06.001Z</time></trkpt><trkpt lat="40.627394708337455" lon="8.464116389358217"><ele>132.0</ele><time>2026-04-25T08:07:07.001Z</time></trkpt><trkpt lat="40.62719865758001" lon="8.464007667067674"><ele>132.0</ele><time>2026-04-25T08:07:08.001Z</time></trkpt><trkpt lat="40.6269982095102" lon="8.463896507589954"><ele>132.0</ele><time>2026-04-25T08:07:09.001Z</time></trkpt><trkpt lat="40.62679327094945" lon="8.463782856440837"><ele>131.33333333333334</ele><time>2026-04-25T08:07:10.001Z</time></trkpt><trkpt lat="40.62658714868049" lon="8.463667253330232"><ele>130.66666666666669</ele><time>2026-04-25T08:07:11.001Z</time></trkpt><trkpt lat="40.626383968664825" lon="8.463553547404135"><ele>130.0</ele><time>2026-04-25T08:07:12.001Z</time></trkpt><trkpt lat="40.626185214366636" lon="8.463438458480262"><ele>129.0</ele><time>2026-04-25T08:07:13.001Z</time></trkpt><trkpt lat="40.62598428562485" lon="8.463333726351028"><ele>128.0</ele><time>2026-04-25T08:07:14.001Z</time></trkpt><trkpt lat="40.62579904845454" lon="8.463195461219243"><ele>127.0</ele><time>2026-04-25T08:07:15.001Z</time></trkpt><trkpt lat="40.62562161611342" lon="8.463046638881902"><ele>126.0</ele><time>2026-04-25T08:07:16.001Z</time></trkpt><trkpt lat="40.62545267044687" lon="8.46288207229444"><ele>125.0</ele><time>2026-04-25T08:07:17.001Z</time></trkpt><trkpt lat="40.62529529523692" lon="8.462704991830247"><ele>124.0</ele><time>2026-04-25T08:07:18.001Z</time></trkpt><trkpt lat="40.62514756997066" lon="8.462520888981793"><ele>125.33333333333334</ele><time>2026-04-25T08:07:19.001Z</time></trkpt><trkpt lat="40.62501260805159" lon="8.462338362689852"><ele>126.66666666666666</ele><time>2026-04-25T08:07:20.001Z</time></trkpt><trkpt lat="40.62488165579437" lon="8.462154288601528"><ele>128.0</ele><time>2026-04-25T08:07:21.001Z</time></trkpt><trkpt lat="40.62475369646327" lon="8.46195966450972"><ele>128.0</ele><time>2026-04-25T08:07:22.001Z</time></trkpt><trkpt lat="40.62463042022109" lon="8.461754135899682"><ele>128.0</ele><time>2026-04-25T08:07:23.001Z</time></trkpt><trkpt lat="40.62450728072784" lon="8.46154144865347"><ele>128.0</ele><time>2026-04-25T08:07:24.001Z</time></trkpt><trkpt lat="40.62438247274523" lon="8.461323499200077"><ele>127.33333333333333</ele><time>2026-04-25T08:07:25.001Z</time></trkpt><trkpt lat="40.624257529316196" lon="8.461100331558528"><ele>126.66666666666666</ele><time>2026-04-25T08:07:26.001Z</time></trkpt><trkpt lat="40.62412935172887" lon="8.460876872413708"><ele>126.0</ele><time>2026-04-25T08:07:27.001Z</time></trkpt><trkpt lat="40.6240015357257" lon="8.460649332960205"><ele>124.66666666666666</ele><time>2026-04-25T08:07:28.001Z</time></trkpt><trkpt lat="40.623874790964976" lon="8.460422647300572"><ele>123.33333333333333</ele><time>2026-04-25T08:07:29.001Z</time></trkpt><trkpt lat="40.62375601684741" lon="8.460207885237837"><ele>122.0</ele><time>2026-04-25T08:07:30.001Z</time></trkpt><trkpt lat="40.62364202309902" lon="8.460000246215973"><ele>122.0</ele><time>2026-04-25T08:07:31.001Z</time></trkpt><trkpt lat="40.623530968232124" lon="8.459798555471787"><ele>122.0</ele><time>2026-04-25T08:07:32.001Z</time></trkpt><trkpt lat="40.62342849458871" lon="8.459603306203634"><ele>122.0</ele><time>2026-04-25T08:07:33.001Z</time></trkpt><trkpt lat="40.623336823982505" lon="8.45941444043488"><ele>121.66666666666666</ele><time>2026-04-25T08:07:34.001Z</time></trkpt><trkpt lat="40.623254797677795" lon="8.459227696740381"><ele>121.33333333333334</ele><time>2026-04-25T08:07:35.001Z</time></trkpt><trkpt lat="40.62318562160326" lon="8.459039701359503"><ele>121.0</ele><time>2026-04-25T08:07:36.001Z</time></trkpt><trkpt lat="40.62312816759634" lon="8.458848833054724"><ele>120.75</ele><time>2026-04-25T08:07:37.001Z</time></trkpt><trkpt lat="40.62308360361392" lon="8.45865470100935"><ele>120.5</ele><time>2026-04-25T08:07:38.001Z</time></trkpt><trkpt lat="40.62305150805076" lon="8.458466734660506"><ele>120.25</ele><time>2026-04-25T08:07:39.001Z</time></trkpt><trkpt lat="40.62303440905762" lon="8.458281643836838"><ele>120.0</ele><time>2026-04-25T08:07:40.001Z</time></trkpt><trkpt lat="40.623030999954544" lon="8.458094324313878"><ele>117.66666666666666</ele><time>2026-04-25T08:07:41.001Z</time></trkpt><trkpt lat="40.62303879791953" lon="8.457906932634714"><ele>115.33333333333333</ele><time>2026-04-25T08:07:42.001Z</time></trkpt><trkpt lat="40.623056049657336" lon="8.457705073368736"><ele>113.0</ele><time>2026-04-25T08:07:43.001Z</time></trkpt><trkpt lat="40.62308308962958" lon="8.457489761127766"><ele>113.0</ele><time>2026-04-25T08:07:44.001Z</time></trkpt><trkpt lat="40.62311916320372" lon="8.457270937013256"><ele>113.0</ele><time>2026-04-25T08:07:45.001Z</time></trkpt><trkpt lat="40.62316990840687" lon="8.457051425579271"><ele>113.0</ele><time>2026-04-25T08:07:46.001Z</time></trkpt><trkpt lat="40.623232938015676" lon="8.456828139107087"><ele>111.0</ele><time>2026-04-25T08:07:47.001Z</time></trkpt><trkpt lat="40.623300240694256" lon="8.45660852168998"><ele>109.0</ele><time>2026-04-25T08:07:48.001Z</time></trkpt><trkpt lat="40.62336429524309" lon="8.456397504721453"><ele>107.0</ele><time>2026-04-25T08:07:49.001Z</time></trkpt><trkpt lat="40.6234285247511" lon="8.4561913209015"><ele>106.0</ele><time>2026-04-25T08:07:50.001Z</time></trkpt><trkpt lat="40.6234908439088" lon="8.455984074538584"><ele>105.0</ele><time>2026-04-25T08:07:51.001Z</time></trkpt><trkpt lat="40.62355308310076" lon="8.455770643547202"><ele>104.0</ele><time>2026-04-25T08:07:52.001Z</time></trkpt><trkpt lat="40.62360940137546" lon="8.455544466287556"><ele>97.0</ele><time>2026-04-25T08:07:53.002Z</time></trkpt><trkpt lat="40.62365853901421" lon="8.455317710014922"><ele>90.0</ele><time>2026-04-25T08:07:54.002Z</time></trkpt><trkpt lat="40.62370651808514" lon="8.45509137850775"><ele>83.0</ele><time>2026-04-25T08:07:55.002Z</time></trkpt><trkpt lat="40.62374741221595" lon="8.454869032130569"><ele>83.0</ele><time>2026-04-25T08:07:56.002Z</time></trkpt><trkpt lat="40.62378760566827" lon="8.454646841874094"><ele>83.0</ele><time>2026-04-25T08:07:57.002Z</time></trkpt><trkpt lat="40.62382506384137" lon="8.454425262115615"><ele>83.0</ele><time>2026-04-25T08:07:58.002Z</time></trkpt><trkpt lat="40.62385035680175" lon="8.454205699937141"><ele>82.66666666666667</ele><time>2026-04-25T08:07:59.002Z</time></trkpt><trkpt lat="40.62386232853648" lon="8.45398825551878"><ele>82.33333333333333</ele><time>2026-04-25T08:08:00.002Z</time></trkpt><trkpt lat="40.62386345698951" lon="8.453775425068654"><ele>82.0</ele><time>2026-04-25T08:08:01.002Z</time></trkpt><trkpt lat="40.62385229102113" lon="8.453567165569916"><ele>80.66666666666666</ele><time>2026-04-25T08:08:02.002Z</time></trkpt><trkpt lat="40.62382449313578" lon="8.453354427189277"><ele>79.33333333333333</ele><time>2026-04-25T08:08:03.002Z</time></trkpt><trkpt lat="40.62377504324641" lon="8.453139479741926"><ele>78.0</ele><time>2026-04-25T08:08:04.002Z</time></trkpt><trkpt lat="40.62370896637599" lon="8.452923056823916"><ele>80.0</ele><time>2026-04-25T08:08:05.002Z</time></trkpt><trkpt lat="40.623634461711234" lon="8.452705867078494"><ele>82.0</ele><time>2026-04-25T08:08:06.002Z</time></trkpt><trkpt lat="40.62355028667758" lon="8.452496875053992"><ele>84.0</ele><time>2026-04-25T08:08:07.002Z</time></trkpt><trkpt lat="40.62345834746179" lon="8.452282069386246"><ele>80.0</ele><time>2026-04-25T08:08:08.002Z</time></trkpt><trkpt lat="40.62336373580089" lon="8.45206819740019"><ele>76.0</ele><time>2026-04-25T08:08:09.002Z</time></trkpt><trkpt lat="40.623268832435926" lon="8.451866476391439"><ele>72.0</ele><time>2026-04-25T08:08:10.002Z</time></trkpt><trkpt lat="40.62316956884028" lon="8.451673676829222"><ele>72.0</ele><time>2026-04-25T08:08:11.002Z</time></trkpt><trkpt lat="40.6230566025538" lon="8.451488057858905"><ele>72.0</ele><time>2026-04-25T08:08:12.002Z</time></trkpt><trkpt lat="40.62292587166207" lon="8.451300764302786"><ele>72.0</ele><time>2026-04-25T08:08:13.002Z</time></trkpt><trkpt lat="40.622793664310386" lon="8.45111264537653"><ele>72.0</ele><time>2026-04-25T08:08:14.002Z</time></trkpt><trkpt lat="40.62266349106278" lon="8.450927802785282"><ele>72.0</ele><time>2026-04-25T08:08:15.002Z</time></trkpt><trkpt lat="40.62253772140269" lon="8.45074207564154"><ele>72.0</ele><time>2026-04-25T08:08:16.002Z</time></trkpt><trkpt lat="40.622415078446394" lon="8.450558702628134"><ele>67.66666666666667</ele><time>2026-04-25T08:08:17.002Z</time></trkpt><trkpt lat="40.6222968856064" lon="8.450374398040609"><ele>63.333333333333336</ele><time>2026-04-25T08:08:18.002Z</time></trkpt><trkpt lat="40.622185330596814" lon="8.450188995841614"><ele>59.0</ele><time>2026-04-25T08:08:19.002Z</time></trkpt><trkpt lat="40.62207988953804" lon="8.449997694515353"><ele>58.0</ele><time>2026-04-25T08:08:20.002Z</time></trkpt><trkpt lat="40.621980313984906" lon="8.449795038521293"><ele>57.0</ele><time>2026-04-25T08:08:21.002Z</time></trkpt><trkpt lat="40.621891231476106" lon="8.449574447653221"><ele>56.0</ele><time>2026-04-25T08:08:22.002Z</time></trkpt><trkpt lat="40.62181631120079" lon="8.449335852760786"><ele>56.0</ele><time>2026-04-25T08:08:23.002Z</time></trkpt><trkpt lat="40.621755458835786" lon="8.449085019698538"><ele>56.0</ele><time>2026-04-25T08:08:24.002Z</time></trkpt><trkpt lat="40.62170260158372" lon="8.448822416906589"><ele>56.0</ele><time>2026-04-25T08:08:25.002Z</time></trkpt><trkpt lat="40.62165667899483" lon="8.448551259600725"><ele>55.0</ele><time>2026-04-25T08:08:26.002Z</time></trkpt><trkpt lat="40.62161489345687" lon="8.448273013738563"><ele>54.0</ele><time>2026-04-25T08:08:27.002Z</time></trkpt><trkpt lat="40.62157666497839" lon="8.447990968375024"><ele>53.0</ele><time>2026-04-25T08:08:28.002Z</time></trkpt><trkpt lat="40.621541033678426" lon="8.447705130146057"><ele>52.333333333333336</ele><time>2026-04-25T08:08:29.002Z</time></trkpt><trkpt lat="40.621506273076065" lon="8.447417363419591"><ele>51.66666666666667</ele><time>2026-04-25T08:08:30.002Z</time></trkpt><trkpt lat="40.62146979329784" lon="8.447125653422864"><ele>51.0</ele><time>2026-04-25T08:08:31.002Z</time></trkpt><trkpt lat="40.62142938143346" lon="8.446833593674924"><ele>50.0</ele><time>2026-04-25T08:08:32.002Z</time></trkpt><trkpt lat="40.62139074942562" lon="8.446538702170583"><ele>49.0</ele><time>2026-04-25T08:08:33Z</time></trkpt><trkpt lat="40.621352559957444" lon="8.446241422838956"><ele>48.5</ele><time>2026-04-25T08:08:34Z</time></trkpt><trkpt lat="40.621317555118566" lon="8.44594348404085"><ele>48.0</ele><time>2026-04-25T08:08:35Z</time></trkpt><trkpt lat="40.62128145291264" lon="8.445644441349394"><ele>48.0</ele><time>2026-04-25T08:08:36Z</time></trkpt><trkpt lat="40.621247228336266" lon="8.445359702852867"><ele>48.0</ele><time>2026-04-25T08:08:37Z</time></trkpt><trkpt lat="40.62121293997745" lon="8.445085739915196"><ele>48.0</ele><time>2026-04-25T08:08:38Z</time></trkpt><trkpt lat="40.621184343141486" lon="8.444823698827713"><ele>48.0</ele><time>2026-04-25T08:08:39Z</time></trkpt><trkpt lat="40.621155576078245" lon="8.444571911030417"><ele>48.0</ele><time>2026-04-25T08:08:40Z</time></trkpt><trkpt lat="40.621127754506304" lon="8.444338249002831"><ele>48.0</ele><time>2026-04-25T08:08:41Z</time></trkpt><trkpt lat="40.62109528067089" lon="8.444112716929311"><ele>48.25</ele><time>2026-04-25T08:08:42Z</time></trkpt><trkpt lat="40.62106466756652" lon="8.443906986621744"><ele>48.5</ele><time>2026-04-25T08:08:43Z</time></trkpt><trkpt lat="40.62103821878239" lon="8.443717765569616"><ele>48.75</ele><time>2026-04-25T08:08:44Z</time></trkpt><trkpt lat="40.62101582098643" lon="8.44355166715129"><ele>49.0</ele><time>2026-04-25T08:08:45Z</time></trkpt><trkpt lat="40.620997591532934" lon="8.443412015317262"><ele>49.166666666666664</ele><time>2026-04-25T08:08:46Z</time></trkpt><trkpt lat="40.62097929825473" lon="8.443299515210285"><ele>49.33333333333333</ele><time>2026-04-25T08:08:47Z</time></trkpt><trkpt lat="40.62095420087597" lon="8.443209339438111"><ele>49.5</ele><time>2026-04-25T08:08:48Z</time></trkpt><trkpt lat="40.62091647950352" lon="8.44313916596543"><ele>49.66666666666667</ele><time>2026-04-25T08:08:49Z</time></trkpt><trkpt lat="40.62081496689882" lon="8.443098846707825"><ele>49.833333333333336</ele><time>2026-04-25T08:08:51Z</time></trkpt><trkpt lat="40.62074630299788" lon="8.443127396807935"><ele>50.0</ele><time>2026-04-25T08:08:52Z</time></trkpt><trkpt lat="40.620667694242066" lon="8.4431789782758"><ele>50.0</ele><time>2026-04-25T08:08:53Z</time></trkpt><trkpt lat="40.62057736308219" lon="8.443225003187328"><ele>50.0</ele><time>2026-04-25T08:08:54Z</time></trkpt><trkpt lat="40.62046323058279" lon="8.443260013601702"><ele>50.0</ele><time>2026-04-25T08:08:55Z</time></trkpt><trkpt lat="40.62035047193796" lon="8.443289015685465"><ele>50.0</ele><time>2026-04-25T08:08:56Z</time></trkpt><trkpt lat="40.6202284101133" lon="8.4433262884512"><ele>50.25</ele><time>2026-04-25T08:08:57Z</time></trkpt><trkpt lat="40.62009857162016" lon="8.443368372588209"><ele>50.5</ele><time>2026-04-25T08:08:58Z</time></trkpt><trkpt lat="40.6199607351876" lon="8.443409540172281"><ele>50.75</ele><time>2026-04-25T08:08:59Z</time></trkpt><trkpt lat="40.619814096569286" lon="8.443450075337251"><ele>51.0</ele><time>2026-04-25T08:09:00Z</time></trkpt><trkpt lat="40.619656802308036" lon="8.443488393046177"><ele>51.0</ele><time>2026-04-25T08:09:01.001Z</time></trkpt><trkpt lat="40.61950064155221" lon="8.443522459989751"><ele>51.0</ele><time>2026-04-25T08:09:02.001Z</time></trkpt><trkpt lat="40.619341950064424" lon="8.443556784156774"><ele>51.0</ele><time>2026-04-25T08:09:03.001Z</time></trkpt><trkpt lat="40.61917936572463" lon="8.44359174407572"><ele>51.0</ele><time>2026-04-25T08:09:04.001Z</time></trkpt><trkpt lat="40.61901288668308" lon="8.443626061651349"><ele>51.0</ele><time>2026-04-25T08:09:05.001Z</time></trkpt><trkpt lat="40.618842528675806" lon="8.443661314655888"><ele>51.0</ele><time>2026-04-25T08:09:06.001Z</time></trkpt><trkpt lat="40.61866975208382" lon="8.443697032589913"><ele>51.33333333333333</ele><time>2026-04-25T08:09:07.001Z</time></trkpt><trkpt lat="40.61849392834858" lon="8.443737854856378"><ele>51.666666666666664</ele><time>2026-04-25T08:09:08.001Z</time></trkpt><trkpt lat="40.61831496812883" lon="8.443780065446212"><ele>52.0</ele><time>2026-04-25T08:09:09.001Z</time></trkpt><trkpt lat="40.61813614292949" lon="8.443822674188619"><ele>52.0</ele><time>2026-04-25T08:09:10.001Z</time></trkpt><trkpt lat="40.61796011810942" lon="8.44386303101396"><ele>52.0</ele><time>2026-04-25T08:09:11.001Z</time></trkpt><trkpt lat="40.617789648267284" lon="8.443896102566463"><ele>52.0</ele><time>2026-04-25T08:09:12.001Z</time></trkpt><trkpt lat="40.61763000489385" lon="8.44391332539088"><ele>53.0</ele><time>2026-04-25T08:09:13.001Z</time></trkpt><trkpt lat="40.61747632069245" lon="8.443910853470934"><ele>54.0</ele><time>2026-04-25T08:09:14.001Z</time></trkpt><trkpt lat="40.61732594070133" lon="8.443882611229995"><ele>55.0</ele><time>2026-04-25T08:09:15.001Z</time></trkpt><trkpt lat="40.617174293017996" lon="8.443831626276525"><ele>54.666666666666664</ele><time>2026-04-25T08:09:16.001Z</time></trkpt><trkpt lat="40.61702585970542" lon="8.443751183223224"><ele>54.33333333333333</ele><time>2026-04-25T08:09:17.001Z</time></trkpt><trkpt lat="40.61687941192012" lon="8.443646711380122"><ele>54.0</ele><time>2026-04-25T08:09:18.001Z</time></trkpt><trkpt lat="40.61672618265683" lon="8.443524948491056"><ele>55.0</ele><time>2026-04-25T08:09:19.001Z</time></trkpt><trkpt lat="40.616569053398116" lon="8.44339599252963"><ele>56.0</ele><time>2026-04-25T08:09:20.001Z</time></trkpt><trkpt lat="40.616419561943616" lon="8.443271723863834"><ele>57.0</ele><time>2026-04-25T08:09:21.001Z</time></trkpt><trkpt lat="40.61626143004504" lon="8.443149869766033"><ele>56.66666666666667</ele><time>2026-04-25T08:09:22.001Z</time></trkpt><trkpt lat="40.616100788198004" lon="8.443027378561405"><ele>56.333333333333336</ele><time>2026-04-25T08:09:23.001Z</time></trkpt><trkpt lat="40.61593981202982" lon="8.44290730567045"><ele>56.0</ele><time>2026-04-25T08:09:24.001Z</time></trkpt><trkpt lat="40.615780826062654" lon="8.442777403041957"><ele>56.0</ele><time>2026-04-25T08:09:25.001Z</time></trkpt><trkpt lat="40.61562131767123" lon="8.442649647762067"><ele>56.0</ele><time>2026-04-25T08:09:26.001Z</time></trkpt><trkpt lat="40.61545902127533" lon="8.442524582966717"><ele>56.0</ele><time>2026-04-25T08:09:27.001Z</time></trkpt><trkpt lat="40.61529833906421" lon="8.442395175835337"><ele>55.333333333333336</ele><time>2026-04-25T08:09:28.001Z</time></trkpt><trkpt lat="40.61513611013424" lon="8.442264402075164"><ele>54.66666666666667</ele><time>2026-04-25T08:09:29.001Z</time></trkpt><trkpt lat="40.61497178707076" lon="8.44213236532949"><ele>54.0</ele><time>2026-04-25T08:09:30.001Z</time></trkpt><trkpt lat="40.61480627172677" lon="8.442001623268606"><ele>53.33333333333333</ele><time>2026-04-25T08:09:31.001Z</time></trkpt><trkpt lat="40.614637142273104" lon="8.441871617123168"><ele>52.666666666666664</ele><time>2026-04-25T08:09:32.001Z</time></trkpt><trkpt lat="40.61446843891229" lon="8.441737625115314"><ele>52.0</ele><time>2026-04-25T08:09:33.001Z</time></trkpt><trkpt lat="40.614299937054206" lon="8.441599371877636"><ele>52.666666666666664</ele><time>2026-04-25T08:09:34.001Z</time></trkpt><trkpt lat="40.61412923998766" lon="8.441462735380934"><ele>53.33333333333333</ele><time>2026-04-25T08:09:35.001Z</time></trkpt><trkpt lat="40.613957774650174" lon="8.44132599896337"><ele>54.0</ele><time>2026-04-25T08:09:36.001Z</time></trkpt><trkpt lat="40.613785769912894" lon="8.441187037539498"><ele>58.66666666666667</ele><time>2026-04-25T08:09:37.001Z</time></trkpt><trkpt lat="40.613614280334026" lon="8.441048163517726"><ele>63.333333333333336</ele><time>2026-04-25T08:09:38.001Z</time></trkpt><trkpt lat="40.61345919478158" lon="8.440925856663691"><ele>68.0</ele><time>2026-04-25T08:09:39.001Z</time></trkpt><trkpt lat="40.61331490866083" lon="8.440815466033225"><ele>68.0</ele><time>2026-04-25T08:09:40.001Z</time></trkpt><trkpt lat="40.613174999247114" lon="8.440712710188981"><ele>68.0</ele><time>2026-04-25T08:09:41.001Z</time></trkpt><trkpt lat="40.61303469989388" lon="8.440620698956518"><ele>68.0</ele><time>2026-04-25T08:09:42.001Z</time></trkpt><trkpt lat="40.61289958408121" lon="8.440551786032838"><ele>71.5</ele><time>2026-04-25T08:09:43.001Z</time></trkpt><trkpt lat="40.61275921865219" lon="8.440511066179033"><ele>75.0</ele><time>2026-04-25T08:09:44.001Z</time></trkpt><trkpt lat="40.61261456845067" lon="8.440506947177948"><ele>78.5</ele><time>2026-04-25T08:09:45.001Z</time></trkpt><trkpt lat="40.61246843026037" lon="8.440542332007118"><ele>82.0</ele><time>2026-04-25T08:09:46.001Z</time></trkpt><trkpt lat="40.61232956545825" lon="8.440609278390186"><ele>82.0</ele><time>2026-04-25T08:09:47.001Z</time></trkpt><trkpt lat="40.61220137105019" lon="8.44070734621687"><ele>82.0</ele><time>2026-04-25T08:09:48.002Z</time></trkpt><trkpt lat="40.612091178676906" lon="8.440836720497181"><ele>82.0</ele><time>2026-04-25T08:09:49.002Z</time></trkpt><trkpt lat="40.61200831747718" lon="8.44097064362965"><ele>82.0</ele><time>2026-04-25T08:09:50.002Z</time></trkpt><trkpt lat="40.61194268717539" lon="8.441121813099876"><ele>88.33333333333333</ele><time>2026-04-25T08:09:51.002Z</time></trkpt><trkpt lat="40.611888190865805" lon="8.441308092760064"><ele>94.66666666666666</ele><time>2026-04-25T08:09:52.002Z</time></trkpt><trkpt lat="40.61183791734996" lon="8.441505737811276"><ele>101.0</ele><time>2026-04-25T08:09:53.002Z</time></trkpt><trkpt lat="40.61179065940912" lon="8.441715473812431"><ele>101.0</ele><time>2026-04-25T08:09:54.002Z</time></trkpt><trkpt lat="40.61173133849562" lon="8.441924658119888"><ele>101.0</ele><time>2026-04-25T08:09:55.002Z</time></trkpt><trkpt lat="40.611664090853246" lon="8.442125806300117"><ele>101.0</ele><time>2026-04-25T08:09:56.002Z</time></trkpt><trkpt lat="40.61159018838737" lon="8.442313921024223"><ele>98.33333333333333</ele><time>2026-04-25T08:09:57.002Z</time></trkpt><trkpt lat="40.61150401558386" lon="8.442488494095835"><ele>95.66666666666666</ele><time>2026-04-25T08:09:58.002Z</time></trkpt><trkpt lat="40.611404429218716" lon="8.442648170646281"><ele>93.0</ele><time>2026-04-25T08:09:59.002Z</time></trkpt><trkpt lat="40.61128550033381" lon="8.442798361707121"><ele>98.0</ele><time>2026-04-25T08:10:00.002Z</time></trkpt><trkpt lat="40.61115688480853" lon="8.442945599058229"><ele>103.0</ele><time>2026-04-25T08:10:01.002Z</time></trkpt><trkpt lat="40.61102395496251" lon="8.443095662325694"><ele>108.0</ele><time>2026-04-25T08:10:02.002Z</time></trkpt><trkpt lat="40.61088717584847" lon="8.44324567295119"><ele>108.0</ele><time>2026-04-25T08:10:03.002Z</time></trkpt><trkpt lat="40.610755868491154" lon="8.443392137627388"><ele>108.0</ele><time>2026-04-25T08:10:04.002Z</time></trkpt><trkpt lat="40.610631613485644" lon="8.443540956889164"><ele>108.0</ele><time>2026-04-25T08:10:05.002Z</time></trkpt><trkpt lat="40.61051366202443" lon="8.443700119858264"><ele>104.0</ele><time>2026-04-25T08:10:06.002Z</time></trkpt><trkpt lat="40.610407165852756" lon="8.443878581072319"><ele>100.0</ele><time>2026-04-25T08:10:07.002Z</time></trkpt><trkpt lat="40.610311379494114" lon="8.444082883805471"><ele>96.0</ele><time>2026-04-25T08:10:08.002Z</time></trkpt><trkpt lat="40.6102240869164" lon="8.444321966894469"><ele>104.0</ele><time>2026-04-25T08:10:09.002Z</time></trkpt><trkpt lat="40.61014349291884" lon="8.444590083426615"><ele>112.0</ele><time>2026-04-25T08:10:10.002Z</time></trkpt><trkpt lat="40.61006794081075" lon="8.444854224132406"><ele>120.0</ele><time>2026-04-25T08:10:11.002Z</time></trkpt><trkpt lat="40.60999721746263" lon="8.445112684848603"><ele>120.0</ele><time>2026-04-25T08:10:12.002Z</time></trkpt><trkpt lat="40.60993286054582" lon="8.445370998630596"><ele>120.0</ele><time>2026-04-25T08:10:13.002Z</time></trkpt><trkpt lat="40.60987696126829" lon="8.445629465289302"><ele>120.0</ele><time>2026-04-25T08:10:14.002Z</time></trkpt><trkpt lat="40.609830862204156" lon="8.445884082712645"><ele>119.0</ele><time>2026-04-25T08:10:15.002Z</time></trkpt><trkpt lat="40.60979522220006" lon="8.446136487362462"><ele>118.0</ele><time>2026-04-25T08:10:16.002Z</time></trkpt><trkpt lat="40.60976587204989" lon="8.446381296018249"><ele>117.0</ele><time>2026-04-25T08:10:17.002Z</time></trkpt><trkpt lat="40.60973197720995" lon="8.446620666957617"><ele>117.0</ele><time>2026-04-25T08:10:18.002Z</time></trkpt><trkpt lat="40.609692633264295" lon="8.446858160889816"><ele>117.0</ele><time>2026-04-25T08:10:19.002Z</time></trkpt><trkpt lat="40.6096571003318" lon="8.447101214858133"><ele>117.0</ele><time>2026-04-25T08:10:20.002Z</time></trkpt><trkpt lat="40.60962332262313" lon="8.447344550986934"><ele>117.0</ele><time>2026-04-25T08:10:21.002Z</time></trkpt><trkpt lat="40.60958907359586" lon="8.447583456546841"><ele>117.0</ele><time>2026-04-25T08:10:22.002Z</time></trkpt><trkpt lat="40.60955540326688" lon="8.44781885282427"><ele>117.0</ele><time>2026-04-25T08:10:23.002Z</time></trkpt><trkpt lat="40.60952420159617" lon="8.44805361918397"><ele>119.66666666666666</ele><time>2026-04-25T08:10:24.002Z</time></trkpt><trkpt lat="40.609494020168285" lon="8.448294012334646"><ele>122.33333333333333</ele><time>2026-04-25T08:10:25.002Z</time></trkpt><trkpt lat="40.60946931460354" lon="8.448542961211464"><ele>125.0</ele><time>2026-04-25T08:10:26.002Z</time></trkpt><trkpt lat="40.60944814026305" lon="8.44878951726197"><ele>132.33333333333331</ele><time>2026-04-25T08:10:27.002Z</time></trkpt><trkpt lat="40.60943116816765" lon="8.449031438637762"><ele>139.66666666666666</ele><time>2026-04-25T08:10:28.002Z</time></trkpt><trkpt lat="40.609414405633885" lon="8.44927067391696"><ele>147.0</ele><time>2026-04-25T08:10:29.002Z</time></trkpt><trkpt lat="40.609397950534586" lon="8.44950296960568"><ele>146.33333333333334</ele><time>2026-04-25T08:10:30.002Z</time></trkpt><trkpt lat="40.609382804007886" lon="8.449732785956636"><ele>145.66666666666669</ele><time>2026-04-25T08:10:31.002Z</time></trkpt><trkpt lat="40.60936587039453" lon="8.44996002758249"><ele>145.0</ele><time>2026-04-25T08:10:32.002Z</time></trkpt><trkpt lat="40.60934540667797" lon="8.450181790014899"><ele>145.0</ele><time>2026-04-25T08:10:33.002Z</time></trkpt><trkpt lat="40.60932499231993" lon="8.450400260968522"><ele>145.0</ele><time>2026-04-25T08:10:34.002Z</time></trkpt><trkpt lat="40.60929926508022" lon="8.450612574563936"><ele>145.0</ele><time>2026-04-25T08:10:35.002Z</time></trkpt><trkpt lat="40.60925644969393" lon="8.450820761422934"><ele>144.0</ele><time>2026-04-25T08:10:36.002Z</time></trkpt><trkpt lat="40.60920182931776" lon="8.451025184748286"><ele>143.0</ele><time>2026-04-25T08:10:37.003Z</time></trkpt><trkpt lat="40.60913170625127" lon="8.451221850205796"><ele>142.0</ele><time>2026-04-25T08:10:38.003Z</time></trkpt><trkpt lat="40.60905257227763" lon="8.451394698065547"><ele>139.66666666666669</ele><time>2026-04-25T08:10:39Z</time></trkpt><trkpt lat="40.60896617531752" lon="8.451550255211648"><ele>137.33333333333334</ele><time>2026-04-25T08:10:40Z</time></trkpt><trkpt lat="40.60886684788975" lon="8.45170591642185"><ele>135.0</ele><time>2026-04-25T08:10:41Z</time></trkpt><trkpt lat="40.60875276948664" lon="8.45185517512593"><ele>134.66666666666666</ele><time>2026-04-25T08:10:42Z</time></trkpt><trkpt lat="40.608629330666155" lon="8.45200058352468"><ele>134.33333333333331</ele><time>2026-04-25T08:10:43Z</time></trkpt><trkpt lat="40.60849729478719" lon="8.45214362503048"><ele>134.0</ele><time>2026-04-25T08:10:44Z</time></trkpt><trkpt lat="40.60836171599019" lon="8.45228609643775"><ele>134.0</ele><time>2026-04-25T08:10:45Z</time></trkpt><trkpt lat="40.608232939109435" lon="8.452433562927073"><ele>134.0</ele><time>2026-04-25T08:10:46Z</time></trkpt><trkpt lat="40.608103805995704" lon="8.452579670133195"><ele>134.0</ele><time>2026-04-25T08:10:47Z</time></trkpt><trkpt lat="40.60797363748042" lon="8.452720941446657"><ele>134.0</ele><time>2026-04-25T08:10:48Z</time></trkpt><trkpt lat="40.60784358196716" lon="8.45285887604597"><ele>134.0</ele><time>2026-04-25T08:10:49Z</time></trkpt><trkpt lat="40.60770735132186" lon="8.452986322097905"><ele>134.0</ele><time>2026-04-25T08:10:50Z</time></trkpt><trkpt lat="40.60756191704297" lon="8.453097826656395"><ele>135.66666666666666</ele><time>2026-04-25T08:10:51Z</time></trkpt><trkpt lat="40.60740931259175" lon="8.4531934744839"><ele>137.33333333333334</ele><time>2026-04-25T08:10:52Z</time></trkpt><trkpt lat="40.6072439222102" lon="8.453253555705501"><ele>139.0</ele><time>2026-04-25T08:10:53Z</time></trkpt><trkpt lat="40.60707770175169" lon="8.45332567099637"><ele>141.33333333333334</ele><time>2026-04-25T08:10:54Z</time></trkpt><trkpt lat="40.60690713912658" lon="8.453393585192442"><ele>143.66666666666666</ele><time>2026-04-25T08:10:55Z</time></trkpt><trkpt lat="40.606728376972875" lon="8.453464940882347"><ele>146.0</ele><time>2026-04-25T08:10:56Z</time></trkpt><trkpt lat="40.60653870569469" lon="8.453537752833702"><ele>146.0</ele><time>2026-04-25T08:10:57Z</time></trkpt><trkpt lat="40.60634454513117" lon="8.453613165106548"><ele>146.0</ele><time>2026-04-25T08:10:58Z</time></trkpt><trkpt lat="40.60615460165668" lon="8.453689195116253"><ele>146.0</ele><time>2026-04-25T08:10:59Z</time></trkpt><trkpt lat="40.605959654597754" lon="8.453767227946063"><ele>145.33333333333331</ele><time>2026-04-25T08:11:00Z</time></trkpt><trkpt lat="40.605761239644785" lon="8.453846648894443"><ele>144.66666666666666</ele><time>2026-04-25T08:11:01Z</time></trkpt><trkpt lat="40.60556050388578" lon="8.45392687903144"><ele>144.0</ele><time>2026-04-25T08:11:02Z</time></trkpt><trkpt lat="40.605357284750724" lon="8.454007702316314"><ele>147.33333333333334</ele><time>2026-04-25T08:11:03Z</time></trkpt><trkpt lat="40.605152370582594" lon="8.454089034402532"><ele>150.66666666666669</ele><time>2026-04-25T08:11:04Z</time></trkpt><trkpt lat="40.60494449885992" lon="8.454171315964794"><ele>154.0</ele><time>2026-04-25T08:11:05Z</time></trkpt><trkpt lat="40.60473465933385" lon="8.454254374893196"><ele>154.0</ele><time>2026-04-25T08:11:06Z</time></trkpt><trkpt lat="40.60452093366522" lon="8.454338476390122"><ele>154.0</ele><time>2026-04-25T08:11:07Z</time></trkpt><trkpt lat="40.60430355467902" lon="8.454417916942779"><ele>154.0</ele><time>2026-04-25T08:11:08Z</time></trkpt><trkpt lat="40.604083637224214" lon="8.454498802202313"><ele>158.0</ele><time>2026-04-25T08:11:09Z</time></trkpt><trkpt lat="40.603875643987784" lon="8.454583233514535"><ele>162.0</ele><time>2026-04-25T08:11:10Z</time></trkpt><trkpt lat="40.603676076713185" lon="8.454687974595076"><ele>166.0</ele><time>2026-04-25T08:11:11Z</time></trkpt><trkpt lat="40.603467758985026" lon="8.454777097431895"><ele>167.33333333333334</ele><time>2026-04-25T08:11:12.001Z</time></trkpt><trkpt lat="40.603257682186204" lon="8.454848045545006"><ele>168.66666666666666</ele><time>2026-04-25T08:11:13.001Z</time></trkpt><trkpt lat="40.603052056504566" lon="8.454940374702828"><ele>170.0</ele><time>2026-04-25T08:11:14.001Z</time></trkpt><trkpt lat="40.602848745239974" lon="8.455053364362545"><ele>169.5</ele><time>2026-04-25T08:11:15.001Z</time></trkpt><trkpt lat="40.60263593577355" lon="8.45514723728908"><ele>169.0</ele><time>2026-04-25T08:11:16.001Z</time></trkpt><trkpt lat="40.602421755047615" lon="8.455243588283953"><ele>169.0</ele><time>2026-04-25T08:11:17.001Z</time></trkpt><trkpt lat="40.6022057104914" lon="8.455342686578176"><ele>169.0</ele><time>2026-04-25T08:11:18.001Z</time></trkpt><trkpt lat="40.60198146287125" lon="8.455420038899243"><ele>169.5</ele><time>2026-04-25T08:11:19.001Z</time></trkpt><trkpt lat="40.60176860210413" lon="8.455537073720565"><ele>170.0</ele><time>2026-04-25T08:11:20.001Z</time></trkpt><trkpt lat="40.60155260444283" lon="8.455633226201236"><ele>170.0</ele><time>2026-04-25T08:11:21.001Z</time></trkpt><trkpt lat="40.60133242097655" lon="8.455708259375122"><ele>170.0</ele><time>2026-04-25T08:11:22.001Z</time></trkpt><trkpt lat="40.60112188100471" lon="8.455802451289562"><ele>170.0</ele><time>2026-04-25T08:11:23.001Z</time></trkpt><trkpt lat="40.60091536440799" lon="8.455895523001708"><ele>170.0</ele><time>2026-04-25T08:11:24.001Z</time></trkpt><trkpt lat="40.60071179422748" lon="8.455986465368577"><ele>170.0</ele><time>2026-04-25T08:11:25.001Z</time></trkpt><trkpt lat="40.60051657837303" lon="8.45609341693004"><ele>169.66666666666666</ele><time>2026-04-25T08:11:26.001Z</time></trkpt><trkpt lat="40.60031870012982" lon="8.456181727986657"><ele>169.33333333333334</ele><time>2026-04-25T08:11:27.001Z</time></trkpt><trkpt lat="40.60012226892997" lon="8.456269791648932"><ele>169.0</ele><time>2026-04-25T08:11:28.001Z</time></trkpt><trkpt lat="40.599929575062575" lon="8.456333924674087"><ele>170.0</ele><time>2026-04-25T08:11:29.001Z</time></trkpt><trkpt lat="40.599754210183065" lon="8.456412823623616"><ele>171.0</ele><time>2026-04-25T08:11:30.001Z</time></trkpt><trkpt lat="40.59959231860563" lon="8.456504742257511"><ele>172.0</ele><time>2026-04-25T08:11:31.001Z</time></trkpt><trkpt lat="40.599432246595924" lon="8.456562187382714"><ele>172.0</ele><time>2026-04-25T08:11:32.001Z</time></trkpt><trkpt lat="40.599268594362066" lon="8.45655866593144"><ele>172.0</ele><time>2026-04-25T08:11:33.001Z</time></trkpt><trkpt lat="40.599093290752215" lon="8.456556859309911"><ele>172.0</ele><time>2026-04-25T08:11:34.001Z</time></trkpt><trkpt lat="40.5989118137827" lon="8.456568464000021"><ele>172.0</ele><time>2026-04-25T08:11:35.001Z</time></trkpt><trkpt lat="40.59872465657062" lon="8.456563946357813"><ele>172.0</ele><time>2026-04-25T08:11:36.001Z</time></trkpt><trkpt lat="40.598536330257424" lon="8.456535781910857"><ele>172.0</ele><time>2026-04-25T08:11:37.001Z</time></trkpt><trkpt lat="40.59834386788852" lon="8.456530340769817"><ele>172.33333333333334</ele><time>2026-04-25T08:11:38.001Z</time></trkpt><trkpt lat="40.59814970271533" lon="8.45652523954659"><ele>172.66666666666666</ele><time>2026-04-25T08:11:39.001Z</time></trkpt><trkpt lat="40.597951452141864" lon="8.45652003097968"><ele>173.0</ele><time>2026-04-25T08:11:40.001Z</time></trkpt><trkpt lat="40.59775112165152" lon="8.456514767768"><ele>176.66666666666666</ele><time>2026-04-25T08:11:41.001Z</time></trkpt><trkpt lat="40.59754728093678" lon="8.456527899702792"><ele>180.33333333333334</ele><time>2026-04-25T08:11:42.001Z</time></trkpt><trkpt lat="40.59734132145716" lon="8.456520373941022"><ele>184.0</ele><time>2026-04-25T08:11:43.001Z</time></trkpt><trkpt lat="40.597132328364246" lon="8.456515418728243"><ele>188.0</ele><time>2026-04-25T08:11:44.001Z</time></trkpt><trkpt lat="40.59691960720099" lon="8.456510848345467"><ele>192.0</ele><time>2026-04-25T08:11:45.001Z</time></trkpt><trkpt lat="40.59670200486733" lon="8.456504017123448"><ele>196.0</ele><time>2026-04-25T08:11:46.001Z</time></trkpt><trkpt lat="40.596481357472165" lon="8.456495919191306"><ele>196.0</ele><time>2026-04-25T08:11:47.001Z</time></trkpt><trkpt lat="40.59626008895279" lon="8.45648775528414"><ele>196.0</ele><time>2026-04-25T08:11:48.001Z</time></trkpt><trkpt lat="40.59603279915041" lon="8.456477813490912"><ele>196.0</ele><time>2026-04-25T08:11:49.001Z</time></trkpt><trkpt lat="40.5958030317956" lon="8.456468616956291"><ele>200.0</ele><time>2026-04-25T08:11:50.001Z</time></trkpt><trkpt lat="40.595569262087274" lon="8.456460045550973"><ele>204.0</ele><time>2026-04-25T08:11:51.001Z</time></trkpt><trkpt lat="40.59533913281354" lon="8.45645368046573"><ele>207.5</ele><time>2026-04-25T08:11:52.001Z</time></trkpt><trkpt lat="40.59511334850167" lon="8.456448036575855"><ele>211.0</ele><time>2026-04-25T08:11:53.001Z</time></trkpt><trkpt lat="40.59488285237716" lon="8.456438489196788"><ele>211.0</ele><time>2026-04-25T08:11:54.001Z</time></trkpt><trkpt lat="40.5946529541155" lon="8.456428048572757"><ele>211.0</ele><time>2026-04-25T08:11:55.001Z</time></trkpt><trkpt lat="40.59442998709917" lon="8.456421665672288"><ele>212.0</ele><time>2026-04-25T08:11:56.001Z</time></trkpt><trkpt lat="40.594227467407066" lon="8.456415410000652"><ele>213.0</ele><time>2026-04-25T08:11:57.001Z</time></trkpt><trkpt lat="40.59403923675458" lon="8.456409114654463"><ele>214.0</ele><time>2026-04-25T08:11:58.002Z</time></trkpt><trkpt lat="40.59386466971813" lon="8.456404054194044"><ele>214.0</ele><time>2026-04-25T08:11:59.002Z</time></trkpt><trkpt lat="40.59370329649355" lon="8.456409137825466"><ele>214.0</ele><time>2026-04-25T08:12:00.002Z</time></trkpt><trkpt lat="40.59355629256416" lon="8.456438265212697"><ele>214.0</ele><time>2026-04-25T08:12:01.002Z</time></trkpt><trkpt lat="40.593418109114324" lon="8.45650183726424"><ele>214.66666666666666</ele><time>2026-04-25T08:12:02.002Z</time></trkpt><trkpt lat="40.59327913988287" lon="8.456598797101908"><ele>215.33333333333331</ele><time>2026-04-25T08:12:03.002Z</time></trkpt><trkpt lat="40.59314295618661" lon="8.45672338783806"><ele>216.0</ele><time>2026-04-25T08:12:04.002Z</time></trkpt><trkpt lat="40.59300814318619" lon="8.456861521246424"><ele>216.0</ele><time>2026-04-25T08:12:05.002Z</time></trkpt><trkpt lat="40.59287007218365" lon="8.457005636588354"><ele>216.0</ele><time>2026-04-25T08:12:06.002Z</time></trkpt><trkpt lat="40.59272738512314" lon="8.457150681168024"><ele>216.0</ele><time>2026-04-25T08:12:07.002Z</time></trkpt><trkpt lat="40.59258075189959" lon="8.457299982974503"><ele>216.33333333333331</ele><time>2026-04-25T08:12:08.002Z</time></trkpt><trkpt lat="40.59243127285252" lon="8.457453552919556"><ele>216.66666666666666</ele><time>2026-04-25T08:12:09.002Z</time></trkpt><trkpt lat="40.59227585749206" lon="8.45760901444331"><ele>217.0</ele><time>2026-04-25T08:12:10.002Z</time></trkpt><trkpt lat="40.59211569995878" lon="8.4577683133996"><ele>217.66666666666666</ele><time>2026-04-25T08:12:11.002Z</time></trkpt><trkpt lat="40.591954034408175" lon="8.457936261653636"><ele>218.33333333333331</ele><time>2026-04-25T08:12:12.002Z</time></trkpt><trkpt lat="40.59178695489344" lon="8.458106174764666"><ele>219.0</ele><time>2026-04-25T08:12:13.002Z</time></trkpt><trkpt lat="40.59161612728578" lon="8.458277364776833"><ele>219.0</ele><time>2026-04-25T08:12:14.002Z</time></trkpt><trkpt lat="40.591444968593045" lon="8.458451062394884"><ele>219.0</ele><time>2026-04-25T08:12:15.002Z</time></trkpt><trkpt lat="40.591278991360944" lon="8.458616629714223"><ele>219.0</ele><time>2026-04-25T08:12:16.002Z</time></trkpt><trkpt lat="40.59111055753138" lon="8.458786472813303"><ele>219.66666666666669</ele><time>2026-04-25T08:12:17.002Z</time></trkpt><trkpt lat="40.59094097230652" lon="8.458957754703432"><ele>220.33333333333334</ele><time>2026-04-25T08:12:18.002Z</time></trkpt><trkpt lat="40.59076859732243" lon="8.459130837668933"><ele>221.0</ele><time>2026-04-25T08:12:19.002Z</time></trkpt><trkpt lat="40.59059545314861" lon="8.459304782034911"><ele>221.0</ele><time>2026-04-25T08:12:20.002Z</time></trkpt><trkpt lat="40.59042017966947" lon="8.45947993518047"><ele>221.0</ele><time>2026-04-25T08:12:21.002Z</time></trkpt><trkpt lat="40.590245565622915" lon="8.459656594430498"><ele>221.0</ele><time>2026-04-25T08:12:22.002Z</time></trkpt><trkpt lat="40.59007017996608" lon="8.459836921290025"><ele>221.66666666666669</ele><time>2026-04-25T08:12:23.002Z</time></trkpt><trkpt lat="40.58989424506219" lon="8.46001656330062"><ele>222.33333333333331</ele><time>2026-04-25T08:12:24.002Z</time></trkpt><trkpt lat="40.58971638589144" lon="8.460191935694434"><ele>223.0</ele><time>2026-04-25T08:12:25.002Z</time></trkpt><trkpt lat="40.58953853847991" lon="8.46036624816789"><ele>224.66666666666666</ele><time>2026-04-25T08:12:26.002Z</time></trkpt><trkpt lat="40.58936258571503" lon="8.46054115789777"><ele>226.33333333333331</ele><time>2026-04-25T08:12:27.002Z</time></trkpt><trkpt lat="40.589188752568326" lon="8.460715784246911"><ele>228.0</ele><time>2026-04-25T08:12:28.002Z</time></trkpt><trkpt lat="40.58901504033483" lon="8.460889604794788"><ele>228.0</ele><time>2026-04-25T08:12:29.002Z</time></trkpt><trkpt lat="40.588842224149346" lon="8.461060864442194"><ele>228.0</ele><time>2026-04-25T08:12:30.002Z</time></trkpt><trkpt lat="40.588672327008766" lon="8.461234070434637"><ele>228.0</ele><time>2026-04-25T08:12:31.002Z</time></trkpt><trkpt lat="40.588503214552915" lon="8.461406602801095"><ele>229.0</ele><time>2026-04-25T08:12:32.002Z</time></trkpt><trkpt lat="40.58833481819007" lon="8.461576103007339"><ele>230.0</ele><time>2026-04-25T08:12:33.002Z</time></trkpt><trkpt lat="40.58816765308714" lon="8.461746667835252"><ele>231.0</ele><time>2026-04-25T08:12:34.002Z</time></trkpt><trkpt lat="40.588000696438975" lon="8.461918644342596"><ele>231.0</ele><time>2026-04-25T08:12:35.002Z</time></trkpt><trkpt lat="40.58783229947606" lon="8.462086385515095"><ele>231.0</ele><time>2026-04-25T08:12:36.002Z</time></trkpt><trkpt lat="40.58766409266694" lon="8.462254633165596"><ele>231.0</ele><time>2026-04-25T08:12:37.002Z</time></trkpt><trkpt lat="40.58749553766599" lon="8.462423773151002"><ele>231.66666666666669</ele><time>2026-04-25T08:12:38.002Z</time></trkpt><trkpt lat="40.587328165263514" lon="8.462593688886729"><ele>232.33333333333334</ele><time>2026-04-25T08:12:39.002Z</time></trkpt><trkpt lat="40.587159613073936" lon="8.462760314496675"><ele>233.0</ele><time>2026-04-25T08:12:40.002Z</time></trkpt><trkpt lat="40.58699131064812" lon="8.462927538615235"><ele>233.66666666666669</ele><time>2026-04-25T08:12:41.002Z</time></trkpt><trkpt lat="40.58682262193918" lon="8.463096479386053"><ele>234.33333333333331</ele><time>2026-04-25T08:12:42.002Z</time></trkpt><trkpt lat="40.58665296001594" lon="8.463266715762508"><ele>235.0</ele><time>2026-04-25T08:12:43.002Z</time></trkpt><trkpt lat="40.586482747003956" lon="8.46343661562774"><ele>235.0</ele><time>2026-04-25T08:12:44.002Z</time></trkpt><trkpt lat="40.58631097750762" lon="8.463607814509459"><ele>235.0</ele><time>2026-04-25T08:12:45Z</time></trkpt><trkpt lat="40.58613818082414" lon="8.463779959059146"><ele>235.0</ele><time>2026-04-25T08:12:46Z</time></trkpt><trkpt lat="40.58596434781632" lon="8.463955447520533"><ele>236.0</ele><time>2026-04-25T08:12:47Z</time></trkpt><trkpt lat="40.585790669844975" lon="8.464127633571554"><ele>237.0</ele><time>2026-04-25T08:12:48Z</time></trkpt><trkpt lat="40.58561542112688" lon="8.464296530298459"><ele>238.0</ele><time>2026-04-25T08:12:49Z</time></trkpt><trkpt lat="40.58543548820129" lon="8.464454300487754"><ele>239.0</ele><time>2026-04-25T08:12:50Z</time></trkpt><trkpt lat="40.585249656328" lon="8.464598570568931"><ele>240.0</ele><time>2026-04-25T08:12:51Z</time></trkpt><trkpt lat="40.585049123943804" lon="8.464705518541487"><ele>241.0</ele><time>2026-04-25T08:12:52Z</time></trkpt><trkpt lat="40.58485685063369" lon="8.464829397142426"><ele>241.0</ele><time>2026-04-25T08:12:53Z</time></trkpt><trkpt lat="40.58467143496437" lon="8.464962661205576"><ele>241.0</ele><time>2026-04-25T08:12:54Z</time></trkpt><trkpt lat="40.58446933891089" lon="8.465034381930122"><ele>241.0</ele><time>2026-04-25T08:12:55Z</time></trkpt><trkpt lat="40.584268585653795" lon="8.465112586641261"><ele>243.33333333333331</ele><time>2026-04-25T08:12:56Z</time></trkpt><trkpt lat="40.584066416277494" lon="8.465186723028394"><ele>245.66666666666669</ele><time>2026-04-25T08:12:57Z</time></trkpt><trkpt lat="40.583865838048496" lon="8.465259914836954"><ele>248.0</ele><time>2026-04-25T08:12:58Z</time></trkpt><trkpt lat="40.583665824072106" lon="8.465333016205873"><ele>248.66666666666669</ele><time>2026-04-25T08:12:59Z</time></trkpt><trkpt lat="40.583468431931685" lon="8.465405159325696"><ele>249.33333333333331</ele><time>2026-04-25T08:13:00Z</time></trkpt><trkpt lat="40.583284333059105" lon="8.465473930122101"><ele>250.0</ele><time>2026-04-25T08:13:01Z</time></trkpt><trkpt lat="40.58310206618499" lon="8.465541792729343"><ele>250.0</ele><time>2026-04-25T08:13:02Z</time></trkpt><trkpt lat="40.582948184853976" lon="8.465593816554641"><ele>250.0</ele><time>2026-04-25T08:13:03Z</time></trkpt><trkpt lat="40.58279402207683" lon="8.465626578340464"><ele>250.0</ele><time>2026-04-25T08:13:04Z</time></trkpt><trkpt lat="40.582641565525776" lon="8.465611098475055"><ele>251.66666666666666</ele><time>2026-04-25T08:13:05Z</time></trkpt><trkpt lat="40.58247331275068" lon="8.465574670292007"><ele>253.33333333333331</ele><time>2026-04-25T08:13:06Z</time></trkpt><trkpt lat="40.582298842640995" lon="8.465532908794719"><ele>255.0</ele><time>2026-04-25T08:13:07Z</time></trkpt><trkpt lat="40.58212045241111" lon="8.465486943053532"><ele>257.6666666666667</ele><time>2026-04-25T08:13:08Z</time></trkpt><trkpt lat="40.581937737362644" lon="8.465437247906198"><ele>260.33333333333337</ele><time>2026-04-25T08:13:09Z</time></trkpt><trkpt lat="40.58175142314546" lon="8.465386573774355"><ele>263.0</ele><time>2026-04-25T08:13:10Z</time></trkpt><trkpt lat="40.58157331986378" lon="8.465338268611317"><ele>263.0</ele><time>2026-04-25T08:13:11Z</time></trkpt><trkpt lat="40.58139634409031" lon="8.46529910567203"><ele>263.0</ele><time>2026-04-25T08:13:12Z</time></trkpt><trkpt lat="40.58121147309462" lon="8.465295739750033"><ele>263.0</ele><time>2026-04-25T08:13:13Z</time></trkpt><trkpt lat="40.5810228679903" lon="8.465322644772977"><ele>264.0</ele><time>2026-04-25T08:13:14Z</time></trkpt><trkpt lat="40.58082973627529" lon="8.465364530051357"><ele>265.0</ele><time>2026-04-25T08:13:15Z</time></trkpt><trkpt lat="40.58063266076819" lon="8.465397928405162"><ele>266.0</ele><time>2026-04-25T08:13:16Z</time></trkpt><trkpt lat="40.58043498471865" lon="8.465435119139755"><ele>265.6666666666667</ele><time>2026-04-25T08:13:17Z</time></trkpt><trkpt lat="40.58023450946903" lon="8.465472598745867"><ele>265.3333333333333</ele><time>2026-04-25T08:13:18Z</time></trkpt><trkpt lat="40.58004376461554" lon="8.465508259218929"><ele>265.0</ele><time>2026-04-25T08:13:19Z</time></trkpt><trkpt lat="40.579869182437236" lon="8.465540898025706"><ele>265.0</ele><time>2026-04-25T08:13:20Z</time></trkpt><trkpt lat="40.57970928626786" lon="8.465568092452855"><ele>265.0</ele><time>2026-04-25T08:13:21Z</time></trkpt><trkpt lat="40.57956385898213" lon="8.465568706505499"><ele>265.0</ele><time>2026-04-25T08:13:22Z</time></trkpt><trkpt lat="40.57943157170715" lon="8.465540801022572"><ele>265.0</ele><time>2026-04-25T08:13:23Z</time></trkpt><trkpt lat="40.57931188804077" lon="8.46547221449527"><ele>268.0</ele><time>2026-04-25T08:13:24Z</time></trkpt><trkpt lat="40.57919879702711" lon="8.465369977529638"><ele>271.0</ele><time>2026-04-25T08:13:25Z</time></trkpt><trkpt lat="40.57908552858408" lon="8.465235987640652"><ele>274.0</ele><time>2026-04-25T08:13:26Z</time></trkpt><trkpt lat="40.578965161410096" lon="8.46507830751504"><ele>274.0</ele><time>2026-04-25T08:13:27.001Z</time></trkpt><trkpt lat="40.57883510186906" lon="8.464906713354017"><ele>274.0</ele><time>2026-04-25T08:13:28.001Z</time></trkpt><trkpt lat="40.57870857469875" lon="8.464740120645406"><ele>274.0</ele><time>2026-04-25T08:13:29.001Z</time></trkpt><trkpt lat="40.578576440524465" lon="8.464565606083983"><ele>271.3333333333333</ele><time>2026-04-25T08:13:30.001Z</time></trkpt><trkpt lat="40.57843921986965" lon="8.4643834200753"><ele>268.6666666666667</ele><time>2026-04-25T08:13:31.001Z</time></trkpt><trkpt lat="40.578297046362714" lon="8.464194658220975"><ele>266.0</ele><time>2026-04-25T08:13:32.001Z</time></trkpt><trkpt lat="40.57815077698313" lon="8.464000458385089"><ele>266.0</ele><time>2026-04-25T08:13:33.001Z</time></trkpt><trkpt lat="40.578001122529244" lon="8.463801639154383"><ele>266.0</ele><time>2026-04-25T08:13:34.001Z</time></trkpt><trkpt lat="40.577848974633696" lon="8.46359926513617"><ele>266.0</ele><time>2026-04-25T08:13:35.001Z</time></trkpt><trkpt lat="40.577692993814054" lon="8.463425689258832"><ele>264.6666666666667</ele><time>2026-04-25T08:13:36.001Z</time></trkpt><trkpt lat="40.57755459420365" lon="8.463245316657247"><ele>263.3333333333333</ele><time>2026-04-25T08:13:37.001Z</time></trkpt><trkpt lat="40.57743210719712" lon="8.46305521929901"><ele>262.0</ele><time>2026-04-25T08:13:38.001Z</time></trkpt><trkpt lat="40.57730431604235" lon="8.462885001072324"><ele>261.66666666666663</ele><time>2026-04-25T08:13:39.001Z</time></trkpt><trkpt lat="40.57718271914261" lon="8.462722103229225"><ele>261.3333333333333</ele><time>2026-04-25T08:13:40.001Z</time></trkpt><trkpt lat="40.577060827816574" lon="8.462576323690133"><ele>261.0</ele><time>2026-04-25T08:13:41.001Z</time></trkpt><trkpt lat="40.576972602024696" lon="8.462403744506522"><ele>261.0</ele><time>2026-04-25T08:13:42.001Z</time></trkpt><trkpt lat="40.57690937704265" lon="8.462212670030457"><ele>261.0</ele><time>2026-04-25T08:13:43.001Z</time></trkpt><trkpt lat="40.57688907204349" lon="8.461988326734737"><ele>261.0</ele><time>2026-04-25T08:13:44.001Z</time></trkpt><trkpt lat="40.57684309327748" lon="8.461756110263096"><ele>260.6666666666667</ele><time>2026-04-25T08:13:45.001Z</time></trkpt><trkpt lat="40.57680989370153" lon="8.461505615875433"><ele>260.33333333333337</ele><time>2026-04-25T08:13:46.001Z</time></trkpt><trkpt lat="40.57677667068754" lon="8.461252504868975"><ele>260.0</ele><time>2026-04-25T08:13:47.001Z</time></trkpt><trkpt lat="40.5767418177696" lon="8.460993891273601"><ele>260.0</ele><time>2026-04-25T08:13:48.001Z</time></trkpt><trkpt lat="40.576705044156604" lon="8.460731061567541"><ele>260.0</ele><time>2026-04-25T08:13:49.001Z</time></trkpt><trkpt lat="40.57667087260236" lon="8.460486016150764"><ele>260.0</ele><time>2026-04-25T08:13:50.001Z</time></trkpt><trkpt lat="40.576634488457486" lon="8.460254166371133"><ele>258.33333333333337</ele><time>2026-04-25T08:13:51.001Z</time></trkpt><trkpt lat="40.57658472084359" lon="8.4600317375877"><ele>256.6666666666667</ele><time>2026-04-25T08:13:52.001Z</time></trkpt><trkpt lat="40.57651221354069" lon="8.459804945017973"><ele>255.0</ele><time>2026-04-25T08:13:53.001Z</time></trkpt><trkpt lat="40.57642682237806" lon="8.459570343577504"><ele>252.33333333333331</ele><time>2026-04-25T08:13:54.001Z</time></trkpt><trkpt lat="40.5763380342214" lon="8.459326394987533"><ele>249.66666666666666</ele><time>2026-04-25T08:13:55.001Z</time></trkpt><trkpt lat="40.57624856224714" lon="8.459081843997707"><ele>247.0</ele><time>2026-04-25T08:13:56.001Z</time></trkpt><trkpt lat="40.57616399887732" lon="8.45884547303396"><ele>250.33333333333331</ele><time>2026-04-25T08:13:57.001Z</time></trkpt><trkpt lat="40.576081561140285" lon="8.4586130875848"><ele>253.66666666666669</ele><time>2026-04-25T08:13:58.001Z</time></trkpt><trkpt lat="40.576001105071114" lon="8.45838912330794"><ele>257.0</ele><time>2026-04-25T08:13:59.001Z</time></trkpt><trkpt lat="40.575925562615986" lon="8.458175536830522"><ele>257.0</ele><time>2026-04-25T08:14:00.001Z</time></trkpt><trkpt lat="40.57585375013867" lon="8.457977153657543"><ele>257.0</ele><time>2026-04-25T08:14:01.001Z</time></trkpt><trkpt lat="40.57578502269639" lon="8.457797392445661"><ele>257.0</ele><time>2026-04-25T08:14:02.001Z</time></trkpt><trkpt lat="40.57571695192261" lon="8.45763842338471"><ele>256.5</ele><time>2026-04-25T08:14:03.001Z</time></trkpt><trkpt lat="40.5756334473535" lon="8.457497725780557"><ele>256.0</ele><time>2026-04-25T08:14:04.001Z</time></trkpt><trkpt lat="40.57553300025978" lon="8.457383981002717"><ele>255.5</ele><time>2026-04-25T08:14:05.001Z</time></trkpt><trkpt lat="40.5754176825411" lon="8.457297164830216"><ele>255.0</ele><time>2026-04-25T08:14:06.001Z</time></trkpt><trkpt lat="40.57528421085228" lon="8.457235167566665"><ele>255.0</ele><time>2026-04-25T08:14:07.001Z</time></trkpt><trkpt lat="40.5751349518105" lon="8.45719503439339"><ele>255.0</ele><time>2026-04-25T08:14:08.001Z</time></trkpt><trkpt lat="40.57498771457987" lon="8.457162018030461"><ele>255.0</ele><time>2026-04-25T08:14:09.001Z</time></trkpt><trkpt lat="40.574850055726024" lon="8.457129075189966"><ele>255.0</ele><time>2026-04-25T08:14:10.001Z</time></trkpt><trkpt lat="40.57470821414499" lon="8.457105697907588"><ele>254.0</ele><time>2026-04-25T08:14:11.002Z</time></trkpt><trkpt lat="40.57455463233316" lon="8.457105937141272"><ele>253.0</ele><time>2026-04-25T08:14:12.002Z</time></trkpt><trkpt lat="40.57439398016034" lon="8.457123499103893"><ele>252.0</ele><time>2026-04-25T08:14:13.002Z</time></trkpt><trkpt lat="40.57422876187605" lon="8.457154755605057"><ele>252.0</ele><time>2026-04-25T08:14:14.002Z</time></trkpt><trkpt lat="40.57406019407728" lon="8.457159727977004"><ele>252.0</ele><time>2026-04-25T08:14:15.002Z</time></trkpt><trkpt lat="40.57390331609097" lon="8.45720856008001"><ele>252.0</ele><time>2026-04-25T08:14:16.002Z</time></trkpt><trkpt lat="40.57375212177636" lon="8.457221661886994"><ele>251.0</ele><time>2026-04-25T08:14:17.002Z</time></trkpt><trkpt lat="40.573601163784936" lon="8.45721581332215"><ele>250.0</ele><time>2026-04-25T08:14:18.002Z</time></trkpt><trkpt lat="40.573446131482456" lon="8.457163166650062"><ele>249.0</ele><time>2026-04-25T08:14:19.002Z</time></trkpt><trkpt lat="40.57327900900362" lon="8.457131387974128"><ele>245.33333333333331</ele><time>2026-04-25T08:14:20.002Z</time></trkpt><trkpt lat="40.57311225090219" lon="8.457066960438453"><ele>241.66666666666666</ele><time>2026-04-25T08:14:21.002Z</time></trkpt><trkpt lat="40.57293615859846" lon="8.457001208348311"><ele>238.0</ele><time>2026-04-25T08:14:22.002Z</time></trkpt><trkpt lat="40.57275277538512" lon="8.456937932069073"><ele>237.66666666666666</ele><time>2026-04-25T08:14:23.002Z</time></trkpt><trkpt lat="40.57257653573616" lon="8.456877726313694"><ele>237.33333333333331</ele><time>2026-04-25T08:14:24.002Z</time></trkpt><trkpt lat="40.572409910098386" lon="8.456815528562867"><ele>237.0</ele><time>2026-04-25T08:14:25.002Z</time></trkpt><trkpt lat="40.572249469911995" lon="8.456754865099747"><ele>237.0</ele><time>2026-04-25T08:14:26.002Z</time></trkpt><trkpt lat="40.57209338328204" lon="8.456703224275868"><ele>237.0</ele><time>2026-04-25T08:14:27.002Z</time></trkpt><trkpt lat="40.57194390859962" lon="8.456642706029516"><ele>237.0</ele><time>2026-04-25T08:14:28.002Z</time></trkpt><trkpt lat="40.57179013500093" lon="8.456630153221314"><ele>236.33333333333331</ele><time>2026-04-25T08:14:29.002Z</time></trkpt><trkpt lat="40.571639329736946" lon="8.456650546886616"><ele>235.66666666666666</ele><time>2026-04-25T08:14:30.002Z</time></trkpt><trkpt lat="40.57148335117129" lon="8.456722459147365"><ele>235.0</ele><time>2026-04-25T08:14:31.002Z</time></trkpt><trkpt lat="40.571326093922984" lon="8.456787090103397"><ele>233.66666666666666</ele><time>2026-04-25T08:14:32.002Z</time></trkpt><trkpt lat="40.571176492421" lon="8.456823918161373"><ele>232.33333333333331</ele><time>2026-04-25T08:14:33.002Z</time></trkpt><trkpt lat="40.571028705470795" lon="8.456884023593272"><ele>231.0</ele><time>2026-04-25T08:14:34.002Z</time></trkpt><trkpt lat="40.570880438335344" lon="8.456859378294935"><ele>231.0</ele><time>2026-04-25T08:14:35.002Z</time></trkpt><trkpt lat="40.57073539505257" lon="8.456834717677166"><ele>231.0</ele><time>2026-04-25T08:14:36.002Z</time></trkpt><trkpt lat="40.570593187055756" lon="8.456824727727684"><ele>231.0</ele><time>2026-04-25T08:14:37.002Z</time></trkpt><trkpt lat="40.570455971451686" lon="8.456821445100873"><ele>231.0</ele><time>2026-04-25T08:14:38.002Z</time></trkpt><trkpt lat="40.570312172611025" lon="8.45684971903452"><ele>229.66666666666669</ele><time>2026-04-25T08:14:39.002Z</time></trkpt><trkpt lat="40.57016443160241" lon="8.45690642245443"><ele>228.33333333333334</ele><time>2026-04-25T08:14:40.002Z</time></trkpt><trkpt lat="40.570012163177644" lon="8.456996367875972"><ele>227.0</ele><time>2026-04-25T08:14:41.002Z</time></trkpt><trkpt lat="40.56985602265056" lon="8.457095550410239"><ele>227.33333333333334</ele><time>2026-04-25T08:14:42.002Z</time></trkpt><trkpt lat="40.569694468041945" lon="8.457205790146004"><ele>227.66666666666669</ele><time>2026-04-25T08:14:43.002Z</time></trkpt><trkpt lat="40.56953037736701" lon="8.457320527949749"><ele>228.0</ele><time>2026-04-25T08:14:44.002Z</time></trkpt><trkpt lat="40.56936313168859" lon="8.457431155974378"><ele>228.0</ele><time>2026-04-25T08:14:45.002Z</time></trkpt><trkpt lat="40.56920238843753" lon="8.45753562897178"><ele>228.0</ele><time>2026-04-25T08:14:46.002Z</time></trkpt><trkpt lat="40.56903971659932" lon="8.4576444550005"><ele>228.0</ele><time>2026-04-25T08:14:47.002Z</time></trkpt><trkpt lat="40.56887773167568" lon="8.457728888147514"><ele>228.0</ele><time>2026-04-25T08:14:48.002Z</time></trkpt><trkpt lat="40.56873044806178" lon="8.457824874609875"><ele>228.0</ele><time>2026-04-25T08:14:49.002Z</time></trkpt><trkpt lat="40.56858849520675" lon="8.457919417566957"><ele>228.0</ele><time>2026-04-25T08:14:50Z</time></trkpt><trkpt lat="40.568449816929665" lon="8.45801136759062"><ele>228.5</ele><time>2026-04-25T08:14:51Z</time></trkpt><trkpt lat="40.56831401423704" lon="8.458093189683668"><ele>229.0</ele><time>2026-04-25T08:14:52Z</time></trkpt><trkpt lat="40.56818126353568" lon="8.458177952463952"><ele>229.5</ele><time>2026-04-25T08:14:53Z</time></trkpt><trkpt lat="40.56803599494079" lon="8.458187143639327"><ele>230.0</ele><time>2026-04-25T08:14:54Z</time></trkpt><trkpt lat="40.567870491478615" lon="8.458194520606067"><ele>227.0</ele><time>2026-04-25T08:14:55Z</time></trkpt><trkpt lat="40.56769022030062" lon="8.45820130207247"><ele>224.0</ele><time>2026-04-25T08:14:56Z</time></trkpt><trkpt lat="40.5675031666201" lon="8.458206155553826"><ele>221.0</ele><time>2026-04-25T08:14:57Z</time></trkpt><trkpt lat="40.56730600244217" lon="8.458211793929973"><ele>221.0</ele><time>2026-04-25T08:14:58Z</time></trkpt><trkpt lat="40.56709669288775" lon="8.458217778033873"><ele>221.0</ele><time>2026-04-25T08:14:59Z</time></trkpt><trkpt lat="40.566886613742525" lon="8.458222831201452"><ele>221.0</ele><time>2026-04-25T08:15:00Z</time></trkpt><trkpt lat="40.56669341445525" lon="8.458228168553415"><ele>219.66666666666669</ele><time>2026-04-25T08:15:01Z</time></trkpt><trkpt lat="40.5665125562827" lon="8.458234876537244"><ele>218.33333333333331</ele><time>2026-04-25T08:15:02Z</time></trkpt><trkpt lat="40.56634293076569" lon="8.458263375984727"><ele>217.0</ele><time>2026-04-25T08:15:03Z</time></trkpt><trkpt lat="40.566180872257306" lon="8.458269194443632"><ele>220.33333333333331</ele><time>2026-04-25T08:15:04Z</time></trkpt><trkpt lat="40.566008366485704" lon="8.45825775718788"><ele>223.66666666666669</ele><time>2026-04-25T08:15:05Z</time></trkpt><trkpt lat="40.56582527692315" lon="8.458266783425675"><ele>227.0</ele><time>2026-04-25T08:15:06Z</time></trkpt><trkpt lat="40.565632194498896" lon="8.458276302306944"><ele>227.0</ele><time>2026-04-25T08:15:07Z</time></trkpt><trkpt lat="40.56543235494855" lon="8.458286154311557"><ele>227.0</ele><time>2026-04-25T08:15:08Z</time></trkpt><trkpt lat="40.56523001111228" lon="8.45829612977916"><ele>227.0</ele><time>2026-04-25T08:15:09Z</time></trkpt><trkpt lat="40.56502771949562" lon="8.45830610266995"><ele>228.66666666666669</ele><time>2026-04-25T08:15:10Z</time></trkpt><trkpt lat="40.56482717255076" lon="8.45831439575264"><ele>230.33333333333331</ele><time>2026-04-25T08:15:11Z</time></trkpt><trkpt lat="40.56464136889699" lon="8.458316102480113"><ele>232.0</ele><time>2026-04-25T08:15:12Z</time></trkpt><trkpt lat="40.564458947011985" lon="8.458308283342044"><ele>234.66666666666666</ele><time>2026-04-25T08:15:13Z</time></trkpt><trkpt lat="40.5642748146916" lon="8.458284232897523"><ele>237.33333333333331</ele><time>2026-04-25T08:15:14Z</time></trkpt><trkpt lat="40.564078480921275" lon="8.458248301618385"><ele>240.0</ele><time>2026-04-25T08:15:15Z</time></trkpt><trkpt lat="40.563878994952695" lon="8.4582130206006"><ele>240.0</ele><time>2026-04-25T08:15:16Z</time></trkpt><trkpt lat="40.56370062234352" lon="8.458183205307888"><ele>240.0</ele><time>2026-04-25T08:15:17Z</time></trkpt><trkpt lat="40.563520368610874" lon="8.458174601925192"><ele>240.0</ele><time>2026-04-25T08:15:18Z</time></trkpt><trkpt lat="40.56334815455514" lon="8.458144583608485"><ele>243.5</ele><time>2026-04-25T08:15:19Z</time></trkpt><trkpt lat="40.563192001087906" lon="8.458120454028023"><ele>247.0</ele><time>2026-04-25T08:15:20.001Z</time></trkpt><trkpt lat="40.56305027516264" lon="8.458089454780684"><ele>250.5</ele><time>2026-04-25T08:15:21.001Z</time></trkpt><trkpt lat="40.5629182913399" lon="8.458102621398782"><ele>254.0</ele><time>2026-04-25T08:15:22.001Z</time></trkpt><trkpt lat="40.56279311975965" lon="8.45816046300198"><ele>254.25</ele><time>2026-04-25T08:15:23.001Z</time></trkpt><trkpt lat="40.56266493081023" lon="8.458225460994813"><ele>254.5</ele><time>2026-04-25T08:15:24.001Z</time></trkpt><trkpt lat="40.562534396398824" lon="8.458319672882388"><ele>254.75</ele><time>2026-04-25T08:15:25.001Z</time></trkpt><trkpt lat="40.56240382948768" lon="8.458436958534172"><ele>255.0</ele><time>2026-04-25T08:15:26.001Z</time></trkpt><trkpt lat="40.56226942657466" lon="8.458569565089068"><ele>255.0</ele><time>2026-04-25T08:15:27.001Z</time></trkpt><trkpt lat="40.56213881215547" lon="8.458697093112676"><ele>255.0</ele><time>2026-04-25T08:15:28.001Z</time></trkpt><trkpt lat="40.562017877165346" lon="8.458809641197686"><ele>255.0</ele><time>2026-04-25T08:15:29.001Z</time></trkpt><trkpt lat="40.561898467036976" lon="8.458921760399205"><ele>257.3333333333333</ele><time>2026-04-25T08:15:30.001Z</time></trkpt><trkpt lat="40.56177814629999" lon="8.459037655980515"><ele>259.66666666666663</ele><time>2026-04-25T08:15:31.001Z</time></trkpt><trkpt lat="40.561655171169754" lon="8.459155349415179"><ele>262.0</ele><time>2026-04-25T08:15:32.001Z</time></trkpt><trkpt lat="40.561530173400065" lon="8.459274339645386"><ele>262.0</ele><time>2026-04-25T08:15:33.001Z</time></trkpt><trkpt lat="40.5614046167648" lon="8.459395905469304"><ele>262.0</ele><time>2026-04-25T08:15:34.001Z</time></trkpt><trkpt lat="40.561269901472734" lon="8.459501829016444"><ele>262.0</ele><time>2026-04-25T08:15:35.001Z</time></trkpt><trkpt lat="40.56115276214088" lon="8.459613861287178"><ele>262.75</ele><time>2026-04-25T08:15:36.001Z</time></trkpt><trkpt lat="40.56104366163807" lon="8.459714720624557"><ele>263.5</ele><time>2026-04-25T08:15:37.001Z</time></trkpt><trkpt lat="40.56095182970312" lon="8.459825505125634"><ele>264.25</ele><time>2026-04-25T08:15:38.001Z</time></trkpt><trkpt lat="40.56085638701616" lon="8.459907990618422"><ele>265.0</ele><time>2026-04-25T08:15:39.001Z</time></trkpt><trkpt lat="40.56077037102425" lon="8.459986711638388"><ele>265.0</ele><time>2026-04-25T08:15:40.001Z</time></trkpt><trkpt lat="40.56069535809663" lon="8.460055069410524"><ele>265.0</ele><time>2026-04-25T08:15:41.001Z</time></trkpt><trkpt lat="40.56063325662858" lon="8.460112150801637"><ele>265.0</ele><time>2026-04-25T08:15:42.001Z</time></trkpt><trkpt lat="40.56054296539559" lon="8.460145766664953"><ele>265.0</ele><time>2026-04-25T08:15:44.001Z</time></trkpt><trkpt lat="40.56059445020403" lon="8.460394402282779"><ele>265.3333333333333</ele><time>2026-04-25T08:15:46.001Z</time></trkpt><trkpt lat="40.560626473521864" lon="8.460488725051167"><ele>265.66666666666663</ele><time>2026-04-25T08:15:47.001Z</time></trkpt><trkpt lat="40.56065592763891" lon="8.46056899087334"><ele>266.0</ele><time>2026-04-25T08:15:48.001Z</time></trkpt><trkpt lat="40.56069711564517" lon="8.460704178825669"><ele>266.3333333333333</ele><time>2026-04-25T08:15:50.001Z</time></trkpt><trkpt lat="40.56067620297538" lon="8.460797485571295"><ele>266.6666666666667</ele><time>2026-04-25T08:15:52.001Z</time></trkpt><trkpt lat="40.56060552285644" lon="8.460870304174806"><ele>267.0</ele><time>2026-04-25T08:15:54.001Z</time></trkpt><trkpt lat="40.560540860517506" lon="8.460928666728714"><ele>267.0</ele><time>2026-04-25T08:15:55.001Z</time></trkpt><trkpt lat="40.56051670764108" lon="8.461042883072471"><ele>267.0</ele><time>2026-04-25T08:15:56.001Z</time></trkpt><trkpt lat="40.56047092138486" lon="8.461146665168723"><ele>267.0</ele><time>2026-04-25T08:15:57.001Z</time></trkpt><trkpt lat="40.56042686559337" lon="8.461256905603394"><ele>267.0</ele><time>2026-04-25T08:15:58.001Z</time></trkpt><trkpt lat="40.560374519524856" lon="8.461374801082473"><ele>267.0</ele><time>2026-04-25T08:15:59.001Z</time></trkpt><trkpt lat="40.56032487847266" lon="8.461495942717844"><ele>266.0</ele><time>2026-04-25T08:16:00.001Z</time></trkpt><trkpt lat="40.56027397128169" lon="8.461610969573048"><ele>265.0</ele><time>2026-04-25T08:16:01.001Z</time></trkpt><trkpt lat="40.56022362183307" lon="8.461722108615916"><ele>264.0</ele><time>2026-04-25T08:16:02.001Z</time></trkpt><trkpt lat="40.560169818989536" lon="8.46182505015309"><ele>263.0</ele><time>2026-04-25T08:16:03.002Z</time></trkpt><trkpt lat="40.560107423459165" lon="8.46192031151519"><ele>262.0</ele><time>2026-04-25T08:16:04.002Z</time></trkpt><trkpt lat="40.560028120842894" lon="8.462004561360251"><ele>262.0</ele><time>2026-04-25T08:16:05.002Z</time></trkpt><trkpt lat="40.55993163912224" lon="8.462077651661842"><ele>262.0</ele><time>2026-04-25T08:16:06.002Z</time></trkpt><trkpt lat="40.55982493136002" lon="8.462143181671307"><ele>262.0</ele><time>2026-04-25T08:16:07.002Z</time></trkpt><trkpt lat="40.559723175191536" lon="8.46220365587048"><ele>262.0</ele><time>2026-04-25T08:16:08.002Z</time></trkpt><trkpt lat="40.55962401092677" lon="8.46226095095831"><ele>262.0</ele><time>2026-04-25T08:16:09.002Z</time></trkpt><trkpt lat="40.55953359472597" lon="8.462320225945293"><ele>261.4</ele><time>2026-04-25T08:16:10.002Z</time></trkpt><trkpt lat="40.559451890700586" lon="8.462383529355666"><ele>260.79999999999995</ele><time>2026-04-25T08:16:11.002Z</time></trkpt><trkpt lat="40.55937268982415" lon="8.462454188474968"><ele>260.2</ele><time>2026-04-25T08:16:12.002Z</time></trkpt><trkpt lat="40.55929062413188" lon="8.462528483008409"><ele>259.59999999999997</ele><time>2026-04-25T08:16:13.002Z</time></trkpt><trkpt lat="40.55921961720871" lon="8.462614137896256"><ele>259.0</ele><time>2026-04-25T08:16:14.002Z</time></trkpt><trkpt lat="40.55915945118307" lon="8.462701890133058"><ele>259.0</ele><time>2026-04-25T08:16:15.002Z</time></trkpt><trkpt lat="40.55910571667441" lon="8.462789739922336"><ele>259.0</ele><time>2026-04-25T08:16:16.002Z</time></trkpt><trkpt lat="40.55905441960362" lon="8.462890131692024"><ele>259.0</ele><time>2026-04-25T08:16:17.002Z</time></trkpt><trkpt lat="40.55900820970769" lon="8.463006408228399"><ele>259.0</ele><time>2026-04-25T08:16:18.002Z</time></trkpt><trkpt lat="40.5589671941831" lon="8.46314704392228"><ele>259.0</ele><time>2026-04-25T08:16:19.002Z</time></trkpt><trkpt lat="40.558930378691905" lon="8.463308930631014"><ele>257.25</ele><time>2026-04-25T08:16:20.002Z</time></trkpt><trkpt lat="40.55889694861019" lon="8.463475290187402"><ele>255.5</ele><time>2026-04-25T08:16:21.002Z</time></trkpt><trkpt lat="40.55885993837804" lon="8.463653390412466"><ele>253.75</ele><time>2026-04-25T08:16:22.002Z</time></trkpt><trkpt lat="40.558812288209836" lon="8.46384555840186"><ele>252.0</ele><time>2026-04-25T08:16:23.002Z</time></trkpt><trkpt lat="40.55876287490761" lon="8.46405669272363"><ele>252.33333333333331</ele><time>2026-04-25T08:16:24.002Z</time></trkpt><trkpt lat="40.558717599603966" lon="8.46424950928477"><ele>252.66666666666666</ele><time>2026-04-25T08:16:25.002Z</time></trkpt><trkpt lat="40.55865423926266" lon="8.464486200282037"><ele>253.0</ele><time>2026-04-25T08:16:26.002Z</time></trkpt><trkpt lat="40.558603411028784" lon="8.464711198621657"><ele>253.0</ele><time>2026-04-25T08:16:27.002Z</time></trkpt><trkpt lat="40.55855276186824" lon="8.46494384236473"><ele>253.0</ele><time>2026-04-25T08:16:28.002Z</time></trkpt><trkpt lat="40.55850342619721" lon="8.465158887034008"><ele>253.0</ele><time>2026-04-25T08:16:29.002Z</time></trkpt><trkpt lat="40.55845930631743" lon="8.465358430834902"><ele>252.0</ele><time>2026-04-25T08:16:30.002Z</time></trkpt><trkpt lat="40.558411515622105" lon="8.465550700269356"><ele>251.0</ele><time>2026-04-25T08:16:31.002Z</time></trkpt><trkpt lat="40.55835136997132" lon="8.465739970311883"><ele>250.0</ele><time>2026-04-25T08:16:32.002Z</time></trkpt><trkpt lat="40.558269781763464" lon="8.465927035954953"><ele>250.0</ele><time>2026-04-25T08:16:33.002Z</time></trkpt><trkpt lat="40.5581709336296" lon="8.466103948909252"><ele>250.0</ele><time>2026-04-25T08:16:34.002Z</time></trkpt><trkpt lat="40.558059963242016" lon="8.466266076491777"><ele>250.0</ele><time>2026-04-25T08:16:35.002Z</time></trkpt><trkpt lat="40.557944866665025" lon="8.466411651918193"><ele>251.66666666666666</ele><time>2026-04-25T08:16:36.002Z</time></trkpt><trkpt lat="40.55782766090465" lon="8.46654157947276"><ele>253.33333333333331</ele><time>2026-04-25T08:16:37.002Z</time></trkpt><trkpt lat="40.557692884954065" lon="8.466660624900618"><ele>255.0</ele><time>2026-04-25T08:16:38.002Z</time></trkpt><trkpt lat="40.557536275061686" lon="8.466762309495271"><ele>255.0</ele><time>2026-04-25T08:16:39.002Z</time></trkpt><trkpt lat="40.55736294286894" lon="8.466858744911976"><ele>255.0</ele><time>2026-04-25T08:16:40.002Z</time></trkpt><trkpt lat="40.557177431509395" lon="8.466958931153053"><ele>255.0</ele><time>2026-04-25T08:16:41.002Z</time></trkpt><trkpt lat="40.556986881065534" lon="8.467069219673983"><ele>254.33333333333331</ele><time>2026-04-25T08:16:42.002Z</time></trkpt><trkpt lat="40.556801294552656" lon="8.467175273906806"><ele>253.66666666666666</ele><time>2026-04-25T08:16:43.002Z</time></trkpt><trkpt lat="40.55660819150681" lon="8.467269310669268"><ele>253.0</ele><time>2026-04-25T08:16:44.002Z</time></trkpt><trkpt lat="40.556427510664726" lon="8.46741414997083"><ele>253.0</ele><time>2026-04-25T08:16:45.002Z</time></trkpt><trkpt lat="40.556240136144105" lon="8.467548417642655"><ele>253.0</ele><time>2026-04-25T08:16:46.002Z</time></trkpt><trkpt lat="40.55605489249778" lon="8.46769409574299"><ele>253.0</ele><time>2026-04-25T08:16:47.002Z</time></trkpt><trkpt lat="40.55587173383418" lon="8.467847627153356"><ele>254.0</ele><time>2026-04-25T08:16:48.003Z</time></trkpt><trkpt lat="40.55569815957768" lon="8.467999977778362"><ele>255.0</ele><time>2026-04-25T08:16:49.003Z</time></trkpt><trkpt lat="40.5555299843014" lon="8.468146852451207"><ele>256.0</ele><time>2026-04-25T08:16:50.003Z</time></trkpt><trkpt lat="40.5553623063742" lon="8.468293826216263"><ele>259.0</ele><time>2026-04-25T08:16:51.003Z</time></trkpt><trkpt lat="40.55519124381938" lon="8.468444355891963"><ele>262.0</ele><time>2026-04-25T08:16:52.003Z</time></trkpt><trkpt lat="40.55502842647131" lon="8.468595503224767"><ele>265.0</ele><time>2026-04-25T08:16:53.003Z</time></trkpt><trkpt lat="40.55487604567186" lon="8.468734464536004"><ele>265.3333333333333</ele><time>2026-04-25T08:16:54.003Z</time></trkpt><trkpt lat="40.554721138141886" lon="8.468846795665424"><ele>265.6666666666667</ele><time>2026-04-25T08:16:55.003Z</time></trkpt><trkpt lat="40.55458225599255" lon="8.46896995554755"><ele>266.0</ele><time>2026-04-25T08:16:56Z</time></trkpt><trkpt lat="40.55443902500925" lon="8.46909900033663"><ele>266.0</ele><time>2026-04-25T08:16:57Z</time></trkpt><trkpt lat="40.554287384248745" lon="8.469235622113477"><ele>266.0</ele><time>2026-04-25T08:16:58.001Z</time></trkpt><trkpt lat="40.55413127372682" lon="8.469376639411339"><ele>266.0</ele><time>2026-04-25T08:16:59Z</time></trkpt><trkpt lat="40.553974338582265" lon="8.469519870379763"><ele>264.33333333333337</ele><time>2026-04-25T08:17:00Z</time></trkpt><trkpt lat="40.55382763498007" lon="8.469652686797607"><ele>262.6666666666667</ele><time>2026-04-25T08:17:01Z</time></trkpt><trkpt lat="40.55369655757747" lon="8.46979692679502"><ele>261.0</ele><time>2026-04-25T08:17:02Z</time></trkpt><trkpt lat="40.55356145985149" lon="8.469915291686453"><ele>261.0</ele><time>2026-04-25T08:17:03Z</time></trkpt><trkpt lat="40.5534325240628" lon="8.470035553466424"><ele>261.0</ele><time>2026-04-25T08:17:04Z</time></trkpt><trkpt lat="40.55330366071223" lon="8.47017411314737"><ele>261.0</ele><time>2026-04-25T08:17:05Z</time></trkpt><trkpt lat="40.55317462270816" lon="8.4703321277233"><ele>260.3333333333333</ele><time>2026-04-25T08:17:06Z</time></trkpt><trkpt lat="40.55304639099245" lon="8.470499214579393"><ele>259.66666666666663</ele><time>2026-04-25T08:17:07Z</time></trkpt><trkpt lat="40.552929693804465" lon="8.470659812835834"><ele>259.0</ele><time>2026-04-25T08:17:08Z</time></trkpt><trkpt lat="40.55281686177657" lon="8.470812747664349"><ele>259.0</ele><time>2026-04-25T08:17:09Z</time></trkpt><trkpt lat="40.552709915576465" lon="8.470952958872042"><ele>259.0</ele><time>2026-04-25T08:17:10Z</time></trkpt><trkpt lat="40.552614478127936" lon="8.471092688792643"><ele>259.0</ele><time>2026-04-25T08:17:11Z</time></trkpt><trkpt lat="40.55254346571845" lon="8.471245360541204"><ele>259.0</ele><time>2026-04-25T08:17:12Z</time></trkpt><trkpt lat="40.55250289141687" lon="8.471418822764003"><ele>259.66666666666663</ele><time>2026-04-25T08:17:13Z</time></trkpt><trkpt lat="40.552480044609894" lon="8.471617616422408"><ele>260.3333333333333</ele><time>2026-04-25T08:17:14Z</time></trkpt><trkpt lat="40.55245909625853" lon="8.471826831944975"><ele>261.0</ele><time>2026-04-25T08:17:15Z</time></trkpt><trkpt lat="40.55243122407652" lon="8.472043154162362"><ele>260.3333333333333</ele><time>2026-04-25T08:17:16Z</time></trkpt><trkpt lat="40.552400705961844" lon="8.472268509702587"><ele>259.66666666666663</ele><time>2026-04-25T08:17:17.001Z</time></trkpt><trkpt lat="40.55237483009116" lon="8.472505734537744"><ele>259.0</ele><time>2026-04-25T08:17:18.001Z</time></trkpt><trkpt lat="40.55235562312386" lon="8.4727567468313"><ele>259.0</ele><time>2026-04-25T08:17:19.001Z</time></trkpt><trkpt lat="40.55234337455337" lon="8.47301175540878"><ele>259.0</ele><time>2026-04-25T08:17:20.001Z</time></trkpt><trkpt lat="40.55233355080477" lon="8.473260658385273"><ele>259.0</ele><time>2026-04-25T08:17:21.001Z</time></trkpt><trkpt lat="40.552325861565365" lon="8.47350084284473"><ele>259.0</ele><time>2026-04-25T08:17:22.001Z</time></trkpt><trkpt lat="40.55231948331351" lon="8.473726859625204"><ele>259.0</ele><time>2026-04-25T08:17:23.001Z</time></trkpt><trkpt lat="40.552312989944575" lon="8.47394127069283"><ele>259.0</ele><time>2026-04-25T08:17:24.001Z</time></trkpt><trkpt lat="40.55230708311723" lon="8.474142215328971"><ele>260.0</ele><time>2026-04-25T08:17:25.001Z</time></trkpt><trkpt lat="40.55229513323042" lon="8.47433335674263"><ele>261.0</ele><time>2026-04-25T08:17:26.001Z</time></trkpt><trkpt lat="40.55226993312315" lon="8.474511819588333"><ele>262.0</ele><time>2026-04-25T08:17:27.001Z</time></trkpt><trkpt lat="40.552228368426555" lon="8.474682284615998"><ele>263.0</ele><time>2026-04-25T08:17:28.001Z</time></trkpt><trkpt lat="40.55216471295244" lon="8.474849608003042"><ele>264.33333333333337</ele><time>2026-04-25T08:17:29.001Z</time></trkpt><trkpt lat="40.55206301686794" lon="8.47498896868569"><ele>265.6666666666667</ele><time>2026-04-25T08:17:30.001Z</time></trkpt><trkpt lat="40.551952697541395" lon="8.475122943231955"><ele>267.0</ele><time>2026-04-25T08:17:31.001Z</time></trkpt><trkpt lat="40.55181881635201" lon="8.47524937091177"><ele>267.0</ele><time>2026-04-25T08:17:32.001Z</time></trkpt><trkpt lat="40.55168222987461" lon="8.47537494818398"><ele>267.0</ele><time>2026-04-25T08:17:33.001Z</time></trkpt><trkpt lat="40.55154503730449" lon="8.475498061579062"><ele>267.0</ele><time>2026-04-25T08:17:34.001Z</time></trkpt><trkpt lat="40.551400249377224" lon="8.47561279355805"><ele>267.0</ele><time>2026-04-25T08:17:35.001Z</time></trkpt><trkpt lat="40.551235790629434" lon="8.47570699978381"><ele>267.0</ele><time>2026-04-25T08:17:36.001Z</time></trkpt><trkpt lat="40.55105328824072" lon="8.47578898255767"><ele>267.0</ele><time>2026-04-25T08:17:37.001Z</time></trkpt><trkpt lat="40.55086462131212" lon="8.475877217436603"><ele>268.0</ele><time>2026-04-25T08:17:38.001Z</time></trkpt><trkpt lat="40.55069316726506" lon="8.475955147621216"><ele>269.0</ele><time>2026-04-25T08:17:39.001Z</time></trkpt><trkpt lat="40.55053195775565" lon="8.476028365032999"><ele>270.0</ele><time>2026-04-25T08:17:40.001Z</time></trkpt><trkpt lat="40.55038004965707" lon="8.476095729833451"><ele>269.5</ele><time>2026-04-25T08:17:41.001Z</time></trkpt><trkpt lat="40.550235730854574" lon="8.476151019840255"><ele>269.0</ele><time>2026-04-25T08:17:42.001Z</time></trkpt><trkpt lat="40.55009712501723" lon="8.476195984386752"><ele>268.5</ele><time>2026-04-25T08:17:43.001Z</time></trkpt><trkpt lat="40.549971391122604" lon="8.476257161717964"><ele>268.0</ele><time>2026-04-25T08:17:44.001Z</time></trkpt><trkpt lat="40.54984772175854" lon="8.476277479502627"><ele>268.0</ele><time>2026-04-25T08:17:45.001Z</time></trkpt><trkpt lat="40.54973074215082" lon="8.47633660792915"><ele>268.0</ele><time>2026-04-25T08:17:46.001Z</time></trkpt><trkpt lat="40.54963473391236" lon="8.476467094805123"><ele>268.0</ele><time>2026-04-25T08:17:47.001Z</time></trkpt><trkpt lat="40.5495233538475" lon="8.476573373794471"><ele>268.0</ele><time>2026-04-25T08:17:48.001Z</time></trkpt><trkpt lat="40.54942958497227" lon="8.476683751518323"><ele>268.5</ele><time>2026-04-25T08:17:49.001Z</time></trkpt><trkpt lat="40.54934548550875" lon="8.476788355954854"><ele>269.0</ele><time>2026-04-25T08:17:50.001Z</time></trkpt><trkpt lat="40.54923971688147" lon="8.476845490163512"><ele>269.5</ele><time>2026-04-25T08:17:51.001Z</time></trkpt><trkpt lat="40.54912823899142" lon="8.476842634410515"><ele>270.0</ele><time>2026-04-25T08:17:52.001Z</time></trkpt><trkpt lat="40.54901160805845" lon="8.47682795969516"><ele>270.0</ele><time>2026-04-25T08:17:53.001Z</time></trkpt><trkpt lat="40.54888440102262" lon="8.47676739636656"><ele>270.0</ele><time>2026-04-25T08:17:54.001Z</time></trkpt><trkpt lat="40.548733891368784" lon="8.476694394472508"><ele>270.0</ele><time>2026-04-25T08:17:55.001Z</time></trkpt><trkpt lat="40.54856466877386" lon="8.476612316283424"><ele>271.3333333333333</ele><time>2026-04-25T08:17:56.001Z</time></trkpt><trkpt lat="40.5483748638532" lon="8.47652099809117"><ele>272.66666666666663</ele><time>2026-04-25T08:17:57.001Z</time></trkpt><trkpt lat="40.548179945778564" lon="8.476428348486573"><ele>274.0</ele><time>2026-04-25T08:17:58.001Z</time></trkpt><trkpt lat="40.54798057172642" lon="8.476333582294433"><ele>273.66666666666663</ele><time>2026-04-25T08:17:59.001Z</time></trkpt><trkpt lat="40.54780156034418" lon="8.476248493588118"><ele>273.3333333333333</ele><time>2026-04-25T08:18:00.001Z</time></trkpt><trkpt lat="40.54763162397635" lon="8.476164338468564"><ele>273.0</ele><time>2026-04-25T08:18:01.001Z</time></trkpt><trkpt lat="40.547478986997696" lon="8.476065218643908"><ele>273.0</ele><time>2026-04-25T08:18:02.001Z</time></trkpt><trkpt lat="40.54732672815068" lon="8.475939029159937"><ele>273.0</ele><time>2026-04-25T08:18:03.001Z</time></trkpt><trkpt lat="40.54717958210859" lon="8.47583553300036"><ele>273.0</ele><time>2026-04-25T08:18:04.002Z</time></trkpt><trkpt lat="40.54704485567229" lon="8.475731733805581"><ele>275.0</ele><time>2026-04-25T08:18:05.002Z</time></trkpt><trkpt lat="40.546912898783724" lon="8.475623968810856"><ele>277.0</ele><time>2026-04-25T08:18:06.002Z</time></trkpt><trkpt lat="40.54675336447198" lon="8.475557891120669"><ele>279.0</ele><time>2026-04-25T08:18:07.002Z</time></trkpt><trkpt lat="40.546581632445005" lon="8.475518099780684"><ele>279.0</ele><time>2026-04-25T08:18:08.002Z</time></trkpt><trkpt lat="40.54640617657502" lon="8.475480265916884"><ele>279.0</ele><time>2026-04-25T08:18:09.002Z</time></trkpt><trkpt lat="40.54623282664685" lon="8.475442320446973"><ele>279.0</ele><time>2026-04-25T08:18:10.002Z</time></trkpt><trkpt lat="40.546073975613325" lon="8.475406488896953"><ele>278.25</ele><time>2026-04-25T08:18:11.002Z</time></trkpt><trkpt lat="40.545924013805646" lon="8.475370397309133"><ele>277.5</ele><time>2026-04-25T08:18:12.002Z</time></trkpt><trkpt lat="40.545783568440775" lon="8.475340235391748"><ele>276.75</ele><time>2026-04-25T08:18:13.002Z</time></trkpt><trkpt lat="40.545669760931546" lon="8.475227553419668"><ele>276.0</ele><time>2026-04-25T08:18:14.002Z</time></trkpt><trkpt lat="40.54555033740903" lon="8.475105046724774"><ele>276.0</ele><time>2026-04-25T08:18:15.002Z</time></trkpt><trkpt lat="40.545423554172224" lon="8.474967898765003"><ele>276.0</ele><time>2026-04-25T08:18:16.002Z</time></trkpt><trkpt lat="40.545278081046575" lon="8.474834557971352"><ele>276.0</ele><time>2026-04-25T08:18:17.002Z</time></trkpt><trkpt lat="40.545140669724915" lon="8.474683457842952"><ele>277.6666666666667</ele><time>2026-04-25T08:18:18.002Z</time></trkpt><trkpt lat="40.545000401614814" lon="8.474534938726498"><ele>279.33333333333337</ele><time>2026-04-25T08:18:19.002Z</time></trkpt><trkpt lat="40.544869444441396" lon="8.47436424103733"><ele>281.0</ele><time>2026-04-25T08:18:20.002Z</time></trkpt><trkpt lat="40.54474272110736" lon="8.474226186409735"><ele>281.0</ele><time>2026-04-25T08:18:21.002Z</time></trkpt><trkpt lat="40.54461510233289" lon="8.474113115060653"><ele>281.0</ele><time>2026-04-25T08:18:22.002Z</time></trkpt><trkpt lat="40.54449154753466" lon="8.473999268772545"><ele>281.0</ele><time>2026-04-25T08:18:23.002Z</time></trkpt><trkpt lat="40.54434600476155" lon="8.473903194257105"><ele>282.0</ele><time>2026-04-25T08:18:24.002Z</time></trkpt><trkpt lat="40.544177453128796" lon="8.473828854079047"><ele>283.0</ele><time>2026-04-25T08:18:25.002Z</time></trkpt><trkpt lat="40.54400767562968" lon="8.473734662650866"><ele>284.0</ele><time>2026-04-25T08:18:26.002Z</time></trkpt><trkpt lat="40.54382549701897" lon="8.473673996516888"><ele>285.33333333333337</ele><time>2026-04-25T08:18:27.002Z</time></trkpt><trkpt lat="40.54365607151545" lon="8.473572505948532"><ele>286.6666666666667</ele><time>2026-04-25T08:18:28.002Z</time></trkpt><trkpt lat="40.54348055229139" lon="8.47349205964391"><ele>288.0</ele><time>2026-04-25T08:18:29.002Z</time></trkpt><trkpt lat="40.543306538102264" lon="8.47343531388548"><ele>288.0</ele><time>2026-04-25T08:18:30.002Z</time></trkpt><trkpt lat="40.54314950490612" lon="8.47335760652709"><ele>288.0</ele><time>2026-04-25T08:18:31.002Z</time></trkpt><trkpt lat="40.54300121371544" lon="8.47328325259413"><ele>288.0</ele><time>2026-04-25T08:18:32.002Z</time></trkpt><trkpt lat="40.54286103420673" lon="8.47317487807526"><ele>289.0</ele><time>2026-04-25T08:18:33.002Z</time></trkpt><trkpt lat="40.54271275633147" lon="8.473094155130278"><ele>290.0</ele><time>2026-04-25T08:18:34.002Z</time></trkpt><trkpt lat="40.54257957206827" lon="8.472988951633734"><ele>291.0</ele><time>2026-04-25T08:18:35.002Z</time></trkpt><trkpt lat="40.5424528191215" lon="8.472890884044439"><ele>291.0</ele><time>2026-04-25T08:18:36.002Z</time></trkpt><trkpt lat="40.542324846446554" lon="8.472805175743291"><ele>291.0</ele><time>2026-04-25T08:18:37.002Z</time></trkpt><trkpt lat="40.54218244081821" lon="8.47272826362206"><ele>291.0</ele><time>2026-04-25T08:18:38.002Z</time></trkpt><trkpt lat="40.542022222037765" lon="8.472668743171829"><ele>293.0</ele><time>2026-04-25T08:18:39.002Z</time></trkpt><trkpt lat="40.54184854546071" lon="8.472618351508732"><ele>295.0</ele><time>2026-04-25T08:18:40.002Z</time></trkpt><trkpt lat="40.541683383537524" lon="8.472541137276165"><ele>297.0</ele><time>2026-04-25T08:18:41.002Z</time></trkpt><trkpt lat="40.54153220002709" lon="8.472487878317242"><ele>297.0</ele><time>2026-04-25T08:18:42.002Z</time></trkpt><trkpt lat="40.541383214600344" lon="8.472424490260455"><ele>297.0</ele><time>2026-04-25T08:18:43.002Z</time></trkpt><trkpt lat="40.541231980186495" lon="8.47233404040425"><ele>297.0</ele><time>2026-04-25T08:18:44.002Z</time></trkpt><trkpt lat="40.54107693412556" lon="8.4722304889578"><ele>296.6666666666667</ele><time>2026-04-25T08:18:45.002Z</time></trkpt><trkpt lat="40.54093095302439" lon="8.472114818899433"><ele>296.33333333333337</ele><time>2026-04-25T08:18:46.002Z</time></trkpt><trkpt lat="40.540788469966444" lon="8.47202462339806"><ele>296.0</ele><time>2026-04-25T08:18:47.002Z</time></trkpt><trkpt lat="40.54066184944275" lon="8.471925368501518"><ele>296.0</ele><time>2026-04-25T08:18:48.002Z</time></trkpt><trkpt lat="40.54053628396009" lon="8.471836972805988"><ele>296.0</ele><time>2026-04-25T08:18:49.002Z</time></trkpt><trkpt lat="40.540409103927" lon="8.471765874036587"><ele>296.0</ele><time>2026-04-25T08:18:50.003Z</time></trkpt><trkpt lat="40.54027395159809" lon="8.47171449802031"><ele>296.0</ele><time>2026-04-25T08:18:51.003Z</time></trkpt><trkpt lat="40.54012573352209" lon="8.47168103512229"><ele>298.0</ele><time>2026-04-25T08:18:52.003Z</time></trkpt><trkpt lat="40.53996855341365" lon="8.471662039420611"><ele>300.0</ele><time>2026-04-25T08:18:53.003Z</time></trkpt><trkpt lat="40.539800977166195" lon="8.47165523512085"><ele>302.0</ele><time>2026-04-25T08:18:54.003Z</time></trkpt><trkpt lat="40.53962111012916" lon="8.471660866850502"><ele>303.33333333333337</ele><time>2026-04-25T08:18:55.003Z</time></trkpt><trkpt lat="40.5394346464963" lon="8.471679772572305"><ele>304.6666666666667</ele><time>2026-04-25T08:18:56.003Z</time></trkpt><trkpt lat="40.53924669134161" lon="8.471713414809997"><ele>306.0</ele><time>2026-04-25T08:18:57.003Z</time></trkpt><trkpt lat="40.539053714064444" lon="8.471761596379089"><ele>306.0</ele><time>2026-04-25T08:18:58.003Z</time></trkpt><trkpt lat="40.53885839633936" lon="8.471822213244995"><ele>306.0</ele><time>2026-04-25T08:18:59.003Z</time></trkpt><trkpt lat="40.53866020834196" lon="8.47187837847861"><ele>306.0</ele><time>2026-04-25T08:19:00.003Z</time></trkpt><trkpt lat="40.53847278466229" lon="8.471937784472356"><ele>306.3333333333333</ele><time>2026-04-25T08:19:01.003Z</time></trkpt><trkpt lat="40.53829241855618" lon="8.472005179047095"><ele>306.66666666666663</ele><time>2026-04-25T08:19:02.001Z</time></trkpt><trkpt lat="40.53812716269654" lon="8.472081500645823"><ele>307.0</ele><time>2026-04-25T08:19:03.001Z</time></trkpt><trkpt lat="40.537966887904076" lon="8.472169513848408"><ele>309.3333333333333</ele><time>2026-04-25T08:19:04.001Z</time></trkpt><trkpt lat="40.53780292204117" lon="8.472271387381888"><ele>311.6666666666667</ele><time>2026-04-25T08:19:05.001Z</time></trkpt><trkpt lat="40.53763645043115" lon="8.472385624557734"><ele>314.0</ele><time>2026-04-25T08:19:06.001Z</time></trkpt><trkpt lat="40.537470549851726" lon="8.472504276774615"><ele>314.0</ele><time>2026-04-25T08:19:07.001Z</time></trkpt><trkpt lat="40.5373019049254" lon="8.472628746060566"><ele>314.0</ele><time>2026-04-25T08:19:08.001Z</time></trkpt><trkpt lat="40.53713080274146" lon="8.472760234393068"><ele>314.0</ele><time>2026-04-25T08:19:09.001Z</time></trkpt><trkpt lat="40.53697477257085" lon="8.472881294190373"><ele>315.6666666666667</ele><time>2026-04-25T08:19:10.001Z</time></trkpt><trkpt lat="40.53683521927382" lon="8.47299055469782"><ele>317.3333333333333</ele><time>2026-04-25T08:19:11.001Z</time></trkpt><trkpt lat="40.53669736635828" lon="8.4731136474149"><ele>319.0</ele><time>2026-04-25T08:19:12.001Z</time></trkpt><trkpt lat="40.53656503711578" lon="8.473274746299268"><ele>319.0</ele><time>2026-04-25T08:19:13.001Z</time></trkpt><trkpt lat="40.53644210934218" lon="8.473460247378307"><ele>319.0</ele><time>2026-04-25T08:19:14.001Z</time></trkpt><trkpt lat="40.53633445074735" lon="8.473630674878082"><ele>319.0</ele><time>2026-04-25T08:19:15.001Z</time></trkpt><trkpt lat="40.536227727280455" lon="8.473780929771214"><ele>320.75</ele><time>2026-04-25T08:19:16.001Z</time></trkpt><trkpt lat="40.53612279817987" lon="8.473908756376717"><ele>322.5</ele><time>2026-04-25T08:19:17.001Z</time></trkpt><trkpt lat="40.53600297059716" lon="8.473984809594432"><ele>324.25</ele><time>2026-04-25T08:19:18.001Z</time></trkpt><trkpt lat="40.535870068490084" lon="8.47404294826364"><ele>326.0</ele><time>2026-04-25T08:19:19.001Z</time></trkpt><trkpt lat="40.53571459528341" lon="8.474078837105534"><ele>326.0</ele><time>2026-04-25T08:19:20.001Z</time></trkpt><trkpt lat="40.535545762349805" lon="8.474111582778788"><ele>326.0</ele><time>2026-04-25T08:19:21.001Z</time></trkpt><trkpt lat="40.53539240788426" lon="8.474161904473137"><ele>326.0</ele><time>2026-04-25T08:19:22.001Z</time></trkpt><trkpt lat="40.53524411254978" lon="8.474217843044663"><ele>326.6666666666667</ele><time>2026-04-25T08:19:23.001Z</time></trkpt><trkpt lat="40.535099495067335" lon="8.4743106149867"><ele>327.3333333333333</ele><time>2026-04-25T08:19:24.001Z</time></trkpt><trkpt lat="40.53494103666212" lon="8.47442022123182"><ele>328.0</ele><time>2026-04-25T08:19:25.001Z</time></trkpt><trkpt lat="40.534784305968294" lon="8.474565386567994"><ele>330.66666666666663</ele><time>2026-04-25T08:19:26.001Z</time></trkpt><trkpt lat="40.53463459865933" lon="8.474728215833233"><ele>333.3333333333333</ele><time>2026-04-25T08:19:27.001Z</time></trkpt><trkpt lat="40.53447210959541" lon="8.474879115274902"><ele>336.0</ele><time>2026-04-25T08:19:28.001Z</time></trkpt><trkpt lat="40.534306738371875" lon="8.475035477174934"><ele>336.0</ele><time>2026-04-25T08:19:29.001Z</time></trkpt><trkpt lat="40.53414642535645" lon="8.475163326004303"><ele>336.0</ele><time>2026-04-25T08:19:30.001Z</time></trkpt><trkpt lat="40.53400857712207" lon="8.475291550832726"><ele>336.0</ele><time>2026-04-25T08:19:31.001Z</time></trkpt><trkpt lat="40.533878052195774" lon="8.475393710319434"><ele>340.0</ele><time>2026-04-25T08:19:32.001Z</time></trkpt><trkpt lat="40.53373552645092" lon="8.47546290616887"><ele>344.0</ele><time>2026-04-25T08:19:33.001Z</time></trkpt><trkpt lat="40.533568936874175" lon="8.47550092713031"><ele>348.0</ele><time>2026-04-25T08:19:34.001Z</time></trkpt><trkpt lat="40.53339642210155" lon="8.475559705118243"><ele>348.0</ele><time>2026-04-25T08:19:35.001Z</time></trkpt><trkpt lat="40.53321790839326" lon="8.4756034690516"><ele>348.0</ele><time>2026-04-25T08:19:36.001Z</time></trkpt><trkpt lat="40.53304543831571" lon="8.475622860045664"><ele>348.0</ele><time>2026-04-25T08:19:37.001Z</time></trkpt><trkpt lat="40.53288861814796" lon="8.475659054293814"><ele>349.5</ele><time>2026-04-25T08:19:38.001Z</time></trkpt><trkpt lat="40.53274671318266" lon="8.475690030691869"><ele>351.0</ele><time>2026-04-25T08:19:39.001Z</time></trkpt><trkpt lat="40.53262017733269" lon="8.4757057869385"><ele>352.5</ele><time>2026-04-25T08:19:40.001Z</time></trkpt><trkpt lat="40.53249318626379" lon="8.47568294254495"><ele>354.0</ele><time>2026-04-25T08:19:41.001Z</time></trkpt><trkpt lat="40.53236008622425" lon="8.475624501450815"><ele>354.0</ele><time>2026-04-25T08:19:42.001Z</time></trkpt><trkpt lat="40.53221543971789" lon="8.475551652620698"><ele>354.0</ele><time>2026-04-25T08:19:43.001Z</time></trkpt><trkpt lat="40.532065649261945" lon="8.475476213176576"><ele>354.0</ele><time>2026-04-25T08:19:44.001Z</time></trkpt><trkpt lat="40.53192457104292" lon="8.475405161446416"><ele>353.75</ele><time>2026-04-25T08:19:45.001Z</time></trkpt><trkpt lat="40.53179308173739" lon="8.475350401083205"><ele>353.5</ele><time>2026-04-25T08:19:46.001Z</time></trkpt><trkpt lat="40.53166506815465" lon="8.475316748780992"><ele>353.25</ele><time>2026-04-25T08:19:47.001Z</time></trkpt><trkpt lat="40.531526351159634" lon="8.475327706730194"><ele>353.0</ele><time>2026-04-25T08:19:48.001Z</time></trkpt><trkpt lat="40.53138034782928" lon="8.475344454130472"><ele>354.75</ele><time>2026-04-25T08:19:49.001Z</time></trkpt><trkpt lat="40.53122393879805" lon="8.475357178854791"><ele>356.5</ele><time>2026-04-25T08:19:50.001Z</time></trkpt><trkpt lat="40.53108537686936" lon="8.475393103853817"><ele>358.25</ele><time>2026-04-25T08:19:51.001Z</time></trkpt><trkpt lat="40.53095727199789" lon="8.475412319767482"><ele>360.0</ele><time>2026-04-25T08:19:52.001Z</time></trkpt><trkpt lat="40.53083159632914" lon="8.47543764735765"><ele>360.0</ele><time>2026-04-25T08:19:53.001Z</time></trkpt><trkpt lat="40.530700450777225" lon="8.475388457594365"><ele>360.0</ele><time>2026-04-25T08:19:54.001Z</time></trkpt><trkpt lat="40.530558668965156" lon="8.475334027211268"><ele>360.0</ele><time>2026-04-25T08:19:55.001Z</time></trkpt><trkpt lat="40.5304018938604" lon="8.475273282939247"><ele>360.0</ele><time>2026-04-25T08:19:56.001Z</time></trkpt><trkpt lat="40.530250479854814" lon="8.475235819605816"><ele>359.0</ele><time>2026-04-25T08:19:57.001Z</time></trkpt><trkpt lat="40.53011879291734" lon="8.475186606400626"><ele>358.0</ele><time>2026-04-25T08:19:58.001Z</time></trkpt><trkpt lat="40.52999781724415" lon="8.475167782167272"><ele>357.0</ele><time>2026-04-25T08:19:59.001Z</time></trkpt><trkpt lat="40.52987543809457" lon="8.475189200339432"><ele>356.0</ele><time>2026-04-25T08:20:00.001Z</time></trkpt><trkpt lat="40.52976420126577" lon="8.47525491417459"><ele>356.0</ele><time>2026-04-25T08:20:01.001Z</time></trkpt><trkpt lat="40.52965040748271" lon="8.475366709539951"><ele>356.0</ele><time>2026-04-25T08:20:02.001Z</time></trkpt><trkpt lat="40.52953409381084" lon="8.475527219464407"><ele>356.0</ele><time>2026-04-25T08:20:03.001Z</time></trkpt><trkpt lat="40.52941503922389" lon="8.475689298615173"><ele>353.0</ele><time>2026-04-25T08:20:04.001Z</time></trkpt><trkpt lat="40.52927996271363" lon="8.475862074928044"><ele>350.0</ele><time>2026-04-25T08:20:05.002Z</time></trkpt><trkpt lat="40.52913692979436" lon="8.476037904464436"><ele>347.0</ele><time>2026-04-25T08:20:06.002Z</time></trkpt><trkpt lat="40.5289999502982" lon="8.476214369002356"><ele>347.6666666666667</ele><time>2026-04-25T08:20:07.002Z</time></trkpt><trkpt lat="40.528854709573245" lon="8.476394220406954"><ele>348.3333333333333</ele><time>2026-04-25T08:20:08.002Z</time></trkpt><trkpt lat="40.52870818924008" lon="8.476579136330585"><ele>349.0</ele><time>2026-04-25T08:20:09.002Z</time></trkpt><trkpt lat="40.528569045866455" lon="8.476757717387734"><ele>347.66666666666663</ele><time>2026-04-25T08:20:10.002Z</time></trkpt><trkpt lat="40.528433588433906" lon="8.476932597191627"><ele>346.3333333333333</ele><time>2026-04-25T08:20:11.002Z</time></trkpt><trkpt lat="40.5283007463362" lon="8.477102385905072"><ele>345.0</ele><time>2026-04-25T08:20:12.002Z</time></trkpt><trkpt lat="40.528170656596856" lon="8.47726940256393"><ele>343.6666666666667</ele><time>2026-04-25T08:20:13.002Z</time></trkpt><trkpt lat="40.52804732245817" lon="8.477427483641888"><ele>342.33333333333337</ele><time>2026-04-25T08:20:14.002Z</time></trkpt><trkpt lat="40.52792863504485" lon="8.477576534390039"><ele>341.0</ele><time>2026-04-25T08:20:15.002Z</time></trkpt><trkpt lat="40.527815794497926" lon="8.477701328919988"><ele>339.75</ele><time>2026-04-25T08:20:16.002Z</time></trkpt><trkpt lat="40.527680186204506" lon="8.47777672212762"><ele>338.5</ele><time>2026-04-25T08:20:17.002Z</time></trkpt><trkpt lat="40.52754203914494" lon="8.477824042641345"><ele>337.25</ele><time>2026-04-25T08:20:18.002Z</time></trkpt><trkpt lat="40.52739917718748" lon="8.47784884047603"><ele>336.0</ele><time>2026-04-25T08:20:19.002Z</time></trkpt><trkpt lat="40.527254616938194" lon="8.477870958316883"><ele>336.0</ele><time>2026-04-25T08:20:20.002Z</time></trkpt><trkpt lat="40.52711404364593" lon="8.477867466229528"><ele>336.0</ele><time>2026-04-25T08:20:21.002Z</time></trkpt><trkpt lat="40.52697675593515" lon="8.477831654743689"><ele>336.0</ele><time>2026-04-25T08:20:22.002Z</time></trkpt><trkpt lat="40.52684679230998" lon="8.47775975264219"><ele>336.0</ele><time>2026-04-25T08:20:23.002Z</time></trkpt><trkpt lat="40.52672460661497" lon="8.477647646022275"><ele>332.6666666666667</ele><time>2026-04-25T08:20:24.002Z</time></trkpt><trkpt lat="40.5266042237175" lon="8.477503241659665"><ele>329.33333333333337</ele><time>2026-04-25T08:20:25.002Z</time></trkpt><trkpt lat="40.52648537864249" lon="8.477356631372347"><ele>326.0</ele><time>2026-04-25T08:20:26.002Z</time></trkpt><trkpt lat="40.526369741409894" lon="8.477236896220264"><ele>326.0</ele><time>2026-04-25T08:20:27.002Z</time></trkpt><trkpt lat="40.52628643470907" lon="8.477116627000141"><ele>326.0</ele><time>2026-04-25T08:20:28.002Z</time></trkpt><trkpt lat="40.5261988684874" lon="8.477041739614867"><ele>326.0</ele><time>2026-04-25T08:20:29.002Z</time></trkpt><trkpt lat="40.5261046951733" lon="8.477029542091438"><ele>326.0</ele><time>2026-04-25T08:20:30.002Z</time></trkpt><trkpt lat="40.52600857628124" lon="8.47703820793347"><ele>326.0</ele><time>2026-04-25T08:20:31.002Z</time></trkpt><trkpt lat="40.52590456946983" lon="8.477093683384513"><ele>324.5</ele><time>2026-04-25T08:20:32.002Z</time></trkpt><trkpt lat="40.52579919572728" lon="8.477192784555585"><ele>323.0</ele><time>2026-04-25T08:20:33.002Z</time></trkpt><trkpt lat="40.52569510679853" lon="8.477310865780442"><ele>321.5</ele><time>2026-04-25T08:20:34.002Z</time></trkpt><trkpt lat="40.52560441501835" lon="8.477448326427416"><ele>320.0</ele><time>2026-04-25T08:20:35.002Z</time></trkpt><trkpt lat="40.525532101871995" lon="8.477615524164287"><ele>320.0</ele><time>2026-04-25T08:20:36.002Z</time></trkpt><trkpt lat="40.5254856648014" lon="8.477811530527095"><ele>320.0</ele><time>2026-04-25T08:20:37.002Z</time></trkpt><trkpt lat="40.525465996375516" lon="8.478020113198394"><ele>320.0</ele><time>2026-04-25T08:20:38.002Z</time></trkpt><trkpt lat="40.52545595353836" lon="8.478229983102814"><ele>320.25</ele><time>2026-04-25T08:20:39.002Z</time></trkpt><trkpt lat="40.525447850453084" lon="8.478438912707505"><ele>320.5</ele><time>2026-04-25T08:20:40.002Z</time></trkpt><trkpt lat="40.52544151244632" lon="8.478621291830445"><ele>320.75</ele><time>2026-04-25T08:20:41.002Z</time></trkpt><trkpt lat="40.525433046553964" lon="8.4788029983484"><ele>321.0</ele><time>2026-04-25T08:20:42.002Z</time></trkpt><trkpt lat="40.525411465296415" lon="8.478959350662743"><ele>324.25</ele><time>2026-04-25T08:20:43.002Z</time></trkpt><trkpt lat="40.52537275752268" lon="8.479108351495729"><ele>327.5</ele><time>2026-04-25T08:20:44.002Z</time></trkpt><trkpt lat="40.525301365691845" lon="8.479233388143507"><ele>330.75</ele><time>2026-04-25T08:20:45.002Z</time></trkpt><trkpt lat="40.525186004417314" lon="8.479306237404876"><ele>334.0</ele><time>2026-04-25T08:20:46.002Z</time></trkpt><trkpt lat="40.52506093231297" lon="8.479393448496301"><ele>334.0</ele><time>2026-04-25T08:20:47.002Z</time></trkpt><trkpt lat="40.52492650933469" lon="8.479492188996534"><ele>334.0</ele><time>2026-04-25T08:20:48.002Z</time></trkpt><trkpt lat="40.52480101665964" lon="8.479603044941925"><ele>334.0</ele><time>2026-04-25T08:20:49.002Z</time></trkpt><trkpt lat="40.52465957532561" lon="8.479701797356336"><ele>337.0</ele><time>2026-04-25T08:20:50.002Z</time></trkpt><trkpt lat="40.524515579907856" lon="8.479813930455377"><ele>340.0</ele><time>2026-04-25T08:20:51.002Z</time></trkpt><trkpt lat="40.524375265776754" lon="8.479948611447139"><ele>343.0</ele><time>2026-04-25T08:20:52.003Z</time></trkpt><trkpt lat="40.52422575136752" lon="8.480087211653322"><ele>343.0</ele><time>2026-04-25T08:20:53.003Z</time></trkpt><trkpt lat="40.524107248889564" lon="8.480275293721267"><ele>343.0</ele><time>2026-04-25T08:20:54.003Z</time></trkpt><trkpt lat="40.523990846134716" lon="8.48042656829843"><ele>343.0</ele><time>2026-04-25T08:20:55.003Z</time></trkpt><trkpt lat="40.52388779792534" lon="8.480555241977337"><ele>344.25</ele><time>2026-04-25T08:20:56.003Z</time></trkpt><trkpt lat="40.52377442506228" lon="8.480631266849862"><ele>345.5</ele><time>2026-04-25T08:20:57.003Z</time></trkpt><trkpt lat="40.523655770520705" lon="8.480682705516445"><ele>346.75</ele><time>2026-04-25T08:20:58.003Z</time></trkpt><trkpt lat="40.52352067710469" lon="8.480708583668715"><ele>348.0</ele><time>2026-04-25T08:20:59.003Z</time></trkpt><trkpt lat="40.52337088187578" lon="8.480735120986687"><ele>348.0</ele><time>2026-04-25T08:21:00.003Z</time></trkpt><trkpt lat="40.52322197047998" lon="8.480761641605842"><ele>348.0</ele><time>2026-04-25T08:21:01.003Z</time></trkpt><trkpt lat="40.52307609973344" lon="8.480792003820968"><ele>348.0</ele><time>2026-04-25T08:21:02.003Z</time></trkpt><trkpt lat="40.52293041894449" lon="8.480831374140175"><ele>348.0</ele><time>2026-04-25T08:21:03.003Z</time></trkpt><trkpt lat="40.522783081315985" lon="8.480892660277833"><ele>351.5</ele><time>2026-04-25T08:21:04.003Z</time></trkpt><trkpt lat="40.52264464054498" lon="8.48099183877504"><ele>355.0</ele><time>2026-04-25T08:21:05.003Z</time></trkpt><trkpt lat="40.522531543998014" lon="8.481090206768737"><ele>358.5</ele><time>2026-04-25T08:21:06.003Z</time></trkpt><trkpt lat="40.52243290203058" lon="8.481172826962935"><ele>362.0</ele><time>2026-04-25T08:21:07.003Z</time></trkpt><trkpt lat="40.52234602776608" lon="8.481233158251552"><ele>362.0</ele><time>2026-04-25T08:21:08Z</time></trkpt><trkpt lat="40.522253926344064" lon="8.48125886165648"><ele>362.0</ele><time>2026-04-25T08:21:09Z</time></trkpt><trkpt lat="40.52215004229232" lon="8.481240562002709"><ele>362.0</ele><time>2026-04-25T08:21:10Z</time></trkpt><trkpt lat="40.52203059978901" lon="8.481204929115282"><ele>362.0</ele><time>2026-04-25T08:21:11Z</time></trkpt><trkpt lat="40.52190542237098" lon="8.481171968428471"><ele>362.0</ele><time>2026-04-25T08:21:12Z</time></trkpt><trkpt lat="40.52178735336522" lon="8.481159895990514"><ele>362.75</ele><time>2026-04-25T08:21:13Z</time></trkpt><trkpt lat="40.52167528648149" lon="8.481106317667273"><ele>363.5</ele><time>2026-04-25T08:21:14Z</time></trkpt><trkpt lat="40.52157079302754" lon="8.481015980490099"><ele>364.25</ele><time>2026-04-25T08:21:15Z</time></trkpt><trkpt lat="40.52148327525478" lon="8.480880969228798"><ele>365.0</ele><time>2026-04-25T08:21:16Z</time></trkpt><trkpt lat="40.52140840884893" lon="8.480711472630526"><ele>365.0</ele><time>2026-04-25T08:21:17Z</time></trkpt><trkpt lat="40.52132718009821" lon="8.480530171238787"><ele>365.0</ele><time>2026-04-25T08:21:18Z</time></trkpt><trkpt lat="40.52122721981156" lon="8.480363436193077"><ele>365.0</ele><time>2026-04-25T08:21:19Z</time></trkpt><trkpt lat="40.5211063251791" lon="8.480219143652374"><ele>366.5</ele><time>2026-04-25T08:21:20Z</time></trkpt><trkpt lat="40.520978942430474" lon="8.480096603692035"><ele>368.0</ele><time>2026-04-25T08:21:21Z</time></trkpt><trkpt lat="40.520858842702495" lon="8.479987121115364"><ele>369.5</ele><time>2026-04-25T08:21:22Z</time></trkpt><trkpt lat="40.52074739032405" lon="8.479889459939692"><ele>371.0</ele><time>2026-04-25T08:21:23Z</time></trkpt><trkpt lat="40.52062882596527" lon="8.479803512001723"><ele>371.0</ele><time>2026-04-25T08:21:24Z</time></trkpt><trkpt lat="40.52049071073085" lon="8.479746808008708"><ele>371.0</ele><time>2026-04-25T08:21:25Z</time></trkpt><trkpt lat="40.52033790328095" lon="8.479732912563069"><ele>371.0</ele><time>2026-04-25T08:21:26.001Z</time></trkpt><trkpt lat="40.52017636964929" lon="8.47973673916293"><ele>371.0</ele><time>2026-04-25T08:21:27.001Z</time></trkpt><trkpt lat="40.52003461780721" lon="8.479729521678967"><ele>371.0</ele><time>2026-04-25T08:21:28.001Z</time></trkpt><trkpt lat="40.519903724512616" lon="8.47970713068489"><ele>371.0</ele><time>2026-04-25T08:21:29.001Z</time></trkpt><trkpt lat="40.51977722842454" lon="8.479680118496821"><ele>371.0</ele><time>2026-04-25T08:21:30.001Z</time></trkpt><trkpt lat="40.51965260640784" lon="8.4796166698693"><ele>376.0</ele><time>2026-04-25T08:21:31.001Z</time></trkpt><trkpt lat="40.519527414064285" lon="8.479511725727214"><ele>381.0</ele><time>2026-04-25T08:21:32.001Z</time></trkpt><trkpt lat="40.51940560684653" lon="8.479380862799383"><ele>386.0</ele><time>2026-04-25T08:21:33.001Z</time></trkpt><trkpt lat="40.51928478109416" lon="8.479235374438732"><ele>386.0</ele><time>2026-04-25T08:21:34.001Z</time></trkpt><trkpt lat="40.51915480048718" lon="8.479085659652698"><ele>386.0</ele><time>2026-04-25T08:21:35.001Z</time></trkpt><trkpt lat="40.51901995785385" lon="8.478930301066663"><ele>386.0</ele><time>2026-04-25T08:21:36.001Z</time></trkpt><trkpt lat="40.518879142035544" lon="8.478766738400411"><ele>388.0</ele><time>2026-04-25T08:21:37.001Z</time></trkpt><trkpt lat="40.518734523570885" lon="8.478605013356132"><ele>390.0</ele><time>2026-04-25T08:21:38.001Z</time></trkpt><trkpt lat="40.51860300516834" lon="8.478456987010656"><ele>392.0</ele><time>2026-04-25T08:21:39.001Z</time></trkpt><trkpt lat="40.518477555527035" lon="8.478312631692875"><ele>392.0</ele><time>2026-04-25T08:21:40.001Z</time></trkpt><trkpt lat="40.51836210471881" lon="8.478179336112165"><ele>392.0</ele><time>2026-04-25T08:21:41.001Z</time></trkpt><trkpt lat="40.518253986879195" lon="8.478063581490074"><ele>392.0</ele><time>2026-04-25T08:21:42.001Z</time></trkpt><trkpt lat="40.518151694783676" lon="8.477976166594424"><ele>392.0</ele><time>2026-04-25T08:21:43.001Z</time></trkpt><trkpt lat="40.518044499722436" lon="8.47791909178302"><ele>394.25</ele><time>2026-04-25T08:21:44.001Z</time></trkpt><trkpt lat="40.51793011049402" lon="8.477905224358599"><ele>396.5</ele><time>2026-04-25T08:21:45.001Z</time></trkpt><trkpt lat="40.51780929686022" lon="8.477937946159667"><ele>398.75</ele><time>2026-04-25T08:21:46.001Z</time></trkpt><trkpt lat="40.517694147682434" lon="8.478014189549079"><ele>401.0</ele><time>2026-04-25T08:21:47.001Z</time></trkpt><trkpt lat="40.517598052359716" lon="8.478133756787276"><ele>401.0</ele><time>2026-04-25T08:21:48.001Z</time></trkpt><trkpt lat="40.5175267397272" lon="8.478290095104743"><ele>401.0</ele><time>2026-04-25T08:21:49.001Z</time></trkpt><trkpt lat="40.51748710464766" lon="8.478482974474037"><ele>401.0</ele><time>2026-04-25T08:21:50.001Z</time></trkpt><trkpt lat="40.517463708706956" lon="8.478713460452953"><ele>401.0</ele><time>2026-04-25T08:21:51.001Z</time></trkpt><trkpt lat="40.517442799759884" lon="8.478949128424322"><ele>401.0</ele><time>2026-04-25T08:21:52.001Z</time></trkpt><trkpt lat="40.51742229076813" lon="8.479190651756655"><ele>401.0</ele><time>2026-04-25T08:21:53.001Z</time></trkpt><trkpt lat="40.51739656257776" lon="8.479428802560369"><ele>401.0</ele><time>2026-04-25T08:21:54.001Z</time></trkpt><trkpt lat="40.517368127297814" lon="8.479647617839865"><ele>401.0</ele><time>2026-04-25T08:21:55.001Z</time></trkpt><trkpt lat="40.517330045858685" lon="8.479868937807973"><ele>401.0</ele><time>2026-04-25T08:21:56.001Z</time></trkpt><trkpt lat="40.51726983396879" lon="8.480092788433106"><ele>401.0</ele><time>2026-04-25T08:21:57.001Z</time></trkpt><trkpt lat="40.51718340378641" lon="8.48032290872141"><ele>401.0</ele><time>2026-04-25T08:21:58.001Z</time></trkpt><trkpt lat="40.51709035019236" lon="8.480556639972924"><ele>401.0</ele><time>2026-04-25T08:21:59.001Z</time></trkpt><trkpt lat="40.51700232602081" lon="8.480791703903398"><ele>406.3333333333333</ele><time>2026-04-25T08:22:00.001Z</time></trkpt><trkpt lat="40.51691656328185" lon="8.481044848861774"><ele>411.66666666666663</ele><time>2026-04-25T08:22:01.001Z</time></trkpt><trkpt lat="40.51683770645391" lon="8.481312669683273"><ele>417.0</ele><time>2026-04-25T08:22:02.001Z</time></trkpt><trkpt lat="40.51675630663009" lon="8.481592121342574"><ele>417.0</ele><time>2026-04-25T08:22:03.001Z</time></trkpt><trkpt lat="40.51667371066828" lon="8.481863392022586"><ele>417.0</ele><time>2026-04-25T08:22:04.001Z</time></trkpt><trkpt lat="40.51659354643575" lon="8.482134201432887"><ele>417.0</ele><time>2026-04-25T08:22:05.001Z</time></trkpt><trkpt lat="40.516514594043315" lon="8.482409614457993"><ele>416.0</ele><time>2026-04-25T08:22:06.001Z</time></trkpt><trkpt lat="40.51643898563446" lon="8.482664285453158"><ele>415.0</ele><time>2026-04-25T08:22:07.001Z</time></trkpt><trkpt lat="40.51637004172796" lon="8.482899886200986"><ele>414.0</ele><time>2026-04-25T08:22:08.001Z</time></trkpt><trkpt lat="40.516310306999294" lon="8.483127506135261"><ele>413.66666666666663</ele><time>2026-04-25T08:22:09.001Z</time></trkpt><trkpt lat="40.51626232245405" lon="8.48336512697312"><ele>413.3333333333333</ele><time>2026-04-25T08:22:10.001Z</time></trkpt><trkpt lat="40.51623640001344" lon="8.483608600562125"><ele>413.0</ele><time>2026-04-25T08:22:11.001Z</time></trkpt><trkpt lat="40.516235310701326" lon="8.48385401171276"><ele>415.3333333333333</ele><time>2026-04-25T08:22:12.001Z</time></trkpt><trkpt lat="40.5162433893776" lon="8.484082283097734"><ele>417.66666666666663</ele><time>2026-04-25T08:22:13.001Z</time></trkpt><trkpt lat="40.51624904523376" lon="8.484298369436047"><ele>420.0</ele><time>2026-04-25T08:22:14.001Z</time></trkpt><trkpt lat="40.51624084174487" lon="8.4844839762034"><ele>423.75</ele><time>2026-04-25T08:22:15.002Z</time></trkpt><trkpt lat="40.51620659448384" lon="8.484653187650759"><ele>427.5</ele><time>2026-04-25T08:22:16.002Z</time></trkpt><trkpt lat="40.516139131472265" lon="8.484817682626007"><ele>431.25</ele><time>2026-04-25T08:22:17.002Z</time></trkpt><trkpt lat="40.51604095115066" lon="8.484971012770522"><ele>435.0</ele><time>2026-04-25T08:22:18.002Z</time></trkpt><trkpt lat="40.51592704830202" lon="8.485120388632344"><ele>435.0</ele><time>2026-04-25T08:22:19.002Z</time></trkpt><trkpt lat="40.51581846320065" lon="8.485266092919135"><ele>435.0</ele><time>2026-04-25T08:22:20.002Z</time></trkpt><trkpt lat="40.515716619520056" lon="8.485390168577016"><ele>435.0</ele><time>2026-04-25T08:22:21.002Z</time></trkpt><trkpt lat="40.51560145200342" lon="8.485494668931302"><ele>435.0</ele><time>2026-04-25T08:22:22.002Z</time></trkpt><trkpt lat="40.515470921994385" lon="8.485580259101033"><ele>435.5</ele><time>2026-04-25T08:22:23.002Z</time></trkpt><trkpt lat="40.51533177548405" lon="8.485649290714235"><ele>436.0</ele><time>2026-04-25T08:22:24.002Z</time></trkpt><trkpt lat="40.51519762984294" lon="8.485685859527937"><ele>436.5</ele><time>2026-04-25T08:22:25.002Z</time></trkpt><trkpt lat="40.515075937525" lon="8.48568853726432"><ele>437.0</ele><time>2026-04-25T08:22:26.002Z</time></trkpt><trkpt lat="40.51496930731706" lon="8.485657866305505"><ele>437.0</ele><time>2026-04-25T08:22:27.002Z</time></trkpt><trkpt lat="40.51487600787373" lon="8.485591637918805"><ele>437.0</ele><time>2026-04-25T08:22:28.002Z</time></trkpt><trkpt lat="40.51480184861942" lon="8.485485015817465"><ele>437.0</ele><time>2026-04-25T08:22:29.002Z</time></trkpt><trkpt lat="40.514735372714306" lon="8.485354680565544"><ele>437.0</ele><time>2026-04-25T08:22:30.002Z</time></trkpt><trkpt lat="40.5146727032922" lon="8.485200021716848"><ele>438.66666666666663</ele><time>2026-04-25T08:22:31.002Z</time></trkpt><trkpt lat="40.51460056302928" lon="8.48503310755984"><ele>440.33333333333337</ele><time>2026-04-25T08:22:32.002Z</time></trkpt><trkpt lat="40.5145226118121" lon="8.484866847484227"><ele>442.0</ele><time>2026-04-25T08:22:33.002Z</time></trkpt><trkpt lat="40.51443761555347" lon="8.484693056007785"><ele>444.6666666666667</ele><time>2026-04-25T08:22:34.002Z</time></trkpt><trkpt lat="40.5143488890325" lon="8.484509898058308"><ele>447.33333333333337</ele><time>2026-04-25T08:22:35.002Z</time></trkpt><trkpt lat="40.51426326776525" lon="8.484314978940528"><ele>450.0</ele><time>2026-04-25T08:22:36.002Z</time></trkpt><trkpt lat="40.51418233061827" lon="8.484100129999536"><ele>450.0</ele><time>2026-04-25T08:22:37.002Z</time></trkpt><trkpt lat="40.51410776735202" lon="8.483872692844583"><ele>450.0</ele><time>2026-04-25T08:22:38.002Z</time></trkpt><trkpt lat="40.514042115836695" lon="8.483668733772218"><ele>450.0</ele><time>2026-04-25T08:22:39.002Z</time></trkpt><trkpt lat="40.51397080716789" lon="8.483471889034384"><ele>451.66666666666663</ele><time>2026-04-25T08:22:40.002Z</time></trkpt><trkpt lat="40.513875956737145" lon="8.483273964105921"><ele>453.3333333333333</ele><time>2026-04-25T08:22:41.002Z</time></trkpt><trkpt lat="40.51375785051669" lon="8.483074847751713"><ele>455.0</ele><time>2026-04-25T08:22:42.002Z</time></trkpt><trkpt lat="40.51362493229838" lon="8.482868891641077"><ele>455.3333333333333</ele><time>2026-04-25T08:22:43.002Z</time></trkpt><trkpt lat="40.51349087148319" lon="8.482655180810818"><ele>455.66666666666663</ele><time>2026-04-25T08:22:44.002Z</time></trkpt><trkpt lat="40.51337114434507" lon="8.48245570144321"><ele>456.0</ele><time>2026-04-25T08:22:45.002Z</time></trkpt><trkpt lat="40.51326215688226" lon="8.482268683119969"><ele>460.0</ele><time>2026-04-25T08:22:46.002Z</time></trkpt><trkpt lat="40.5131672474817" lon="8.48208154285654"><ele>464.0</ele><time>2026-04-25T08:22:47.002Z</time></trkpt><trkpt lat="40.51308281831936" lon="8.481873523996075"><ele>468.0</ele><time>2026-04-25T08:22:48.002Z</time></trkpt><trkpt lat="40.5130030982547" lon="8.481658113476781"><ele>468.0</ele><time>2026-04-25T08:22:49.002Z</time></trkpt><trkpt lat="40.512931096764575" lon="8.481462880245267"><ele>468.0</ele><time>2026-04-25T08:22:50.002Z</time></trkpt><trkpt lat="40.5261046951733" lon="8.477029542091438"><ele>431.5</ele><time>2026-04-25T08:20:30.002Z</time></trkpt><trkpt lat="40.52600857628124" lon="8.47703820793347"><ele>395.0</ele><time>2026-04-25T08:20:31.002Z</time></trkpt><trkpt lat="40.52590456946983" lon="8.477093683384513"><ele>358.5</ele><time>2026-04-25T08:20:32.002Z</time></trkpt><trkpt lat="40.52579919572728" lon="8.477192784555585"><ele>322.0</ele><time>2026-04-25T08:20:33.002Z</time></trkpt><trkpt lat="40.52569510679853" lon="8.477310865780442"><ele>321.75</ele><time>2026-04-25T08:20:34.002Z</time></trkpt><trkpt lat="40.52560441501835" lon="8.477448326427416"><ele>321.5</ele><time>2026-04-25T08:20:35.002Z</time></trkpt><trkpt lat="40.525532101871995" lon="8.477615524164287"><ele>321.25</ele><time>2026-04-25T08:20:36.002Z</time></trkpt><trkpt lat="40.5254856648014" lon="8.477811530527095"><ele>321.0</ele><time>2026-04-25T08:20:37.002Z</time></trkpt><trkpt lat="40.525465996375516" lon="8.478020113198394"><ele>321.0</ele><time>2026-04-25T08:20:38.002Z</time></trkpt><trkpt lat="40.52545595353836" lon="8.478229983102814"><ele>321.0</ele><time>2026-04-25T08:20:39.002Z</time></trkpt><trkpt lat="40.525447850453084" lon="8.478438912707505"><ele>321.0</ele><time>2026-04-25T08:20:40.002Z</time></trkpt><trkpt lat="40.52544151244632" lon="8.478621291830445"><ele>322.25</ele><time>2026-04-25T08:20:41.002Z</time></trkpt><trkpt lat="40.525433046553964" lon="8.4788029983484"><ele>323.5</ele><time>2026-04-25T08:20:42.002Z</time></trkpt><trkpt lat="40.525411465296415" lon="8.478959350662743"><ele>324.75</ele><time>2026-04-25T08:20:43.002Z</time></trkpt><trkpt lat="40.52537275752268" lon="8.479108351495729"><ele>326.0</ele><time>2026-04-25T08:20:44.002Z</time></trkpt><trkpt lat="40.525301365691845" lon="8.479233388143507"><ele>328.0</ele><time>2026-04-25T08:20:45.002Z</time></trkpt><trkpt lat="40.525186004417314" lon="8.479306237404876"><ele>330.0</ele><time>2026-04-25T08:20:46.002Z</time></trkpt><trkpt lat="40.52506093231297" lon="8.479393448496301"><ele>332.0</ele><time>2026-04-25T08:20:47.002Z</time></trkpt><trkpt lat="40.52492650933469" lon="8.479492188996534"><ele>334.0</ele><time>2026-04-25T08:20:48.002Z</time></trkpt><trkpt lat="40.52480101665964" lon="8.479603044941925"><ele>334.0</ele><time>2026-04-25T08:20:49.002Z</time></trkpt><trkpt lat="40.52465957532561" lon="8.479701797356336"><ele>334.0</ele><time>2026-04-25T08:20:50.002Z</time></trkpt><trkpt lat="40.524515579907856" lon="8.479813930455377"><ele>334.0</ele><time>2026-04-25T08:20:51.002Z</time></trkpt><trkpt lat="40.524375265776754" lon="8.479948611447139"><ele>337.0</ele><time>2026-04-25T08:20:52.003Z</time></trkpt><trkpt lat="40.52422575136752" lon="8.480087211653322"><ele>340.0</ele><time>2026-04-25T08:20:53.003Z</time></trkpt><trkpt lat="40.524107248889564" lon="8.480275293721267"><ele>343.0</ele><time>2026-04-25T08:20:54.003Z</time></trkpt><trkpt lat="40.523990846134716" lon="8.48042656829843"><ele>344.25</ele><time>2026-04-25T08:20:55.003Z</time></trkpt><trkpt lat="40.52388779792534" lon="8.480555241977337"><ele>345.5</ele><time>2026-04-25T08:20:56.003Z</time></trkpt><trkpt lat="40.52377442506228" lon="8.480631266849862"><ele>346.75</ele><time>2026-04-25T08:20:57.003Z</time></trkpt><trkpt lat="40.523655770520705" lon="8.480682705516445"><ele>348.0</ele><time>2026-04-25T08:20:58.003Z</time></trkpt><trkpt lat="40.52352067710469" lon="8.480708583668715"><ele>348.0</ele><time>2026-04-25T08:20:59.003Z</time></trkpt><trkpt lat="40.52337088187578" lon="8.480735120986687"><ele>348.0</ele><time>2026-04-25T08:21:00.003Z</time></trkpt><trkpt lat="40.52322197047998" lon="8.480761641605842"><ele>348.0</ele><time>2026-04-25T08:21:01.003Z</time></trkpt><trkpt lat="40.52307609973344" lon="8.480792003820968"><ele>348.0</ele><time>2026-04-25T08:21:02.003Z</time></trkpt><trkpt lat="40.52293041894449" lon="8.480831374140175"><ele>351.5</ele><time>2026-04-25T08:21:03.003Z</time></trkpt><trkpt lat="40.522783081315985" lon="8.480892660277833"><ele>355.0</ele><time>2026-04-25T08:21:04.003Z</time></trkpt><trkpt lat="40.52264464054498" lon="8.48099183877504"><ele>358.5</ele><time>2026-04-25T08:21:05.003Z</time></trkpt><trkpt lat="40.522531543998014" lon="8.481090206768737"><ele>362.0</ele><time>2026-04-25T08:21:06.003Z</time></trkpt><trkpt lat="40.52243290203058" lon="8.481172826962935"><ele>362.0</ele><time>2026-04-25T08:21:07.003Z</time></trkpt><trkpt lat="40.52234602776608" lon="8.481233158251552"><ele>362.0</ele><time>2026-04-25T08:21:08Z</time></trkpt><trkpt lat="40.522253926344064" lon="8.48125886165648"><ele>362.0</ele><time>2026-04-25T08:21:09Z</time></trkpt><trkpt lat="40.52215004229232" lon="8.481240562002709"><ele>362.0</ele><time>2026-04-25T08:21:10Z</time></trkpt><trkpt lat="40.52203059978901" lon="8.481204929115282"><ele>362.0</ele><time>2026-04-25T08:21:11Z</time></trkpt><trkpt lat="40.52190542237098" lon="8.481171968428471"><ele>362.75</ele><time>2026-04-25T08:21:12Z</time></trkpt><trkpt lat="40.52178735336522" lon="8.481159895990514"><ele>363.5</ele><time>2026-04-25T08:21:13Z</time></trkpt><trkpt lat="40.52167528648149" lon="8.481106317667273"><ele>364.25</ele><time>2026-04-25T08:21:14Z</time></trkpt><trkpt lat="40.52157079302754" lon="8.481015980490099"><ele>365.0</ele><time>2026-04-25T08:21:15Z</time></trkpt><trkpt lat="40.52148327525478" lon="8.480880969228798"><ele>365.0</ele><time>2026-04-25T08:21:16Z</time></trkpt><trkpt lat="40.52140840884893" lon="8.480711472630526"><ele>365.0</ele><time>2026-04-25T08:21:17Z</time></trkpt><trkpt lat="40.52132718009821" lon="8.480530171238787"><ele>365.0</ele><time>2026-04-25T08:21:18Z</time></trkpt><trkpt lat="40.52122721981156" lon="8.480363436193077"><ele>367.0</ele><time>2026-04-25T08:21:19Z</time></trkpt><trkpt lat="40.5211063251791" lon="8.480219143652374"><ele>369.0</ele><time>2026-04-25T08:21:20Z</time></trkpt><trkpt lat="40.520978942430474" lon="8.480096603692035"><ele>371.0</ele><time>2026-04-25T08:21:21Z</time></trkpt><trkpt lat="40.520858842702495" lon="8.479987121115364"><ele>371.0</ele><time>2026-04-25T08:21:22Z</time></trkpt><trkpt lat="40.52074739032405" lon="8.479889459939692"><ele>371.0</ele><time>2026-04-25T08:21:23Z</time></trkpt><trkpt lat="40.52062882596527" lon="8.479803512001723"><ele>371.0</ele><time>2026-04-25T08:21:24Z</time></trkpt><trkpt lat="40.52049071073085" lon="8.479746808008708"><ele>371.0</ele><time>2026-04-25T08:21:25Z</time></trkpt><trkpt lat="40.52033790328095" lon="8.479732912563069"><ele>371.0</ele><time>2026-04-25T08:21:26.001Z</time></trkpt><trkpt lat="40.52017636964929" lon="8.47973673916293"><ele>371.0</ele><time>2026-04-25T08:21:27.001Z</time></trkpt><trkpt lat="40.52003461780721" lon="8.479729521678967"><ele>371.0</ele><time>2026-04-25T08:21:28.001Z</time></trkpt><trkpt lat="40.519903724512616" lon="8.47970713068489"><ele>371.0</ele><time>2026-04-25T08:21:29.001Z</time></trkpt><trkpt lat="40.51977722842454" lon="8.479680118496821"><ele>371.0</ele><time>2026-04-25T08:21:30.001Z</time></trkpt><trkpt lat="40.51965260640784" lon="8.4796166698693"><ele>371.0</ele><time>2026-04-25T08:21:31.001Z</time></trkpt><trkpt lat="40.519527414064285" lon="8.479511725727214"><ele>371.0</ele><time>2026-04-25T08:21:32.001Z</time></trkpt><trkpt lat="40.51940560684653" lon="8.479380862799383"><ele>371.0</ele><time>2026-04-25T08:21:33.001Z</time></trkpt><trkpt lat="40.51928478109416" lon="8.479235374438732"><ele>376.0</ele><time>2026-04-25T08:21:34.001Z</time></trkpt><trkpt lat="40.51915480048718" lon="8.479085659652698"><ele>381.0</ele><time>2026-04-25T08:21:35.001Z</time></trkpt><trkpt lat="40.51901995785385" lon="8.478930301066663"><ele>386.0</ele><time>2026-04-25T08:21:36.001Z</time></trkpt><trkpt lat="40.518879142035544" lon="8.478766738400411"><ele>388.0</ele><time>2026-04-25T08:21:37.001Z</time></trkpt><trkpt lat="40.518734523570885" lon="8.478605013356132"><ele>390.0</ele><time>2026-04-25T08:21:38.001Z</time></trkpt><trkpt lat="40.51860300516834" lon="8.478456987010656"><ele>392.0</ele><time>2026-04-25T08:21:39.001Z</time></trkpt><trkpt lat="40.518477555527035" lon="8.478312631692875"><ele>392.0</ele><time>2026-04-25T08:21:40.001Z</time></trkpt><trkpt lat="40.51836210471881" lon="8.478179336112165"><ele>392.0</ele><time>2026-04-25T08:21:41.001Z</time></trkpt><trkpt lat="40.518253986879195" lon="8.478063581490074"><ele>392.0</ele><time>2026-04-25T08:21:42.001Z</time></trkpt><trkpt lat="40.518151694783676" lon="8.477976166594424"><ele>392.0</ele><time>2026-04-25T08:21:43.001Z</time></trkpt><trkpt lat="40.518044499722436" lon="8.47791909178302"><ele>394.25</ele><time>2026-04-25T08:21:44.001Z</time></trkpt><trkpt lat="40.51793011049402" lon="8.477905224358599"><ele>396.5</ele><time>2026-04-25T08:21:45.001Z</time></trkpt><trkpt lat="40.51780929686022" lon="8.477937946159667"><ele>398.75</ele><time>2026-04-25T08:21:46.001Z</time></trkpt><trkpt lat="40.517694147682434" lon="8.478014189549079"><ele>401.0</ele><time>2026-04-25T08:21:47.001Z</time></trkpt><trkpt lat="40.517598052359716" lon="8.478133756787276"><ele>401.0</ele><time>2026-04-25T08:21:48.001Z</time></trkpt><trkpt lat="40.5175267397272" lon="8.478290095104743"><ele>401.0</ele><time>2026-04-25T08:21:49.001Z</time></trkpt><trkpt lat="40.51748710464766" lon="8.478482974474037"><ele>401.0</ele><time>2026-04-25T08:21:50.001Z</time></trkpt><trkpt lat="40.517463708706956" lon="8.478713460452953"><ele>401.0</ele><time>2026-04-25T08:21:51.001Z</time></trkpt><trkpt lat="40.517442799759884" lon="8.478949128424322"><ele>401.0</ele><time>2026-04-25T08:21:52.001Z</time></trkpt><trkpt lat="40.51742229076813" lon="8.479190651756655"><ele>401.0</ele><time>2026-04-25T08:21:53.001Z</time></trkpt><trkpt lat="40.51739656257776" lon="8.479428802560369"><ele>401.0</ele><time>2026-04-25T08:21:54.001Z</time></trkpt><trkpt lat="40.517368127297814" lon="8.479647617839865"><ele>401.0</ele><time>2026-04-25T08:21:55.001Z</time></trkpt><trkpt lat="40.517330045858685" lon="8.479868937807973"><ele>401.0</ele><time>2026-04-25T08:21:56.001Z</time></trkpt><trkpt lat="40.51726983396879" lon="8.480092788433106"><ele>401.0</ele><time>2026-04-25T08:21:57.001Z</time></trkpt><trkpt lat="40.51718340378641" lon="8.48032290872141"><ele>401.0</ele><time>2026-04-25T08:21:58.001Z</time></trkpt><trkpt lat="40.51709035019236" lon="8.480556639972924"><ele>401.0</ele><time>2026-04-25T08:21:59.001Z</time></trkpt><trkpt lat="40.51700232602081" lon="8.480791703903398"><ele>406.3333333333333</ele><time>2026-04-25T08:22:00.001Z</time></trkpt><trkpt lat="40.51691656328185" lon="8.481044848861774"><ele>411.66666666666663</ele><time>2026-04-25T08:22:01.001Z</time></trkpt><trkpt lat="40.51683770645391" lon="8.481312669683273"><ele>417.0</ele><time>2026-04-25T08:22:02.001Z</time></trkpt><trkpt lat="40.51675630663009" lon="8.481592121342574"><ele>417.0</ele><time>2026-04-25T08:22:03.001Z</time></trkpt><trkpt lat="40.51667371066828" lon="8.481863392022586"><ele>417.0</ele><time>2026-04-25T08:22:04.001Z</time></trkpt><trkpt lat="40.51659354643575" lon="8.482134201432887"><ele>417.0</ele><time>2026-04-25T08:22:05.001Z</time></trkpt><trkpt lat="40.516514594043315" lon="8.482409614457993"><ele>416.0</ele><time>2026-04-25T08:22:06.001Z</time></trkpt><trkpt lat="40.51643898563446" lon="8.482664285453158"><ele>415.0</ele><time>2026-04-25T08:22:07.001Z</time></trkpt><trkpt lat="40.51637004172796" lon="8.482899886200986"><ele>414.0</ele><time>2026-04-25T08:22:08.001Z</time></trkpt><trkpt lat="40.516310306999294" lon="8.483127506135261"><ele>413.66666666666663</ele><time>2026-04-25T08:22:09.001Z</time></trkpt><trkpt lat="40.51626232245405" lon="8.48336512697312"><ele>413.3333333333333</ele><time>2026-04-25T08:22:10.001Z</time></trkpt><trkpt lat="40.51623640001344" lon="8.483608600562125"><ele>413.0</ele><time>2026-04-25T08:22:11.001Z</time></trkpt><trkpt lat="40.516235310701326" lon="8.48385401171276"><ele>415.3333333333333</ele><time>2026-04-25T08:22:12.001Z</time></trkpt><trkpt lat="40.5162433893776" lon="8.484082283097734"><ele>417.66666666666663</ele><time>2026-04-25T08:22:13.001Z</time></trkpt><trkpt lat="40.51624904523376" lon="8.484298369436047"><ele>420.0</ele><time>2026-04-25T08:22:14.001Z</time></trkpt><trkpt lat="40.51624084174487" lon="8.4844839762034"><ele>423.75</ele><time>2026-04-25T08:22:15.002Z</time></trkpt><trkpt lat="40.51620659448384" lon="8.484653187650759"><ele>427.5</ele><time>2026-04-25T08:22:16.002Z</time></trkpt><trkpt lat="40.516139131472265" lon="8.484817682626007"><ele>431.25</ele><time>2026-04-25T08:22:17.002Z</time></trkpt><trkpt lat="40.51604095115066" lon="8.484971012770522"><ele>435.0</ele><time>2026-04-25T08:22:18.002Z</time></trkpt><trkpt lat="40.51592704830202" lon="8.485120388632344"><ele>435.0</ele><time>2026-04-25T08:22:19.002Z</time></trkpt><trkpt lat="40.51581846320065" lon="8.485266092919135"><ele>435.0</ele><time>2026-04-25T08:22:20.002Z</time></trkpt><trkpt lat="40.515716619520056" lon="8.485390168577016"><ele>435.0</ele><time>2026-04-25T08:22:21.002Z</time></trkpt><trkpt lat="40.51560145200342" lon="8.485494668931302"><ele>435.0</ele><time>2026-04-25T08:22:22.002Z</time></trkpt><trkpt lat="40.515470921994385" lon="8.485580259101033"><ele>435.5</ele><time>2026-04-25T08:22:23.002Z</time></trkpt><trkpt lat="40.51533177548405" lon="8.485649290714235"><ele>436.0</ele><time>2026-04-25T08:22:24.002Z</time></trkpt><trkpt lat="40.51519762984294" lon="8.485685859527937"><ele>436.5</ele><time>2026-04-25T08:22:25.002Z</time></trkpt><trkpt lat="40.515075937525" lon="8.48568853726432"><ele>437.0</ele><time>2026-04-25T08:22:26.002Z</time></trkpt><trkpt lat="40.51496930731706" lon="8.485657866305505"><ele>437.0</ele><time>2026-04-25T08:22:27.002Z</time></trkpt><trkpt lat="40.51487600787373" lon="8.485591637918805"><ele>437.0</ele><time>2026-04-25T08:22:28.002Z</time></trkpt><trkpt lat="40.51480184861942" lon="8.485485015817465"><ele>437.0</ele><time>2026-04-25T08:22:29.002Z</time></trkpt><trkpt lat="40.514735372714306" lon="8.485354680565544"><ele>437.0</ele><time>2026-04-25T08:22:30.002Z</time></trkpt><trkpt lat="40.5146727032922" lon="8.485200021716848"><ele>438.66666666666663</ele><time>2026-04-25T08:22:31.002Z</time></trkpt><trkpt lat="40.51460056302928" lon="8.48503310755984"><ele>440.33333333333337</ele><time>2026-04-25T08:22:32.002Z</time></trkpt><trkpt lat="40.5145226118121" lon="8.484866847484227"><ele>442.0</ele><time>2026-04-25T08:22:33.002Z</time></trkpt><trkpt lat="40.51443761555347" lon="8.484693056007785"><ele>444.6666666666667</ele><time>2026-04-25T08:22:34.002Z</time></trkpt><trkpt lat="40.5143488890325" lon="8.484509898058308"><ele>447.33333333333337</ele><time>2026-04-25T08:22:35.002Z</time></trkpt><trkpt lat="40.51426326776525" lon="8.484314978940528"><ele>450.0</ele><time>2026-04-25T08:22:36.002Z</time></trkpt><trkpt lat="40.51418233061827" lon="8.484100129999536"><ele>450.0</ele><time>2026-04-25T08:22:37.002Z</time></trkpt><trkpt lat="40.51410776735202" lon="8.483872692844583"><ele>450.0</ele><time>2026-04-25T08:22:38.002Z</time></trkpt><trkpt lat="40.514042115836695" lon="8.483668733772218"><ele>450.0</ele><time>2026-04-25T08:22:39.002Z</time></trkpt><trkpt lat="40.51397080716789" lon="8.483471889034384"><ele>451.66666666666663</ele><time>2026-04-25T08:22:40.002Z</time></trkpt><trkpt lat="40.513875956737145" lon="8.483273964105921"><ele>453.3333333333333</ele><time>2026-04-25T08:22:41.002Z</time></trkpt><trkpt lat="40.51375785051669" lon="8.483074847751713"><ele>455.0</ele><time>2026-04-25T08:22:42.002Z</time></trkpt><trkpt lat="40.51362493229838" lon="8.482868891641077"><ele>455.3333333333333</ele><time>2026-04-25T08:22:43.002Z</time></trkpt><trkpt lat="40.51349087148319" lon="8.482655180810818"><ele>455.66666666666663</ele><time>2026-04-25T08:22:44.002Z</time></trkpt><trkpt lat="40.51337114434507" lon="8.48245570144321"><ele>456.0</ele><time>2026-04-25T08:22:45.002Z</time></trkpt><trkpt lat="40.51326215688226" lon="8.482268683119969"><ele>460.0</ele><time>2026-04-25T08:22:46.002Z</time></trkpt><trkpt lat="40.5131672474817" lon="8.48208154285654"><ele>464.0</ele><time>2026-04-25T08:22:47.002Z</time></trkpt><trkpt lat="40.51308281831936" lon="8.481873523996075"><ele>468.0</ele><time>2026-04-25T08:22:48.002Z</time></trkpt><trkpt lat="40.5130030982547" lon="8.481658113476781"><ele>468.0</ele><time>2026-04-25T08:22:49.002Z</time></trkpt><trkpt lat="40.512931096764575" lon="8.481462880245267"><ele>468.0</ele><time>2026-04-25T08:22:50.002Z</time></trkpt><trkpt lat="40.512865025571884" lon="8.481297091190374"><ele>468.0</ele><time>2026-04-25T08:22:51.002Z</time></trkpt><trkpt lat="40.51279700621252" lon="8.481180422444343"><ele>468.0</ele><time>2026-04-25T08:22:52.002Z</time></trkpt><trkpt lat="40.5127033114391" lon="8.481118122747363"><ele>468.25</ele><time>2026-04-25T08:22:53.002Z</time></trkpt><trkpt lat="40.51258092465986" lon="8.481094435548593"><ele>468.5</ele><time>2026-04-25T08:22:54.002Z</time></trkpt><trkpt lat="40.51245038557177" lon="8.481115917124118"><ele>468.75</ele><time>2026-04-25T08:22:55.002Z</time></trkpt><trkpt lat="40.51233130999453" lon="8.481165732888567"><ele>469.0</ele><time>2026-04-25T08:22:56.002Z</time></trkpt><trkpt lat="40.512197028590016" lon="8.481183526972977"><ele>470.25</ele><time>2026-04-25T08:22:57.002Z</time></trkpt><trkpt lat="40.512062388767575" lon="8.481243083966781"><ele>471.5</ele><time>2026-04-25T08:22:58.002Z</time></trkpt><trkpt lat="40.51194046790933" lon="8.481272000986221"><ele>472.75</ele><time>2026-04-25T08:22:59.002Z</time></trkpt><trkpt lat="40.51182739209018" lon="8.481273712018869"><ele>474.0</ele><time>2026-04-25T08:23:00.002Z</time></trkpt><trkpt lat="40.51171163409167" lon="8.481278307563247"><ele>474.0</ele><time>2026-04-25T08:23:01.002Z</time></trkpt><trkpt lat="40.5115974394986" lon="8.481232051863662"><ele>474.0</ele><time>2026-04-25T08:23:02.003Z</time></trkpt><trkpt lat="40.511468318562365" lon="8.481169958547293"><ele>474.0</ele><time>2026-04-25T08:23:03.003Z</time></trkpt><trkpt lat="40.5113407656762" lon="8.48110861398249"><ele>474.0</ele><time>2026-04-25T08:23:04.003Z</time></trkpt><trkpt lat="40.51121233640925" lon="8.481046764476872"><ele>474.25</ele><time>2026-04-25T08:23:05.003Z</time></trkpt><trkpt lat="40.51109075607079" lon="8.480988909273501"><ele>474.5</ele><time>2026-04-25T08:23:06.003Z</time></trkpt><trkpt lat="40.51097699193045" lon="8.480936081826774"><ele>474.75</ele><time>2026-04-25T08:23:07.003Z</time></trkpt><trkpt lat="40.51086404457963" lon="8.480882003773951"><ele>475.0</ele><time>2026-04-25T08:23:08.003Z</time></trkpt><trkpt lat="40.51076267268575" lon="8.480828232674307"><ele>475.0</ele><time>2026-04-25T08:23:09.003Z</time></trkpt><trkpt lat="40.51066945645383" lon="8.480765226392114"><ele>475.0</ele><time>2026-04-25T08:23:10.003Z</time></trkpt><trkpt lat="40.510570955434225" lon="8.480673303180328"><ele>475.0</ele><time>2026-04-25T08:23:11.003Z</time></trkpt><trkpt lat="40.51046436776803" lon="8.4805498939959"><ele>475.0</ele><time>2026-04-25T08:23:12.003Z</time></trkpt><trkpt lat="40.510341773506546" lon="8.480414442141386"><ele>475.25</ele><time>2026-04-25T08:23:13.003Z</time></trkpt><trkpt lat="40.51022082390881" lon="8.480298636111307"><ele>475.5</ele><time>2026-04-25T08:23:14.001Z</time></trkpt><trkpt lat="40.51009684494883" lon="8.480191428031016"><ele>475.75</ele><time>2026-04-25T08:23:15.001Z</time></trkpt><trkpt lat="40.50997024647312" lon="8.480084695167376"><ele>476.0</ele><time>2026-04-25T08:23:16.001Z</time></trkpt><trkpt lat="40.50983777972573" lon="8.479988368435906"><ele>476.0</ele><time>2026-04-25T08:23:17.001Z</time></trkpt><trkpt lat="40.50969816833017" lon="8.479901265669012"><ele>476.0</ele><time>2026-04-25T08:23:18.001Z</time></trkpt><trkpt lat="40.509553994839145" lon="8.479819908317108"><ele>476.0</ele><time>2026-04-25T08:23:19.001Z</time></trkpt><trkpt lat="40.50940762704471" lon="8.479739145017666"><ele>476.0</ele><time>2026-04-25T08:23:20.001Z</time></trkpt><trkpt lat="40.50925911721566" lon="8.479659076655532"><ele>476.0</ele><time>2026-04-25T08:23:21Z</time></trkpt><trkpt lat="40.509111070670286" lon="8.47958009907963"><ele>476.0</ele><time>2026-04-25T08:23:22.001Z</time></trkpt><trkpt lat="40.50897056739198" lon="8.47950610050876"><ele>477.75</ele><time>2026-04-25T08:23:23.001Z</time></trkpt><trkpt lat="40.508841198661266" lon="8.479436824456158"><ele>479.5</ele><time>2026-04-25T08:23:24.001Z</time></trkpt><trkpt lat="40.50871961612762" lon="8.479350515616117"><ele>481.25</ele><time>2026-04-25T08:23:25.001Z</time></trkpt><trkpt lat="40.50860475315943" lon="8.479231769846548"><ele>483.0</ele><time>2026-04-25T08:23:26.001Z</time></trkpt><trkpt lat="40.50848676146692" lon="8.47909174334697"><ele>483.0</ele><time>2026-04-25T08:23:27.001Z</time></trkpt><trkpt lat="40.50836210107147" lon="8.478942045874346"><ele>483.0</ele><time>2026-04-25T08:23:28.001Z</time></trkpt><trkpt lat="40.508238095890356" lon="8.478795887093414"><ele>483.0</ele><time>2026-04-25T08:23:29.001Z</time></trkpt><trkpt lat="40.50811713122941" lon="8.478649460965732"><ele>484.0</ele><time>2026-04-25T08:23:30.001Z</time></trkpt><trkpt lat="40.507997773976854" lon="8.478503441370714"><ele>485.0</ele><time>2026-04-25T08:23:31.001Z</time></trkpt><trkpt lat="40.50788121260868" lon="8.478362264509315"><ele>486.0</ele><time>2026-04-25T08:23:32.001Z</time></trkpt><trkpt lat="40.50776599924386" lon="8.478223689603286"><ele>486.33333333333337</ele><time>2026-04-25T08:23:33.001Z</time></trkpt><trkpt lat="40.50765186594522" lon="8.478085214973282"><ele>486.6666666666667</ele><time>2026-04-25T08:23:34.001Z</time></trkpt><trkpt lat="40.50753631109462" lon="8.47794501559426"><ele>487.0</ele><time>2026-04-25T08:23:35.001Z</time></trkpt><trkpt lat="40.507422099859085" lon="8.477805743163032"><ele>487.0</ele><time>2026-04-25T08:23:36.001Z</time></trkpt><trkpt lat="40.50731819402281" lon="8.477678107805216"><ele>487.0</ele><time>2026-04-25T08:23:37.001Z</time></trkpt><trkpt lat="40.507222553249484" lon="8.477560625284433"><ele>487.0</ele><time>2026-04-25T08:23:38.001Z</time></trkpt><trkpt lat="40.50712605752152" lon="8.477444401218985"><ele>487.0</ele><time>2026-04-25T08:23:39.001Z</time></trkpt><trkpt lat="40.50702191669938" lon="8.477320107051609"><ele>487.0</ele><time>2026-04-25T08:23:40.001Z</time></trkpt><trkpt lat="40.50691521798907" lon="8.477187976189198"><ele>487.0</ele><time>2026-04-25T08:23:41.001Z</time></trkpt><trkpt lat="40.506814304878446" lon="8.477045918524569"><ele>487.0</ele><time>2026-04-25T08:23:42.001Z</time></trkpt><trkpt lat="40.50673588937314" lon="8.476874931688616"><ele>487.0</ele><time>2026-04-25T08:23:43.001Z</time></trkpt><trkpt lat="40.50666232888102" lon="8.476687466771537"><ele>488.5</ele><time>2026-04-25T08:23:44.001Z</time></trkpt><trkpt lat="40.50659779273786" lon="8.476496412989725"><ele>490.0</ele><time>2026-04-25T08:23:45.001Z</time></trkpt><trkpt lat="40.506537124006954" lon="8.476320883182744"><ele>491.5</ele><time>2026-04-25T08:23:46.001Z</time></trkpt><trkpt lat="40.50648426934756" lon="8.476157976402428"><ele>493.0</ele><time>2026-04-25T08:23:47.001Z</time></trkpt><trkpt lat="40.50643408488747" lon="8.476003699751665"><ele>494.5</ele><time>2026-04-25T08:23:48.001Z</time></trkpt><trkpt lat="40.506382468687036" lon="8.475850382174889"><ele>496.0</ele><time>2026-04-25T08:23:49.001Z</time></trkpt><trkpt lat="40.506336404575215" lon="8.47568825933835"><ele>497.5</ele><time>2026-04-25T08:23:50.001Z</time></trkpt><trkpt lat="40.506299529701614" lon="8.475511190012496"><ele>499.0</ele><time>2026-04-25T08:23:51.001Z</time></trkpt><trkpt lat="40.506270391567064" lon="8.475331400667661"><ele>499.5</ele><time>2026-04-25T08:23:52.001Z</time></trkpt><trkpt lat="40.50630564106526" lon="8.475155369748038"><ele>500.0</ele><time>2026-04-25T08:23:53.001Z</time></trkpt><trkpt lat="40.50636106866338" lon="8.474988707697639"><ele>500.5</ele><time>2026-04-25T08:23:54.001Z</time></trkpt><trkpt lat="40.50642322273214" lon="8.474839191419381"><ele>501.0</ele><time>2026-04-25T08:23:55.001Z</time></trkpt><trkpt lat="40.506464399119814" lon="8.474701294100674"><ele>500.8333333333333</ele><time>2026-04-25T08:23:56.001Z</time></trkpt><trkpt lat="40.50650737050965" lon="8.474601791844309"><ele>500.66666666666663</ele><time>2026-04-25T08:23:57.001Z</time></trkpt><trkpt lat="40.506550899259615" lon="8.474536078061625"><ele>500.5</ele><time>2026-04-25T08:23:58.001Z</time></trkpt><trkpt lat="40.506478725081806" lon="8.474378959744802"><ele>500.3333333333333</ele><time>2026-04-25T08:24:00.001Z</time></trkpt><trkpt lat="40.506419983354" lon="8.47432957444626"><ele>500.16666666666663</ele><time>2026-04-25T08:24:01.001Z</time></trkpt><trkpt lat="40.50634681840343" lon="8.474285701674345"><ele>500.0</ele><time>2026-04-25T08:24:02.001Z</time></trkpt><trkpt lat="40.50627215627437" lon="8.474225590008"><ele>499.2</ele><time>2026-04-25T08:24:03.001Z</time></trkpt><trkpt lat="40.50618160861363" lon="8.47417582014064"><ele>498.4</ele><time>2026-04-25T08:24:04.001Z</time></trkpt><trkpt lat="40.50607610543648" lon="8.474120831538755"><ele>497.6</ele><time>2026-04-25T08:24:05.001Z</time></trkpt><trkpt lat="40.50596994358308" lon="8.474055760027182"><ele>496.8</ele><time>2026-04-25T08:24:06.001Z</time></trkpt><trkpt lat="40.505862797322116" lon="8.47399117076148"><ele>496.0</ele><time>2026-04-25T08:24:07.001Z</time></trkpt><trkpt lat="40.50574327845008" lon="8.473918419853185"><ele>496.0</ele><time>2026-04-25T08:24:08.001Z</time></trkpt><trkpt lat="40.50562954617814" lon="8.473843968368513"><ele>496.0</ele><time>2026-04-25T08:24:09.001Z</time></trkpt><trkpt lat="40.50552183459133" lon="8.473758729027756"><ele>496.0</ele><time>2026-04-25T08:24:10.001Z</time></trkpt><trkpt lat="40.50541244198492" lon="8.473651519011012"><ele>496.0</ele><time>2026-04-25T08:24:11.001Z</time></trkpt><trkpt lat="40.505299605989855" lon="8.473530149784276"><ele>499.20000000000005</ele><time>2026-04-25T08:24:12.002Z</time></trkpt><trkpt lat="40.50520614217308" lon="8.473416955088869"><ele>502.40000000000003</ele><time>2026-04-25T08:24:13.002Z</time></trkpt><trkpt lat="40.50512780798548" lon="8.473315782173742"><ele>505.6</ele><time>2026-04-25T08:24:14.002Z</time></trkpt><trkpt lat="40.505048516228825" lon="8.473245808580224"><ele>508.8</ele><time>2026-04-25T08:24:15.002Z</time></trkpt><trkpt lat="40.50500446584207" lon="8.473153778986996"><ele>512.0</ele><time>2026-04-25T08:24:16.002Z</time></trkpt><trkpt lat="40.5049355633388" lon="8.473058063219012"><ele>512.0</ele><time>2026-04-25T08:24:18.002Z</time></trkpt><trkpt lat="40.50477609455467" lon="8.473179834807599"><ele>512.0</ele><time>2026-04-25T08:24:19.002Z</time></trkpt><trkpt lat="40.50467981532851" lon="8.473237900079427"><ele>512.0</ele><time>2026-04-25T08:24:20.002Z</time></trkpt><trkpt lat="40.50456339274586" lon="8.473256985199754"><ele>512.0</ele><time>2026-04-25T08:24:21.002Z</time></trkpt><trkpt lat="40.50443692434907" lon="8.473268634499277"><ele>514.25</ele><time>2026-04-25T08:24:22.002Z</time></trkpt><trkpt lat="40.50430820182621" lon="8.473266331039046"><ele>516.5</ele><time>2026-04-25T08:24:23.002Z</time></trkpt><trkpt lat="40.50416761076969" lon="8.473249935485967"><ele>518.75</ele><time>2026-04-25T08:24:24.002Z</time></trkpt><trkpt lat="40.504034440402926" lon="8.473213419603148"><ele>521.0</ele><time>2026-04-25T08:24:25.002Z</time></trkpt><trkpt lat="40.5039031346985" lon="8.473147464481023"><ele>521.0</ele><time>2026-04-25T08:24:26.002Z</time></trkpt><trkpt lat="40.50375770829997" lon="8.473088661353914"><ele>521.0</ele><time>2026-04-25T08:24:27.002Z</time></trkpt><trkpt lat="40.5036438024105" lon="8.473006661687764"><ele>521.0</ele><time>2026-04-25T08:24:28.002Z</time></trkpt><trkpt lat="40.50353534222608" lon="8.472941420457033"><ele>521.0</ele><time>2026-04-25T08:24:29.002Z</time></trkpt><trkpt lat="40.50343698316734" lon="8.47288430251456"><ele>522.0</ele><time>2026-04-25T08:24:30.002Z</time></trkpt><trkpt lat="40.50333360890149" lon="8.472871712206647"><ele>523.0</ele><time>2026-04-25T08:24:31.002Z</time></trkpt><trkpt lat="40.50322958337458" lon="8.472898299433506"><ele>524.0</ele><time>2026-04-25T08:24:32.002Z</time></trkpt><trkpt lat="40.503130265067014" lon="8.47299793335356"><ele>525.0</ele><time>2026-04-25T08:24:33.002Z</time></trkpt><trkpt lat="40.50302151199622" lon="8.473107955937575"><ele>525.0</ele><time>2026-04-25T08:24:34.002Z</time></trkpt><trkpt lat="40.50291561822062" lon="8.47321481729219"><ele>525.0</ele><time>2026-04-25T08:24:35.002Z</time></trkpt><trkpt lat="40.50280190395592" lon="8.473323655397769"><ele>525.0</ele><time>2026-04-25T08:24:36.002Z</time></trkpt><trkpt lat="40.5026961356212" lon="8.473421545863774"><ele>525.0</ele><time>2026-04-25T08:24:37.002Z</time></trkpt><trkpt lat="40.50259665441876" lon="8.47350792182893"><ele>524.8</ele><time>2026-04-25T08:24:38.002Z</time></trkpt><trkpt lat="40.50249511750597" lon="8.473546885120326"><ele>524.6</ele><time>2026-04-25T08:24:39.002Z</time></trkpt><trkpt lat="40.50241489443822" lon="8.473602365140703"><ele>524.4</ele><time>2026-04-25T08:24:40.002Z</time></trkpt><trkpt lat="40.50233450505138" lon="8.473660541532402"><ele>524.2</ele><time>2026-04-25T08:24:41.002Z</time></trkpt><trkpt lat="40.50225401641257" lon="8.47377341923172"><ele>524.0</ele><time>2026-04-25T08:24:42.002Z</time></trkpt><trkpt lat="40.50219269810005" lon="8.473917644044798"><ele>524.0</ele><time>2026-04-25T08:24:43.002Z</time></trkpt><trkpt lat="40.50211917989834" lon="8.474048318320499"><ele>524.0</ele><time>2026-04-25T08:24:44.002Z</time></trkpt><trkpt lat="40.502056116639174" lon="8.47416711138988"><ele>524.0</ele><time>2026-04-25T08:24:45.002Z</time></trkpt><trkpt lat="40.50199544424656" lon="8.474273020468786"><ele>524.0</ele><time>2026-04-25T08:24:46.002Z</time></trkpt><trkpt lat="40.50192844934118" lon="8.47435183617352"><ele>524.0</ele><time>2026-04-25T08:24:47.002Z</time></trkpt><trkpt lat="40.501852700541065" lon="8.47435956223556"><ele>526.3333333333333</ele><time>2026-04-25T08:24:48.002Z</time></trkpt><trkpt lat="40.50177235092969" lon="8.474361683552699"><ele>528.6666666666666</ele><time>2026-04-25T08:24:49.002Z</time></trkpt><trkpt lat="40.501681424544735" lon="8.47435939387726"><ele>531.0</ele><time>2026-04-25T08:24:50.002Z</time></trkpt><trkpt lat="40.501608165096776" lon="8.474353138395298"><ele>533.3333333333334</ele><time>2026-04-25T08:24:51.002Z</time></trkpt><trkpt lat="40.50151917400019" lon="8.474347390000753"><ele>535.6666666666667</ele><time>2026-04-25T08:24:53.002Z</time></trkpt><trkpt lat="40.50143533375366" lon="8.474358539603363"><ele>538.0</ele><time>2026-04-25T08:24:56.002Z</time></trkpt><trkpt lat="40.50141631693264" lon="8.47446515774182"><ele>538.0</ele><time>2026-04-25T08:24:57.002Z</time></trkpt><trkpt lat="40.501410682986325" lon="8.474567555306834"><ele>538.0</ele><time>2026-04-25T08:24:58.002Z</time></trkpt><trkpt lat="40.501407801682724" lon="8.474662241428216"><ele>538.0</ele><time>2026-04-25T08:24:59.003Z</time></trkpt><trkpt lat="40.50139576268524" lon="8.474744051617158"><ele>538.0</ele><time>2026-04-25T08:25:00.003Z</time></trkpt><trkpt lat="40.5013748450234" lon="8.474884024268533"><ele>538.0</ele><time>2026-04-25T08:25:02.003Z</time></trkpt><trkpt lat="40.50138014864386" lon="8.47503243090478"><ele>538.0</ele><time>2026-04-25T08:25:04.003Z</time></trkpt><trkpt lat="40.50141794433604" lon="8.475150726564094"><ele>537.75</ele><time>2026-04-25T08:25:05.003Z</time></trkpt><trkpt lat="40.50145400069382" lon="8.475268754100595"><ele>537.5</ele><time>2026-04-25T08:25:06.003Z</time></trkpt><trkpt lat="40.5014718432459" lon="8.475408708046471"><ele>537.25</ele><time>2026-04-25T08:25:07.003Z</time></trkpt><trkpt lat="40.501468443282086" lon="8.475578857032966"><ele>537.0</ele><time>2026-04-25T08:25:08.003Z</time></trkpt><trkpt lat="40.501461281623016" lon="8.47574817781774"><ele>537.0</ele><time>2026-04-25T08:25:09.003Z</time></trkpt><trkpt lat="40.50145206433739" lon="8.475891768837146"><ele>537.0</ele><time>2026-04-25T08:25:10.003Z</time></trkpt><trkpt lat="40.50143092012522" lon="8.476012537075423"><ele>537.0</ele><time>2026-04-25T08:25:11.003Z</time></trkpt><trkpt lat="40.50139535020641" lon="8.476123515650439"><ele>537.0</ele><time>2026-04-25T08:25:12.003Z</time></trkpt><trkpt lat="40.50133868865585" lon="8.47621115150393"><ele>537.0</ele><time>2026-04-25T08:25:13.003Z</time></trkpt><trkpt lat="40.501289176143224" lon="8.476269329077768"><ele>537.0</ele><time>2026-04-25T08:25:14.003Z</time></trkpt><trkpt lat="40.50123813864836" lon="8.476355821453067"><ele>539.0</ele><time>2026-04-25T08:25:16.003Z</time></trkpt><trkpt lat="40.50118622441182" lon="8.476407235912303"><ele>541.0</ele><time>2026-04-25T08:25:18.003Z</time></trkpt><trkpt lat="40.50121161262327" lon="8.476550030938323"><ele>543.0</ele><time>2026-04-25T08:25:19.003Z</time></trkpt><trkpt lat="40.501212240080996" lon="8.47665806674372"><ele>545.0</ele><time>2026-04-25T08:25:20.001Z</time></trkpt><trkpt lat="40.501210926536956" lon="8.476782985829757"><ele>547.0</ele><time>2026-04-25T08:25:21.001Z</time></trkpt><trkpt lat="40.501214353599735" lon="8.476930252292343"><ele>547.0</ele><time>2026-04-25T08:25:22.001Z</time></trkpt><trkpt lat="40.501220892488526" lon="8.477081774617995"><ele>547.0</ele><time>2026-04-25T08:25:23.001Z</time></trkpt><trkpt lat="40.50122333557135" lon="8.477238272351801"><ele>547.0</ele><time>2026-04-25T08:25:24.001Z</time></trkpt><trkpt lat="40.50122083104504" lon="8.47740061989942"><ele>547.0</ele><time>2026-04-25T08:25:25.001Z</time></trkpt><trkpt lat="40.50120964876594" lon="8.477561999776412"><ele>545.75</ele><time>2026-04-25T08:25:26.001Z</time></trkpt><trkpt lat="40.501183338934744" lon="8.477728397433674"><ele>544.5</ele><time>2026-04-25T08:25:27.001Z</time></trkpt><trkpt lat="40.50113946351792" lon="8.477890781902156"><ele>543.25</ele><time>2026-04-25T08:25:28.001Z</time></trkpt><trkpt lat="40.501081595960535" lon="8.478040027385372"><ele>542.0</ele><time>2026-04-25T08:25:29.001Z</time></trkpt><trkpt lat="40.501006220693114" lon="8.478177783806693"><ele>539.0</ele><time>2026-04-25T08:25:30.001Z</time></trkpt><trkpt lat="40.50091976047812" lon="8.478314180236591"><ele>536.0</ele><time>2026-04-25T08:25:31.001Z</time></trkpt><trkpt lat="40.500825336328944" lon="8.478448843737494"><ele>533.0</ele><time>2026-04-25T08:25:32.001Z</time></trkpt><trkpt lat="40.500723524045064" lon="8.478582713685892"><ele>530.0</ele><time>2026-04-25T08:25:33.001Z</time></trkpt><trkpt lat="40.5006104859676" lon="8.478719181640145"><ele>528.25</ele><time>2026-04-25T08:25:34.001Z</time></trkpt><trkpt lat="40.50049736168434" lon="8.47884600585502"><ele>526.5</ele><time>2026-04-25T08:25:35.001Z</time></trkpt><trkpt lat="40.50038472003772" lon="8.47897026113179"><ele>524.75</ele><time>2026-04-25T08:25:36.001Z</time></trkpt><trkpt lat="40.5002738002369" lon="8.479097101155583"><ele>523.0</ele><time>2026-04-25T08:25:37.001Z</time></trkpt><trkpt lat="40.50016836358043" lon="8.479220580775058"><ele>523.0</ele><time>2026-04-25T08:25:38.001Z</time></trkpt><trkpt lat="40.500062636597235" lon="8.479341012785675"><ele>523.0</ele><time>2026-04-25T08:25:39.001Z</time></trkpt><trkpt lat="40.499958818088906" lon="8.479459968021454"><ele>523.0</ele><time>2026-04-25T08:25:40.001Z</time></trkpt><trkpt lat="40.49985430732947" lon="8.479571810591423"><ele>523.0</ele><time>2026-04-25T08:25:41.001Z</time></trkpt><trkpt lat="40.499731585454974" lon="8.479646693941698"><ele>520.75</ele><time>2026-04-25T08:25:42.001Z</time></trkpt><trkpt lat="40.49961976148576" lon="8.479739535410042"><ele>518.5</ele><time>2026-04-25T08:25:43.001Z</time></trkpt><trkpt lat="40.499485428407986" lon="8.479790857041428"><ele>516.25</ele><time>2026-04-25T08:25:44.001Z</time></trkpt><trkpt lat="40.499344638008495" lon="8.479840430005698"><ele>514.0</ele><time>2026-04-25T08:25:45.001Z</time></trkpt><trkpt lat="40.499196587930356" lon="8.479889153028752"><ele>514.0</ele><time>2026-04-25T08:25:46.001Z</time></trkpt><trkpt lat="40.49903885576134" lon="8.479914619619313"><ele>514.0</ele><time>2026-04-25T08:25:47.001Z</time></trkpt><trkpt lat="40.498889672834395" lon="8.479968048670827"><ele>514.0</ele><time>2026-04-25T08:25:48.001Z</time></trkpt><trkpt lat="40.49874550832408" lon="8.480028857911398"><ele>516.25</ele><time>2026-04-25T08:25:49.001Z</time></trkpt><trkpt lat="40.49861005783993" lon="8.480110031431556"><ele>518.5</ele><time>2026-04-25T08:25:50.001Z</time></trkpt><trkpt lat="40.49848058236457" lon="8.480199603190462"><ele>520.75</ele><time>2026-04-25T08:25:51.001Z</time></trkpt><trkpt lat="40.49836575336139" lon="8.48030788345602"><ele>523.0</ele><time>2026-04-25T08:25:52.001Z</time></trkpt><trkpt lat="40.498247430465035" lon="8.480399263811842"><ele>521.25</ele><time>2026-04-25T08:25:53.001Z</time></trkpt><trkpt lat="40.4981293752099" lon="8.480487603554675"><ele>519.5</ele><time>2026-04-25T08:25:54.001Z</time></trkpt><trkpt lat="40.49800477580736" lon="8.480579141869732"><ele>517.75</ele><time>2026-04-25T08:25:55.001Z</time></trkpt><trkpt lat="40.49788436708407" lon="8.480673472755283"><ele>516.0</ele><time>2026-04-25T08:25:56.001Z</time></trkpt><trkpt lat="40.49777300557999" lon="8.480778503588919"><ele>516.0</ele><time>2026-04-25T08:25:57.001Z</time></trkpt><trkpt lat="40.49767434454671" lon="8.480900744598953"><ele>516.0</ele><time>2026-04-25T08:25:58.001Z</time></trkpt><trkpt lat="40.4975939217138" lon="8.48103707503394"><ele>516.0</ele><time>2026-04-25T08:25:59.001Z</time></trkpt><trkpt lat="40.49752648723568" lon="8.48119265946925"><ele>516.0</ele><time>2026-04-25T08:26:00.001Z</time></trkpt><trkpt lat="40.49747905483851" lon="8.48136362944606"><ele>512.25</ele><time>2026-04-25T08:26:01.001Z</time></trkpt><trkpt lat="40.497455497430785" lon="8.481549738234605"><ele>508.5</ele><time>2026-04-25T08:26:02.001Z</time></trkpt><trkpt lat="40.49745914109779" lon="8.481746028501735"><ele>504.75</ele><time>2026-04-25T08:26:03.001Z</time></trkpt><trkpt lat="40.49748425919901" lon="8.481942336673113"><ele>501.0</ele><time>2026-04-25T08:26:04.001Z</time></trkpt><trkpt lat="40.4975199938691" lon="8.482128554826994"><ele>500.75</ele><time>2026-04-25T08:26:05.001Z</time></trkpt><trkpt lat="40.49755296486812" lon="8.482313826168044"><ele>500.5</ele><time>2026-04-25T08:26:06.001Z</time></trkpt><trkpt lat="40.49757066863412" lon="8.48250587655569"><ele>500.25</ele><time>2026-04-25T08:26:07.001Z</time></trkpt><trkpt lat="40.497567572386565" lon="8.482707930367733"><ele>500.0</ele><time>2026-04-25T08:26:08.001Z</time></trkpt><trkpt lat="40.497547373427025" lon="8.48292101661661"><ele>496.3333333333333</ele><time>2026-04-25T08:26:09.001Z</time></trkpt><trkpt lat="40.49752090396043" lon="8.483124875150848"><ele>492.66666666666663</ele><time>2026-04-25T08:26:10.001Z</time></trkpt><trkpt lat="40.49748913956109" lon="8.483323436772558"><ele>489.0</ele><time>2026-04-25T08:26:11.001Z</time></trkpt><trkpt lat="40.497444782429255" lon="8.483516489806028"><ele>489.0</ele><time>2026-04-25T08:26:12.001Z</time></trkpt><trkpt lat="40.49739085839385" lon="8.483701344874927"><ele>489.0</ele><time>2026-04-25T08:26:13.001Z</time></trkpt><trkpt lat="40.49731995205991" lon="8.483885192824907"><ele>489.0</ele><time>2026-04-25T08:26:14.001Z</time></trkpt><trkpt lat="40.49723221711165" lon="8.484061421442977"><ele>489.33333333333337</ele><time>2026-04-25T08:26:15.001Z</time></trkpt><trkpt lat="40.497128836653445" lon="8.484219466232759"><ele>489.6666666666667</ele><time>2026-04-25T08:26:16.001Z</time></trkpt><trkpt lat="40.49701126168605" lon="8.484352069191605"><ele>490.0</ele><time>2026-04-25T08:26:17.001Z</time></trkpt><trkpt lat="40.496882562579714" lon="8.484430344048915"><ele>490.0</ele><time>2026-04-25T08:26:18.001Z</time></trkpt><trkpt lat="40.49676377546596" lon="8.48447738689073"><ele>490.0</ele><time>2026-04-25T08:26:19.001Z</time></trkpt><trkpt lat="40.496634799369204" lon="8.484486977909238"><ele>490.0</ele><time>2026-04-25T08:26:20.001Z</time></trkpt><trkpt lat="40.49648680649825" lon="8.48447550557356"><ele>490.0</ele><time>2026-04-25T08:26:21.001Z</time></trkpt><trkpt lat="40.49633430962363" lon="8.4844542156464"><ele>488.25</ele><time>2026-04-25T08:26:22.001Z</time></trkpt><trkpt lat="40.49619382446691" lon="8.484407714061357"><ele>486.5</ele><time>2026-04-25T08:26:23.001Z</time></trkpt><trkpt lat="40.49606435838116" lon="8.484332657179984"><ele>484.75</ele><time>2026-04-25T08:26:24.002Z</time></trkpt><trkpt lat="40.49595584469795" lon="8.48428740397779"><ele>483.0</ele><time>2026-04-25T08:26:25.002Z</time></trkpt><trkpt lat="40.49584198225811" lon="8.484299241675586"><ele>483.0</ele><time>2026-04-25T08:26:26.002Z</time></trkpt><trkpt lat="40.49575849358717" lon="8.484381362200914"><ele>483.0</ele><time>2026-04-25T08:26:27.002Z</time></trkpt><trkpt lat="40.495703013393225" lon="8.48447403335247"><ele>483.0</ele><time>2026-04-25T08:26:28.002Z</time></trkpt><trkpt lat="40.49568223232317" lon="8.484582048268527"><ele>483.0</ele><time>2026-04-25T08:26:29.002Z</time></trkpt><trkpt lat="40.49570614590572" lon="8.48468563763331"><ele>483.0</ele><time>2026-04-25T08:26:30.002Z</time></trkpt><trkpt lat="40.49576214597888" lon="8.484767094282217"><ele>483.0</ele><time>2026-04-25T08:26:31.002Z</time></trkpt><trkpt lat="40.49585110978504" lon="8.484824469982328"><ele>479.5</ele><time>2026-04-25T08:26:32.002Z</time></trkpt><trkpt lat="40.49596580124768" lon="8.484859614639094"><ele>476.0</ele><time>2026-04-25T08:26:33.002Z</time></trkpt><trkpt lat="40.49609598500773" lon="8.484888180529058"><ele>472.5</ele><time>2026-04-25T08:26:34.002Z</time></trkpt><trkpt lat="40.496227959260615" lon="8.48493100368717"><ele>469.0</ele><time>2026-04-25T08:26:35.002Z</time></trkpt><trkpt lat="40.49635410465206" lon="8.484992379920602"><ele>469.0</ele><time>2026-04-25T08:26:36.002Z</time></trkpt><trkpt lat="40.49648863010092" lon="8.485072924893752"><ele>469.0</ele><time>2026-04-25T08:26:37.002Z</time></trkpt><trkpt lat="40.49661816679158" lon="8.485157331876563"><ele>469.0</ele><time>2026-04-25T08:26:38.002Z</time></trkpt><trkpt lat="40.49673870287343" lon="8.485244946857255"><ele>469.0</ele><time>2026-04-25T08:26:39.002Z</time></trkpt><trkpt lat="40.49683582669843" lon="8.48532976852179"><ele>466.4</ele><time>2026-04-25T08:26:40.002Z</time></trkpt><trkpt lat="40.49691210362961" lon="8.485431487064679"><ele>463.79999999999995</ele><time>2026-04-25T08:26:41.002Z</time></trkpt><trkpt lat="40.49696330963062" lon="8.485558861741529"><ele>461.20000000000005</ele><time>2026-04-25T08:26:42.002Z</time></trkpt><trkpt lat="40.49698395426727" lon="8.48569750832445"><ele>458.6</ele><time>2026-04-25T08:26:43.002Z</time></trkpt><trkpt lat="40.496970827838815" lon="8.485840352419304"><ele>456.0</ele><time>2026-04-25T08:26:44.002Z</time></trkpt><trkpt lat="40.49692110633699" lon="8.48598428892216"><ele>456.0</ele><time>2026-04-25T08:26:45.002Z</time></trkpt><trkpt lat="40.49685716119645" lon="8.48611041585483"><ele>456.0</ele><time>2026-04-25T08:26:46.002Z</time></trkpt><trkpt lat="40.49681165690586" lon="8.486238570445758"><ele>456.0</ele><time>2026-04-25T08:26:47.002Z</time></trkpt><trkpt lat="40.49679636725636" lon="8.486377659448836"><ele>456.0</ele><time>2026-04-25T08:26:48.002Z</time></trkpt><trkpt lat="40.49680608038399" lon="8.486523241793378"><ele>456.0</ele><time>2026-04-25T08:26:49.002Z</time></trkpt><trkpt lat="40.49684556035694" lon="8.486684592672926"><ele>454.5</ele><time>2026-04-25T08:26:50.002Z</time></trkpt><trkpt lat="40.49691204741478" lon="8.486849279387469"><ele>453.0</ele><time>2026-04-25T08:26:51.002Z</time></trkpt><trkpt lat="40.49698258297099" lon="8.487008250233945"><ele>451.5</ele><time>2026-04-25T08:26:52.002Z</time></trkpt><trkpt lat="40.4970572896067" lon="8.487176816387228"><ele>450.0</ele><time>2026-04-25T08:26:53.002Z</time></trkpt><trkpt lat="40.49713626768956" lon="8.487354411283407"><ele>447.75</ele><time>2026-04-25T08:26:54.002Z</time></trkpt><trkpt lat="40.49721392382476" lon="8.487526075797788"><ele>445.5</ele><time>2026-04-25T08:26:55.002Z</time></trkpt><trkpt lat="40.497293361061004" lon="8.487692258494612"><ele>443.25</ele><time>2026-04-25T08:26:56.002Z</time></trkpt><trkpt lat="40.49738362228006" lon="8.487840559433236"><ele>441.0</ele><time>2026-04-25T08:26:57.002Z</time></trkpt><trkpt lat="40.49748528920556" lon="8.487970989110403"><ele>441.0</ele><time>2026-04-25T08:26:58.002Z</time></trkpt><trkpt lat="40.49759016501167" lon="8.488086005278618"><ele>441.0</ele><time>2026-04-25T08:26:59.002Z</time></trkpt><trkpt lat="40.497682898626245" lon="8.488187838551656"><ele>441.0</ele><time>2026-04-25T08:27:00.002Z</time></trkpt><trkpt lat="40.49775766374941" lon="8.488282504835205"><ele>441.0</ele><time>2026-04-25T08:27:01.002Z</time></trkpt><trkpt lat="40.497816218397425" lon="8.488382295400125"><ele>441.0</ele><time>2026-04-25T08:27:02.002Z</time></trkpt><trkpt lat="40.49784468670127" lon="8.488493175286246"><ele>441.0</ele><time>2026-04-25T08:27:03.002Z</time></trkpt><trkpt lat="40.49783699497031" lon="8.488605631429042"><ele>441.0</ele><time>2026-04-25T08:27:04.002Z</time></trkpt><trkpt lat="40.49779549391722" lon="8.488703458749017"><ele>441.0</ele><time>2026-04-25T08:27:05.002Z</time></trkpt><trkpt lat="40.497707307377965" lon="8.48875403860389"><ele>441.0</ele><time>2026-04-25T08:27:06.002Z</time></trkpt><trkpt lat="40.49761097118642" lon="8.488793831307897"><ele>441.0</ele><time>2026-04-25T08:27:07.002Z</time></trkpt><trkpt lat="40.49750396886782" lon="8.488782787594161"><ele>441.0</ele><time>2026-04-25T08:27:08.002Z</time></trkpt><trkpt lat="40.497370508668055" lon="8.48877049003849"><ele>441.0</ele><time>2026-04-25T08:27:09.002Z</time></trkpt><trkpt lat="40.497242494107205" lon="8.488758943986188"><ele>441.0</ele><time>2026-04-25T08:27:10.002Z</time></trkpt><trkpt lat="40.49711757331459" lon="8.488778057229087"><ele>438.25</ele><time>2026-04-25T08:27:11.002Z</time></trkpt><trkpt lat="40.49700275277369" lon="8.488841330205352"><ele>435.5</ele><time>2026-04-25T08:27:12.003Z</time></trkpt><trkpt lat="40.49689820639495" lon="8.48894786627893"><ele>432.75</ele><time>2026-04-25T08:27:13.003Z</time></trkpt><trkpt lat="40.49682388322551" lon="8.489090068572796"><ele>430.0</ele><time>2026-04-25T08:27:14.003Z</time></trkpt><trkpt lat="40.496740494002935" lon="8.489197290651116"><ele>430.0</ele><time>2026-04-25T08:27:15.003Z</time></trkpt><trkpt lat="40.496638065991725" lon="8.489264470867157"><ele>430.0</ele><time>2026-04-25T08:27:16.003Z</time></trkpt><trkpt lat="40.49652482753946" lon="8.489254514690959"><ele>430.0</ele><time>2026-04-25T08:27:17.003Z</time></trkpt><trkpt lat="40.49640652011094" lon="8.489218592581288"><ele>430.0</ele><time>2026-04-25T08:27:18.003Z</time></trkpt><trkpt lat="40.496277143884434" lon="8.489172014598397"><ele>427.5</ele><time>2026-04-25T08:27:19.003Z</time></trkpt><trkpt lat="40.49614542610395" lon="8.489107599992314"><ele>425.0</ele><time>2026-04-25T08:27:20.003Z</time></trkpt><trkpt lat="40.496040479175434" lon="8.488999073024694"><ele>422.5</ele><time>2026-04-25T08:27:21.003Z</time></trkpt><trkpt lat="40.49596267950009" lon="8.488870212444722"><ele>420.0</ele><time>2026-04-25T08:27:22.003Z</time></trkpt><trkpt lat="40.49585242728729" lon="8.488792345500912"><ele>420.0</ele><time>2026-04-25T08:27:23.003Z</time></trkpt><trkpt lat="40.49572590231394" lon="8.488766727045899"><ele>420.0</ele><time>2026-04-25T08:27:24.003Z</time></trkpt><trkpt lat="40.495595998371904" lon="8.48880821620459"><ele>420.0</ele><time>2026-04-25T08:27:25.003Z</time></trkpt><trkpt lat="40.49545021290282" lon="8.488859799483963"><ele>420.0</ele><time>2026-04-25T08:27:26Z</time></trkpt><trkpt lat="40.49530647125441" lon="8.488925183464932"><ele>419.25</ele><time>2026-04-25T08:27:27Z</time></trkpt><trkpt lat="40.49515716505095" lon="8.48898785900679"><ele>418.5</ele><time>2026-04-25T08:27:28Z</time></trkpt><trkpt lat="40.49501406604536" lon="8.48903436411338"><ele>417.75</ele><time>2026-04-25T08:27:29Z</time></trkpt><trkpt lat="40.494871387699924" lon="8.489055523461301"><ele>417.0</ele><time>2026-04-25T08:27:30Z</time></trkpt><trkpt lat="40.49473247897074" lon="8.489028906785691"><ele>417.0</ele><time>2026-04-25T08:27:31Z</time></trkpt><trkpt lat="40.49460094080966" lon="8.48900643481455"><ele>417.0</ele><time>2026-04-25T08:27:32Z</time></trkpt><trkpt lat="40.49447000259866" lon="8.48897651885207"><ele>417.0</ele><time>2026-04-25T08:27:33Z</time></trkpt><trkpt lat="40.49434867155274" lon="8.488955032028036"><ele>417.0</ele><time>2026-04-25T08:27:34Z</time></trkpt><trkpt lat="40.494231062798086" lon="8.488981029957738"><ele>415.5</ele><time>2026-04-25T08:27:35Z</time></trkpt><trkpt lat="40.49412301651338" lon="8.489031156980758"><ele>414.0</ele><time>2026-04-25T08:27:36Z</time></trkpt><trkpt lat="40.49402732415265" lon="8.489109745735554"><ele>412.5</ele><time>2026-04-25T08:27:37Z</time></trkpt><trkpt lat="40.49395278766022" lon="8.489229072415274"><ele>411.0</ele><time>2026-04-25T08:27:38Z</time></trkpt><trkpt lat="40.49390550233611" lon="8.48936889845701"><ele>411.0</ele><time>2026-04-25T08:27:39Z</time></trkpt><trkpt lat="40.49388942895684" lon="8.489523517280523"><ele>411.0</ele><time>2026-04-25T08:27:40Z</time></trkpt><trkpt lat="40.49389705400336" lon="8.489701622628989"><ele>411.0</ele><time>2026-04-25T08:27:41Z</time></trkpt><trkpt lat="40.49391127474744" lon="8.489879077431137"><ele>411.0</ele><time>2026-04-25T08:27:42Z</time></trkpt><trkpt lat="40.49391621476856" lon="8.490055040579524"><ele>408.75</ele><time>2026-04-25T08:27:43Z</time></trkpt><trkpt lat="40.49390784820944" lon="8.490223279352954"><ele>406.5</ele><time>2026-04-25T08:27:44Z</time></trkpt><trkpt lat="40.493877804899306" lon="8.490384594931195"><ele>404.25</ele><time>2026-04-25T08:27:45Z</time></trkpt><trkpt lat="40.49381910738255" lon="8.49053529529105"><ele>402.0</ele><time>2026-04-25T08:27:46Z</time></trkpt><trkpt lat="40.493711686970066" lon="8.490648475308406"><ele>401.0</ele><time>2026-04-25T08:27:47.001Z</time></trkpt><trkpt lat="40.49358899174722" lon="8.490756448593238"><ele>400.0</ele><time>2026-04-25T08:27:48.001Z</time></trkpt><trkpt lat="40.49345643453059" lon="8.490866934198449"><ele>399.0</ele><time>2026-04-25T08:27:49.001Z</time></trkpt><trkpt lat="40.49333740843093" lon="8.490985978197964"><ele>399.0</ele><time>2026-04-25T08:27:50.001Z</time></trkpt><trkpt lat="40.493224416632884" lon="8.49109412429912"><ele>399.0</ele><time>2026-04-25T08:27:51.001Z</time></trkpt><trkpt lat="40.493138034193876" lon="8.49122205539537"><ele>399.0</ele><time>2026-04-25T08:27:52.001Z</time></trkpt><trkpt lat="40.49308666943288" lon="8.491371177016811"><ele>399.0</ele><time>2026-04-25T08:27:53.001Z</time></trkpt><trkpt lat="40.49306930372777" lon="8.49153302851532"><ele>399.0</ele><time>2026-04-25T08:27:54.001Z</time></trkpt><trkpt lat="40.49308542728435" lon="8.491712572628686"><ele>399.0</ele><time>2026-04-25T08:27:55.001Z</time></trkpt><trkpt lat="40.49312415537652" lon="8.49188274968462"><ele>399.0</ele><time>2026-04-25T08:27:56.001Z</time></trkpt><trkpt lat="40.493183685194616" lon="8.492045269550285"><ele>399.0</ele><time>2026-04-25T08:27:57.001Z</time></trkpt><trkpt lat="40.493265858671705" lon="8.492192674610273"><ele>399.0</ele><time>2026-04-25T08:27:58.001Z</time></trkpt><trkpt lat="40.49337508854924" lon="8.492319431603352"><ele>399.0</ele><time>2026-04-25T08:27:59.001Z</time></trkpt><trkpt lat="40.49349966602912" lon="8.492442455437972"><ele>399.0</ele><time>2026-04-25T08:28:00.001Z</time></trkpt><trkpt lat="40.493626585630366" lon="8.49257972619077"><ele>399.0</ele><time>2026-04-25T08:28:01.001Z</time></trkpt><trkpt lat="40.49375202241778" lon="8.492733340559829"><ele>399.0</ele><time>2026-04-25T08:28:02.001Z</time></trkpt><trkpt lat="40.49388051271815" lon="8.49289940114042"><ele>399.0</ele><time>2026-04-25T08:28:03.001Z</time></trkpt><trkpt lat="40.494002862895194" lon="8.493067837074777"><ele>398.33333333333337</ele><time>2026-04-25T08:28:04.001Z</time></trkpt><trkpt lat="40.49411214842712" lon="8.49323453282039"><ele>397.6666666666667</ele><time>2026-04-25T08:28:05.001Z</time></trkpt><trkpt lat="40.49422197045426" lon="8.493413442323885"><ele>397.0</ele><time>2026-04-25T08:28:06.001Z</time></trkpt><trkpt lat="40.49433277116397" lon="8.493594984485027"><ele>395.6666666666667</ele><time>2026-04-25T08:28:07.001Z</time></trkpt><trkpt lat="40.494447773655054" lon="8.49377680501402"><ele>394.33333333333337</ele><time>2026-04-25T08:28:08.001Z</time></trkpt><trkpt lat="40.494564546786314" lon="8.493962180132826"><ele>393.0</ele><time>2026-04-25T08:28:09.001Z</time></trkpt><trkpt lat="40.4946808523418" lon="8.494143903890109"><ele>393.0</ele><time>2026-04-25T08:28:10.001Z</time></trkpt><trkpt lat="40.4947879575841" lon="8.494314499065885"><ele>393.0</ele><time>2026-04-25T08:28:11.001Z</time></trkpt><trkpt lat="40.49488501506261" lon="8.494482461000656"><ele>393.0</ele><time>2026-04-25T08:28:12.001Z</time></trkpt><trkpt lat="40.49496816336663" lon="8.494652550937237"><ele>394.33333333333337</ele><time>2026-04-25T08:28:13.001Z</time></trkpt><trkpt lat="40.49503222217666" lon="8.494836301072167"><ele>395.6666666666667</ele><time>2026-04-25T08:28:14.001Z</time></trkpt><trkpt lat="40.49507892501191" lon="8.495043516323085"><ele>397.0</ele><time>2026-04-25T08:28:15.001Z</time></trkpt><trkpt lat="40.495111657501866" lon="8.495265673272133"><ele>397.0</ele><time>2026-04-25T08:28:16.001Z</time></trkpt><trkpt lat="40.49513923975489" lon="8.495486460427227"><ele>397.0</ele><time>2026-04-25T08:28:17.001Z</time></trkpt><trkpt lat="40.49517345578001" lon="8.495691912498536"><ele>397.0</ele><time>2026-04-25T08:28:18.001Z</time></trkpt><trkpt lat="40.49522796473451" lon="8.495889500088515"><ele>397.0</ele><time>2026-04-25T08:28:19.001Z</time></trkpt><trkpt lat="40.49530744309668" lon="8.496079790631011"><ele>397.0</ele><time>2026-04-25T08:28:20.001Z</time></trkpt><trkpt lat="40.49541770998809" lon="8.49626055348746"><ele>397.0</ele><time>2026-04-25T08:28:21.001Z</time></trkpt><trkpt lat="40.49554271439122" lon="8.49643874060348"><ele>394.6666666666667</ele><time>2026-04-25T08:28:22.001Z</time></trkpt><trkpt lat="40.49565971787195" lon="8.496608925480004"><ele>392.33333333333337</ele><time>2026-04-25T08:28:23.001Z</time></trkpt><trkpt lat="40.4957655304534" lon="8.496775566884452"><ele>390.0</ele><time>2026-04-25T08:28:24.001Z</time></trkpt><trkpt lat="40.49585809946571" lon="8.496944405509781"><ele>392.0</ele><time>2026-04-25T08:28:25.001Z</time></trkpt><trkpt lat="40.49593527801989" lon="8.49713061294088"><ele>394.0</ele><time>2026-04-25T08:28:26.001Z</time></trkpt><trkpt lat="40.49600073842765" lon="8.497339731334952"><ele>396.0</ele><time>2026-04-25T08:28:27.001Z</time></trkpt><trkpt lat="40.496053624041565" lon="8.497569446616245"><ele>396.0</ele><time>2026-04-25T08:28:28.001Z</time></trkpt><trkpt lat="40.496098958574414" lon="8.497818497333359"><ele>396.0</ele><time>2026-04-25T08:28:29.001Z</time></trkpt><trkpt lat="40.49614883444645" lon="8.49807792775643"><ele>396.0</ele><time>2026-04-25T08:28:30.001Z</time></trkpt><trkpt lat="40.49620319758011" lon="8.498343550063487"><ele>388.3333333333333</ele><time>2026-04-25T08:28:31.001Z</time></trkpt><trkpt lat="40.49625514681835" lon="8.49860196788918"><ele>380.66666666666663</ele><time>2026-04-25T08:28:32.001Z</time></trkpt><trkpt lat="40.496308652625984" lon="8.498860716172679"><ele>373.0</ele><time>2026-04-25T08:28:33.001Z</time></trkpt><trkpt lat="40.49636469100911" lon="8.499118351420998"><ele>373.0</ele><time>2026-04-25T08:28:34.001Z</time></trkpt><trkpt lat="40.49642087152555" lon="8.499382237491192"><ele>373.0</ele><time>2026-04-25T08:28:35.001Z</time></trkpt><trkpt lat="40.49647888988409" lon="8.49964727522297"><ele>373.0</ele><time>2026-04-25T08:28:36.001Z</time></trkpt><trkpt lat="40.49654131129992" lon="8.499911298818061"><ele>373.3333333333333</ele><time>2026-04-25T08:28:37.002Z</time></trkpt><trkpt lat="40.49660970280106" lon="8.500174882842495"><ele>373.6666666666667</ele><time>2026-04-25T08:28:38.002Z</time></trkpt><trkpt lat="40.49668419242318" lon="8.500436153353"><ele>374.0</ele><time>2026-04-25T08:28:39.002Z</time></trkpt><trkpt lat="40.49675784500757" lon="8.50069817943392"><ele>375.6666666666667</ele><time>2026-04-25T08:28:40.002Z</time></trkpt><trkpt lat="40.49683056484032" lon="8.500959674488302"><ele>377.3333333333333</ele><time>2026-04-25T08:28:41.002Z</time></trkpt><trkpt lat="40.496902956761986" lon="8.501220210251173"><ele>379.0</ele><time>2026-04-25T08:28:42.002Z</time></trkpt><trkpt lat="40.496975737388546" lon="8.501480403376785"><ele>380.0</ele><time>2026-04-25T08:28:43.002Z</time></trkpt><trkpt lat="40.49704401689368" lon="8.501735616718932"><ele>381.0</ele><time>2026-04-25T08:28:44.002Z</time></trkpt><trkpt lat="40.49710070272817" lon="8.50198451925895"><ele>382.0</ele><time>2026-04-25T08:28:45.002Z</time></trkpt><trkpt lat="40.49715552260783" lon="8.502228487842817"><ele>375.66666666666663</ele><time>2026-04-25T08:28:46.002Z</time></trkpt><trkpt lat="40.497209388310395" lon="8.502473384216525"><ele>369.3333333333333</ele><time>2026-04-25T08:28:47.002Z</time></trkpt><trkpt lat="40.49725916933892" lon="8.50272200505606"><ele>363.0</ele><time>2026-04-25T08:28:48.002Z</time></trkpt><trkpt lat="40.497309036037315" lon="8.502972865630818"><ele>363.0</ele><time>2026-04-25T08:28:49.002Z</time></trkpt><trkpt lat="40.49735964938713" lon="8.503225710649156"><ele>363.0</ele><time>2026-04-25T08:28:50.002Z</time></trkpt><trkpt lat="40.49740730706141" lon="8.503471871101462"><ele>363.0</ele><time>2026-04-25T08:28:51.002Z</time></trkpt><trkpt lat="40.49745162679829" lon="8.503710927523192"><ele>362.6666666666667</ele><time>2026-04-25T08:28:52.002Z</time></trkpt><trkpt lat="40.497492250443074" lon="8.503944118730352"><ele>362.33333333333337</ele><time>2026-04-25T08:28:53.002Z</time></trkpt><trkpt lat="40.497526123961286" lon="8.50417235651564"><ele>362.0</ele><time>2026-04-25T08:28:54.002Z</time></trkpt><trkpt lat="40.49755236251864" lon="8.504397414994658"><ele>360.6666666666667</ele><time>2026-04-25T08:28:55.002Z</time></trkpt><trkpt lat="40.49757310614175" lon="8.504614064052644"><ele>359.3333333333333</ele><time>2026-04-25T08:28:56.002Z</time></trkpt><trkpt lat="40.4975890119488" lon="8.504819316252417"><ele>358.0</ele><time>2026-04-25T08:28:57.002Z</time></trkpt><trkpt lat="40.49758847409825" lon="8.505014178033306"><ele>358.0</ele><time>2026-04-25T08:28:58.002Z</time></trkpt><trkpt lat="40.4975595386494" lon="8.505204401332364"><ele>358.0</ele><time>2026-04-25T08:28:59.002Z</time></trkpt><trkpt lat="40.49750383698441" lon="8.505380709828543"><ele>358.0</ele><time>2026-04-25T08:29:00.002Z</time></trkpt><trkpt lat="40.49740692075959" lon="8.505516877277286"><ele>358.0</ele><time>2026-04-25T08:29:01.002Z</time></trkpt><trkpt lat="40.4973051939025" lon="8.505638625435633"><ele>356.5</ele><time>2026-04-25T08:29:02.002Z</time></trkpt><trkpt lat="40.497196250105354" lon="8.505710855213536"><ele>355.0</ele><time>2026-04-25T08:29:03.002Z</time></trkpt><trkpt lat="40.49707909675323" lon="8.505735628579847"><ele>353.5</ele><time>2026-04-25T08:29:04.002Z</time></trkpt><trkpt lat="40.4969598536447" lon="8.505728063592498"><ele>352.0</ele><time>2026-04-25T08:29:05.002Z</time></trkpt><trkpt lat="40.49685913140876" lon="8.505669479957277"><ele>351.75</ele><time>2026-04-25T08:29:06.002Z</time></trkpt><trkpt lat="40.49674616661996" lon="8.505591865685656"><ele>351.5</ele><time>2026-04-25T08:29:07.002Z</time></trkpt><trkpt lat="40.496630644403105" lon="8.505503369830105"><ele>351.25</ele><time>2026-04-25T08:29:08.002Z</time></trkpt><trkpt lat="40.496520462475864" lon="8.50542398107079"><ele>351.0</ele><time>2026-04-25T08:29:09.002Z</time></trkpt><trkpt lat="40.49640398913973" lon="8.505364982983753"><ele>350.75</ele><time>2026-04-25T08:29:10.002Z</time></trkpt><trkpt lat="40.49627664380689" lon="8.505362479026564"><ele>350.5</ele><time>2026-04-25T08:29:11.002Z</time></trkpt><trkpt lat="40.49616237681626" lon="8.50543331995374"><ele>350.25</ele><time>2026-04-25T08:29:12.002Z</time></trkpt><trkpt lat="40.49606104860543" lon="8.505516548454624"><ele>350.0</ele><time>2026-04-25T08:29:13.002Z</time></trkpt><trkpt lat="40.49598453745209" lon="8.505637170821162"><ele>350.0</ele><time>2026-04-25T08:29:14.002Z</time></trkpt><trkpt lat="40.49593715460239" lon="8.50578487203957"><ele>350.0</ele><time>2026-04-25T08:29:15.002Z</time></trkpt><trkpt lat="40.49591634424488" lon="8.50595266311035"><ele>350.0</ele><time>2026-04-25T08:29:16.002Z</time></trkpt><trkpt lat="40.495925154276165" lon="8.506137291363858"><ele>350.0</ele><time>2026-04-25T08:29:17.002Z</time></trkpt><trkpt lat="40.495948676951016" lon="8.506326891717487"><ele>349.33333333333337</ele><time>2026-04-25T08:29:18.002Z</time></trkpt><trkpt lat="40.49599566279072" lon="8.506523658498832"><ele>348.6666666666667</ele><time>2026-04-25T08:29:19.002Z</time></trkpt><trkpt lat="40.496062171651154" lon="8.506716259297631"><ele>348.0</ele><time>2026-04-25T08:29:20.002Z</time></trkpt><trkpt lat="40.4961313523144" lon="8.506898758712982"><ele>347.0</ele><time>2026-04-25T08:29:21.002Z</time></trkpt><trkpt lat="40.496196497260044" lon="8.507079175082254"><ele>346.0</ele><time>2026-04-25T08:29:22.002Z</time></trkpt><trkpt lat="40.496257283739" lon="8.507255601054421"><ele>345.0</ele><time>2026-04-25T08:29:23.002Z</time></trkpt><trkpt lat="40.496305323931274" lon="8.507432086765544"><ele>344.0</ele><time>2026-04-25T08:29:24.002Z</time></trkpt><trkpt lat="40.49633467434419" lon="8.507614923403892"><ele>341.5</ele><time>2026-04-25T08:29:25.003Z</time></trkpt><trkpt lat="40.496338271705085" lon="8.507810826670864"><ele>339.0</ele><time>2026-04-25T08:29:26.003Z</time></trkpt><trkpt lat="40.496322370809196" lon="8.507998483272711"><ele>336.5</ele><time>2026-04-25T08:29:27.003Z</time></trkpt><trkpt lat="40.49629132083704" lon="8.508173939580333"><ele>334.0</ele><time>2026-04-25T08:29:28.003Z</time></trkpt><trkpt lat="40.49624222673356" lon="8.508325107316136"><ele>334.0</ele><time>2026-04-25T08:29:29.003Z</time></trkpt><trkpt lat="40.49616730681413" lon="8.508454042687456"><ele>334.0</ele><time>2026-04-25T08:29:30.003Z</time></trkpt><trkpt lat="40.49606125305377" lon="8.50852582195891"><ele>334.0</ele><time>2026-04-25T08:29:31.003Z</time></trkpt><trkpt lat="40.495954593678086" lon="8.508572177998124"><ele>334.0</ele><time>2026-04-25T08:29:32Z</time></trkpt><trkpt lat="40.4958288617875" lon="8.508591074101185"><ele>334.0</ele><time>2026-04-25T08:29:33Z</time></trkpt><trkpt lat="40.49569319669321" lon="8.508575670463559"><ele>334.0</ele><time>2026-04-25T08:29:34Z</time></trkpt><trkpt lat="40.495545615517756" lon="8.5085595603418"><ele>334.0</ele><time>2026-04-25T08:29:35Z</time></trkpt><trkpt lat="40.495391106484206" lon="8.508543575114512"><ele>334.0</ele><time>2026-04-25T08:29:36Z</time></trkpt><trkpt lat="40.49523427197888" lon="8.508527891817502"><ele>333.25</ele><time>2026-04-25T08:29:37Z</time></trkpt><trkpt lat="40.49508878647742" lon="8.508546989999585"><ele>332.5</ele><time>2026-04-25T08:29:38Z</time></trkpt><trkpt lat="40.494954383531905" lon="8.508583319182005"><ele>331.75</ele><time>2026-04-25T08:29:39Z</time></trkpt><trkpt lat="40.49483653042469" lon="8.508656884372408"><ele>331.0</ele><time>2026-04-25T08:29:40Z</time></trkpt><trkpt lat="40.49473751588023" lon="8.508760075904343"><ele>332.0</ele><time>2026-04-25T08:29:41Z</time></trkpt><trkpt lat="40.49464643688243" lon="8.50889017460787"><ele>333.0</ele><time>2026-04-25T08:29:42Z</time></trkpt><trkpt lat="40.49457477222088" lon="8.509054265501376"><ele>334.0</ele><time>2026-04-25T08:29:43Z</time></trkpt><trkpt lat="40.494524683726134" lon="8.509247309845872"><ele>335.0</ele><time>2026-04-25T08:29:44Z</time></trkpt><trkpt lat="40.494478872730724" lon="8.509442371321349"><ele>333.5</ele><time>2026-04-25T08:29:45Z</time></trkpt><trkpt lat="40.4944316844447" lon="8.509619513206662"><ele>332.0</ele><time>2026-04-25T08:29:46Z</time></trkpt><trkpt lat="40.4943751947134" lon="8.509783074033283"><ele>330.5</ele><time>2026-04-25T08:29:47Z</time></trkpt><trkpt lat="40.49429654343753" lon="8.509921524481708"><ele>329.0</ele><time>2026-04-25T08:29:48Z</time></trkpt><trkpt lat="40.494200257963826" lon="8.510031454588637"><ele>329.0</ele><time>2026-04-25T08:29:49Z</time></trkpt><trkpt lat="40.4940873580275" lon="8.510112765020512"><ele>329.0</ele><time>2026-04-25T08:29:50Z</time></trkpt><trkpt lat="40.49395776048084" lon="8.510162209680704"><ele>329.0</ele><time>2026-04-25T08:29:51Z</time></trkpt><trkpt lat="40.49381043991847" lon="8.510142453065322"><ele>329.0</ele><time>2026-04-25T08:29:52Z</time></trkpt><trkpt lat="40.493640289204244" lon="8.510130704821249"><ele>328.0</ele><time>2026-04-25T08:29:53Z</time></trkpt><trkpt lat="40.493454893475906" lon="8.510114803325484"><ele>327.0</ele><time>2026-04-25T08:29:54Z</time></trkpt><trkpt lat="40.49327134796121" lon="8.510118859955535"><ele>326.0</ele><time>2026-04-25T08:29:55Z</time></trkpt><trkpt lat="40.49309824132242" lon="8.510084052330985"><ele>326.0</ele><time>2026-04-25T08:29:56.001Z</time></trkpt><trkpt lat="40.49292968098589" lon="8.51008880668822"><ele>326.0</ele><time>2026-04-25T08:29:57.001Z</time></trkpt><trkpt lat="40.492765114479205" lon="8.510120768911532"><ele>326.0</ele><time>2026-04-25T08:29:58.001Z</time></trkpt><trkpt lat="40.49259547213621" lon="8.510173721047561"><ele>325.33333333333337</ele><time>2026-04-25T08:29:59.001Z</time></trkpt><trkpt lat="40.49243024552542" lon="8.510246490488703"><ele>324.6666666666667</ele><time>2026-04-25T08:30:00.001Z</time></trkpt><trkpt lat="40.4922666032813" lon="8.510320793664212"><ele>324.0</ele><time>2026-04-25T08:30:01.001Z</time></trkpt><trkpt lat="40.492112635905265" lon="8.510390532459496"><ele>321.0</ele><time>2026-04-25T08:30:02.001Z</time></trkpt><trkpt lat="40.491963778419056" lon="8.510459857061946"><ele>318.0</ele><time>2026-04-25T08:30:03.001Z</time></trkpt><trkpt lat="40.49181836626891" lon="8.51052694005876"><ele>315.0</ele><time>2026-04-25T08:30:04.001Z</time></trkpt><trkpt lat="40.49167198657014" lon="8.510594119617869"><ele>315.0</ele><time>2026-04-25T08:30:05.001Z</time></trkpt><trkpt lat="40.49151686944157" lon="8.510665309229609"><ele>315.0</ele><time>2026-04-25T08:30:06.001Z</time></trkpt><trkpt lat="40.49135707513218" lon="8.510738645350035"><ele>315.0</ele><time>2026-04-25T08:30:07.001Z</time></trkpt><trkpt lat="40.49119372870559" lon="8.510814091473252"><ele>313.6666666666667</ele><time>2026-04-25T08:30:08.001Z</time></trkpt><trkpt lat="40.49102880794522" lon="8.510891346844874"><ele>312.33333333333337</ele><time>2026-04-25T08:30:09.001Z</time></trkpt><trkpt lat="40.490870904429485" lon="8.510965315091322"><ele>311.0</ele><time>2026-04-25T08:30:10.001Z</time></trkpt><trkpt lat="40.49071823130088" lon="8.511037832627496"><ele>311.0</ele><time>2026-04-25T08:30:11.001Z</time></trkpt><trkpt lat="40.490572900763624" lon="8.511131422317542"><ele>311.0</ele><time>2026-04-25T08:30:12.001Z</time></trkpt><trkpt lat="40.490449954771044" lon="8.511244870573622"><ele>311.0</ele><time>2026-04-25T08:30:13.001Z</time></trkpt><trkpt lat="40.49034672128968" lon="8.51135175069702"><ele>311.0</ele><time>2026-04-25T08:30:14.001Z</time></trkpt><trkpt lat="40.49023514263036" lon="8.511433494479329"><ele>309.0</ele><time>2026-04-25T08:30:15.001Z</time></trkpt><trkpt lat="40.4901126187838" lon="8.511478163131347"><ele>307.0</ele><time>2026-04-25T08:30:16.001Z</time></trkpt><trkpt lat="40.489978858654425" lon="8.511481248917892"><ele>305.0</ele><time>2026-04-25T08:30:17.001Z</time></trkpt><trkpt lat="40.4898318793698" lon="8.511448827906971"><ele>303.0</ele><time>2026-04-25T08:30:18.001Z</time></trkpt><trkpt lat="40.489676060737786" lon="8.511413425171556"><ele>302.25</ele><time>2026-04-25T08:30:19.001Z</time></trkpt><trkpt lat="40.48953057279315" lon="8.51138036969402"><ele>301.5</ele><time>2026-04-25T08:30:20.001Z</time></trkpt><trkpt lat="40.489389367679124" lon="8.511352751369051"><ele>300.75</ele><time>2026-04-25T08:30:21.001Z</time></trkpt><trkpt lat="40.48925040840452" lon="8.511355277560533"><ele>300.0</ele><time>2026-04-25T08:30:22.001Z</time></trkpt><trkpt lat="40.489116293283814" lon="8.51139268294471"><ele>300.0</ele><time>2026-04-25T08:30:23.001Z</time></trkpt><trkpt lat="40.48900237478156" lon="8.511490055398493"><ele>300.0</ele><time>2026-04-25T08:30:24.001Z</time></trkpt><trkpt lat="40.48888955359076" lon="8.511611424734182"><ele>300.0</ele><time>2026-04-25T08:30:25.001Z</time></trkpt><trkpt lat="40.48878642903356" lon="8.511768280914524"><ele>300.0</ele><time>2026-04-25T08:30:26.001Z</time></trkpt><trkpt lat="40.488681926923334" lon="8.51194581675356"><ele>298.6666666666667</ele><time>2026-04-25T08:30:27.001Z</time></trkpt><trkpt lat="40.48858218709481" lon="8.512115153857126"><ele>297.33333333333337</ele><time>2026-04-25T08:30:28.001Z</time></trkpt><trkpt lat="40.48848692267261" lon="8.512271325903725"><ele>296.0</ele><time>2026-04-25T08:30:29.001Z</time></trkpt><trkpt lat="40.4884106101207" lon="8.512431369460336"><ele>296.0</ele><time>2026-04-25T08:30:30.001Z</time></trkpt><trkpt lat="40.48837020770459" lon="8.512602565295866"><ele>296.0</ele><time>2026-04-25T08:30:31.001Z</time></trkpt><trkpt lat="40.48836229366299" lon="8.512783530329884"><ele>296.0</ele><time>2026-04-25T08:30:32.001Z</time></trkpt><trkpt lat="40.488383080449" lon="8.512972145555436"><ele>296.0</ele><time>2026-04-25T08:30:33.001Z</time></trkpt><trkpt lat="40.48843587736144" lon="8.513164425952628"><ele>296.0</ele><time>2026-04-25T08:30:34.001Z</time></trkpt><trkpt lat="40.48851326533556" lon="8.51335993830168"><ele>296.0</ele><time>2026-04-25T08:30:35.001Z</time></trkpt><trkpt lat="40.488600247826454" lon="8.513562235324443"><ele>296.0</ele><time>2026-04-25T08:30:36.001Z</time></trkpt><trkpt lat="40.4886901971236" lon="8.513771226601053"><ele>294.33333333333337</ele><time>2026-04-25T08:30:37.001Z</time></trkpt><trkpt lat="40.48877144622446" lon="8.51396206827575"><ele>292.6666666666667</ele><time>2026-04-25T08:30:38.001Z</time></trkpt><trkpt lat="40.48884416901341" lon="8.514144542145843"><ele>291.0</ele><time>2026-04-25T08:30:39.001Z</time></trkpt><trkpt lat="40.48890154241064" lon="8.514325553303927"><ele>291.0</ele><time>2026-04-25T08:30:40.001Z</time></trkpt><trkpt lat="40.48893221218837" lon="8.514506140982267"><ele>291.0</ele><time>2026-04-25T08:30:41.001Z</time></trkpt><trkpt lat="40.48892499814606" lon="8.51468210777097"><ele>291.0</ele><time>2026-04-25T08:30:42.001Z</time></trkpt><trkpt lat="40.48888850471474" lon="8.514858356832283"><ele>291.0</ele><time>2026-04-25T08:30:43.001Z</time></trkpt><trkpt lat="40.4888216058771" lon="8.515043010113985"><ele>291.0</ele><time>2026-04-25T08:30:44.002Z</time></trkpt><trkpt lat="40.488733534518204" lon="8.515232861936259"><ele>291.0</ele><time>2026-04-25T08:30:45.002Z</time></trkpt><trkpt lat="40.488638927554945" lon="8.51541521940456"><ele>291.0</ele><time>2026-04-25T08:30:46.002Z</time></trkpt><trkpt lat="40.48854099156614" lon="8.515604105252898"><ele>291.0</ele><time>2026-04-25T08:30:47.002Z</time></trkpt><trkpt lat="40.48843702221043" lon="8.515798382422457"><ele>291.0</ele><time>2026-04-25T08:30:48.002Z</time></trkpt><trkpt lat="40.488327197853984" lon="8.51599639195873"><ele>291.0</ele><time>2026-04-25T08:30:49.002Z</time></trkpt><trkpt lat="40.488223308903144" lon="8.516184079163455"><ele>287.6666666666667</ele><time>2026-04-25T08:30:50.002Z</time></trkpt><trkpt lat="40.488124938647175" lon="8.51636783946433"><ele>284.33333333333337</ele><time>2026-04-25T08:30:51.002Z</time></trkpt><trkpt lat="40.48803101823301" lon="8.516546395735942"><ele>281.0</ele><time>2026-04-25T08:30:52.002Z</time></trkpt><trkpt lat="40.4879369173199" lon="8.516717137499606"><ele>281.6666666666667</ele><time>2026-04-25T08:30:53.002Z</time></trkpt><trkpt lat="40.48784182016623" lon="8.516890283473504"><ele>282.3333333333333</ele><time>2026-04-25T08:30:54.002Z</time></trkpt><trkpt lat="40.4877512456263" lon="8.517059053628333"><ele>283.0</ele><time>2026-04-25T08:30:55.002Z</time></trkpt><trkpt lat="40.48766305028877" lon="8.517220778696657"><ele>283.0</ele><time>2026-04-25T08:30:56.002Z</time></trkpt><trkpt lat="40.487578160368464" lon="8.517377065790743"><ele>283.0</ele><time>2026-04-25T08:30:57.002Z</time></trkpt><trkpt lat="40.487500969310176" lon="8.517519309925259"><ele>283.0</ele><time>2026-04-25T08:30:58.002Z</time></trkpt><trkpt lat="40.48742432438644" lon="8.517648923735797"><ele>283.0</ele><time>2026-04-25T08:30:59.002Z</time></trkpt><trkpt lat="40.4873392688922" lon="8.517766573646202"><ele>283.0</ele><time>2026-04-25T08:31:00.002Z</time></trkpt><trkpt lat="40.48723450393835" lon="8.517844202614809"><ele>283.0</ele><time>2026-04-25T08:31:01.002Z</time></trkpt><trkpt lat="40.48713197366692" lon="8.51793262067353"><ele>283.0</ele><time>2026-04-25T08:31:02.002Z</time></trkpt><trkpt lat="40.48702901656502" lon="8.518044408711276"><ele>283.0</ele><time>2026-04-25T08:31:03.002Z</time></trkpt><trkpt lat="40.486904510251776" lon="8.518123803230775"><ele>281.66666666666663</ele><time>2026-04-25T08:31:04.002Z</time></trkpt><trkpt lat="40.486781850238266" lon="8.518226898773818"><ele>280.3333333333333</ele><time>2026-04-25T08:31:05.002Z</time></trkpt><trkpt lat="40.48664583495875" lon="8.518342317479481"><ele>279.0</ele><time>2026-04-25T08:31:06.002Z</time></trkpt><trkpt lat="40.48650390368861" lon="8.518464579967867"><ele>279.0</ele><time>2026-04-25T08:31:07.002Z</time></trkpt><trkpt lat="40.48636228879423" lon="8.518583456355943"><ele>279.0</ele><time>2026-04-25T08:31:08.002Z</time></trkpt><trkpt lat="40.48621174593136" lon="8.518709502202803"><ele>279.0</ele><time>2026-04-25T08:31:09.002Z</time></trkpt><trkpt lat="40.486056483584605" lon="8.518841414464646"><ele>277.0</ele><time>2026-04-25T08:31:10.002Z</time></trkpt><trkpt lat="40.48590404438401" lon="8.518972528916498"><ele>275.0</ele><time>2026-04-25T08:31:11.002Z</time></trkpt><trkpt lat="40.485758372396" lon="8.519096963588092"><ele>273.0</ele><time>2026-04-25T08:31:12.002Z</time></trkpt><trkpt lat="40.4856173265886" lon="8.519216056414848"><ele>273.0</ele><time>2026-04-25T08:31:13.002Z</time></trkpt><trkpt lat="40.48548021484991" lon="8.519331827531087"><ele>273.0</ele><time>2026-04-25T08:31:14.002Z</time></trkpt><trkpt lat="40.48533921355102" lon="8.519436133544314"><ele>273.0</ele><time>2026-04-25T08:31:15.002Z</time></trkpt><trkpt lat="40.485179892252525" lon="8.519517180481682"><ele>271.0</ele><time>2026-04-25T08:31:16.002Z</time></trkpt><trkpt lat="40.48501189769237" lon="8.519590804259167"><ele>269.0</ele><time>2026-04-25T08:31:17.002Z</time></trkpt><trkpt lat="40.484839325006504" lon="8.51966643433846"><ele>267.0</ele><time>2026-04-25T08:31:18.002Z</time></trkpt><trkpt lat="40.48467845455582" lon="8.519754919971335"><ele>267.6666666666667</ele><time>2026-04-25T08:31:19.002Z</time></trkpt><trkpt lat="40.48451851636085" lon="8.519823158936443"><ele>268.33333333333337</ele><time>2026-04-25T08:31:20.002Z</time></trkpt><trkpt lat="40.48435653379744" lon="8.51987816598338"><ele>269.0</ele><time>2026-04-25T08:31:21.002Z</time></trkpt><trkpt lat="40.48419740479959" lon="8.519977018677936"><ele>269.0</ele><time>2026-04-25T08:31:22.002Z</time></trkpt><trkpt lat="40.484060237261225" lon="8.520131332626454"><ele>269.0</ele><time>2026-04-25T08:31:23.002Z</time></trkpt><trkpt lat="40.483917677637876" lon="8.520268058681356"><ele>269.0</ele><time>2026-04-25T08:31:24.002Z</time></trkpt><trkpt lat="40.48378620594431" lon="8.520402269427843"><ele>267.33333333333337</ele><time>2026-04-25T08:31:25.002Z</time></trkpt><trkpt lat="40.48365826740166" lon="8.520532213922058"><ele>265.6666666666667</ele><time>2026-04-25T08:31:26.002Z</time></trkpt><trkpt lat="40.48353354128807" lon="8.520657710611056"><ele>264.0</ele><time>2026-04-25T08:31:27.002Z</time></trkpt><trkpt lat="40.48341664213072" lon="8.520784610856813"><ele>264.0</ele><time>2026-04-25T08:31:28.002Z</time></trkpt><trkpt lat="40.48331678961616" lon="8.520927554099584"><ele>264.0</ele><time>2026-04-25T08:31:29.002Z</time></trkpt><trkpt lat="40.48323540333918" lon="8.521089161156985"><ele>264.0</ele><time>2026-04-25T08:31:30.002Z</time></trkpt><trkpt lat="40.483176525307464" lon="8.521276838729385"><ele>264.0</ele><time>2026-04-25T08:31:31.002Z</time></trkpt><trkpt lat="40.48313329286494" lon="8.521488905855946"><ele>262.3333333333333</ele><time>2026-04-25T08:31:32.002Z</time></trkpt><trkpt lat="40.48309971605194" lon="8.521716485582983"><ele>260.66666666666663</ele><time>2026-04-25T08:31:33.003Z</time></trkpt><trkpt lat="40.483062880412014" lon="8.521953887286353"><ele>259.0</ele><time>2026-04-25T08:31:34.003Z</time></trkpt><trkpt lat="40.48302421795952" lon="8.522202073608295"><ele>258.66666666666663</ele><time>2026-04-25T08:31:35.003Z</time></trkpt><trkpt lat="40.48298284083738" lon="8.52245486280629"><ele>258.3333333333333</ele><time>2026-04-25T08:31:36.003Z</time></trkpt><trkpt lat="40.48294269299597" lon="8.52269598966777"><ele>258.0</ele><time>2026-04-25T08:31:37.003Z</time></trkpt><trkpt lat="40.48290160285116" lon="8.522930945461662"><ele>258.0</ele><time>2026-04-25T08:31:38Z</time></trkpt><trkpt lat="40.482862608751574" lon="8.523158594178023"><ele>258.0</ele><time>2026-04-25T08:31:39Z</time></trkpt><trkpt lat="40.4828240007874" lon="8.5233813665418"><ele>258.0</ele><time>2026-04-25T08:31:40Z</time></trkpt><trkpt lat="40.48278651205306" lon="8.523599130568922"><ele>254.0</ele><time>2026-04-25T08:31:41Z</time></trkpt><trkpt lat="40.48274639543673" lon="8.523813583444689"><ele>250.0</ele><time>2026-04-25T08:31:42Z</time></trkpt><trkpt lat="40.48269479809561" lon="8.524027168741876"><ele>246.0</ele><time>2026-04-25T08:31:43Z</time></trkpt><trkpt lat="40.482622924943115" lon="8.524237462976362"><ele>246.0</ele><time>2026-04-25T08:31:44Z</time></trkpt><trkpt lat="40.4825373096134" lon="8.524435666468989"><ele>246.0</ele><time>2026-04-25T08:31:45Z</time></trkpt><trkpt lat="40.48243882238668" lon="8.52463023799171"><ele>246.0</ele><time>2026-04-25T08:31:46Z</time></trkpt><trkpt lat="40.48232471712291" lon="8.524820060286995"><ele>243.33333333333331</ele><time>2026-04-25T08:31:47Z</time></trkpt><trkpt lat="40.48219410135612" lon="8.52500889363484"><ele>240.66666666666666</ele><time>2026-04-25T08:31:48Z</time></trkpt><trkpt lat="40.48205130801068" lon="8.525201760713811"><ele>238.0</ele><time>2026-04-25T08:31:49Z</time></trkpt><trkpt lat="40.48191012345416" lon="8.52539432538905"><ele>236.66666666666666</ele><time>2026-04-25T08:31:50Z</time></trkpt><trkpt lat="40.48176725947447" lon="8.525588608379806"><ele>235.33333333333331</ele><time>2026-04-25T08:31:51Z</time></trkpt><trkpt lat="40.48162303311829" lon="8.5257856157973"><ele>234.0</ele><time>2026-04-25T08:31:52Z</time></trkpt><trkpt lat="40.48147730617601" lon="8.525988343827184"><ele>234.0</ele><time>2026-04-25T08:31:53Z</time></trkpt><trkpt lat="40.48133042989814" lon="8.526192092544179"><ele>234.0</ele><time>2026-04-25T08:31:54Z</time></trkpt><trkpt lat="40.48118221777334" lon="8.526396580015328"><ele>234.0</ele><time>2026-04-25T08:31:55Z</time></trkpt><trkpt lat="40.48103309084502" lon="8.526603368507601"><ele>233.66666666666669</ele><time>2026-04-25T08:31:56Z</time></trkpt><trkpt lat="40.48088303902802" lon="8.526809884433577"><ele>233.33333333333334</ele><time>2026-04-25T08:31:57Z</time></trkpt><trkpt lat="40.48073154101296" lon="8.527017272886363"><ele>233.0</ele><time>2026-04-25T08:31:58Z</time></trkpt><trkpt lat="40.480579242944756" lon="8.527225254536685"><ele>236.0</ele><time>2026-04-25T08:31:59Z</time></trkpt><trkpt lat="40.48042697643611" lon="8.527431698212023"><ele>239.0</ele><time>2026-04-25T08:32:00Z</time></trkpt><trkpt lat="40.4802699063288" lon="8.527631983137667"><ele>242.0</ele><time>2026-04-25T08:32:01Z</time></trkpt><trkpt lat="40.48010563231286" lon="8.527820540090877"><ele>243.66666666666669</ele><time>2026-04-25T08:32:02Z</time></trkpt><trkpt lat="40.47993356578983" lon="8.527998667324344"><ele>245.33333333333331</ele><time>2026-04-25T08:32:03Z</time></trkpt><trkpt lat="40.479760511523395" lon="8.528172413181082"><ele>247.0</ele><time>2026-04-25T08:32:04Z</time></trkpt><trkpt lat="40.47958732157192" lon="8.52834974575585"><ele>247.0</ele><time>2026-04-25T08:32:05Z</time></trkpt><trkpt lat="40.47942009289869" lon="8.528516446610492"><ele>247.0</ele><time>2026-04-25T08:32:06.001Z</time></trkpt><trkpt lat="40.479261500279456" lon="8.528669446501809"><ele>247.0</ele><time>2026-04-25T08:32:07.001Z</time></trkpt><trkpt lat="40.47910655736695" lon="8.528808674347982"><ele>246.0</ele><time>2026-04-25T08:32:08.001Z</time></trkpt><trkpt lat="40.47894556226241" lon="8.528930659316599"><ele>245.0</ele><time>2026-04-25T08:32:09.001Z</time></trkpt><trkpt lat="40.478774265004866" lon="8.529033862466141"><ele>244.0</ele><time>2026-04-25T08:32:10.001Z</time></trkpt><trkpt lat="40.47859971644019" lon="8.52911421995461"><ele>244.0</ele><time>2026-04-25T08:32:11.001Z</time></trkpt><trkpt lat="40.478416108711315" lon="8.52916847359536"><ele>244.0</ele><time>2026-04-25T08:32:12.001Z</time></trkpt><trkpt lat="40.47822258398882" lon="8.529200893114764"><ele>244.0</ele><time>2026-04-25T08:32:13.001Z</time></trkpt><trkpt lat="40.478020200796344" lon="8.529189506428139"><ele>243.33333333333331</ele><time>2026-04-25T08:32:14.001Z</time></trkpt><trkpt lat="40.47781404815136" lon="8.52919615478387"><ele>242.66666666666669</ele><time>2026-04-25T08:32:15.001Z</time></trkpt><trkpt lat="40.47761252759156" lon="8.529219914896952"><ele>242.0</ele><time>2026-04-25T08:32:16.001Z</time></trkpt><trkpt lat="40.4774238440424" lon="8.529221214582572"><ele>242.0</ele><time>2026-04-25T08:32:17.001Z</time></trkpt><trkpt lat="40.477243263388516" lon="8.52923793335535"><ele>242.0</ele><time>2026-04-25T08:32:18.001Z</time></trkpt><trkpt lat="40.47706825678685" lon="8.529244500942072"><ele>242.0</ele><time>2026-04-25T08:32:19.001Z</time></trkpt><trkpt lat="40.476903768661245" lon="8.529296605644646"><ele>241.0</ele><time>2026-04-25T08:32:20.001Z</time></trkpt><trkpt lat="40.476743469866285" lon="8.529371495520063"><ele>240.0</ele><time>2026-04-25T08:32:21.001Z</time></trkpt><trkpt lat="40.47661127130086" lon="8.529470132710085"><ele>239.0</ele><time>2026-04-25T08:32:22.001Z</time></trkpt><trkpt lat="40.47649923129745" lon="8.529538104671602"><ele>238.0</ele><time>2026-04-25T08:32:23.001Z</time></trkpt><trkpt lat="40.47641515526876" lon="8.529593807675548"><ele>235.4</ele><time>2026-04-25T08:32:24.001Z</time></trkpt><trkpt lat="40.47635320205136" lon="8.52964763077978"><ele>232.8</ele><time>2026-04-25T08:32:25.001Z</time></trkpt><trkpt lat="40.47629450239254" lon="8.529710175195845"><ele>230.2</ele><time>2026-04-25T08:32:26.001Z</time></trkpt><trkpt lat="40.47622562686968" lon="8.529784833339729"><ele>227.6</ele><time>2026-04-25T08:32:27.001Z</time></trkpt><trkpt lat="40.47614676158508" lon="8.529876328998707"><ele>225.0</ele><time>2026-04-25T08:32:28.001Z</time></trkpt><trkpt lat="40.476060108516485" lon="8.529983130530322"><ele>221.0</ele><time>2026-04-25T08:32:29.001Z</time></trkpt><trkpt lat="40.4759593835994" lon="8.530109830738422"><ele>217.0</ele><time>2026-04-25T08:32:30.001Z</time></trkpt><trkpt lat="40.47584677482887" lon="8.53024907557319"><ele>213.0</ele><time>2026-04-25T08:32:31.001Z</time></trkpt><trkpt lat="40.47572987630579" lon="8.530391720453103"><ele>210.33333333333331</ele><time>2026-04-25T08:32:32.001Z</time></trkpt><trkpt lat="40.4755986560664" lon="8.53054943215174"><ele>207.66666666666666</ele><time>2026-04-25T08:32:33.001Z</time></trkpt><trkpt lat="40.475456636615775" lon="8.530721685296006"><ele>205.0</ele><time>2026-04-25T08:32:34.001Z</time></trkpt><trkpt lat="40.47531200092316" lon="8.530898141247075"><ele>205.0</ele><time>2026-04-25T08:32:35.001Z</time></trkpt><trkpt lat="40.47516490908892" lon="8.531077764744953"><ele>205.0</ele><time>2026-04-25T08:32:36.001Z</time></trkpt><trkpt lat="40.475013326237494" lon="8.531262504550224"><ele>205.0</ele><time>2026-04-25T08:32:37.001Z</time></trkpt><trkpt lat="40.4748562658455" lon="8.531452259345812"><ele>207.0</ele><time>2026-04-25T08:32:38.001Z</time></trkpt><trkpt lat="40.47469418612463" lon="8.531647006258499"><ele>209.0</ele><time>2026-04-25T08:32:39.001Z</time></trkpt><trkpt lat="40.47452644596848" lon="8.531846352488332"><ele>211.0</ele><time>2026-04-25T08:32:40.001Z</time></trkpt><trkpt lat="40.47436153134425" lon="8.53204467899171"><ele>218.0</ele><time>2026-04-25T08:32:41.001Z</time></trkpt><trkpt lat="40.47419928847071" lon="8.532242499256654"><ele>225.0</ele><time>2026-04-25T08:32:42.001Z</time></trkpt><trkpt lat="40.47403610726251" lon="8.532435884804455"><ele>232.0</ele><time>2026-04-25T08:32:43.001Z</time></trkpt><trkpt lat="40.47387593379592" lon="8.532623252550486"><ele>232.0</ele><time>2026-04-25T08:32:44.001Z</time></trkpt><trkpt lat="40.47372000429546" lon="8.532810692984098"><ele>232.0</ele><time>2026-04-25T08:32:45.001Z</time></trkpt><trkpt lat="40.47356754043016" lon="8.532997253175289"><ele>232.0</ele><time>2026-04-25T08:32:46.001Z</time></trkpt><trkpt lat="40.47341574018174" lon="8.533181489159244"><ele>232.0</ele><time>2026-04-25T08:32:47.001Z</time></trkpt><trkpt lat="40.47326383801213" lon="8.533361525797709"><ele>232.0</ele><time>2026-04-25T08:32:48.001Z</time></trkpt><trkpt lat="40.473107941707696" lon="8.533530615501306"><ele>232.0</ele><time>2026-04-25T08:32:49.001Z</time></trkpt><trkpt lat="40.472943906197436" lon="8.533688349510337"><ele>234.33333333333331</ele><time>2026-04-25T08:32:50.001Z</time></trkpt><trkpt lat="40.472772641414" lon="8.533837338976799"><ele>236.66666666666669</ele><time>2026-04-25T08:32:51.001Z</time></trkpt><trkpt lat="40.472593759463294" lon="8.533979948329879"><ele>239.0</ele><time>2026-04-25T08:32:52.001Z</time></trkpt><trkpt lat="40.47240442993575" lon="8.53412118886362"><ele>239.0</ele><time>2026-04-25T08:32:53.002Z</time></trkpt><trkpt lat="40.4722086186899" lon="8.534262321689777"><ele>239.0</ele><time>2026-04-25T08:32:54.002Z</time></trkpt><trkpt lat="40.47201254442519" lon="8.534399178159902"><ele>239.0</ele><time>2026-04-25T08:32:55.002Z</time></trkpt><trkpt lat="40.47181269176619" lon="8.534537065333424"><ele>242.66666666666669</ele><time>2026-04-25T08:32:56.002Z</time></trkpt><trkpt lat="40.47162441868738" lon="8.53466876694561"><ele>246.33333333333331</ele><time>2026-04-25T08:32:57.002Z</time></trkpt><trkpt lat="40.471449709196094" lon="8.534792843966638"><ele>250.0</ele><time>2026-04-25T08:32:58.002Z</time></trkpt><trkpt lat="40.47127742647615" lon="8.534884773788447"><ele>245.33333333333331</ele><time>2026-04-25T08:32:59.002Z</time></trkpt><trkpt lat="40.47111482638787" lon="8.535003333252849"><ele>240.66666666666669</ele><time>2026-04-25T08:33:00.002Z</time></trkpt><trkpt lat="40.47093582592924" lon="8.535061713404733"><ele>236.0</ele><time>2026-04-25T08:33:01.002Z</time></trkpt><trkpt lat="40.47077377528428" lon="8.535121697550153"><ele>236.0</ele><time>2026-04-25T08:33:02.002Z</time></trkpt><trkpt lat="40.47062084169897" lon="8.535162356528982"><ele>236.0</ele><time>2026-04-25T08:33:03.002Z</time></trkpt><trkpt lat="40.47047310762925" lon="8.53518774820699"><ele>236.0</ele><time>2026-04-25T08:33:04.002Z</time></trkpt><trkpt lat="40.47032217636762" lon="8.535222778972745"><ele>237.33333333333334</ele><time>2026-04-25T08:33:05.002Z</time></trkpt><trkpt lat="40.470161875258206" lon="8.535233925302766"><ele>238.66666666666669</ele><time>2026-04-25T08:33:06.002Z</time></trkpt><trkpt lat="40.46999663647421" lon="8.535252505586438"><ele>240.0</ele><time>2026-04-25T08:33:07.002Z</time></trkpt><trkpt lat="40.469824191402935" lon="8.535274125038514"><ele>240.0</ele><time>2026-04-25T08:33:08.002Z</time></trkpt><trkpt lat="40.46964278067719" lon="8.535269904308358"><ele>240.0</ele><time>2026-04-25T08:33:09.002Z</time></trkpt><trkpt lat="40.469476438587485" lon="8.535305478564762"><ele>240.0</ele><time>2026-04-25T08:33:10.002Z</time></trkpt><trkpt lat="40.46931857856611" lon="8.535322729770456"><ele>239.33333333333331</ele><time>2026-04-25T08:33:11.002Z</time></trkpt><trkpt lat="40.46916080232668" lon="8.535348135129093"><ele>238.66666666666666</ele><time>2026-04-25T08:33:12.002Z</time></trkpt><trkpt lat="40.469007349959796" lon="8.535386562961925"><ele>238.0</ele><time>2026-04-25T08:33:13.002Z</time></trkpt><trkpt lat="40.468853319280825" lon="8.535446319601814"><ele>239.33333333333331</ele><time>2026-04-25T08:33:14.002Z</time></trkpt><trkpt lat="40.46869895791501" lon="8.535529655167528"><ele>240.66666666666669</ele><time>2026-04-25T08:33:15.002Z</time></trkpt><trkpt lat="40.46855612306263" lon="8.535627970962942"><ele>242.0</ele><time>2026-04-25T08:33:16.002Z</time></trkpt><trkpt lat="40.468426855439674" lon="8.535738291389748"><ele>242.0</ele><time>2026-04-25T08:33:17.002Z</time></trkpt><trkpt lat="40.46831232515184" lon="8.535855572780243"><ele>242.0</ele><time>2026-04-25T08:33:18.002Z</time></trkpt><trkpt lat="40.46820493633008" lon="8.535990044752639"><ele>242.0</ele><time>2026-04-25T08:33:19.002Z</time></trkpt><trkpt lat="40.468102941014585" lon="8.536150914018549"><ele>241.66666666666669</ele><time>2026-04-25T08:33:20.002Z</time></trkpt><trkpt lat="40.46800221074258" lon="8.536330710546853"><ele>241.33333333333331</ele><time>2026-04-25T08:33:21.002Z</time></trkpt><trkpt lat="40.467894924718145" lon="8.53652446443294"><ele>241.0</ele><time>2026-04-25T08:33:22.002Z</time></trkpt><trkpt lat="40.467788526256854" lon="8.536733811431475"><ele>241.0</ele><time>2026-04-25T08:33:23.002Z</time></trkpt><trkpt lat="40.467689966672054" lon="8.536943521260708"><ele>241.0</ele><time>2026-04-25T08:33:24.002Z</time></trkpt><trkpt lat="40.46758557896424" lon="8.53716121226949"><ele>241.0</ele><time>2026-04-25T08:33:25.002Z</time></trkpt><trkpt lat="40.46747714852015" lon="8.53738469540803"><ele>239.66666666666666</ele><time>2026-04-25T08:33:26.002Z</time></trkpt><trkpt lat="40.467364370905074" lon="8.537616808566169"><ele>238.33333333333331</ele><time>2026-04-25T08:33:27.002Z</time></trkpt><trkpt lat="40.46724628349012" lon="8.537861790195304"><ele>237.0</ele><time>2026-04-25T08:33:28.002Z</time></trkpt><trkpt lat="40.46712255206567" lon="8.538114344889005"><ele>238.0</ele><time>2026-04-25T08:33:29.002Z</time></trkpt><trkpt lat="40.46699265289923" lon="8.538377866593606"><ele>239.0</ele><time>2026-04-25T08:33:30.002Z</time></trkpt><trkpt lat="40.4668651951947" lon="8.538639716115435"><ele>235.5</ele><time>2026-04-25T08:33:31.002Z</time></trkpt><trkpt lat="40.46673725991383" lon="8.538900697991643"><ele>232.0</ele><time>2026-04-25T08:33:32.002Z</time></trkpt><trkpt lat="40.46661672646512" lon="8.539147722009771"><ele>232.0</ele><time>2026-04-25T08:33:33.002Z</time></trkpt><trkpt lat="40.46650083914767" lon="8.539382627248274"><ele>232.0</ele><time>2026-04-25T08:33:34.002Z</time></trkpt><trkpt lat="40.46638970811631" lon="8.539606715534603"><ele>232.0</ele><time>2026-04-25T08:33:35.002Z</time></trkpt><trkpt lat="40.46628626635745" lon="8.539824527261073"><ele>232.66666666666666</ele><time>2026-04-25T08:33:36.002Z</time></trkpt><trkpt lat="40.46619412818272" lon="8.540041976247513"><ele>233.33333333333331</ele><time>2026-04-25T08:33:37.002Z</time></trkpt><trkpt lat="40.46610417078885" lon="8.540272918738475"><ele>234.0</ele><time>2026-04-25T08:33:38.002Z</time></trkpt><trkpt lat="40.466019732508315" lon="8.54050650194518"><ele>234.0</ele><time>2026-04-25T08:33:39.002Z</time></trkpt><trkpt lat="40.46594525974936" lon="8.540726263259165"><ele>234.0</ele><time>2026-04-25T08:33:40.002Z</time></trkpt><trkpt lat="40.46587611950613" lon="8.540937639294746"><ele>234.0</ele><time>2026-04-25T08:33:41.003Z</time></trkpt><trkpt lat="40.46580921790747" lon="8.541137508851127"><ele>235.5</ele><time>2026-04-25T08:33:42.003Z</time></trkpt><trkpt lat="40.46574568434077" lon="8.541329362273132"><ele>237.0</ele><time>2026-04-25T08:33:43.003Z</time></trkpt><trkpt lat="40.46568765587109" lon="8.54151064686254"><ele>238.5</ele><time>2026-04-25T08:33:44Z</time></trkpt><trkpt lat="40.46563733075144" lon="8.541681271773088"><ele>240.0</ele><time>2026-04-25T08:33:45Z</time></trkpt><trkpt lat="40.46560045044305" lon="8.541827440370868"><ele>240.0</ele><time>2026-04-25T08:33:46Z</time></trkpt><trkpt lat="40.465577553664474" lon="8.541954520141879"><ele>240.0</ele><time>2026-04-25T08:33:47Z</time></trkpt><trkpt lat="40.465570587294344" lon="8.542071471803423"><ele>240.0</ele><time>2026-04-25T08:33:48Z</time></trkpt><trkpt lat="40.465568450449354" lon="8.542183586699142"><ele>240.0</ele><time>2026-04-25T08:33:49Z</time></trkpt><trkpt lat="40.465566660427434" lon="8.542287635391721"><ele>240.0</ele><time>2026-04-25T08:33:50Z</time></trkpt><trkpt lat="40.46556552578958" lon="8.542386569339135"><ele>240.0</ele><time>2026-04-25T08:33:51Z</time></trkpt><trkpt lat="40.46556574117459" lon="8.542506325843526"><ele>240.2</ele><time>2026-04-25T08:33:52Z</time></trkpt><trkpt lat="40.46557026357541" lon="8.54264334714291"><ele>240.4</ele><time>2026-04-25T08:33:53Z</time></trkpt><trkpt lat="40.46557725033763" lon="8.54277377612254"><ele>240.60000000000002</ele><time>2026-04-25T08:33:54Z</time></trkpt><trkpt lat="40.4655857508914" lon="8.542892069229108"><ele>240.8</ele><time>2026-04-25T08:33:55Z</time></trkpt><trkpt lat="40.46559414141707" lon="8.543012367021843"><ele>241.0</ele><time>2026-04-25T08:33:56Z</time></trkpt><trkpt lat="40.46560251635934" lon="8.543150121154088"><ele>241.0</ele><time>2026-04-25T08:33:57Z</time></trkpt><trkpt lat="40.46561087035589" lon="8.54328828138659"><ele>241.00000000000003</ele><time>2026-04-25T08:33:58Z</time></trkpt><trkpt lat="40.46561960720536" lon="8.543438728234946"><ele>241.00000000000003</ele><time>2026-04-25T08:33:59Z</time></trkpt><trkpt lat="40.46562976429146" lon="8.54357879936563"><ele>241.0</ele><time>2026-04-25T08:34:00Z</time></trkpt><trkpt lat="40.46564005096821" lon="8.543734249234612"><ele>241.0</ele><time>2026-04-25T08:34:01Z</time></trkpt><trkpt lat="40.46565364567546" lon="8.543898284150515"><ele>236.25</ele><time>2026-04-25T08:34:02Z</time></trkpt><trkpt lat="40.46566752473016" lon="8.544069757244008"><ele>231.5</ele><time>2026-04-25T08:34:03Z</time></trkpt><trkpt lat="40.46568042007291" lon="8.54425235594786"><ele>226.75</ele><time>2026-04-25T08:34:04Z</time></trkpt><trkpt lat="40.465694684567914" lon="8.544447070615208"><ele>222.0</ele><time>2026-04-25T08:34:05Z</time></trkpt><trkpt lat="40.46570910676718" lon="8.544634766579668"><ele>221.33333333333331</ele><time>2026-04-25T08:34:06Z</time></trkpt><trkpt lat="40.465724349668015" lon="8.544830876611167"><ele>220.66666666666666</ele><time>2026-04-25T08:34:07Z</time></trkpt><trkpt lat="40.465738550659005" lon="8.545034220169827"><ele>220.0</ele><time>2026-04-25T08:34:08Z</time></trkpt><trkpt lat="40.46575516075837" lon="8.545242295025144"><ele>225.0</ele><time>2026-04-25T08:34:09Z</time></trkpt><trkpt lat="40.46577450687991" lon="8.545445251154911"><ele>230.0</ele><time>2026-04-25T08:34:10Z</time></trkpt><trkpt lat="40.46580549251273" lon="8.545647497390163"><ele>235.0</ele><time>2026-04-25T08:34:11Z</time></trkpt><trkpt lat="40.46585711069044" lon="8.545853061596691"><ele>235.0</ele><time>2026-04-25T08:34:12Z</time></trkpt><trkpt lat="40.46592912098146" lon="8.546067920062253"><ele>235.0</ele><time>2026-04-25T08:34:13Z</time></trkpt><trkpt lat="40.46601121419359" lon="8.546265462310744"><ele>235.0</ele><time>2026-04-25T08:34:14Z</time></trkpt><trkpt lat="40.46610297629583" lon="8.546456998256366"><ele>238.33333333333331</ele><time>2026-04-25T08:34:15Z</time></trkpt><trkpt lat="40.46619375917653" lon="8.546651074925121"><ele>241.66666666666669</ele><time>2026-04-25T08:34:16.001Z</time></trkpt><trkpt lat="40.46628247920286" lon="8.54684168413771"><ele>245.0</ele><time>2026-04-25T08:34:17.001Z</time></trkpt><trkpt lat="40.46637329426942" lon="8.547030196638408"><ele>241.0</ele><time>2026-04-25T08:34:18.001Z</time></trkpt><trkpt lat="40.46646181773954" lon="8.547220079160198"><ele>237.0</ele><time>2026-04-25T08:34:19.001Z</time></trkpt><trkpt lat="40.46654353574394" lon="8.54740742523489"><ele>233.0</ele><time>2026-04-25T08:34:20.001Z</time></trkpt><trkpt lat="40.46661896291753" lon="8.54760471146691"><ele>233.0</ele><time>2026-04-25T08:34:21.001Z</time></trkpt><trkpt lat="40.46668378659779" lon="8.547812627343289"><ele>233.0</ele><time>2026-04-25T08:34:22.001Z</time></trkpt><trkpt lat="40.466727075861996" lon="8.548043735861413"><ele>233.0</ele><time>2026-04-25T08:34:23.001Z</time></trkpt><trkpt lat="40.46676079883917" lon="8.548280960392004"><ele>235.0</ele><time>2026-04-25T08:34:24.001Z</time></trkpt><trkpt lat="40.466774050842396" lon="8.548527390241357"><ele>237.0</ele><time>2026-04-25T08:34:25.001Z</time></trkpt><trkpt lat="40.46676707568357" lon="8.548787826326327"><ele>239.0</ele><time>2026-04-25T08:34:26.001Z</time></trkpt><trkpt lat="40.46674832819181" lon="8.549053687361909"><ele>239.0</ele><time>2026-04-25T08:34:27.001Z</time></trkpt><trkpt lat="40.46672615944183" lon="8.549317141899566"><ele>239.0</ele><time>2026-04-25T08:34:28.001Z</time></trkpt><trkpt lat="40.46670632452426" lon="8.54958529732273"><ele>239.0</ele><time>2026-04-25T08:34:29.001Z</time></trkpt><trkpt lat="40.466689437164774" lon="8.549856272532454"><ele>239.33333333333334</ele><time>2026-04-25T08:34:30.001Z</time></trkpt><trkpt lat="40.46667169024989" lon="8.550114431859964"><ele>239.66666666666669</ele><time>2026-04-25T08:34:31.001Z</time></trkpt><trkpt lat="40.4666525258661" lon="8.550367800899329"><ele>240.0</ele><time>2026-04-25T08:34:32.001Z</time></trkpt><trkpt lat="40.46663301489748" lon="8.55060472711946"><ele>240.0</ele><time>2026-04-25T08:34:33.001Z</time></trkpt><trkpt lat="40.46661954957453" lon="8.55082965036245"><ele>240.0</ele><time>2026-04-25T08:34:34.001Z</time></trkpt><trkpt lat="40.466607303827296" lon="8.551042299535176"><ele>240.0</ele><time>2026-04-25T08:34:35.001Z</time></trkpt><trkpt lat="40.46659234836248" lon="8.551244957546512"><ele>240.25</ele><time>2026-04-25T08:34:36.001Z</time></trkpt><trkpt lat="40.46658882462459" lon="8.551429975822243"><ele>240.5</ele><time>2026-04-25T08:34:37.001Z</time></trkpt><trkpt lat="40.466600586426964" lon="8.5515958913271"><ele>240.75</ele><time>2026-04-25T08:34:38.001Z</time></trkpt><trkpt lat="40.466620012981984" lon="8.551747429557953"><ele>241.0</ele><time>2026-04-25T08:34:39.001Z</time></trkpt><trkpt lat="40.46664163173975" lon="8.551877983099635"><ele>240.99999999999997</ele><time>2026-04-25T08:34:40.001Z</time></trkpt><trkpt lat="40.46666483822746" lon="8.551988061313827"><ele>241.0</ele><time>2026-04-25T08:34:41.001Z</time></trkpt><trkpt lat="40.46668641444876" lon="8.552081373780396"><ele>241.0</ele><time>2026-04-25T08:34:42.001Z</time></trkpt><trkpt lat="40.466725416530295" lon="8.552215053119317"><ele>241.0</ele><time>2026-04-25T08:34:44.001Z</time></trkpt><trkpt lat="40.466756383352504" lon="8.552304845409164"><ele>240.99999999999997</ele><time>2026-04-25T08:34:46.001Z</time></trkpt><trkpt lat="40.46679780957954" lon="8.552389591024367"><ele>241.0</ele><time>2026-04-25T08:34:49.001Z</time></trkpt><trkpt lat="40.466834525776015" lon="8.552477786004646"><ele>239.5</ele><time>2026-04-25T08:34:50.001Z</time></trkpt><trkpt lat="40.46688583325696" lon="8.5526056788152"><ele>238.0</ele><time>2026-04-25T08:34:51.001Z</time></trkpt><trkpt lat="40.46695794195734" lon="8.552750518895847"><ele>236.5</ele><time>2026-04-25T08:34:52.001Z</time></trkpt><trkpt lat="40.46703741492843" lon="8.5529062900166"><ele>235.0</ele><time>2026-04-25T08:34:53.001Z</time></trkpt><trkpt lat="40.467125935125786" lon="8.553078900020816"><ele>231.66666666666666</ele><time>2026-04-25T08:34:54.001Z</time></trkpt><trkpt lat="40.467219312630235" lon="8.55326592412908"><ele>228.33333333333331</ele><time>2026-04-25T08:34:55.001Z</time></trkpt><trkpt lat="40.467313681860546" lon="8.553459109233156"><ele>225.0</ele><time>2026-04-25T08:34:56.001Z</time></trkpt><trkpt lat="40.46741316842848" lon="8.553660340066317"><ele>230.0</ele><time>2026-04-25T08:34:57.001Z</time></trkpt><trkpt lat="40.46751587623287" lon="8.553871132249045"><ele>235.0</ele><time>2026-04-25T08:34:58.001Z</time></trkpt><trkpt lat="40.46761341855806" lon="8.554068161242688"><ele>240.0</ele><time>2026-04-25T08:34:59.001Z</time></trkpt><trkpt lat="40.467710762743046" lon="8.55424803046096"><ele>240.0</ele><time>2026-04-25T08:35:00.002Z</time></trkpt><trkpt lat="40.46782733101754" lon="8.554437674633094"><ele>240.0</ele><time>2026-04-25T08:35:01.002Z</time></trkpt><trkpt lat="40.46795048501549" lon="8.554628069999234"><ele>240.0</ele><time>2026-04-25T08:35:02.002Z</time></trkpt><trkpt lat="40.46807890310172" lon="8.55481980873436"><ele>243.33333333333331</ele><time>2026-04-25T08:35:03.002Z</time></trkpt><trkpt lat="40.468210479700005" lon="8.555016792982322"><ele>246.66666666666666</ele><time>2026-04-25T08:35:04.002Z</time></trkpt><trkpt lat="40.468343278110694" lon="8.555207769453057"><ele>250.0</ele><time>2026-04-25T08:35:05.002Z</time></trkpt><trkpt lat="40.46846723228166" lon="8.555380876015837"><ele>253.0</ele><time>2026-04-25T08:35:06.002Z</time></trkpt><trkpt lat="40.468582452795665" lon="8.555545926936936"><ele>256.0</ele><time>2026-04-25T08:35:07.002Z</time></trkpt><trkpt lat="40.468691662804716" lon="8.555717248389639"><ele>259.0</ele><time>2026-04-25T08:35:08.002Z</time></trkpt><trkpt lat="40.46879903311266" lon="8.555888027767462"><ele>252.33333333333331</ele><time>2026-04-25T08:35:09.002Z</time></trkpt><trkpt lat="40.46889822212333" lon="8.556054580304638"><ele>245.66666666666669</ele><time>2026-04-25T08:35:10.002Z</time></trkpt><trkpt lat="40.46898958369577" lon="8.556239273118656"><ele>239.0</ele><time>2026-04-25T08:35:11.002Z</time></trkpt><trkpt lat="40.46906853462564" lon="8.556445713504433"><ele>239.0</ele><time>2026-04-25T08:35:12.002Z</time></trkpt><trkpt lat="40.46913692351296" lon="8.5566727655935"><ele>239.0</ele><time>2026-04-25T08:35:13.002Z</time></trkpt><trkpt lat="40.469193807043105" lon="8.556915627894984"><ele>239.0</ele><time>2026-04-25T08:35:14.002Z</time></trkpt><trkpt lat="40.469235713629644" lon="8.557167168440662"><ele>239.0</ele><time>2026-04-25T08:35:15.002Z</time></trkpt><trkpt lat="40.469263909558954" lon="8.557421411692724"><ele>239.0</ele><time>2026-04-25T08:35:16.002Z</time></trkpt><trkpt lat="40.469277197567784" lon="8.557671799699813"><ele>239.0</ele><time>2026-04-25T08:35:17.002Z</time></trkpt><trkpt lat="40.469275259284295" lon="8.557925622266582"><ele>240.0</ele><time>2026-04-25T08:35:18.002Z</time></trkpt><trkpt lat="40.46926008730928" lon="8.558180993765129"><ele>241.0</ele><time>2026-04-25T08:35:19.002Z</time></trkpt><trkpt lat="40.46923288901215" lon="8.558423016486023"><ele>242.0</ele><time>2026-04-25T08:35:20.002Z</time></trkpt><trkpt lat="40.469195260221454" lon="8.558645050844683"><ele>245.0</ele><time>2026-04-25T08:35:21.002Z</time></trkpt><trkpt lat="40.469145646537356" lon="8.558850807609634"><ele>248.0</ele><time>2026-04-25T08:35:22.002Z</time></trkpt><trkpt lat="40.46909001222356" lon="8.559045090171331"><ele>251.0</ele><time>2026-04-25T08:35:23.002Z</time></trkpt><trkpt lat="40.46903311241886" lon="8.559223647502993"><ele>251.0</ele><time>2026-04-25T08:35:24.002Z</time></trkpt><trkpt lat="40.46897695515055" lon="8.559389843780718"><ele>251.0</ele><time>2026-04-25T08:35:25.002Z</time></trkpt><trkpt lat="40.46892253721553" lon="8.559545450585286"><ele>251.0</ele><time>2026-04-25T08:35:26.002Z</time></trkpt><trkpt lat="40.46886874392481" lon="8.559688565015145"><ele>251.0</ele><time>2026-04-25T08:35:27.002Z</time></trkpt><trkpt lat="40.46882082994548" lon="8.559811249697539"><ele>251.0</ele><time>2026-04-25T08:35:28.002Z</time></trkpt><trkpt lat="40.46878927028965" lon="8.559911580477294"><ele>251.00000000000003</ele><time>2026-04-25T08:35:29.002Z</time></trkpt><trkpt lat="40.468767481229996" lon="8.560010909774629"><ele>251.00000000000003</ele><time>2026-04-25T08:35:30.002Z</time></trkpt><trkpt lat="40.46871245246328" lon="8.560119251571445"><ele>251.0</ele><time>2026-04-25T08:35:32.002Z</time></trkpt><trkpt lat="40.468890860259954" lon="8.560134225199363"><ele>251.0</ele><time>2026-04-25T08:35:34.002Z</time></trkpt><trkpt lat="40.468976179434634" lon="8.560072296473646"><ele>251.0</ele><time>2026-04-25T08:35:36.002Z</time></trkpt><trkpt lat="40.469027140950644" lon="8.559959102313805"><ele>251.0</ele><time>2026-04-25T08:35:37.002Z</time></trkpt><trkpt lat="40.46908236159869" lon="8.559810769387477"><ele>251.0</ele><time>2026-04-25T08:35:38.002Z</time></trkpt><trkpt lat="40.469157773205204" lon="8.559665323319257"><ele>251.0</ele><time>2026-04-25T08:35:39.002Z</time></trkpt><trkpt lat="40.469249420372336" lon="8.559508911230484"><ele>251.0</ele><time>2026-04-25T08:35:40.002Z</time></trkpt><trkpt lat="40.469346183418" lon="8.55934798108008"><ele>251.0</ele><time>2026-04-25T08:35:41.002Z</time></trkpt><trkpt lat="40.46942742462338" lon="8.559205376268988"><ele>251.0</ele><time>2026-04-25T08:35:42.002Z</time></trkpt><trkpt lat="40.46951524920291" lon="8.559075120254157"><ele>251.0</ele><time>2026-04-25T08:35:43.002Z</time></trkpt><trkpt lat="40.46957365388787" lon="8.55893889947859"><ele>254.66666666666669</ele><time>2026-04-25T08:35:44.002Z</time></trkpt><trkpt lat="40.46963582302933" lon="8.558841091658133"><ele>258.33333333333337</ele><time>2026-04-25T08:35:45.002Z</time></trkpt><trkpt lat="40.46969457829704" lon="8.55878276307019"><ele>262.0</ele><time>2026-04-25T08:35:46.002Z</time></trkpt><trkpt lat="40.4697670898031" lon="8.558765288433836"><ele>265.6666666666667</ele><time>2026-04-25T08:35:47.003Z</time></trkpt><trkpt lat="40.46985587843472" lon="8.5587787018624"><ele>269.3333333333333</ele><time>2026-04-25T08:35:48.003Z</time></trkpt><trkpt lat="40.46994471999565" lon="8.558786874555471"><ele>273.0</ele><time>2026-04-25T08:35:49Z</time></trkpt><trkpt lat="40.47002387019812" lon="8.558740837020245"><ele>268.25</ele><time>2026-04-25T08:35:50Z</time></trkpt><trkpt lat="40.47009675509548" lon="8.558646480018668"><ele>263.5</ele><time>2026-04-25T08:35:51Z</time></trkpt><trkpt lat="40.470167110690255" lon="8.558514830631601"><ele>258.75</ele><time>2026-04-25T08:35:52Z</time></trkpt><trkpt lat="40.470234342044364" lon="8.55837113328131"><ele>254.0</ele><time>2026-04-25T08:35:53Z</time></trkpt><trkpt lat="40.47030874465992" lon="8.558212193114356"><ele>254.0</ele><time>2026-04-25T08:35:54Z</time></trkpt><trkpt lat="40.470390007298995" lon="8.558054529683217"><ele>254.0</ele><time>2026-04-25T08:35:55Z</time></trkpt><trkpt lat="40.4704697388651" lon="8.55791660219358"><ele>254.0</ele><time>2026-04-25T08:35:56Z</time></trkpt><trkpt lat="40.470541068800806" lon="8.557781324861505"><ele>254.0</ele><time>2026-04-25T08:35:57Z</time></trkpt><trkpt lat="40.47059715852797" lon="8.557621696587978"><ele>258.5</ele><time>2026-04-25T08:35:58Z</time></trkpt><trkpt lat="40.47063597459727" lon="8.557430806524566"><ele>263.0</ele><time>2026-04-25T08:35:59Z</time></trkpt><trkpt lat="40.470664833546195" lon="8.557241316595318"><ele>267.5</ele><time>2026-04-25T08:36:00Z</time></trkpt><trkpt lat="40.47070589652402" lon="8.55706504332159"><ele>272.0</ele><time>2026-04-25T08:36:01Z</time></trkpt><trkpt lat="40.47076311972535" lon="8.556912330207425"><ele>272.0</ele><time>2026-04-25T08:36:02Z</time></trkpt><trkpt lat="40.47084768270526" lon="8.556761164374539"><ele>272.0</ele><time>2026-04-25T08:36:03Z</time></trkpt><trkpt lat="40.47094499031136" lon="8.556632226142927"><ele>272.0</ele><time>2026-04-25T08:36:04Z</time></trkpt><trkpt lat="40.47102255344187" lon="8.55651279487643"><ele>272.0</ele><time>2026-04-25T08:36:05Z</time></trkpt><trkpt lat="40.47107004903101" lon="8.556383990604598"><ele>271.99999999999994</ele><time>2026-04-25T08:36:06Z</time></trkpt><trkpt lat="40.47109187559104" lon="8.55625936827303"><ele>272.0</ele><time>2026-04-25T08:36:07Z</time></trkpt><trkpt lat="40.471117699812226" lon="8.55615478155363"><ele>272.0</ele><time>2026-04-25T08:36:08Z</time></trkpt><trkpt lat="40.47110236126773" lon="8.556073411020243"><ele>272.0</ele><time>2026-04-25T08:36:09Z</time></trkpt><trkpt lat="40.47111593657099" lon="8.55598875204707"><ele>272.0</ele><time>2026-04-25T08:36:11Z</time></trkpt><trkpt lat="40.471178940112196" lon="8.555968717318114"><ele>271.99999999999994</ele><time>2026-04-25T08:36:13Z</time></trkpt><trkpt lat="40.47122848303725" lon="8.556026800750802"><ele>272.0</ele><time>2026-04-25T08:36:15Z</time></trkpt><trkpt lat="40.47117280832884" lon="8.556161820163554"><ele>272.0</ele><time>2026-04-25T08:36:17Z</time></trkpt><trkpt lat="40.47114236031718" lon="8.556284982128103"><ele>272.0</ele><time>2026-04-25T08:36:18Z</time></trkpt><trkpt lat="40.47111633293999" lon="8.556435897067574"><ele>272.0</ele><time>2026-04-25T08:36:19Z</time></trkpt><trkpt lat="40.47109091374977" lon="8.556593524572"><ele>272.0</ele><time>2026-04-25T08:36:20Z</time></trkpt><trkpt lat="40.471074341657314" lon="8.556745242323698"><ele>272.0</ele><time>2026-04-25T08:36:21.001Z</time></trkpt><trkpt lat="40.470999190351236" lon="8.55685725685987"><ele>272.0</ele><time>2026-04-25T08:36:22.001Z</time></trkpt><trkpt lat="40.4709215180202" lon="8.556970101138324"><ele>272.0</ele><time>2026-04-25T08:36:23.001Z</time></trkpt><trkpt lat="40.47085437399454" lon="8.557067335583389"><ele>272.0</ele><time>2026-04-25T08:36:24.001Z</time></trkpt><trkpt lat="40.47080055047054" lon="8.557204570373813"><ele>272.0</ele><time>2026-04-25T08:36:25.001Z</time></trkpt><trkpt lat="40.47079664662364" lon="8.557398726884667"><ele>276.0</ele><time>2026-04-25T08:36:26.001Z</time></trkpt><trkpt lat="40.4707741273742" lon="8.55759462544802"><ele>280.0</ele><time>2026-04-25T08:36:27.001Z</time></trkpt><trkpt lat="40.470751630001004" lon="8.557796824707301"><ele>284.0</ele><time>2026-04-25T08:36:28.001Z</time></trkpt><trkpt lat="40.470727784424525" lon="8.557984477407365"><ele>290.33333333333337</ele><time>2026-04-25T08:36:29.001Z</time></trkpt><trkpt lat="40.47068504078415" lon="8.558176296493377"><ele>296.6666666666667</ele><time>2026-04-25T08:36:30.001Z</time></trkpt><trkpt lat="40.470598908303245" lon="8.558356118312169"><ele>303.0</ele><time>2026-04-25T08:36:31.001Z</time></trkpt><trkpt lat="40.47054253648962" lon="8.558561494423826"><ele>310.3333333333333</ele><time>2026-04-25T08:36:32.001Z</time></trkpt><trkpt lat="40.47049972411653" lon="8.5587785064414"><ele>317.66666666666663</ele><time>2026-04-25T08:36:33.001Z</time></trkpt><trkpt lat="40.470440359600545" lon="8.558980736992462"><ele>325.0</ele><time>2026-04-25T08:36:34.001Z</time></trkpt><trkpt lat="40.470384735466055" lon="8.559171742054913"><ele>316.25</ele><time>2026-04-25T08:36:35.001Z</time></trkpt><trkpt lat="40.47033643448354" lon="8.559355698475683"><ele>307.5</ele><time>2026-04-25T08:36:36.001Z</time></trkpt><trkpt lat="40.47027632971569" lon="8.559529380092274"><ele>298.75</ele><time>2026-04-25T08:36:37.001Z</time></trkpt><trkpt lat="40.47022997026687" lon="8.559714795144465"><ele>290.0</ele><time>2026-04-25T08:36:38.001Z</time></trkpt><trkpt lat="40.47019343918851" lon="8.559922843898692"><ele>290.0</ele><time>2026-04-25T08:36:39.001Z</time></trkpt><trkpt lat="40.47016386775789" lon="8.560105097548014"><ele>290.0</ele><time>2026-04-25T08:36:40.001Z</time></trkpt><trkpt lat="40.47012984110986" lon="8.560274139656897"><ele>290.0</ele><time>2026-04-25T08:36:41.001Z</time></trkpt><trkpt lat="40.47009286926025" lon="8.560423417404877"><ele>290.0</ele><time>2026-04-25T08:36:42.001Z</time></trkpt><trkpt lat="40.47004877379865" lon="8.56054873984976"><ele>292.6</ele><time>2026-04-25T08:36:43.001Z</time></trkpt><trkpt lat="40.470008729551665" lon="8.560673909137776"><ele>295.2</ele><time>2026-04-25T08:36:44.001Z</time></trkpt><trkpt lat="40.46994368644301" lon="8.560761624951699"><ele>297.8</ele><time>2026-04-25T08:36:45.001Z</time></trkpt><trkpt lat="40.469891242941536" lon="8.560838086229893"><ele>300.4</ele><time>2026-04-25T08:36:46.001Z</time></trkpt><trkpt lat="40.46985823302755" lon="8.560970910733566"><ele>303.0</ele><time>2026-04-25T08:36:48.001Z</time></trkpt><trkpt lat="40.4699251695538" lon="8.561035474912343"><ele>303.0</ele><time>2026-04-25T08:36:50.001Z</time></trkpt><trkpt lat="40.470032230782905" lon="8.560948132159828"><ele>303.0</ele><time>2026-04-25T08:36:52.001Z</time></trkpt><trkpt lat="40.470071614536266" lon="8.560837898139837"><ele>303.0</ele><time>2026-04-25T08:36:53.001Z</time></trkpt><trkpt lat="40.47012020653384" lon="8.560731327997887"><ele>303.0</ele><time>2026-04-25T08:36:54.001Z</time></trkpt><trkpt lat="40.47018325237997" lon="8.56060360925392"><ele>303.0</ele><time>2026-04-25T08:36:55.001Z</time></trkpt><trkpt lat="40.47024880513136" lon="8.560462431862028"><ele>299.75</ele><time>2026-04-25T08:36:56.001Z</time></trkpt><trkpt lat="40.47031520597637" lon="8.560317461149888"><ele>296.5</ele><time>2026-04-25T08:36:57.001Z</time></trkpt><trkpt lat="40.47037884755395" lon="8.560162198500699"><ele>293.25</ele><time>2026-04-25T08:36:58.001Z</time></trkpt><trkpt lat="40.470437838966006" lon="8.559993364172312"><ele>290.0</ele><time>2026-04-25T08:36:59.001Z</time></trkpt><trkpt lat="40.470485327967765" lon="8.55982554203644"><ele>297.0</ele><time>2026-04-25T08:37:00.001Z</time></trkpt><trkpt lat="40.47051931363697" lon="8.559680040885846"><ele>304.0</ele><time>2026-04-25T08:37:01.001Z</time></trkpt><trkpt lat="40.47057481787184" lon="8.559560477656566"><ele>311.0</ele><time>2026-04-25T08:37:02.001Z</time></trkpt><trkpt lat="40.470600150579344" lon="8.559438921865608"><ele>318.0</ele><time>2026-04-25T08:37:03.001Z</time></trkpt><trkpt lat="40.47061664839749" lon="8.559344109721195"><ele>325.0</ele><time>2026-04-25T08:37:04.002Z</time></trkpt><trkpt lat="40.47062652107443" lon="8.559218591462995"><ele>325.0</ele><time>2026-04-25T08:37:06.002Z</time></trkpt><trkpt lat="40.470695528602036" lon="8.559192960992798"><ele>325.0</ele><time>2026-04-25T08:37:09.002Z</time></trkpt><trkpt lat="40.470675606112444" lon="8.559358700797814"><ele>325.0</ele><time>2026-04-25T08:37:24.002Z</time></trkpt><trkpt lat="40.47063952448221" lon="8.55952507603168"><ele>325.0</ele><time>2026-04-25T08:37:25.002Z</time></trkpt><trkpt lat="40.47062743941521" lon="8.55964964493508"><ele>325.0</ele><time>2026-04-25T08:37:26.002Z</time></trkpt><trkpt lat="40.47059770742593" lon="8.559796252049276"><ele>329.0</ele><time>2026-04-25T08:37:27.002Z</time></trkpt><trkpt lat="40.47056559599887" lon="8.559950152876503"><ele>333.0</ele><time>2026-04-25T08:37:28.002Z</time></trkpt><trkpt lat="40.47054186323898" lon="8.560083562884628"><ele>337.0</ele><time>2026-04-25T08:37:29.002Z</time></trkpt><trkpt lat="40.47051156291709" lon="8.560243548136569"><ele>341.0</ele><time>2026-04-25T08:37:30.002Z</time></trkpt><trkpt lat="40.47048484134919" lon="8.560416483921182"><ele>343.5</ele><time>2026-04-25T08:37:31.002Z</time></trkpt><trkpt lat="40.47044303774939" lon="8.560553981269546"><ele>346.0</ele><time>2026-04-25T08:37:32.002Z</time></trkpt><trkpt lat="40.47042816498725" lon="8.560691931470776"><ele>348.5</ele><time>2026-04-25T08:37:33.002Z</time></trkpt><trkpt lat="40.470386351588374" lon="8.560839345339446"><ele>351.0</ele><time>2026-04-25T08:37:34.002Z</time></trkpt><trkpt lat="40.47034420887897" lon="8.560992289061707"><ele>343.5</ele><time>2026-04-25T08:37:35.002Z</time></trkpt><trkpt lat="40.470307723946455" lon="8.561129812986337"><ele>336.0</ele><time>2026-04-25T08:37:36.002Z</time></trkpt><trkpt lat="40.47027637827142" lon="8.561240189881472"><ele>328.5</ele><time>2026-04-25T08:37:37.002Z</time></trkpt><trkpt lat="40.47024507938037" lon="8.561332112240471"><ele>321.0</ele><time>2026-04-25T08:37:38.002Z</time></trkpt><trkpt lat="40.47021262823307" lon="8.561404105779408"><ele>313.5</ele><time>2026-04-25T08:37:39.002Z</time></trkpt><trkpt lat="40.470181862547406" lon="8.561516053484581"><ele>306.0</ele><time>2026-04-25T08:37:41.002Z</time></trkpt><trkpt lat="40.47022425498133" lon="8.561608378818594"><ele>306.0</ele><time>2026-04-25T08:37:43.002Z</time></trkpt><trkpt lat="40.470316482550885" lon="8.561587064402188"><ele>306.0</ele><time>2026-04-25T08:37:45.002Z</time></trkpt><trkpt lat="40.47034582270734" lon="8.561502161786242"><ele>306.0</ele><time>2026-04-25T08:37:46.002Z</time></trkpt><trkpt lat="40.47035043782468" lon="8.561389972060782"><ele>306.0</ele><time>2026-04-25T08:37:47.002Z</time></trkpt><trkpt lat="40.47037491203847" lon="8.561274848903793"><ele>306.0</ele><time>2026-04-25T08:37:48.002Z</time></trkpt><trkpt lat="40.47041815109537" lon="8.56117048158409"><ele>306.0</ele><time>2026-04-25T08:37:49.002Z</time></trkpt><trkpt lat="40.47046812371289" lon="8.561066133140999"><ele>317.25</ele><time>2026-04-25T08:37:50.003Z</time></trkpt><trkpt lat="40.470526484083" lon="8.560943808423453"><ele>328.5</ele><time>2026-04-25T08:37:51.003Z</time></trkpt><trkpt lat="40.47058166171549" lon="8.560797398334751"><ele>339.75</ele><time>2026-04-25T08:37:52.003Z</time></trkpt><trkpt lat="40.47062605087413" lon="8.560657047141321"><ele>351.0</ele><time>2026-04-25T08:37:53.003Z</time></trkpt><trkpt lat="40.470657581552395" lon="8.560507519239504"><ele>349.0</ele><time>2026-04-25T08:37:54Z</time></trkpt><trkpt lat="40.470686272153046" lon="8.56035406536198"><ele>347.0</ele><time>2026-04-25T08:37:55Z</time></trkpt><trkpt lat="40.47072636277214" lon="8.560207231138854"><ele>345.0</ele><time>2026-04-25T08:37:56Z</time></trkpt><trkpt lat="40.47077571099774" lon="8.560079788651114"><ele>343.0</ele><time>2026-04-25T08:37:57Z</time></trkpt><trkpt lat="40.470816111331644" lon="8.559975227334311"><ele>341.0</ele><time>2026-04-25T08:37:58Z</time></trkpt><trkpt lat="40.47085481217456" lon="8.559878068819364"><ele>341.0</ele><time>2026-04-25T08:37:59Z</time></trkpt><trkpt lat="40.4708912677762" lon="8.559782517464953"><ele>341.0</ele><time>2026-04-25T08:38:00Z</time></trkpt><trkpt lat="40.470932426263985" lon="8.559663310774663"><ele>341.0</ele><time>2026-04-25T08:38:01Z</time></trkpt><trkpt lat="40.47098216386189" lon="8.559535399713178"><ele>341.0</ele><time>2026-04-25T08:38:02Z</time></trkpt><trkpt lat="40.47101723443342" lon="8.55940615902091"><ele>341.0</ele><time>2026-04-25T08:38:03Z</time></trkpt><trkpt lat="40.471034182371554" lon="8.55928922348775"><ele>337.8</ele><time>2026-04-25T08:38:04Z</time></trkpt><trkpt lat="40.47103715794069" lon="8.559191883673371"><ele>334.6</ele><time>2026-04-25T08:38:05Z</time></trkpt><trkpt lat="40.471089551007545" lon="8.55907358835427"><ele>331.4</ele><time>2026-04-25T08:38:07Z</time></trkpt><trkpt lat="40.471165950993715" lon="8.559044754300176"><ele>328.2</ele><time>2026-04-25T08:38:10Z</time></trkpt><trkpt lat="40.4711696194949" lon="8.559296094618704"><ele>325.0</ele><time>2026-04-25T08:38:24.001Z</time></trkpt><trkpt lat="40.47108287787442" lon="8.559393965826398"><ele>325.0</ele><time>2026-04-25T08:38:25.001Z</time></trkpt><trkpt lat="40.471062498240194" lon="8.559503310695343"><ele>325.0</ele><time>2026-04-25T08:38:26.001Z</time></trkpt><trkpt lat="40.47103915715657" lon="8.559639927004431"><ele>325.0</ele><time>2026-04-25T08:38:27.001Z</time></trkpt><trkpt lat="40.471031526967046" lon="8.559805805274012"><ele>325.0</ele><time>2026-04-25T08:38:28.001Z</time></trkpt><trkpt lat="40.471003490057214" lon="8.5599696105711"><ele>325.0</ele><time>2026-04-25T08:38:29.001Z</time></trkpt><trkpt lat="40.47097477200518" lon="8.560145951564436"><ele>329.0</ele><time>2026-04-25T08:38:30.001Z</time></trkpt><trkpt lat="40.470937932210816" lon="8.560341137807187"><ele>333.0</ele><time>2026-04-25T08:38:31.001Z</time></trkpt><trkpt lat="40.47089745119465" lon="8.560531952357746"><ele>337.0</ele><time>2026-04-25T08:38:32.001Z</time></trkpt><trkpt lat="40.470857388023575" lon="8.560712325836557"><ele>341.0</ele><time>2026-04-25T08:38:33.001Z</time></trkpt><trkpt lat="40.47082618108527" lon="8.56087713409606"><ele>341.83333333333337</ele><time>2026-04-25T08:38:34.001Z</time></trkpt><trkpt lat="40.4707949698127" lon="8.561021171067045"><ele>342.6666666666667</ele><time>2026-04-25T08:38:35.001Z</time></trkpt><trkpt lat="40.47077173570091" lon="8.561153869391946"><ele>343.5</ele><time>2026-04-25T08:38:36.001Z</time></trkpt><trkpt lat="40.47076258586706" lon="8.561269751726448"><ele>344.3333333333333</ele><time>2026-04-25T08:38:37.001Z</time></trkpt><trkpt lat="40.470773683066184" lon="8.56136728467382"><ele>345.16666666666663</ele><time>2026-04-25T08:38:38.001Z</time></trkpt><trkpt lat="40.470806956516796" lon="8.561440565942583"><ele>346.0</ele><time>2026-04-25T08:38:39.001Z</time></trkpt><trkpt lat="40.470868174685876" lon="8.561505750663862"><ele>346.0</ele><time>2026-04-25T08:38:40.001Z</time></trkpt><trkpt lat="40.4709524765304" lon="8.56157091819754"><ele>346.0</ele><time>2026-04-25T08:38:41.001Z</time></trkpt><trkpt lat="40.4710258219297" lon="8.56163204260174"><ele>346.0</ele><time>2026-04-25T08:38:42.001Z</time></trkpt><trkpt lat="40.47108345045357" lon="8.561676061888141"><ele>346.0</ele><time>2026-04-25T08:38:43.001Z</time></trkpt><trkpt lat="40.47118228295569" lon="8.561705210423733"><ele>346.0</ele><time>2026-04-25T08:38:45.001Z</time></trkpt><trkpt lat="40.471258747226734" lon="8.561678566776202"><ele>346.0</ele><time>2026-04-25T08:38:47.001Z</time></trkpt><trkpt lat="40.471323418714576" lon="8.561593520721727"><ele>350.8</ele><time>2026-04-25T08:38:49.001Z</time></trkpt><trkpt lat="40.47133380903947" lon="8.561449013069812"><ele>355.6</ele><time>2026-04-25T08:38:51.001Z</time></trkpt><trkpt lat="40.47132912996595" lon="8.561271325954634"><ele>360.4</ele><time>2026-04-25T08:38:53.001Z</time></trkpt><trkpt lat="40.471334928786405" lon="8.561166167679279"><ele>365.2</ele><time>2026-04-25T08:38:54.001Z</time></trkpt><trkpt lat="40.47133745694501" lon="8.56106807454366"><ele>370.0</ele><time>2026-04-25T08:38:55.001Z</time></trkpt><trkpt lat="40.47133761303459" lon="8.560960506747401"><ele>370.5</ele><time>2026-04-25T08:38:56.001Z</time></trkpt><trkpt lat="40.47133488403278" lon="8.560852428317643"><ele>371.0</ele><time>2026-04-25T08:38:57.001Z</time></trkpt><trkpt lat="40.47133068382405" lon="8.560747402569207"><ele>371.5</ele><time>2026-04-25T08:38:58.001Z</time></trkpt><trkpt lat="40.47133302140419" lon="8.560648751236835"><ele>372.0</ele><time>2026-04-25T08:38:59.001Z</time></trkpt><trkpt lat="40.47134671520634" lon="8.560556300448745"><ele>372.5</ele><time>2026-04-25T08:39:00.001Z</time></trkpt><trkpt lat="40.47137695074088" lon="8.560468917433"><ele>373.0</ele><time>2026-04-25T08:39:01.001Z</time></trkpt><trkpt lat="40.47141450830514" lon="8.560371735504864"><ele>373.0</ele><time>2026-04-25T08:39:02.001Z</time></trkpt><trkpt lat="40.471448038269756" lon="8.560266477528904"><ele>373.0</ele><time>2026-04-25T08:39:03.001Z</time></trkpt><trkpt lat="40.471481179134884" lon="8.56015580757293"><ele>373.0</ele><time>2026-04-25T08:39:04.001Z</time></trkpt><trkpt lat="40.47151149150562" lon="8.56006086183503"><ele>373.0</ele><time>2026-04-25T08:39:05.002Z</time></trkpt><trkpt lat="40.471542157435216" lon="8.559978740879442"><ele>373.0</ele><time>2026-04-25T08:39:06.002Z</time></trkpt><trkpt lat="40.471584209856985" lon="8.559871043984117"><ele>373.0</ele><time>2026-04-25T08:39:08.002Z</time></trkpt><trkpt lat="40.47164227986955" lon="8.55974926105414"><ele>373.0</ele><time>2026-04-25T08:39:11.002Z</time></trkpt><trkpt lat="40.471664112806735" lon="8.559653775572594"><ele>373.0</ele><time>2026-04-25T08:39:12.002Z</time></trkpt><trkpt lat="40.47170355825392" lon="8.559510391222164"><ele>373.0</ele><time>2026-04-25T08:39:14.002Z</time></trkpt><trkpt lat="40.47173449676704" lon="8.559405320154072"><ele>373.0</ele><time>2026-04-25T08:39:16.002Z</time></trkpt><trkpt lat="40.4717853585338" lon="8.559337575054347"><ele>373.0</ele><time>2026-04-25T08:39:18.002Z</time></trkpt><trkpt lat="40.47189367508106" lon="8.55942693357007"><ele>373.0</ele><time>2026-04-25T08:39:22.002Z</time></trkpt><trkpt lat="40.47195440448924" lon="8.559534012731973"><ele>373.0</ele><time>2026-04-25T08:39:24.002Z</time></trkpt><trkpt lat="40.47192230500289" lon="8.559662651440899"><ele>373.0</ele><time>2026-04-25T08:39:26.002Z</time></trkpt><trkpt lat="40.47188640084921" lon="8.559816562658488"><ele>373.0</ele><time>2026-04-25T08:39:28.002Z</time></trkpt><trkpt lat="40.47185763591307" lon="8.559912522848851"><ele>373.0</ele><time>2026-04-25T08:39:30.002Z</time></trkpt><trkpt lat="40.4718674202988" lon="8.560011593999567"><ele>373.0</ele><time>2026-04-25T08:39:32.002Z</time></trkpt><trkpt lat="40.47194215068669" lon="8.560157306688344"><ele>373.0</ele><time>2026-04-25T08:39:34.002Z</time></trkpt><trkpt lat="40.47200490640347" lon="8.560177499541261"><ele>373.0</ele><time>2026-04-25T08:39:35.002Z</time></trkpt><trkpt lat="40.47209233464" lon="8.560212764957992"><ele>373.0</ele><time>2026-04-25T08:39:37.002Z</time></trkpt><trkpt lat="40.47221840288598" lon="8.560164093545353"><ele>373.0</ele><time>2026-04-25T08:39:39.002Z</time></trkpt><trkpt lat="40.47229012769167" lon="8.560117631798471"><ele>374.5</ele><time>2026-04-25T08:39:40.002Z</time></trkpt><trkpt lat="40.472360414278874" lon="8.560076955871631"><ele>376.0</ele><time>2026-04-25T08:39:41.002Z</time></trkpt><trkpt lat="40.47243614042595" lon="8.560033016425248"><ele>377.5</ele><time>2026-04-25T08:39:42.002Z</time></trkpt><trkpt lat="40.47250578565007" lon="8.559998499569524"><ele>379.0</ele><time>2026-04-25T08:39:43.002Z</time></trkpt><trkpt lat="40.47257079891486" lon="8.55996877646698"><ele>380.5</ele><time>2026-04-25T08:39:44.002Z</time></trkpt><trkpt lat="40.47263111402146" lon="8.559939910184028"><ele>382.0</ele><time>2026-04-25T08:39:45.002Z</time></trkpt><trkpt lat="40.47273424916311" lon="8.559930336090023"><ele>382.0</ele><time>2026-04-25T08:39:47.002Z</time></trkpt><trkpt lat="40.472821535388576" lon="8.55998207787051"><ele>382.0</ele><time>2026-04-25T08:39:49.003Z</time></trkpt><trkpt lat="40.472894569407465" lon="8.560071617324548"><ele>382.0</ele><time>2026-04-25T08:39:51.003Z</time></trkpt><trkpt lat="40.472859513533415" lon="8.560195413995858"><ele>382.0</ele><time>2026-04-25T08:39:53.003Z</time></trkpt><trkpt lat="40.472856246304914" lon="8.560283674515077"><ele>382.0</ele><time>2026-04-25T08:39:55.003Z</time></trkpt><trkpt lat="40.472851934573036" lon="8.56040013480062"><ele>382.20000000000005</ele><time>2026-04-25T08:40:11Z</time></trkpt><trkpt lat="40.47285103668412" lon="8.560553117535273"><ele>382.4</ele><time>2026-04-25T08:40:13Z</time></trkpt><trkpt lat="40.472839110337596" lon="8.56067761897558"><ele>382.6</ele><time>2026-04-25T08:40:15Z</time></trkpt><trkpt lat="40.47284246113419" lon="8.560785832459088"><ele>382.79999999999995</ele><time>2026-04-25T08:40:17Z</time></trkpt><trkpt lat="40.47284534656222" lon="8.560896095301436"><ele>383.0</ele><time>2026-04-25T08:40:19Z</time></trkpt><trkpt lat="40.47284565476379" lon="8.56100904275199"><ele>383.0</ele><time>2026-04-25T08:40:21Z</time></trkpt><trkpt lat="40.47285118375543" lon="8.56111795099288"><ele>383.0</ele><time>2026-04-25T08:40:23Z</time></trkpt><trkpt lat="40.47284425236571" lon="8.561238487012417"><ele>383.0</ele><time>2026-04-25T08:40:25.001Z</time></trkpt><trkpt lat="40.47279504537016" lon="8.56135915569836"><ele>383.0</ele><time>2026-04-25T08:40:27.001Z</time></trkpt><trkpt lat="40.47274500193527" lon="8.561470315692125"><ele>383.0</ele><time>2026-04-25T08:40:29.001Z</time></trkpt><trkpt lat="40.47268683789899" lon="8.561572586089062"><ele>382.4</ele><time>2026-04-25T08:40:31.001Z</time></trkpt><trkpt lat="40.47260603731725" lon="8.561648050291309"><ele>381.79999999999995</ele><time>2026-04-25T08:40:33.001Z</time></trkpt><trkpt lat="40.472540136443534" lon="8.561706818731446"><ele>381.2</ele><time>2026-04-25T08:40:35.001Z</time></trkpt><trkpt lat="40.4724864565127" lon="8.5617622655001"><ele>380.6</ele><time>2026-04-25T08:40:39.001Z</time></trkpt><trkpt lat="40.47257992680188" lon="8.561945953283836"><ele>380.0</ele><time>2026-04-25T08:40:42.001Z</time></trkpt><trkpt lat="40.47265380793415" lon="8.562006904350078"><ele>380.0</ele><time>2026-04-25T08:40:45.001Z</time></trkpt><trkpt lat="40.47272354317507" lon="8.562084208037946"><ele>380.0</ele><time>2026-04-25T08:40:48.001Z</time></trkpt><trkpt lat="40.47277808708354" lon="8.562149108431775"><ele>380.0</ele><time>2026-04-25T08:40:50.001Z</time></trkpt><trkpt lat="40.472827778315924" lon="8.5622390279343"><ele>380.0</ele><time>2026-04-25T08:40:52.001Z</time></trkpt><trkpt lat="40.47287789796514" lon="8.562332407966652"><ele>380.0</ele><time>2026-04-25T08:40:54.001Z</time></trkpt><trkpt lat="40.47293448078108" lon="8.562420746746726"><ele>380.0</ele><time>2026-04-25T08:40:56.001Z</time></trkpt><trkpt lat="40.47299870266527" lon="8.562486706465162"><ele>380.0</ele><time>2026-04-25T08:40:58.001Z</time></trkpt><trkpt lat="40.47306998522039" lon="8.562535687822677"><ele>380.0</ele><time>2026-04-25T08:41:00.001Z</time></trkpt><trkpt lat="40.47314786914004" lon="8.562578494600228"><ele>380.0</ele><time>2026-04-25T08:41:02.001Z</time></trkpt><trkpt lat="40.473235071369686" lon="8.562622290174524"><ele>380.0</ele><time>2026-04-25T08:41:04.001Z</time></trkpt><trkpt lat="40.473314467295644" lon="8.562663554038737"><ele>380.0</ele><time>2026-04-25T08:41:06.001Z</time></trkpt><trkpt lat="40.473390784606146" lon="8.562705206326731"><ele>380.0</ele><time>2026-04-25T08:41:08.002Z</time></trkpt><trkpt lat="40.473467354584244" lon="8.562744949347508"><ele>380.0</ele><time>2026-04-25T08:41:10.002Z</time></trkpt><trkpt lat="40.47355968795283" lon="8.562762600439571"><ele>380.0</ele><time>2026-04-25T08:41:12.002Z</time></trkpt><trkpt lat="40.4736623015889" lon="8.562756172717597"><ele>380.0</ele><time>2026-04-25T08:41:14.002Z</time></trkpt><trkpt lat="40.47376148945887" lon="8.562726499276856"><ele>380.0</ele><time>2026-04-25T08:41:16.002Z</time></trkpt><trkpt lat="40.47383975400019" lon="8.562696139954648"><ele>380.0</ele><time>2026-04-25T08:41:18.002Z</time></trkpt><trkpt lat="40.4739209974672" lon="8.562700610416401"><ele>379.1666666666667</ele><time>2026-04-25T08:41:20.002Z</time></trkpt><trkpt lat="40.47400412858711" lon="8.562681515696362"><ele>378.33333333333337</ele><time>2026-04-25T08:41:22.002Z</time></trkpt><trkpt lat="40.47408023046503" lon="8.562646327820213"><ele>377.5</ele><time>2026-04-25T08:41:24.002Z</time></trkpt><trkpt lat="40.47414859131002" lon="8.562591113367217"><ele>376.6666666666667</ele><time>2026-04-25T08:41:26.002Z</time></trkpt><trkpt lat="40.47420104254676" lon="8.56250643402209"><ele>375.8333333333333</ele><time>2026-04-25T08:41:28.002Z</time></trkpt><trkpt lat="40.47421665739984" lon="8.562405081306173"><ele>375.0</ele><time>2026-04-25T08:41:29.002Z</time></trkpt><trkpt lat="40.47423596052988" lon="8.56229178919583"><ele>375.0</ele><time>2026-04-25T08:41:30.002Z</time></trkpt><trkpt lat="40.47425845734102" lon="8.562180755690479"><ele>375.0</ele><time>2026-04-25T08:41:31.002Z</time></trkpt><trkpt lat="40.47427978475033" lon="8.562063909188234"><ele>375.0</ele><time>2026-04-25T08:41:32.002Z</time></trkpt><trkpt lat="40.47430091381463" lon="8.561947165786078"><ele>375.0</ele><time>2026-04-25T08:41:33.002Z</time></trkpt><trkpt lat="40.474324025180024" lon="8.561838850628003"><ele>375.0</ele><time>2026-04-25T08:41:34.002Z</time></trkpt><trkpt lat="40.474350095792275" lon="8.561739651670694"><ele>375.0</ele><time>2026-04-25T08:41:35.002Z</time></trkpt><trkpt lat="40.47437198042038" lon="8.561647625531956"><ele>378.5</ele><time>2026-04-25T08:41:36.002Z</time></trkpt><trkpt lat="40.474438100783495" lon="8.561525719480635"><ele>382.0</ele><time>2026-04-25T08:41:38.002Z</time></trkpt><trkpt lat="40.474485868130174" lon="8.561468632863077"><ele>385.5</ele><time>2026-04-25T08:41:39.002Z</time></trkpt><trkpt lat="40.474544322762306" lon="8.561414531687626"><ele>389.0</ele><time>2026-04-25T08:41:40.002Z</time></trkpt><trkpt lat="40.474615976047176" lon="8.56137819586028"><ele>392.5</ele><time>2026-04-25T08:41:41.002Z</time></trkpt><trkpt lat="40.47469197542307" lon="8.561353448057039"><ele>396.0</ele><time>2026-04-25T08:41:42.002Z</time></trkpt><trkpt lat="40.47476414557131" lon="8.561337345338636"><ele>396.6666666666667</ele><time>2026-04-25T08:41:43.002Z</time></trkpt><trkpt lat="40.47482952355166" lon="8.561327906636725"><ele>397.33333333333337</ele><time>2026-04-25T08:41:44.002Z</time></trkpt><trkpt lat="40.47489338345479" lon="8.561328573664419"><ele>398.0</ele><time>2026-04-25T08:41:45.002Z</time></trkpt><trkpt lat="40.474995748021435" lon="8.561330141420742"><ele>398.6666666666667</ele><time>2026-04-25T08:41:47.002Z</time></trkpt><trkpt lat="40.475089733314256" lon="8.561303651103806"><ele>399.33333333333337</ele><time>2026-04-25T08:41:49.002Z</time></trkpt><trkpt lat="40.475180812995085" lon="8.561260334565935"><ele>400.0</ele><time>2026-04-25T08:41:51.003Z</time></trkpt><trkpt lat="40.475277066771504" lon="8.561218439341642"><ele>402.2</ele><time>2026-04-25T08:41:53.003Z</time></trkpt><trkpt lat="40.47537728293946" lon="8.561184362709017"><ele>404.4</ele><time>2026-04-25T08:41:55.003Z</time></trkpt><trkpt lat="40.475480504340666" lon="8.56115533837286"><ele>406.6</ele><time>2026-04-25T08:41:57.003Z</time></trkpt><trkpt lat="40.475583166141035" lon="8.561125705237163"><ele>408.8</ele><time>2026-04-25T08:41:59.003Z</time></trkpt><trkpt lat="40.47568267237085" lon="8.56109560423784"><ele>411.0</ele><time>2026-04-25T08:42:01.003Z</time></trkpt><trkpt lat="40.47578381979435" lon="8.56105692638943"><ele>411.6</ele><time>2026-04-25T08:42:03.003Z</time></trkpt><trkpt lat="40.47587841318221" lon="8.5609871314481"><ele>412.20000000000005</ele><time>2026-04-25T08:42:05.003Z</time></trkpt><trkpt lat="40.47595573186371" lon="8.560895992281326"><ele>412.79999999999995</ele><time>2026-04-25T08:42:07Z</time></trkpt><trkpt lat="40.47602092430305" lon="8.560794137784567"><ele>413.4</ele><time>2026-04-25T08:42:09Z</time></trkpt><trkpt lat="40.47607777167342" lon="8.560699144429444"><ele>414.0</ele><time>2026-04-25T08:42:11Z</time></trkpt><trkpt lat="40.476128896513984" lon="8.560608932414086"><ele>414.0</ele><time>2026-04-25T08:42:13Z</time></trkpt><trkpt lat="40.47618408635014" lon="8.560524140655076"><ele>414.0</ele><time>2026-04-25T08:42:15Z</time></trkpt><trkpt lat="40.476237485971716" lon="8.560434028322275"><ele>414.0</ele><time>2026-04-25T08:42:17Z</time></trkpt><trkpt lat="40.476294290428" lon="8.560348725155391"><ele>414.0</ele><time>2026-04-25T08:42:19Z</time></trkpt><trkpt lat="40.47634330202466" lon="8.560269850742113"><ele>414.0</ele><time>2026-04-25T08:42:21Z</time></trkpt><trkpt lat="40.47638299099343" lon="8.560205138961836"><ele>414.0</ele><time>2026-04-25T08:42:23Z</time></trkpt><trkpt lat="40.47643081685362" lon="8.560131615022376"><ele>410.5</ele><time>2026-04-25T08:42:26.001Z</time></trkpt><trkpt lat="40.476472910389916" lon="8.560056025947393"><ele>407.0</ele><time>2026-04-25T08:42:29.001Z</time></trkpt><trkpt lat="40.476508678826264" lon="8.559982589010094"><ele>403.5</ele><time>2026-04-25T08:42:31.001Z</time></trkpt><trkpt lat="40.47653872615805" lon="8.559898496463848"><ele>400.0</ele><time>2026-04-25T08:42:33.001Z</time></trkpt><trkpt lat="40.476562105196415" lon="8.559820769047525"><ele>396.5</ele><time>2026-04-25T08:42:35.001Z</time></trkpt><trkpt lat="40.47658142855024" lon="8.55971958408125"><ele>393.0</ele><time>2026-04-25T08:42:37.001Z</time></trkpt><trkpt lat="40.47659382258353" lon="8.559587809614012"><ele>393.5</ele><time>2026-04-25T08:42:39.001Z</time></trkpt><trkpt lat="40.47660076375903" lon="8.559469630064367"><ele>394.0</ele><time>2026-04-25T08:42:41.001Z</time></trkpt><trkpt lat="40.476599800111366" lon="8.559350901191953"><ele>394.5</ele><time>2026-04-25T08:42:43.001Z</time></trkpt><trkpt lat="40.47659350601776" lon="8.559232959459743"><ele>395.0</ele><time>2026-04-25T08:42:45.001Z</time></trkpt><trkpt lat="40.47659281200103" lon="8.55911811797828"><ele>395.5</ele><time>2026-04-25T08:42:47.001Z</time></trkpt><trkpt lat="40.47658407339886" lon="8.559003548873292"><ele>396.0</ele><time>2026-04-25T08:42:49.001Z</time></trkpt><trkpt lat="40.47657156904888" lon="8.558885429762363"><ele>396.0</ele><time>2026-04-25T08:42:51.001Z</time></trkpt><trkpt lat="40.4765583506346" lon="8.558762321487434"><ele>396.0</ele><time>2026-04-25T08:42:53.001Z</time></trkpt><trkpt lat="40.47653277010475" lon="8.558613060537585"><ele>396.0</ele><time>2026-04-25T08:42:55.001Z</time></trkpt><trkpt lat="40.47653121147187" lon="8.558519721160595"><ele>396.0</ele><time>2026-04-25T08:42:56.001Z</time></trkpt><trkpt lat="40.47648950201056" lon="8.558434247015192"><ele>396.0</ele><time>2026-04-25T08:42:57.001Z</time></trkpt><trkpt lat="40.47646462099268" lon="8.558353465725963"><ele>396.0</ele><time>2026-04-25T08:42:58.001Z</time></trkpt><trkpt lat="40.47641403120187" lon="8.558219112492143"><ele>395.8</ele><time>2026-04-25T08:43:00.001Z</time></trkpt><trkpt lat="40.4763756857704" lon="8.558098999482613"><ele>395.6</ele><time>2026-04-25T08:43:02.001Z</time></trkpt><trkpt lat="40.47632563493903" lon="8.558003808021489"><ele>395.4</ele><time>2026-04-25T08:43:04.001Z</time></trkpt><trkpt lat="40.47625400416461" lon="8.557906055100815"><ele>395.2</ele><time>2026-04-25T08:43:06.001Z</time></trkpt><trkpt lat="40.47616218201785" lon="8.557820457392921"><ele>395.0</ele><time>2026-04-25T08:43:08.002Z</time></trkpt><trkpt lat="40.47606618140507" lon="8.557745344340908"><ele>394.99999999999994</ele><time>2026-04-25T08:43:10.002Z</time></trkpt><trkpt lat="40.475991210063874" lon="8.557696153450786"><ele>395.0</ele><time>2026-04-25T08:43:12.002Z</time></trkpt><trkpt lat="40.475902168254436" lon="8.557642122276638"><ele>395.0</ele><time>2026-04-25T08:43:14.002Z</time></trkpt><trkpt lat="40.47582329132414" lon="8.557595843054179"><ele>395.0</ele><time>2026-04-25T08:43:16.002Z</time></trkpt><trkpt lat="40.47575824363069" lon="8.557557043144989"><ele>394.99999999999994</ele><time>2026-04-25T08:43:18.002Z</time></trkpt><trkpt lat="40.47570104938701" lon="8.557520981317987"><ele>395.0</ele><time>2026-04-25T08:43:20.002Z</time></trkpt><trkpt lat="40.475631846009584" lon="8.557456713737539"><ele>394.99999999999994</ele><time>2026-04-25T08:43:24.002Z</time></trkpt><trkpt lat="40.47558286265542" lon="8.557403253618837"><ele>395.0</ele><time>2026-04-25T08:43:26.002Z</time></trkpt><trkpt lat="40.475516568349214" lon="8.55733507124981"><ele>395.0</ele><time>2026-04-25T08:43:28.002Z</time></trkpt><trkpt lat="40.47543885611163" lon="8.557263242346366"><ele>395.0</ele><time>2026-04-25T08:43:30.002Z</time></trkpt><trkpt lat="40.475364232242235" lon="8.557202020905759"><ele>394.99999999999994</ele><time>2026-04-25T08:43:32.002Z</time></trkpt><trkpt lat="40.47530062964459" lon="8.557158381867533"><ele>395.0</ele><time>2026-04-25T08:43:34.002Z</time></trkpt><trkpt lat="40.47522109257709" lon="8.557132004152015"><ele>395.16666666666663</ele><time>2026-04-25T08:43:37.002Z</time></trkpt><trkpt lat="40.47515338581929" lon="8.557147598903377"><ele>395.3333333333333</ele><time>2026-04-25T08:43:45.002Z</time></trkpt><trkpt lat="40.47509073358148" lon="8.557243042522117"><ele>395.5</ele><time>2026-04-25T08:45:25.002Z</time></trkpt><trkpt lat="40.475032407738034" lon="8.557297850169759"><ele>395.66666666666663</ele><time>2026-04-25T08:45:27.002Z</time></trkpt><trkpt lat="40.474950405644336" lon="8.557369647345581"><ele>395.8333333333333</ele><time>2026-04-25T08:45:29.002Z</time></trkpt><trkpt lat="40.47486592061137" lon="8.557437376498093"><ele>396.0</ele><time>2026-04-25T08:45:31.002Z</time></trkpt><trkpt lat="40.47478611773432" lon="8.557498377277176"><ele>396.0</ele><time>2026-04-25T08:45:33.002Z</time></trkpt><trkpt lat="40.474691443783954" lon="8.557570745408926"><ele>396.0</ele><time>2026-04-25T08:45:35.002Z</time></trkpt><trkpt lat="40.47459312669136" lon="8.557645898336935"><ele>396.0</ele><time>2026-04-25T08:45:37.002Z</time></trkpt><trkpt lat="40.47450822108506" lon="8.557712099360693"><ele>396.0</ele><time>2026-04-25T08:45:39.002Z</time></trkpt><trkpt lat="40.47443456784538" lon="8.557776725139547"><ele>396.0</ele><time>2026-04-25T08:45:41.002Z</time></trkpt><trkpt lat="40.47437620110648" lon="8.557840663043677"><ele>395.5</ele><time>2026-04-25T08:45:43.002Z</time></trkpt><trkpt lat="40.47430827315268" lon="8.557928184741941"><ele>395.0</ele><time>2026-04-25T08:45:46.002Z</time></trkpt><trkpt lat="40.47427514576469" lon="8.558008269287287"><ele>394.5</ele><time>2026-04-25T08:45:48.002Z</time></trkpt><trkpt lat="40.47422485916879" lon="8.558082448894728"><ele>394.0</ele><time>2026-04-25T08:45:50.002Z</time></trkpt><trkpt lat="40.474187976763936" lon="8.558160845375014"><ele>393.5</ele><time>2026-04-25T08:45:52.002Z</time></trkpt><trkpt lat="40.47413073583059" lon="8.558232455511101"><ele>393.0</ele><time>2026-04-25T08:45:55.002Z</time></trkpt><trkpt lat="40.47408442988726" lon="8.558292211544869"><ele>393.00000000000006</ele><time>2026-04-25T08:46:05.003Z</time></trkpt><trkpt lat="40.47402941823503" lon="8.558351317769185"><ele>393.0</ele><time>2026-04-25T08:47:05.001Z</time></trkpt><trkpt lat="40.473971325997425" lon="8.558410861824061"><ele>393.0</ele><time>2026-04-25T08:47:10.001Z</time></trkpt><trkpt lat="40.473921097652216" lon="8.558465850369009"><ele>393.0</ele><time>2026-04-25T08:47:23.002Z</time></trkpt><trkpt lat="40.47387001742652" lon="8.558522015837166"><ele>393.0</ele><time>2026-04-25T08:47:27.002Z</time></trkpt><trkpt lat="40.47381520894201" lon="8.5585823000019"><ele>393.00000000000006</ele><time>2026-04-25T08:47:30.002Z</time></trkpt><trkpt lat="40.47376757817455" lon="8.558636466674336"><ele>393.0</ele><time>2026-04-25T08:47:33.002Z</time></trkpt><trkpt lat="40.47371323919935" lon="8.558698439721217"><ele>370.0</ele><time>2026-04-25T08:47:37.002Z</time></trkpt><trkpt lat="40.473649679255544" lon="8.558766884917468"><ele>380.0</ele><time>2026-04-25T08:47:41.002Z</time></trkpt><trkpt lat="40.473598478267945" lon="8.558816386610298"><ele>380.0</ele><time>2026-04-25T08:47:44.002Z</time></trkpt><trkpt lat="40.473557416794954" lon="8.558881285915682"><ele>380.0</ele><time>2026-04-25T08:48:01.003Z</time></trkpt></trkseg></trk></gpx>